<?xml version='1.0' encoding='UTF-8'?><gpx version="1.1" creator="JPX - https://github.com/jenetics/jpx" xmlns="http://www.topografix.com/GPX/1/1"><trk><trkseg><trkpt lat="45.7180551" lon="9.8766871"><ele>345.0</ele><time>2026-05-03T06:34:45.821Z</time></trkpt><trkpt lat="45.7179691" lon="9.8767188"><ele>345.0</ele><time>2026-05-03T06:34:55.829Z</time></trkpt><trkpt lat="45.7179773" lon="9.8768143"><ele>345.0</ele><time>2026-05-03T06:36:18.966Z</time></trkpt><trkpt lat="45.7179637" lon="9.8769048"><ele>345.0</ele><time>2026-05-03T06:36:21.981Z</time></trkpt><trkpt lat="45.717954" lon="9.8770277"><ele>345.0</ele><time>2026-05-03T06:36:24.974Z</time></trkpt><trkpt lat="45.7179397" lon="9.8771227"><ele>345.0</ele><time>2026-05-03T06:36:26.954Z</time></trkpt><trkpt lat="45.7179204" lon="9.8772225"><ele>345.0</ele><time>2026-05-03T06:36:28.967Z</time></trkpt><trkpt lat="45.7179016" lon="9.8773158"><ele>345.5</ele><time>2026-05-03T06:36:30.964Z</time></trkpt><trkpt lat="45.7178762" lon="9.8773999"><ele>346.0</ele><time>2026-05-03T06:36:32.95Z</time></trkpt><trkpt lat="45.7178231" lon="9.8774623"><ele>346.5</ele><time>2026-05-03T06:36:34.972Z</time></trkpt><trkpt lat="45.7177702" lon="9.8775483"><ele>347.0</ele><time>2026-05-03T06:36:36.961Z</time></trkpt><trkpt lat="45.7177031" lon="9.8776635"><ele>347.5</ele><time>2026-05-03T06:36:38.951Z</time></trkpt><trkpt lat="45.7176576" lon="9.8777411"><ele>348.0</ele><time>2026-05-03T06:36:39.968Z</time></trkpt><trkpt lat="45.7176115" lon="9.8778219"><ele>345.1666666666667</ele><time>2026-05-03T06:36:40.96Z</time></trkpt><trkpt lat="45.7175643" lon="9.8779035"><ele>342.3333333333333</ele><time>2026-05-03T06:36:41.959Z</time></trkpt><trkpt lat="45.7175221" lon="9.8779867"><ele>339.5</ele><time>2026-05-03T06:36:42.969Z</time></trkpt><trkpt lat="45.7174706" lon="9.8780705"><ele>336.66666666666663</ele><time>2026-05-03T06:36:43.968Z</time></trkpt><trkpt lat="45.7174186" lon="9.8781628"><ele>333.8333333333333</ele><time>2026-05-03T06:36:44.969Z</time></trkpt><trkpt lat="45.7173657" lon="9.8782614"><ele>331.0</ele><time>2026-05-03T06:36:45.973Z</time></trkpt><trkpt lat="45.7173161" lon="9.8783797"><ele>332.0</ele><time>2026-05-03T06:36:46.954Z</time></trkpt><trkpt lat="45.717273" lon="9.8784862"><ele>333.0</ele><time>2026-05-03T06:36:47.965Z</time></trkpt><trkpt lat="45.717235" lon="9.8785971"><ele>334.0</ele><time>2026-05-03T06:36:48.973Z</time></trkpt><trkpt lat="45.7171946" lon="9.8787165"><ele>335.0</ele><time>2026-05-03T06:36:49.97Z</time></trkpt><trkpt lat="45.7171549" lon="9.878849"><ele>336.0</ele><time>2026-05-03T06:36:50.973Z</time></trkpt><trkpt lat="45.7171188" lon="9.8789864"><ele>336.0</ele><time>2026-05-03T06:36:51.97Z</time></trkpt><trkpt lat="45.7170704" lon="9.8791102"><ele>336.0</ele><time>2026-05-03T06:36:52.971Z</time></trkpt><trkpt lat="45.7170281" lon="9.879227"><ele>336.0</ele><time>2026-05-03T06:36:53.968Z</time></trkpt><trkpt lat="45.7169847" lon="9.8793344"><ele>336.0</ele><time>2026-05-03T06:36:54.971Z</time></trkpt><trkpt lat="45.7169436" lon="9.8794296"><ele>336.0</ele><time>2026-05-03T06:36:55.977Z</time></trkpt><trkpt lat="45.7169042" lon="9.8795183"><ele>336.0</ele><time>2026-05-03T06:36:56.967Z</time></trkpt><trkpt lat="45.7168594" lon="9.8795993"><ele>333.0</ele><time>2026-05-03T06:36:57.976Z</time></trkpt><trkpt lat="45.7168231" lon="9.879689"><ele>330.0</ele><time>2026-05-03T06:36:58.971Z</time></trkpt><trkpt lat="45.7167888" lon="9.8797903"><ele>327.0</ele><time>2026-05-03T06:36:59.973Z</time></trkpt><trkpt lat="45.7167603" lon="9.8798867"><ele>324.0</ele><time>2026-05-03T06:37:00.977Z</time></trkpt><trkpt lat="45.7167315" lon="9.8799695"><ele>321.0</ele><time>2026-05-03T06:37:01.955Z</time></trkpt><trkpt lat="45.7166789" lon="9.8800938"><ele>318.0</ele><time>2026-05-03T06:37:03.963Z</time></trkpt><trkpt lat="45.716649" lon="9.8801743"><ele>318.0</ele><time>2026-05-03T06:37:05.96Z</time></trkpt><trkpt lat="45.7166536" lon="9.8802891"><ele>318.0</ele><time>2026-05-03T06:37:08.972Z</time></trkpt><trkpt lat="45.7166843" lon="9.8803888"><ele>318.0</ele><time>2026-05-03T06:37:10.971Z</time></trkpt><trkpt lat="45.7167287" lon="9.8805214"><ele>318.0</ele><time>2026-05-03T06:37:12.945Z</time></trkpt><trkpt lat="45.7167798" lon="9.8806567"><ele>318.0</ele><time>2026-05-03T06:37:14.948Z</time></trkpt><trkpt lat="45.7167922" lon="9.8808106"><ele>317.25</ele><time>2026-05-03T06:37:16.958Z</time></trkpt><trkpt lat="45.7167955" lon="9.8809679"><ele>316.5</ele><time>2026-05-03T06:37:18.975Z</time></trkpt><trkpt lat="45.7167992" lon="9.8811361"><ele>315.75</ele><time>2026-05-03T06:37:20.969Z</time></trkpt><trkpt lat="45.7167994" lon="9.8813012"><ele>315.0</ele><time>2026-05-03T06:37:22.96Z</time></trkpt><trkpt lat="45.7168067" lon="9.8814633"><ele>315.0</ele><time>2026-05-03T06:37:24.978Z</time></trkpt><trkpt lat="45.7168211" lon="9.8816261"><ele>315.0</ele><time>2026-05-03T06:37:26.976Z</time></trkpt><trkpt lat="45.7168304" lon="9.8817826"><ele>315.0</ele><time>2026-05-03T06:37:28.973Z</time></trkpt><trkpt lat="45.7168419" lon="9.8819444"><ele>315.0</ele><time>2026-05-03T06:37:30.983Z</time></trkpt><trkpt lat="45.716851" lon="9.8821119"><ele>314.2</ele><time>2026-05-03T06:37:32.979Z</time></trkpt><trkpt lat="45.7168684" lon="9.8822742"><ele>313.4</ele><time>2026-05-03T06:37:34.977Z</time></trkpt><trkpt lat="45.7168994" lon="9.8824321"><ele>312.6</ele><time>2026-05-03T06:37:36.972Z</time></trkpt><trkpt lat="45.7169465" lon="9.8825671"><ele>311.8</ele><time>2026-05-03T06:37:38.975Z</time></trkpt><trkpt lat="45.7169874" lon="9.8827098"><ele>311.0</ele><time>2026-05-03T06:37:40.977Z</time></trkpt><trkpt lat="45.7170316" lon="9.8828444"><ele>311.6</ele><time>2026-05-03T06:37:42.98Z</time></trkpt><trkpt lat="45.7170831" lon="9.8829662"><ele>312.20000000000005</ele><time>2026-05-03T06:37:44.971Z</time></trkpt><trkpt lat="45.7171328" lon="9.8830916"><ele>312.79999999999995</ele><time>2026-05-03T06:37:46.971Z</time></trkpt><trkpt lat="45.7171869" lon="9.8832193"><ele>313.4</ele><time>2026-05-03T06:37:48.984Z</time></trkpt><trkpt lat="45.7172405" lon="9.8833501"><ele>314.0</ele><time>2026-05-03T06:37:50.952Z</time></trkpt><trkpt lat="45.7172988" lon="9.8834877"><ele>314.0</ele><time>2026-05-03T06:37:52.977Z</time></trkpt><trkpt lat="45.7173363" lon="9.8836094"><ele>314.0</ele><time>2026-05-03T06:37:54.972Z</time></trkpt><trkpt lat="45.7173485" lon="9.8837435"><ele>314.0</ele><time>2026-05-03T06:37:56.97Z</time></trkpt><trkpt lat="45.7173579" lon="9.8839004"><ele>314.0</ele><time>2026-05-03T06:37:58.98Z</time></trkpt><trkpt lat="45.7173617" lon="9.8840486"><ele>314.0</ele><time>2026-05-03T06:38:00.961Z</time></trkpt><trkpt lat="45.7173567" lon="9.8841837"><ele>312.2</ele><time>2026-05-03T06:38:02.971Z</time></trkpt><trkpt lat="45.7173732" lon="9.8843115"><ele>310.4</ele><time>2026-05-03T06:38:04.968Z</time></trkpt><trkpt lat="45.7174047" lon="9.8844571"><ele>308.6</ele><time>2026-05-03T06:38:06.966Z</time></trkpt><trkpt lat="45.7174521" lon="9.8845858"><ele>306.8</ele><time>2026-05-03T06:38:08.971Z</time></trkpt><trkpt lat="45.7175327" lon="9.8846844"><ele>305.0</ele><time>2026-05-03T06:38:10.97Z</time></trkpt><trkpt lat="45.7176264" lon="9.8847689"><ele>305.0</ele><time>2026-05-03T06:38:12.972Z</time></trkpt><trkpt lat="45.7177153" lon="9.8848664"><ele>305.0</ele><time>2026-05-03T06:38:14.97Z</time></trkpt><trkpt lat="45.7178018" lon="9.8849597"><ele>305.0</ele><time>2026-05-03T06:38:16.968Z</time></trkpt><trkpt lat="45.7178773" lon="9.8850657"><ele>305.0</ele><time>2026-05-03T06:38:18.973Z</time></trkpt><trkpt lat="45.7179451" lon="9.8851785"><ele>305.0</ele><time>2026-05-03T06:38:20.978Z</time></trkpt><trkpt lat="45.7180114" lon="9.8852922"><ele>305.6</ele><time>2026-05-03T06:38:22.951Z</time></trkpt><trkpt lat="45.7180828" lon="9.885401"><ele>306.2</ele><time>2026-05-03T06:38:24.977Z</time></trkpt><trkpt lat="45.7181449" lon="9.8855175"><ele>306.8</ele><time>2026-05-03T06:38:26.972Z</time></trkpt><trkpt lat="45.7182052" lon="9.8856395"><ele>307.4</ele><time>2026-05-03T06:38:28.975Z</time></trkpt><trkpt lat="45.7182607" lon="9.8857697"><ele>308.0</ele><time>2026-05-03T06:38:30.974Z</time></trkpt><trkpt lat="45.7183245" lon="9.8858992"><ele>307.4</ele><time>2026-05-03T06:38:32.973Z</time></trkpt><trkpt lat="45.7183828" lon="9.8860358"><ele>306.8</ele><time>2026-05-03T06:38:34.984Z</time></trkpt><trkpt lat="45.7184353" lon="9.8861852"><ele>306.2</ele><time>2026-05-03T06:38:36.967Z</time></trkpt><trkpt lat="45.7184713" lon="9.8863419"><ele>305.6</ele><time>2026-05-03T06:38:38.972Z</time></trkpt><trkpt lat="45.7184819" lon="9.8864343"><ele>305.0</ele><time>2026-05-03T06:38:39.973Z</time></trkpt><trkpt lat="45.7184964" lon="9.8866236"><ele>305.0</ele><time>2026-05-03T06:38:41.974Z</time></trkpt><trkpt lat="45.7185073" lon="9.886716"><ele>305.0</ele><time>2026-05-03T06:38:42.966Z</time></trkpt><trkpt lat="45.7185177" lon="9.8868148"><ele>305.0</ele><time>2026-05-03T06:38:43.973Z</time></trkpt><trkpt lat="45.7185283" lon="9.8869101"><ele>305.0</ele><time>2026-05-03T06:38:44.971Z</time></trkpt><trkpt lat="45.7185296" lon="9.8870186"><ele>305.0</ele><time>2026-05-03T06:38:45.969Z</time></trkpt><trkpt lat="45.7185161" lon="9.8871236"><ele>305.0</ele><time>2026-05-03T06:38:46.979Z</time></trkpt><trkpt lat="45.7184914" lon="9.8872263"><ele>305.0</ele><time>2026-05-03T06:38:47.962Z</time></trkpt><trkpt lat="45.7184569" lon="9.8873378"><ele>303.33333333333337</ele><time>2026-05-03T06:38:48.974Z</time></trkpt><trkpt lat="45.7184224" lon="9.8874514"><ele>301.6666666666667</ele><time>2026-05-03T06:38:49.972Z</time></trkpt><trkpt lat="45.7183932" lon="9.8875656"><ele>300.0</ele><time>2026-05-03T06:38:50.959Z</time></trkpt><trkpt lat="45.7183737" lon="9.8876837"><ele>298.3333333333333</ele><time>2026-05-03T06:38:51.977Z</time></trkpt><trkpt lat="45.7183733" lon="9.8878081"><ele>296.66666666666663</ele><time>2026-05-03T06:38:52.954Z</time></trkpt><trkpt lat="45.71839" lon="9.8879318"><ele>295.0</ele><time>2026-05-03T06:38:53.972Z</time></trkpt><trkpt lat="45.7184299" lon="9.8880532"><ele>295.0</ele><time>2026-05-03T06:38:54.98Z</time></trkpt><trkpt lat="45.7184727" lon="9.8881656"><ele>295.0</ele><time>2026-05-03T06:38:55.981Z</time></trkpt><trkpt lat="45.7185153" lon="9.8882753"><ele>295.0</ele><time>2026-05-03T06:38:56.968Z</time></trkpt><trkpt lat="45.7185627" lon="9.888399"><ele>295.0</ele><time>2026-05-03T06:38:57.97Z</time></trkpt><trkpt lat="45.7186159" lon="9.8885197"><ele>295.0</ele><time>2026-05-03T06:38:58.983Z</time></trkpt><trkpt lat="45.7186627" lon="9.8886338"><ele>295.0</ele><time>2026-05-03T06:38:59.975Z</time></trkpt><trkpt lat="45.718732" lon="9.8887299"><ele>295.0</ele><time>2026-05-03T06:39:00.971Z</time></trkpt><trkpt lat="45.7188107" lon="9.8888119"><ele>295.0</ele><time>2026-05-03T06:39:01.982Z</time></trkpt><trkpt lat="45.718886" lon="9.8888776"><ele>295.0</ele><time>2026-05-03T06:39:02.969Z</time></trkpt><trkpt lat="45.7189704" lon="9.8889177"><ele>295.0</ele><time>2026-05-03T06:39:03.966Z</time></trkpt><trkpt lat="45.7190469" lon="9.8889571"><ele>295.0</ele><time>2026-05-03T06:39:04.969Z</time></trkpt><trkpt lat="45.7191094" lon="9.8890056"><ele>295.0</ele><time>2026-05-03T06:39:05.976Z</time></trkpt><trkpt lat="45.7191464" lon="9.8890895"><ele>295.0</ele><time>2026-05-03T06:39:06.974Z</time></trkpt><trkpt lat="45.7191473" lon="9.8891825"><ele>295.0</ele><time>2026-05-03T06:39:07.972Z</time></trkpt><trkpt lat="45.719103" lon="9.8892542"><ele>295.0</ele><time>2026-05-03T06:39:08.976Z</time></trkpt><trkpt lat="45.7189814" lon="9.8892822"><ele>295.0</ele><time>2026-05-03T06:39:10.973Z</time></trkpt><trkpt lat="45.7188632" lon="9.8892551"><ele>294.4</ele><time>2026-05-03T06:39:12.965Z</time></trkpt><trkpt lat="45.7187629" lon="9.8892954"><ele>293.8</ele><time>2026-05-03T06:39:14.981Z</time></trkpt><trkpt lat="45.7187191" lon="9.8894473"><ele>293.2</ele><time>2026-05-03T06:39:16.968Z</time></trkpt><trkpt lat="45.7186991" lon="9.8896085"><ele>292.6</ele><time>2026-05-03T06:39:18.975Z</time></trkpt><trkpt lat="45.7186332" lon="9.8897232"><ele>292.0</ele><time>2026-05-03T06:39:20.974Z</time></trkpt><trkpt lat="45.7185814" lon="9.8898048"><ele>291.66666666666663</ele><time>2026-05-03T06:39:22.98Z</time></trkpt><trkpt lat="45.7185261" lon="9.8898655"><ele>291.3333333333333</ele><time>2026-05-03T06:39:35.968Z</time></trkpt><trkpt lat="45.7184647" lon="9.8899608"><ele>291.0</ele><time>2026-05-03T06:39:38.974Z</time></trkpt><trkpt lat="45.7184147" lon="9.8900448"><ele>290.6666666666667</ele><time>2026-05-03T06:39:40.962Z</time></trkpt><trkpt lat="45.7183467" lon="9.8901343"><ele>290.33333333333337</ele><time>2026-05-03T06:39:42.971Z</time></trkpt><trkpt lat="45.7182896" lon="9.8902243"><ele>290.0</ele><time>2026-05-03T06:39:44.973Z</time></trkpt><trkpt lat="45.7182509" lon="9.8903278"><ele>290.0</ele><time>2026-05-03T06:39:46.965Z</time></trkpt><trkpt lat="45.7182262" lon="9.8904359"><ele>290.0</ele><time>2026-05-03T06:39:48.982Z</time></trkpt><trkpt lat="45.7182102" lon="9.8905557"><ele>290.0</ele><time>2026-05-03T06:39:50.974Z</time></trkpt><trkpt lat="45.7182027" lon="9.890697"><ele>290.0</ele><time>2026-05-03T06:39:52.975Z</time></trkpt><trkpt lat="45.7182071" lon="9.8908265"><ele>290.0</ele><time>2026-05-03T06:39:54.98Z</time></trkpt><trkpt lat="45.7182196" lon="9.8909438"><ele>290.0</ele><time>2026-05-03T06:39:56.977Z</time></trkpt><trkpt lat="45.7182465" lon="9.8910456"><ele>290.33333333333337</ele><time>2026-05-03T06:39:58.972Z</time></trkpt><trkpt lat="45.7182851" lon="9.891152"><ele>290.6666666666667</ele><time>2026-05-03T06:40:00.955Z</time></trkpt><trkpt lat="45.7183308" lon="9.8912544"><ele>291.0</ele><time>2026-05-03T06:40:02.982Z</time></trkpt><trkpt lat="45.7183688" lon="9.8913411"><ele>291.3333333333333</ele><time>2026-05-03T06:40:04.975Z</time></trkpt><trkpt lat="45.7184164" lon="9.8914077"><ele>291.66666666666663</ele><time>2026-05-03T06:40:06.974Z</time></trkpt><trkpt lat="45.7184613" lon="9.8914988"><ele>292.0</ele><time>2026-05-03T06:40:08.978Z</time></trkpt><trkpt lat="45.718514" lon="9.8915878"><ele>292.0</ele><time>2026-05-03T06:40:10.956Z</time></trkpt><trkpt lat="45.7185636" lon="9.8916732"><ele>292.0</ele><time>2026-05-03T06:40:12.975Z</time></trkpt><trkpt lat="45.7186034" lon="9.8917744"><ele>292.0</ele><time>2026-05-03T06:40:14.971Z</time></trkpt><trkpt lat="45.7186602" lon="9.8918738"><ele>292.0</ele><time>2026-05-03T06:40:16.967Z</time></trkpt><trkpt lat="45.7187029" lon="9.8919644"><ele>292.0</ele><time>2026-05-03T06:40:18.967Z</time></trkpt><trkpt lat="45.718763" lon="9.8920511"><ele>292.0</ele><time>2026-05-03T06:40:20.95Z</time></trkpt><trkpt lat="45.7188259" lon="9.8921355"><ele>292.0</ele><time>2026-05-03T06:40:22.96Z</time></trkpt><trkpt lat="45.718883" lon="9.8922192"><ele>292.0</ele><time>2026-05-03T06:40:24.948Z</time></trkpt><trkpt lat="45.7189412" lon="9.8923029"><ele>292.0</ele><time>2026-05-03T06:40:26.973Z</time></trkpt><trkpt lat="45.7190097" lon="9.8923944"><ele>292.0</ele><time>2026-05-03T06:40:28.976Z</time></trkpt><trkpt lat="45.7190785" lon="9.892485"><ele>292.0</ele><time>2026-05-03T06:40:30.965Z</time></trkpt><trkpt lat="45.7191434" lon="9.8925527"><ele>292.0</ele><time>2026-05-03T06:40:32.968Z</time></trkpt><trkpt lat="45.7192177" lon="9.8926225"><ele>292.0</ele><time>2026-05-03T06:40:34.975Z</time></trkpt><trkpt lat="45.719282" lon="9.8926935"><ele>292.0</ele><time>2026-05-03T06:40:36.978Z</time></trkpt><trkpt lat="45.7193385" lon="9.8927654"><ele>292.0</ele><time>2026-05-03T06:40:38.983Z</time></trkpt><trkpt lat="45.7194068" lon="9.8928357"><ele>292.0</ele><time>2026-05-03T06:40:40.977Z</time></trkpt><trkpt lat="45.7194748" lon="9.8928987"><ele>292.0</ele><time>2026-05-03T06:40:42.961Z</time></trkpt><trkpt lat="45.719534" lon="9.8929752"><ele>292.0</ele><time>2026-05-03T06:40:44.969Z</time></trkpt><trkpt lat="45.7195918" lon="9.8930557"><ele>292.16666666666663</ele><time>2026-05-03T06:40:46.97Z</time></trkpt><trkpt lat="45.7196566" lon="9.8931201"><ele>292.3333333333333</ele><time>2026-05-03T06:40:48.949Z</time></trkpt><trkpt lat="45.719715" lon="9.893199"><ele>292.5</ele><time>2026-05-03T06:40:50.968Z</time></trkpt><trkpt lat="45.7197709" lon="9.8932649"><ele>292.6666666666667</ele><time>2026-05-03T06:40:52.977Z</time></trkpt><trkpt lat="45.7198323" lon="9.8933366"><ele>292.83333333333337</ele><time>2026-05-03T06:40:54.966Z</time></trkpt><trkpt lat="45.7198836" lon="9.8934098"><ele>293.0</ele><time>2026-05-03T06:40:56.971Z</time></trkpt><trkpt lat="45.7199373" lon="9.8934834"><ele>293.71428571428567</ele><time>2026-05-03T06:40:58.97Z</time></trkpt><trkpt lat="45.7199966" lon="9.8935435"><ele>294.42857142857144</ele><time>2026-05-03T06:41:00.949Z</time></trkpt><trkpt lat="45.7200638" lon="9.8936081"><ele>295.1428571428571</ele><time>2026-05-03T06:41:02.972Z</time></trkpt><trkpt lat="45.7201262" lon="9.8936553"><ele>295.85714285714283</ele><time>2026-05-03T06:41:04.977Z</time></trkpt><trkpt lat="45.7201971" lon="9.8937149"><ele>296.57142857142856</ele><time>2026-05-03T06:41:06.979Z</time></trkpt><trkpt lat="45.7202596" lon="9.8937626"><ele>297.2857142857143</ele><time>2026-05-03T06:41:08.975Z</time></trkpt><trkpt lat="45.7203207" lon="9.8938054"><ele>298.0</ele><time>2026-05-03T06:41:10.967Z</time></trkpt><trkpt lat="45.7204091" lon="9.893873"><ele>298.0</ele><time>2026-05-03T06:41:13.974Z</time></trkpt><trkpt lat="45.7204723" lon="9.8939027"><ele>298.0</ele><time>2026-05-03T06:41:15.969Z</time></trkpt><trkpt lat="45.7205479" lon="9.8939694"><ele>298.0</ele><time>2026-05-03T06:41:17.963Z</time></trkpt><trkpt lat="45.7206224" lon="9.8940347"><ele>298.0</ele><time>2026-05-03T06:41:19.977Z</time></trkpt><trkpt lat="45.7206791" lon="9.8941162"><ele>298.0</ele><time>2026-05-03T06:41:21.978Z</time></trkpt><trkpt lat="45.7207411" lon="9.8941863"><ele>298.0</ele><time>2026-05-03T06:41:23.978Z</time></trkpt><trkpt lat="45.7207968" lon="9.8942775"><ele>298.5</ele><time>2026-05-03T06:41:25.975Z</time></trkpt><trkpt lat="45.7208363" lon="9.8943612"><ele>299.0</ele><time>2026-05-03T06:41:27.98Z</time></trkpt><trkpt lat="45.7208841" lon="9.8944603"><ele>299.5</ele><time>2026-05-03T06:41:29.959Z</time></trkpt><trkpt lat="45.720936" lon="9.8945682"><ele>300.0</ele><time>2026-05-03T06:41:31.965Z</time></trkpt><trkpt lat="45.7209582" lon="9.8946851"><ele>300.5</ele><time>2026-05-03T06:41:33.981Z</time></trkpt><trkpt lat="45.7209647" lon="9.8947878"><ele>301.0</ele><time>2026-05-03T06:41:35.967Z</time></trkpt><trkpt lat="45.7209741" lon="9.8948866"><ele>301.0</ele><time>2026-05-03T06:41:37.97Z</time></trkpt><trkpt lat="45.7209908" lon="9.8950044"><ele>301.0</ele><time>2026-05-03T06:41:40.983Z</time></trkpt><trkpt lat="45.7210036" lon="9.8951093"><ele>301.0</ele><time>2026-05-03T06:41:43.984Z</time></trkpt><trkpt lat="45.7209984" lon="9.8952028"><ele>301.0</ele><time>2026-05-03T06:41:45.966Z</time></trkpt><trkpt lat="45.7209864" lon="9.895311"><ele>301.0</ele><time>2026-05-03T06:41:47.98Z</time></trkpt><trkpt lat="45.7209841" lon="9.8954052"><ele>301.0</ele><time>2026-05-03T06:41:49.972Z</time></trkpt><trkpt lat="45.7209861" lon="9.8955299"><ele>301.2</ele><time>2026-05-03T06:41:52.966Z</time></trkpt><trkpt lat="45.7210378" lon="9.895635"><ele>301.40000000000003</ele><time>2026-05-03T06:41:55.974Z</time></trkpt><trkpt lat="45.7210832" lon="9.8957429"><ele>301.6</ele><time>2026-05-03T06:41:57.976Z</time></trkpt><trkpt lat="45.7211538" lon="9.8958648"><ele>301.8</ele><time>2026-05-03T06:41:59.975Z</time></trkpt><trkpt lat="45.7211956" lon="9.8960045"><ele>302.0</ele><time>2026-05-03T06:42:01.953Z</time></trkpt><trkpt lat="45.7212116" lon="9.8961009"><ele>302.0</ele><time>2026-05-03T06:42:02.975Z</time></trkpt><trkpt lat="45.7212452" lon="9.8962622"><ele>302.0</ele><time>2026-05-03T06:42:04.973Z</time></trkpt><trkpt lat="45.7212825" lon="9.8963981"><ele>302.0</ele><time>2026-05-03T06:42:06.959Z</time></trkpt><trkpt lat="45.7213035" lon="9.89655"><ele>302.0</ele><time>2026-05-03T06:42:08.966Z</time></trkpt><trkpt lat="45.7213491" lon="9.8967121"><ele>302.6</ele><time>2026-05-03T06:42:10.973Z</time></trkpt><trkpt lat="45.7213701" lon="9.8967994"><ele>303.2</ele><time>2026-05-03T06:42:11.979Z</time></trkpt><trkpt lat="45.7214118" lon="9.8969329"><ele>303.8</ele><time>2026-05-03T06:42:13.966Z</time></trkpt><trkpt lat="45.7214576" lon="9.8970458"><ele>304.4</ele><time>2026-05-03T06:42:15.97Z</time></trkpt><trkpt lat="45.721511" lon="9.897189"><ele>305.0</ele><time>2026-05-03T06:42:17.971Z</time></trkpt><trkpt lat="45.7215613" lon="9.8973202"><ele>305.0</ele><time>2026-05-03T06:42:19.968Z</time></trkpt><trkpt lat="45.7216172" lon="9.8974313"><ele>305.0</ele><time>2026-05-03T06:42:21.972Z</time></trkpt><trkpt lat="45.7216585" lon="9.8975275"><ele>305.0</ele><time>2026-05-03T06:42:23.959Z</time></trkpt><trkpt lat="45.7217018" lon="9.8976273"><ele>305.0</ele><time>2026-05-03T06:42:25.949Z</time></trkpt><trkpt lat="45.7217516" lon="9.8977255"><ele>305.0</ele><time>2026-05-03T06:42:27.986Z</time></trkpt><trkpt lat="45.7217927" lon="9.8978275"><ele>305.0</ele><time>2026-05-03T06:42:29.975Z</time></trkpt><trkpt lat="45.721836" lon="9.8979031"><ele>304.4</ele><time>2026-05-03T06:42:31.97Z</time></trkpt><trkpt lat="45.7218862" lon="9.8979915"><ele>303.8</ele><time>2026-05-03T06:42:33.952Z</time></trkpt><trkpt lat="45.7219601" lon="9.8981035"><ele>303.2</ele><time>2026-05-03T06:42:35.974Z</time></trkpt><trkpt lat="45.7220321" lon="9.898197"><ele>302.6</ele><time>2026-05-03T06:42:37.975Z</time></trkpt><trkpt lat="45.7220947" lon="9.8982812"><ele>302.0</ele><time>2026-05-03T06:42:39.968Z</time></trkpt><trkpt lat="45.7221649" lon="9.8983528"><ele>302.0</ele><time>2026-05-03T06:42:41.978Z</time></trkpt><trkpt lat="45.7222301" lon="9.8984272"><ele>302.0</ele><time>2026-05-03T06:42:43.968Z</time></trkpt><trkpt lat="45.7223029" lon="9.8984996"><ele>302.0</ele><time>2026-05-03T06:42:45.968Z</time></trkpt><trkpt lat="45.7223709" lon="9.8985609"><ele>302.0</ele><time>2026-05-03T06:42:48.039Z</time></trkpt><trkpt lat="45.7224326" lon="9.8986287"><ele>302.0</ele><time>2026-05-03T06:42:49.971Z</time></trkpt><trkpt lat="45.7225079" lon="9.8986961"><ele>302.0</ele><time>2026-05-03T06:42:51.974Z</time></trkpt><trkpt lat="45.7225766" lon="9.8987613"><ele>302.0</ele><time>2026-05-03T06:42:53.952Z</time></trkpt><trkpt lat="45.7226547" lon="9.8988132"><ele>302.0</ele><time>2026-05-03T06:42:55.945Z</time></trkpt><trkpt lat="45.7227578" lon="9.8988966"><ele>302.0</ele><time>2026-05-03T06:42:57.968Z</time></trkpt><trkpt lat="45.7228225" lon="9.8989681"><ele>302.0</ele><time>2026-05-03T06:42:59.966Z</time></trkpt><trkpt lat="45.7228768" lon="9.8990446"><ele>302.0</ele><time>2026-05-03T06:43:03.045Z</time></trkpt><trkpt lat="45.7229354" lon="9.8991371"><ele>302.0</ele><time>2026-05-03T06:43:05.981Z</time></trkpt><trkpt lat="45.7229843" lon="9.8991991"><ele>302.0</ele><time>2026-05-03T06:43:08.034Z</time></trkpt><trkpt lat="45.7230293" lon="9.8992716"><ele>302.0</ele><time>2026-05-03T06:43:09.959Z</time></trkpt><trkpt lat="45.7230692" lon="9.8993553"><ele>302.0</ele><time>2026-05-03T06:43:11.965Z</time></trkpt><trkpt lat="45.7231123" lon="9.8994505"><ele>302.0</ele><time>2026-05-03T06:43:13.968Z</time></trkpt><trkpt lat="45.723188" lon="9.8995123"><ele>302.0</ele><time>2026-05-03T06:43:15.973Z</time></trkpt><trkpt lat="45.7232647" lon="9.8995764"><ele>302.0</ele><time>2026-05-03T06:43:17.968Z</time></trkpt><trkpt lat="45.7233375" lon="9.8996333"><ele>302.0</ele><time>2026-05-03T06:43:19.976Z</time></trkpt><trkpt lat="45.7234038" lon="9.8996907"><ele>302.0</ele><time>2026-05-03T06:43:21.988Z</time></trkpt><trkpt lat="45.7234567" lon="9.8997716"><ele>302.0</ele><time>2026-05-03T06:43:23.981Z</time></trkpt><trkpt lat="45.7235003" lon="9.8998857"><ele>302.0</ele><time>2026-05-03T06:43:25.983Z</time></trkpt><trkpt lat="45.7235332" lon="9.8999681"><ele>302.0</ele><time>2026-05-03T06:43:28.032Z</time></trkpt><trkpt lat="45.7235815" lon="9.9000491"><ele>302.0</ele><time>2026-05-03T06:43:30.983Z</time></trkpt><trkpt lat="45.7236603" lon="9.900102"><ele>302.0</ele><time>2026-05-03T06:43:33.98Z</time></trkpt><trkpt lat="45.7237255" lon="9.9001397"><ele>302.0</ele><time>2026-05-03T06:43:35.977Z</time></trkpt><trkpt lat="45.7237905" lon="9.9002063"><ele>302.0</ele><time>2026-05-03T06:43:39.032Z</time></trkpt><trkpt lat="45.7237557" lon="9.9003131"><ele>302.0</ele><time>2026-05-03T06:43:41.969Z</time></trkpt><trkpt lat="45.7237793" lon="9.9004013"><ele>302.0</ele><time>2026-05-03T06:43:46.965Z</time></trkpt><trkpt lat="45.7238649" lon="9.9004786"><ele>302.0</ele><time>2026-05-03T06:43:49.97Z</time></trkpt><trkpt lat="45.7239443" lon="9.9005552"><ele>302.0</ele><time>2026-05-03T06:43:51.98Z</time></trkpt><trkpt lat="45.7240296" lon="9.9006295"><ele>302.0</ele><time>2026-05-03T06:43:53.974Z</time></trkpt><trkpt lat="45.7241113" lon="9.9007051"><ele>302.0</ele><time>2026-05-03T06:43:56.033Z</time></trkpt><trkpt lat="45.7241776" lon="9.9007856"><ele>302.0</ele><time>2026-05-03T06:43:58.034Z</time></trkpt><trkpt lat="45.7242249" lon="9.9008583"><ele>302.0</ele><time>2026-05-03T06:43:59.972Z</time></trkpt><trkpt lat="45.7242748" lon="9.9009289"><ele>302.5</ele><time>2026-05-03T06:44:01.975Z</time></trkpt><trkpt lat="45.724329" lon="9.9010241"><ele>303.0</ele><time>2026-05-03T06:44:04.023Z</time></trkpt><trkpt lat="45.7243903" lon="9.9011176"><ele>303.5</ele><time>2026-05-03T06:44:05.976Z</time></trkpt><trkpt lat="45.7244455" lon="9.9011965"><ele>304.0</ele><time>2026-05-03T06:44:07.957Z</time></trkpt><trkpt lat="45.724513" lon="9.9012581"><ele>304.5</ele><time>2026-05-03T06:44:09.978Z</time></trkpt><trkpt lat="45.7245766" lon="9.9013011"><ele>305.0</ele><time>2026-05-03T06:44:11.988Z</time></trkpt><trkpt lat="45.7246347" lon="9.9013497"><ele>305.0</ele><time>2026-05-03T06:44:13.97Z</time></trkpt><trkpt lat="45.7247028" lon="9.9014059"><ele>305.0</ele><time>2026-05-03T06:44:16.011Z</time></trkpt><trkpt lat="45.7247652" lon="9.9014569"><ele>305.0</ele><time>2026-05-03T06:44:17.981Z</time></trkpt><trkpt lat="45.7248318" lon="9.9014908"><ele>305.0</ele><time>2026-05-03T06:44:19.991Z</time></trkpt><trkpt lat="45.7249141" lon="9.90154"><ele>305.0</ele><time>2026-05-03T06:44:22.978Z</time></trkpt><trkpt lat="45.7249997" lon="9.9015595"><ele>305.0</ele><time>2026-05-03T06:44:25.983Z</time></trkpt><trkpt lat="45.7250945" lon="9.9015881"><ele>305.0</ele><time>2026-05-03T06:44:28.974Z</time></trkpt><trkpt lat="45.7251504" lon="9.9016389"><ele>305.0</ele><time>2026-05-03T06:44:30.98Z</time></trkpt><trkpt lat="45.7252058" lon="9.9017167"><ele>305.0</ele><time>2026-05-03T06:44:33.039Z</time></trkpt><trkpt lat="45.7252705" lon="9.9017996"><ele>305.0</ele><time>2026-05-03T06:44:34.956Z</time></trkpt><trkpt lat="45.7253352" lon="9.9018909"><ele>305.0</ele><time>2026-05-03T06:44:36.962Z</time></trkpt><trkpt lat="45.7253953" lon="9.9019656"><ele>305.0</ele><time>2026-05-03T06:44:38.966Z</time></trkpt><trkpt lat="45.7254527" lon="9.9020567"><ele>305.6666666666667</ele><time>2026-05-03T06:44:40.985Z</time></trkpt><trkpt lat="45.7255078" lon="9.902146"><ele>306.33333333333337</ele><time>2026-05-03T06:44:42.956Z</time></trkpt><trkpt lat="45.7255634" lon="9.9022196"><ele>307.0</ele><time>2026-05-03T06:44:44.974Z</time></trkpt><trkpt lat="45.7256151" lon="9.9022964"><ele>307.6666666666667</ele><time>2026-05-03T06:44:46.961Z</time></trkpt><trkpt lat="45.7256659" lon="9.9023625"><ele>308.3333333333333</ele><time>2026-05-03T06:44:48.961Z</time></trkpt><trkpt lat="45.7257262" lon="9.9024334"><ele>309.0</ele><time>2026-05-03T06:44:50.968Z</time></trkpt><trkpt lat="45.7257898" lon="9.9025286"><ele>309.42857142857144</ele><time>2026-05-03T06:44:54.042Z</time></trkpt><trkpt lat="45.725843" lon="9.9025975"><ele>309.8571428571429</ele><time>2026-05-03T06:44:55.96Z</time></trkpt><trkpt lat="45.7258867" lon="9.9026753"><ele>310.28571428571433</ele><time>2026-05-03T06:44:57.963Z</time></trkpt><trkpt lat="45.7259304" lon="9.9027428"><ele>310.7142857142857</ele><time>2026-05-03T06:44:59.969Z</time></trkpt><trkpt lat="45.7259696" lon="9.9028189"><ele>311.1428571428571</ele><time>2026-05-03T06:45:01.976Z</time></trkpt><trkpt lat="45.7260234" lon="9.9028964"><ele>311.5714285714286</ele><time>2026-05-03T06:45:03.99Z</time></trkpt><trkpt lat="45.7260679" lon="9.9029898"><ele>312.0</ele><time>2026-05-03T06:45:05.98Z</time></trkpt><trkpt lat="45.7261143" lon="9.9030764"><ele>312.0</ele><time>2026-05-03T06:45:07.965Z</time></trkpt><trkpt lat="45.726165" lon="9.9031734"><ele>312.0</ele><time>2026-05-03T06:45:09.966Z</time></trkpt><trkpt lat="45.7262119" lon="9.9032475"><ele>312.0</ele><time>2026-05-03T06:45:11.949Z</time></trkpt><trkpt lat="45.7262643" lon="9.903324"><ele>312.0</ele><time>2026-05-03T06:45:13.97Z</time></trkpt><trkpt lat="45.7263516" lon="9.9033307"><ele>312.0</ele><time>2026-05-03T06:45:16.945Z</time></trkpt><trkpt lat="45.7264226" lon="9.9032468"><ele>312.0</ele><time>2026-05-03T06:45:18.955Z</time></trkpt><trkpt lat="45.7265062" lon="9.9031486"><ele>312.0</ele><time>2026-05-03T06:45:20.961Z</time></trkpt><trkpt lat="45.7265552" lon="9.9030829"><ele>312.0</ele><time>2026-05-03T06:45:21.967Z</time></trkpt><trkpt lat="45.7266001" lon="9.9030093"><ele>312.0</ele><time>2026-05-03T06:45:22.969Z</time></trkpt><trkpt lat="45.7266404" lon="9.9029389"><ele>312.0</ele><time>2026-05-03T06:45:24.024Z</time></trkpt><trkpt lat="45.7266882" lon="9.902868"><ele>312.0</ele><time>2026-05-03T06:45:24.962Z</time></trkpt><trkpt lat="45.7267367" lon="9.9027946"><ele>312.0</ele><time>2026-05-03T06:45:26.038Z</time></trkpt><trkpt lat="45.7267757" lon="9.9027198"><ele>312.0</ele><time>2026-05-03T06:45:27.039Z</time></trkpt><trkpt lat="45.7268185" lon="9.9026426"><ele>312.0</ele><time>2026-05-03T06:45:27.969Z</time></trkpt><trkpt lat="45.7269273" lon="9.9025532"><ele>312.0</ele><time>2026-05-03T06:45:29.963Z</time></trkpt><trkpt lat="45.7270329" lon="9.9025765"><ele>312.0</ele><time>2026-05-03T06:45:31.959Z</time></trkpt><trkpt lat="45.7271396" lon="9.9026322"><ele>312.0</ele><time>2026-05-03T06:45:33.964Z</time></trkpt><trkpt lat="45.7272084" lon="9.902633"><ele>312.0</ele><time>2026-05-03T06:45:35.963Z</time></trkpt><trkpt lat="45.7272739" lon="9.9025154"><ele>312.0</ele><time>2026-05-03T06:45:37.952Z</time></trkpt><trkpt lat="45.7273626" lon="9.9025069"><ele>312.0</ele><time>2026-05-03T06:45:40.945Z</time></trkpt><trkpt lat="45.7274458" lon="9.902557"><ele>312.0</ele><time>2026-05-03T06:45:42.952Z</time></trkpt><trkpt lat="45.727531" lon="9.9025999"><ele>312.0</ele><time>2026-05-03T06:45:44.96Z</time></trkpt><trkpt lat="45.7276162" lon="9.9026382"><ele>312.0</ele><time>2026-05-03T06:45:46.957Z</time></trkpt><trkpt lat="45.7276832" lon="9.9026909"><ele>312.0</ele><time>2026-05-03T06:45:48.965Z</time></trkpt><trkpt lat="45.7277439" lon="9.9027459"><ele>313.1666666666667</ele><time>2026-05-03T06:45:50.973Z</time></trkpt><trkpt lat="45.7278067" lon="9.9027982"><ele>314.3333333333333</ele><time>2026-05-03T06:45:52.964Z</time></trkpt><trkpt lat="45.7278739" lon="9.9028506"><ele>315.5</ele><time>2026-05-03T06:45:54.967Z</time></trkpt><trkpt lat="45.7279428" lon="9.9029058"><ele>316.66666666666663</ele><time>2026-05-03T06:45:56.958Z</time></trkpt><trkpt lat="45.7280146" lon="9.9029629"><ele>317.8333333333333</ele><time>2026-05-03T06:45:58.961Z</time></trkpt><trkpt lat="45.7280688" lon="9.9030354"><ele>319.0</ele><time>2026-05-03T06:46:00.964Z</time></trkpt><trkpt lat="45.7281293" lon="9.903111"><ele>319.0</ele><time>2026-05-03T06:46:02.966Z</time></trkpt><trkpt lat="45.7282029" lon="9.903186"><ele>319.0</ele><time>2026-05-03T06:46:04.961Z</time></trkpt><trkpt lat="45.7282537" lon="9.9032691"><ele>319.0</ele><time>2026-05-03T06:46:06.95Z</time></trkpt><trkpt lat="45.7283052" lon="9.9033535"><ele>319.0</ele><time>2026-05-03T06:46:08.975Z</time></trkpt><trkpt lat="45.728348" lon="9.9034343"><ele>319.0</ele><time>2026-05-03T06:46:10.965Z</time></trkpt><trkpt lat="45.7283907" lon="9.9035079"><ele>319.0</ele><time>2026-05-03T06:46:12.958Z</time></trkpt><trkpt lat="45.7284303" lon="9.9035952"><ele>318.5714285714286</ele><time>2026-05-03T06:46:14.955Z</time></trkpt><trkpt lat="45.7284598" lon="9.9036851"><ele>318.1428571428571</ele><time>2026-05-03T06:46:16.96Z</time></trkpt><trkpt lat="45.7284857" lon="9.90378"><ele>317.7142857142857</ele><time>2026-05-03T06:46:18.963Z</time></trkpt><trkpt lat="45.7285256" lon="9.9038586"><ele>317.28571428571433</ele><time>2026-05-03T06:46:20.958Z</time></trkpt><trkpt lat="45.7285731" lon="9.9039663"><ele>316.8571428571429</ele><time>2026-05-03T06:46:23.961Z</time></trkpt><trkpt lat="45.7286077" lon="9.9040486"><ele>316.42857142857144</ele><time>2026-05-03T06:46:25.968Z</time></trkpt><trkpt lat="45.7286245" lon="9.9041502"><ele>316.0</ele><time>2026-05-03T06:46:27.96Z</time></trkpt><trkpt lat="45.7286417" lon="9.9042516"><ele>314.8</ele><time>2026-05-03T06:46:29.95Z</time></trkpt><trkpt lat="45.7286848" lon="9.9043523"><ele>313.6</ele><time>2026-05-03T06:46:31.959Z</time></trkpt><trkpt lat="45.7287437" lon="9.9044699"><ele>312.4</ele><time>2026-05-03T06:46:33.959Z</time></trkpt><trkpt lat="45.7287939" lon="9.9046019"><ele>311.2</ele><time>2026-05-03T06:46:35.966Z</time></trkpt><trkpt lat="45.7288379" lon="9.9047356"><ele>310.0</ele><time>2026-05-03T06:46:37.967Z</time></trkpt><trkpt lat="45.7288769" lon="9.9048519"><ele>310.0</ele><time>2026-05-03T06:46:39.955Z</time></trkpt><trkpt lat="45.7289143" lon="9.9050002"><ele>310.0</ele><time>2026-05-03T06:46:41.951Z</time></trkpt><trkpt lat="45.7289398" lon="9.905139"><ele>310.0</ele><time>2026-05-03T06:46:44.032Z</time></trkpt><trkpt lat="45.728967" lon="9.9052681"><ele>310.0</ele><time>2026-05-03T06:46:45.973Z</time></trkpt><trkpt lat="45.7289938" lon="9.9053888"><ele>310.0</ele><time>2026-05-03T06:46:47.949Z</time></trkpt><trkpt lat="45.7290022" lon="9.9054904"><ele>310.0</ele><time>2026-05-03T06:46:49.966Z</time></trkpt><trkpt lat="45.7290132" lon="9.9055797"><ele>310.0</ele><time>2026-05-03T06:46:52.003Z</time></trkpt><trkpt lat="45.7290691" lon="9.9057159"><ele>310.0</ele><time>2026-05-03T06:46:54.961Z</time></trkpt><trkpt lat="45.7291137" lon="9.9058099"><ele>310.0</ele><time>2026-05-03T06:46:56.955Z</time></trkpt><trkpt lat="45.7291546" lon="9.9059002"><ele>310.0</ele><time>2026-05-03T06:46:58.955Z</time></trkpt><trkpt lat="45.7291722" lon="9.9059933"><ele>310.0</ele><time>2026-05-03T06:47:00.947Z</time></trkpt><trkpt lat="45.7291823" lon="9.9061045"><ele>310.0</ele><time>2026-05-03T06:47:03.037Z</time></trkpt><trkpt lat="45.7291936" lon="9.9062271"><ele>310.0</ele><time>2026-05-03T06:47:04.959Z</time></trkpt><trkpt lat="45.7291917" lon="9.9063543"><ele>310.0</ele><time>2026-05-03T06:47:06.998Z</time></trkpt><trkpt lat="45.7291894" lon="9.9064707"><ele>310.0</ele><time>2026-05-03T06:47:08.963Z</time></trkpt><trkpt lat="45.7291725" lon="9.9065652"><ele>310.0</ele><time>2026-05-03T06:47:11.033Z</time></trkpt><trkpt lat="45.7291739" lon="9.9066672"><ele>310.0</ele><time>2026-05-03T06:47:13.963Z</time></trkpt><trkpt lat="45.7292322" lon="9.9067472"><ele>310.0</ele><time>2026-05-03T06:47:15.967Z</time></trkpt><trkpt lat="45.7292956" lon="9.9068217"><ele>310.0</ele><time>2026-05-03T06:47:17.966Z</time></trkpt><trkpt lat="45.7293671" lon="9.9068998"><ele>310.0</ele><time>2026-05-03T06:47:19.958Z</time></trkpt><trkpt lat="45.729442" lon="9.906981"><ele>310.0</ele><time>2026-05-03T06:47:21.963Z</time></trkpt><trkpt lat="45.7295032" lon="9.9070609"><ele>310.0</ele><time>2026-05-03T06:47:24.033Z</time></trkpt><trkpt lat="45.729552" lon="9.9071488"><ele>310.0</ele><time>2026-05-03T06:47:25.969Z</time></trkpt><trkpt lat="45.7295971" lon="9.9072401"><ele>310.3333333333333</ele><time>2026-05-03T06:47:27.947Z</time></trkpt><trkpt lat="45.7296329" lon="9.907326"><ele>310.66666666666663</ele><time>2026-05-03T06:47:29.964Z</time></trkpt><trkpt lat="45.7296827" lon="9.9074088"><ele>311.0</ele><time>2026-05-03T06:47:31.968Z</time></trkpt><trkpt lat="45.729728" lon="9.907522"><ele>311.3333333333333</ele><time>2026-05-03T06:47:33.959Z</time></trkpt><trkpt lat="45.7297637" lon="9.907629"><ele>311.6666666666667</ele><time>2026-05-03T06:47:35.962Z</time></trkpt><trkpt lat="45.7298067" lon="9.9077349"><ele>312.0</ele><time>2026-05-03T06:47:37.959Z</time></trkpt><trkpt lat="45.7298554" lon="9.9078401"><ele>312.0</ele><time>2026-05-03T06:47:39.956Z</time></trkpt><trkpt lat="45.7299013" lon="9.907943"><ele>312.0</ele><time>2026-05-03T06:47:41.952Z</time></trkpt><trkpt lat="45.7299667" lon="9.9080318"><ele>312.0</ele><time>2026-05-03T06:47:43.961Z</time></trkpt><trkpt lat="45.7300452" lon="9.9080911"><ele>312.0</ele><time>2026-05-03T06:47:45.966Z</time></trkpt><trkpt lat="45.7301308" lon="9.9081406"><ele>312.0</ele><time>2026-05-03T06:47:47.955Z</time></trkpt><trkpt lat="45.7302167" lon="9.9081808"><ele>312.0</ele><time>2026-05-03T06:47:49.96Z</time></trkpt><trkpt lat="45.7303051" lon="9.9082219"><ele>312.0</ele><time>2026-05-03T06:47:51.962Z</time></trkpt><trkpt lat="45.7303874" lon="9.9082488"><ele>312.0</ele><time>2026-05-03T06:47:53.962Z</time></trkpt><trkpt lat="45.7304549" lon="9.9082741"><ele>312.0</ele><time>2026-05-03T06:47:55.966Z</time></trkpt><trkpt lat="45.7305217" lon="9.9083152"><ele>312.0</ele><time>2026-05-03T06:47:57.961Z</time></trkpt><trkpt lat="45.7305889" lon="9.908386"><ele>312.0</ele><time>2026-05-03T06:47:59.961Z</time></trkpt><trkpt lat="45.7306606" lon="9.9084805"><ele>312.0</ele><time>2026-05-03T06:48:01.954Z</time></trkpt><trkpt lat="45.7307282" lon="9.9085838"><ele>311.8333333333333</ele><time>2026-05-03T06:48:03.975Z</time></trkpt><trkpt lat="45.7307868" lon="9.9086646"><ele>311.6666666666667</ele><time>2026-05-03T06:48:05.962Z</time></trkpt><trkpt lat="45.7308442" lon="9.9087605"><ele>311.5</ele><time>2026-05-03T06:48:07.96Z</time></trkpt><trkpt lat="45.7308941" lon="9.9088543"><ele>311.33333333333337</ele><time>2026-05-03T06:48:09.971Z</time></trkpt><trkpt lat="45.7309521" lon="9.9089475"><ele>311.1666666666667</ele><time>2026-05-03T06:48:11.964Z</time></trkpt><trkpt lat="45.7310081" lon="9.9090354"><ele>311.0</ele><time>2026-05-03T06:48:13.948Z</time></trkpt><trkpt lat="45.7310751" lon="9.9091164"><ele>311.0</ele><time>2026-05-03T06:48:15.963Z</time></trkpt><trkpt lat="45.7311371" lon="9.9091979"><ele>311.0</ele><time>2026-05-03T06:48:17.958Z</time></trkpt><trkpt lat="45.7312024" lon="9.9092749"><ele>311.0</ele><time>2026-05-03T06:48:19.977Z</time></trkpt><trkpt lat="45.7312731" lon="9.9093635"><ele>311.0</ele><time>2026-05-03T06:48:21.951Z</time></trkpt><trkpt lat="45.7313411" lon="9.9094446"><ele>311.0</ele><time>2026-05-03T06:48:23.956Z</time></trkpt><trkpt lat="45.731413" lon="9.9095245"><ele>311.0</ele><time>2026-05-03T06:48:25.957Z</time></trkpt><trkpt lat="45.7314856" lon="9.9095915"><ele>311.40000000000003</ele><time>2026-05-03T06:48:27.967Z</time></trkpt><trkpt lat="45.7315631" lon="9.9096564"><ele>311.8</ele><time>2026-05-03T06:48:29.952Z</time></trkpt><trkpt lat="45.7316487" lon="9.9097086"><ele>312.20000000000005</ele><time>2026-05-03T06:48:31.965Z</time></trkpt><trkpt lat="45.7317353" lon="9.9097736"><ele>312.6</ele><time>2026-05-03T06:48:33.958Z</time></trkpt><trkpt lat="45.7318201" lon="9.9098398"><ele>313.0</ele><time>2026-05-03T06:48:35.958Z</time></trkpt><trkpt lat="45.7319033" lon="9.9098964"><ele>313.0</ele><time>2026-05-03T06:48:37.966Z</time></trkpt><trkpt lat="45.7319842" lon="9.9099627"><ele>313.0</ele><time>2026-05-03T06:48:39.964Z</time></trkpt><trkpt lat="45.7320553" lon="9.910035"><ele>313.0</ele><time>2026-05-03T06:48:41.947Z</time></trkpt><trkpt lat="45.7321269" lon="9.9101022"><ele>313.0</ele><time>2026-05-03T06:48:43.967Z</time></trkpt><trkpt lat="45.7322044" lon="9.9101782"><ele>313.0</ele><time>2026-05-03T06:48:45.956Z</time></trkpt><trkpt lat="45.7322592" lon="9.9102564"><ele>313.0</ele><time>2026-05-03T06:48:47.965Z</time></trkpt><trkpt lat="45.732301" lon="9.9103669"><ele>313.16666666666663</ele><time>2026-05-03T06:48:49.955Z</time></trkpt><trkpt lat="45.7323344" lon="9.910449"><ele>313.3333333333333</ele><time>2026-05-03T06:48:51.964Z</time></trkpt><trkpt lat="45.7323688" lon="9.9105372"><ele>313.5</ele><time>2026-05-03T06:48:53.941Z</time></trkpt><trkpt lat="45.7324117" lon="9.9106278"><ele>313.6666666666667</ele><time>2026-05-03T06:48:55.974Z</time></trkpt><trkpt lat="45.7324405" lon="9.9107299"><ele>313.83333333333337</ele><time>2026-05-03T06:48:57.963Z</time></trkpt><trkpt lat="45.7324774" lon="9.9108374"><ele>314.0</ele><time>2026-05-03T06:48:59.955Z</time></trkpt><trkpt lat="45.7325208" lon="9.9109494"><ele>314.6666666666667</ele><time>2026-05-03T06:49:01.961Z</time></trkpt><trkpt lat="45.7325718" lon="9.9110546"><ele>315.33333333333337</ele><time>2026-05-03T06:49:03.971Z</time></trkpt><trkpt lat="45.7326057" lon="9.9111639"><ele>316.0</ele><time>2026-05-03T06:49:05.966Z</time></trkpt><trkpt lat="45.7326484" lon="9.9112556"><ele>316.6666666666667</ele><time>2026-05-03T06:49:07.965Z</time></trkpt><trkpt lat="45.7326909" lon="9.9113224"><ele>317.3333333333333</ele><time>2026-05-03T06:49:09.954Z</time></trkpt><trkpt lat="45.7327582" lon="9.9114054"><ele>318.0</ele><time>2026-05-03T06:49:11.951Z</time></trkpt><trkpt lat="45.7328275" lon="9.9114928"><ele>318.0</ele><time>2026-05-03T06:49:13.965Z</time></trkpt><trkpt lat="45.7329107" lon="9.9115352"><ele>318.0</ele><time>2026-05-03T06:49:15.966Z</time></trkpt><trkpt lat="45.7330019" lon="9.9115443"><ele>318.0</ele><time>2026-05-03T06:49:17.967Z</time></trkpt><trkpt lat="45.7330885" lon="9.9115257"><ele>318.0</ele><time>2026-05-03T06:49:19.956Z</time></trkpt><trkpt lat="45.7331645" lon="9.9114963"><ele>318.0</ele><time>2026-05-03T06:49:21.973Z</time></trkpt><trkpt lat="45.7332219" lon="9.9114065"><ele>318.0</ele><time>2026-05-03T06:49:23.968Z</time></trkpt><trkpt lat="45.7332569" lon="9.9112997"><ele>318.0</ele><time>2026-05-03T06:49:25.96Z</time></trkpt><trkpt lat="45.7332807" lon="9.9111745"><ele>318.0</ele><time>2026-05-03T06:49:27.962Z</time></trkpt><trkpt lat="45.7333013" lon="9.9110534"><ele>318.0</ele><time>2026-05-03T06:49:29.963Z</time></trkpt><trkpt lat="45.7333252" lon="9.9109424"><ele>318.0</ele><time>2026-05-03T06:49:31.971Z</time></trkpt><trkpt lat="45.7333533" lon="9.9108246"><ele>318.0</ele><time>2026-05-03T06:49:33.963Z</time></trkpt><trkpt lat="45.7333781" lon="9.9107027"><ele>318.0</ele><time>2026-05-03T06:49:35.965Z</time></trkpt><trkpt lat="45.7334154" lon="9.9105793"><ele>317.6666666666667</ele><time>2026-05-03T06:49:37.955Z</time></trkpt><trkpt lat="45.7334472" lon="9.9104712"><ele>317.3333333333333</ele><time>2026-05-03T06:49:39.961Z</time></trkpt><trkpt lat="45.7334807" lon="9.9103518"><ele>317.0</ele><time>2026-05-03T06:49:42.032Z</time></trkpt><trkpt lat="45.7335049" lon="9.9102342"><ele>316.66666666666663</ele><time>2026-05-03T06:49:43.96Z</time></trkpt><trkpt lat="45.7335364" lon="9.9101203"><ele>316.3333333333333</ele><time>2026-05-03T06:49:45.965Z</time></trkpt><trkpt lat="45.7335631" lon="9.9100064"><ele>316.0</ele><time>2026-05-03T06:49:47.972Z</time></trkpt><trkpt lat="45.7335842" lon="9.9098863"><ele>316.00000000000006</ele><time>2026-05-03T06:49:49.971Z</time></trkpt><trkpt lat="45.733584" lon="9.9097624"><ele>316.0</ele><time>2026-05-03T06:49:51.976Z</time></trkpt><trkpt lat="45.7335854" lon="9.9096506"><ele>316.0</ele><time>2026-05-03T06:49:54.034Z</time></trkpt><trkpt lat="45.733583" lon="9.9095516"><ele>316.0</ele><time>2026-05-03T06:49:55.971Z</time></trkpt><trkpt lat="45.7335756" lon="9.9094592"><ele>316.0</ele><time>2026-05-03T06:49:57.949Z</time></trkpt><trkpt lat="45.7335342" lon="9.9093903"><ele>316.00000000000006</ele><time>2026-05-03T06:50:00.991Z</time></trkpt><trkpt lat="45.7335087" lon="9.9094924"><ele>316.0</ele><time>2026-05-03T06:50:04.034Z</time></trkpt><trkpt lat="45.7334402" lon="9.9094891"><ele>315.7142857142857</ele><time>2026-05-03T06:50:09.975Z</time></trkpt><trkpt lat="45.7333577" lon="9.9095051"><ele>315.42857142857144</ele><time>2026-05-03T06:50:12.957Z</time></trkpt><trkpt lat="45.733284" lon="9.909508"><ele>315.1428571428571</ele><time>2026-05-03T06:50:15.951Z</time></trkpt><trkpt lat="45.7333511" lon="9.9095381"><ele>314.8571428571429</ele><time>2026-05-03T06:50:59.957Z</time></trkpt><trkpt lat="45.7334187" lon="9.9095354"><ele>314.57142857142856</ele><time>2026-05-03T06:51:04.955Z</time></trkpt><trkpt lat="45.7334758" lon="9.9095798"><ele>314.2857142857143</ele><time>2026-05-03T06:51:07.949Z</time></trkpt><trkpt lat="45.7334978" lon="9.9096824"><ele>314.0</ele><time>2026-05-03T06:51:10.957Z</time></trkpt><trkpt lat="45.7335208" lon="9.9097757"><ele>314.0</ele><time>2026-05-03T06:51:12.955Z</time></trkpt><trkpt lat="45.7335309" lon="9.9098726"><ele>314.0</ele><time>2026-05-03T06:51:14.955Z</time></trkpt><trkpt lat="45.7335309" lon="9.909967"><ele>314.0</ele><time>2026-05-03T06:51:16.952Z</time></trkpt><trkpt lat="45.7335198" lon="9.9100577"><ele>314.0</ele><time>2026-05-03T06:51:18.959Z</time></trkpt><trkpt lat="45.7334954" lon="9.9101789"><ele>314.0</ele><time>2026-05-03T06:51:21.955Z</time></trkpt><trkpt lat="45.7334764" lon="9.9103052"><ele>314.0</ele><time>2026-05-03T06:51:24.953Z</time></trkpt><trkpt lat="45.7334488" lon="9.9104312"><ele>314.1666666666667</ele><time>2026-05-03T06:51:27.961Z</time></trkpt><trkpt lat="45.7334178" lon="9.9105483"><ele>314.33333333333337</ele><time>2026-05-03T06:51:30.952Z</time></trkpt><trkpt lat="45.7334001" lon="9.9106423"><ele>314.5</ele><time>2026-05-03T06:51:32.947Z</time></trkpt><trkpt lat="45.7333891" lon="9.9107378"><ele>314.6666666666667</ele><time>2026-05-03T06:51:34.954Z</time></trkpt><trkpt lat="45.7333697" lon="9.9108498"><ele>314.8333333333333</ele><time>2026-05-03T06:51:37.949Z</time></trkpt><trkpt lat="45.7333363" lon="9.9109597"><ele>315.0</ele><time>2026-05-03T06:51:40.955Z</time></trkpt><trkpt lat="45.733307" lon="9.9110801"><ele>315.5</ele><time>2026-05-03T06:51:43.948Z</time></trkpt><trkpt lat="45.7332972" lon="9.9111929"><ele>316.0</ele><time>2026-05-03T06:51:46.962Z</time></trkpt><trkpt lat="45.7333009" lon="9.911313"><ele>316.5</ele><time>2026-05-03T06:51:49.952Z</time></trkpt><trkpt lat="45.7333331" lon="9.9113986"><ele>317.0</ele><time>2026-05-03T06:51:51.955Z</time></trkpt><trkpt lat="45.7334091" lon="9.9114579"><ele>317.5</ele><time>2026-05-03T06:51:54.957Z</time></trkpt><trkpt lat="45.7335006" lon="9.9114537"><ele>318.0</ele><time>2026-05-03T06:51:57.948Z</time></trkpt><trkpt lat="45.7335928" lon="9.9114382"><ele>318.85714285714283</ele><time>2026-05-03T06:52:00.949Z</time></trkpt><trkpt lat="45.7336836" lon="9.91141"><ele>319.7142857142857</ele><time>2026-05-03T06:52:03.947Z</time></trkpt><trkpt lat="45.7337443" lon="9.911382"><ele>320.57142857142856</ele><time>2026-05-03T06:52:05.944Z</time></trkpt><trkpt lat="45.7338034" lon="9.9113469"><ele>321.42857142857144</ele><time>2026-05-03T06:52:07.934Z</time></trkpt><trkpt lat="45.7338737" lon="9.9113153"><ele>322.2857142857143</ele><time>2026-05-03T06:52:09.956Z</time></trkpt><trkpt lat="45.7339346" lon="9.9112796"><ele>323.14285714285717</ele><time>2026-05-03T06:52:11.959Z</time></trkpt><trkpt lat="45.7339966" lon="9.9112502"><ele>324.0</ele><time>2026-05-03T06:52:13.956Z</time></trkpt><trkpt lat="45.7340847" lon="9.9111889"><ele>324.0</ele><time>2026-05-03T06:52:16.955Z</time></trkpt><trkpt lat="45.7341482" lon="9.9111602"><ele>324.0</ele><time>2026-05-03T06:52:18.953Z</time></trkpt><trkpt lat="45.7342137" lon="9.9111321"><ele>324.0</ele><time>2026-05-03T06:52:20.96Z</time></trkpt><trkpt lat="45.7342749" lon="9.9111101"><ele>324.0</ele><time>2026-05-03T06:52:22.954Z</time></trkpt><trkpt lat="45.734339" lon="9.9110788"><ele>324.0</ele><time>2026-05-03T06:52:24.954Z</time></trkpt><trkpt lat="45.7344019" lon="9.9110465"><ele>324.0</ele><time>2026-05-03T06:52:26.95Z</time></trkpt><trkpt lat="45.7344673" lon="9.9110013"><ele>324.0</ele><time>2026-05-03T06:52:28.96Z</time></trkpt><trkpt lat="45.7345314" lon="9.910966"><ele>323.7142857142857</ele><time>2026-05-03T06:52:30.963Z</time></trkpt><trkpt lat="45.7345931" lon="9.9109415"><ele>323.42857142857144</ele><time>2026-05-03T06:52:32.952Z</time></trkpt><trkpt lat="45.7346542" lon="9.9109073"><ele>323.1428571428571</ele><time>2026-05-03T06:52:34.956Z</time></trkpt><trkpt lat="45.7347164" lon="9.9108774"><ele>322.8571428571429</ele><time>2026-05-03T06:52:36.954Z</time></trkpt><trkpt lat="45.7347871" lon="9.9108599"><ele>322.57142857142856</ele><time>2026-05-03T06:52:38.952Z</time></trkpt><trkpt lat="45.7348568" lon="9.9108431"><ele>322.2857142857143</ele><time>2026-05-03T06:52:40.955Z</time></trkpt><trkpt lat="45.7349211" lon="9.9108136"><ele>322.0</ele><time>2026-05-03T06:52:42.957Z</time></trkpt><trkpt lat="45.7349842" lon="9.9108038"><ele>322.0</ele><time>2026-05-03T06:52:44.963Z</time></trkpt><trkpt lat="45.7350465" lon="9.9107851"><ele>322.0</ele><time>2026-05-03T06:52:46.957Z</time></trkpt><trkpt lat="45.7351153" lon="9.9107689"><ele>322.0</ele><time>2026-05-03T06:52:48.937Z</time></trkpt><trkpt lat="45.73518" lon="9.9107602"><ele>322.0</ele><time>2026-05-03T06:52:50.959Z</time></trkpt><trkpt lat="45.7352446" lon="9.9107569"><ele>322.0</ele><time>2026-05-03T06:52:52.96Z</time></trkpt><trkpt lat="45.7353187" lon="9.9107561"><ele>322.0</ele><time>2026-05-03T06:52:54.954Z</time></trkpt><trkpt lat="45.7353917" lon="9.9107543"><ele>322.0</ele><time>2026-05-03T06:52:56.958Z</time></trkpt><trkpt lat="45.7354566" lon="9.9107455"><ele>323.42857142857144</ele><time>2026-05-03T06:52:58.957Z</time></trkpt><trkpt lat="45.7355291" lon="9.9107347"><ele>324.8571428571429</ele><time>2026-05-03T06:53:00.953Z</time></trkpt><trkpt lat="45.7355922" lon="9.9107258"><ele>326.2857142857143</ele><time>2026-05-03T06:53:02.947Z</time></trkpt><trkpt lat="45.7356578" lon="9.9107191"><ele>327.7142857142857</ele><time>2026-05-03T06:53:04.947Z</time></trkpt><trkpt lat="45.7357248" lon="9.910719"><ele>329.14285714285717</ele><time>2026-05-03T06:53:06.936Z</time></trkpt><trkpt lat="45.7357924" lon="9.9107276"><ele>330.57142857142856</ele><time>2026-05-03T06:53:08.962Z</time></trkpt><trkpt lat="45.7358556" lon="9.9107214"><ele>332.0</ele><time>2026-05-03T06:53:10.953Z</time></trkpt><trkpt lat="45.7359219" lon="9.9107229"><ele>332.0</ele><time>2026-05-03T06:53:12.96Z</time></trkpt><trkpt lat="45.7359907" lon="9.9107287"><ele>332.0</ele><time>2026-05-03T06:53:14.943Z</time></trkpt><trkpt lat="45.7360752" lon="9.9107327"><ele>332.0</ele><time>2026-05-03T06:53:16.959Z</time></trkpt><trkpt lat="45.7361683" lon="9.9107302"><ele>332.0</ele><time>2026-05-03T06:53:18.958Z</time></trkpt><trkpt lat="45.7362731" lon="9.9107409"><ele>332.0</ele><time>2026-05-03T06:53:20.953Z</time></trkpt><trkpt lat="45.7363809" lon="9.9107519"><ele>331.0</ele><time>2026-05-03T06:53:22.953Z</time></trkpt><trkpt lat="45.7364931" lon="9.9107627"><ele>330.0</ele><time>2026-05-03T06:53:24.963Z</time></trkpt><trkpt lat="45.7366063" lon="9.9107498"><ele>329.0</ele><time>2026-05-03T06:53:26.953Z</time></trkpt><trkpt lat="45.7367149" lon="9.9107339"><ele>328.0</ele><time>2026-05-03T06:53:28.955Z</time></trkpt><trkpt lat="45.736821" lon="9.9107485"><ele>327.0</ele><time>2026-05-03T06:53:30.958Z</time></trkpt><trkpt lat="45.7369158" lon="9.9107818"><ele>326.1666666666667</ele><time>2026-05-03T06:53:32.941Z</time></trkpt><trkpt lat="45.7370063" lon="9.9108295"><ele>325.3333333333333</ele><time>2026-05-03T06:53:34.959Z</time></trkpt><trkpt lat="45.7370858" lon="9.9108755"><ele>324.5</ele><time>2026-05-03T06:53:36.947Z</time></trkpt><trkpt lat="45.7371591" lon="9.9109096"><ele>323.66666666666663</ele><time>2026-05-03T06:53:38.963Z</time></trkpt><trkpt lat="45.7372298" lon="9.9109382"><ele>322.8333333333333</ele><time>2026-05-03T06:53:40.949Z</time></trkpt><trkpt lat="45.7373036" lon="9.9109668"><ele>322.0</ele><time>2026-05-03T06:53:42.935Z</time></trkpt><trkpt lat="45.737381" lon="9.911001"><ele>323.0</ele><time>2026-05-03T06:53:44.935Z</time></trkpt><trkpt lat="45.7374482" lon="9.9110421"><ele>324.0</ele><time>2026-05-03T06:53:46.958Z</time></trkpt><trkpt lat="45.737521" lon="9.9110687"><ele>325.0</ele><time>2026-05-03T06:53:48.949Z</time></trkpt><trkpt lat="45.7375952" lon="9.9111021"><ele>326.0</ele><time>2026-05-03T06:53:50.955Z</time></trkpt><trkpt lat="45.7376614" lon="9.9111256"><ele>327.0</ele><time>2026-05-03T06:53:52.945Z</time></trkpt><trkpt lat="45.7377324" lon="9.9111543"><ele>328.0</ele><time>2026-05-03T06:53:54.962Z</time></trkpt><trkpt lat="45.7378077" lon="9.9111932"><ele>329.0</ele><time>2026-05-03T06:53:56.967Z</time></trkpt><trkpt lat="45.7378815" lon="9.911232"><ele>329.0</ele><time>2026-05-03T06:53:58.953Z</time></trkpt><trkpt lat="45.7379483" lon="9.9112673"><ele>329.0</ele><time>2026-05-03T06:54:00.96Z</time></trkpt><trkpt lat="45.738011" lon="9.9113081"><ele>329.0</ele><time>2026-05-03T06:54:02.951Z</time></trkpt><trkpt lat="45.7380718" lon="9.9113538"><ele>329.0</ele><time>2026-05-03T06:54:04.946Z</time></trkpt><trkpt lat="45.7381321" lon="9.9114039"><ele>329.0</ele><time>2026-05-03T06:54:06.932Z</time></trkpt><trkpt lat="45.7381893" lon="9.9114622"><ele>329.0</ele><time>2026-05-03T06:54:08.953Z</time></trkpt><trkpt lat="45.7382534" lon="9.9115213"><ele>329.0</ele><time>2026-05-03T06:54:10.952Z</time></trkpt><trkpt lat="45.7383243" lon="9.911578"><ele>329.0</ele><time>2026-05-03T06:54:12.961Z</time></trkpt><trkpt lat="45.7383906" lon="9.9116198"><ele>329.0</ele><time>2026-05-03T06:54:14.946Z</time></trkpt><trkpt lat="45.7384716" lon="9.9116619"><ele>329.0</ele><time>2026-05-03T06:54:16.961Z</time></trkpt><trkpt lat="45.7385565" lon="9.9117076"><ele>329.0</ele><time>2026-05-03T06:54:18.963Z</time></trkpt><trkpt lat="45.738645" lon="9.9117474"><ele>329.0</ele><time>2026-05-03T06:54:20.943Z</time></trkpt><trkpt lat="45.738748" lon="9.9117784"><ele>329.0</ele><time>2026-05-03T06:54:22.948Z</time></trkpt><trkpt lat="45.7388657" lon="9.9117904"><ele>333.2</ele><time>2026-05-03T06:54:24.953Z</time></trkpt><trkpt lat="45.738932" lon="9.9118036"><ele>337.4</ele><time>2026-05-03T06:54:25.958Z</time></trkpt><trkpt lat="45.7390583" lon="9.9118152"><ele>341.6</ele><time>2026-05-03T06:54:27.96Z</time></trkpt><trkpt lat="45.7391719" lon="9.9118398"><ele>345.8</ele><time>2026-05-03T06:54:29.965Z</time></trkpt><trkpt lat="45.739277" lon="9.9118609"><ele>350.0</ele><time>2026-05-03T06:54:31.942Z</time></trkpt><trkpt lat="45.7393674" lon="9.9118958"><ele>347.33333333333337</ele><time>2026-05-03T06:54:33.964Z</time></trkpt><trkpt lat="45.7394469" lon="9.9119327"><ele>344.6666666666667</ele><time>2026-05-03T06:54:35.951Z</time></trkpt><trkpt lat="45.7395354" lon="9.9119644"><ele>342.0</ele><time>2026-05-03T06:54:37.946Z</time></trkpt><trkpt lat="45.7396097" lon="9.911987"><ele>339.3333333333333</ele><time>2026-05-03T06:54:39.968Z</time></trkpt><trkpt lat="45.7396877" lon="9.9120162"><ele>336.66666666666663</ele><time>2026-05-03T06:54:41.955Z</time></trkpt><trkpt lat="45.7397663" lon="9.9120339"><ele>334.0</ele><time>2026-05-03T06:54:43.959Z</time></trkpt><trkpt lat="45.7398519" lon="9.9120226"><ele>334.0</ele><time>2026-05-03T06:54:45.956Z</time></trkpt><trkpt lat="45.7399281" lon="9.9119924"><ele>334.0</ele><time>2026-05-03T06:54:47.967Z</time></trkpt><trkpt lat="45.7400117" lon="9.9119456"><ele>334.0</ele><time>2026-05-03T06:54:49.954Z</time></trkpt><trkpt lat="45.7400876" lon="9.9119043"><ele>334.0</ele><time>2026-05-03T06:54:51.931Z</time></trkpt><trkpt lat="45.7401773" lon="9.9118576"><ele>334.0</ele><time>2026-05-03T06:54:53.931Z</time></trkpt><trkpt lat="45.7402674" lon="9.9117975"><ele>334.0</ele><time>2026-05-03T06:54:55.941Z</time></trkpt><trkpt lat="45.7403434" lon="9.9118027"><ele>334.2857142857143</ele><time>2026-05-03T06:54:57.958Z</time></trkpt><trkpt lat="45.7404077" lon="9.9118202"><ele>334.57142857142856</ele><time>2026-05-03T06:54:59.952Z</time></trkpt><trkpt lat="45.7404784" lon="9.9118422"><ele>334.8571428571429</ele><time>2026-05-03T06:55:01.958Z</time></trkpt><trkpt lat="45.7405436" lon="9.9118598"><ele>335.1428571428571</ele><time>2026-05-03T06:55:03.958Z</time></trkpt><trkpt lat="45.7406392" lon="9.9118844"><ele>335.42857142857144</ele><time>2026-05-03T06:55:06.946Z</time></trkpt><trkpt lat="45.7407074" lon="9.9118993"><ele>335.7142857142857</ele><time>2026-05-03T06:55:08.946Z</time></trkpt><trkpt lat="45.7407762" lon="9.9118959"><ele>336.0</ele><time>2026-05-03T06:55:10.964Z</time></trkpt><trkpt lat="45.7408587" lon="9.9119046"><ele>336.0</ele><time>2026-05-03T06:55:12.95Z</time></trkpt><trkpt lat="45.7409316" lon="9.9118877"><ele>336.0</ele><time>2026-05-03T06:55:14.956Z</time></trkpt><trkpt lat="45.7410061" lon="9.9118672"><ele>336.0</ele><time>2026-05-03T06:55:16.962Z</time></trkpt><trkpt lat="45.7410699" lon="9.9118421"><ele>336.0</ele><time>2026-05-03T06:55:18.952Z</time></trkpt><trkpt lat="45.7411593" lon="9.9117919"><ele>336.0</ele><time>2026-05-03T06:55:21.945Z</time></trkpt><trkpt lat="45.7412391" lon="9.9117726"><ele>336.0</ele><time>2026-05-03T06:55:24.956Z</time></trkpt><trkpt lat="45.7413233" lon="9.9118347"><ele>337.0</ele><time>2026-05-03T06:55:27.954Z</time></trkpt><trkpt lat="45.741375" lon="9.9118894"><ele>338.0</ele><time>2026-05-03T06:55:29.959Z</time></trkpt><trkpt lat="45.7414325" lon="9.9119334"><ele>339.0</ele><time>2026-05-03T06:55:31.95Z</time></trkpt><trkpt lat="45.7415025" lon="9.911919"><ele>340.0</ele><time>2026-05-03T06:55:33.956Z</time></trkpt><trkpt lat="45.7415707" lon="9.9119037"><ele>341.0</ele><time>2026-05-03T06:55:35.958Z</time></trkpt><trkpt lat="45.7416417" lon="9.9118686"><ele>342.0</ele><time>2026-05-03T06:55:37.953Z</time></trkpt><trkpt lat="45.7417072" lon="9.9118121"><ele>343.0</ele><time>2026-05-03T06:55:39.954Z</time></trkpt><trkpt lat="45.7417647" lon="9.911774"><ele>343.0</ele><time>2026-05-03T06:55:41.959Z</time></trkpt><trkpt lat="45.7418238" lon="9.9117139"><ele>343.0</ele><time>2026-05-03T06:55:44.935Z</time></trkpt><trkpt lat="45.74189" lon="9.9116868"><ele>343.0</ele><time>2026-05-03T06:57:25.95Z</time></trkpt><trkpt lat="45.7419591" lon="9.9116873"><ele>343.0</ele><time>2026-05-03T06:57:28.96Z</time></trkpt><trkpt lat="45.7420518" lon="9.9116619"><ele>343.0</ele><time>2026-05-03T06:57:31.955Z</time></trkpt><trkpt lat="45.7421384" lon="9.9116334"><ele>343.0</ele><time>2026-05-03T06:57:33.956Z</time></trkpt><trkpt lat="45.7422348" lon="9.9115874"><ele>343.0</ele><time>2026-05-03T06:57:35.958Z</time></trkpt><trkpt lat="45.7423367" lon="9.9115249"><ele>343.0</ele><time>2026-05-03T06:57:37.949Z</time></trkpt><trkpt lat="45.742444" lon="9.9114388"><ele>343.0</ele><time>2026-05-03T06:57:39.96Z</time></trkpt><trkpt lat="45.7425594" lon="9.9113688"><ele>343.0</ele><time>2026-05-03T06:57:41.953Z</time></trkpt><trkpt lat="45.7426246" lon="9.9113247"><ele>343.0</ele><time>2026-05-03T06:57:42.958Z</time></trkpt><trkpt lat="45.7426956" lon="9.9112798"><ele>344.8333333333333</ele><time>2026-05-03T06:57:43.96Z</time></trkpt><trkpt lat="45.7427677" lon="9.9112272"><ele>346.66666666666663</ele><time>2026-05-03T06:57:44.959Z</time></trkpt><trkpt lat="45.7428457" lon="9.9111803"><ele>348.5</ele><time>2026-05-03T06:57:45.954Z</time></trkpt><trkpt lat="45.7429262" lon="9.9111255"><ele>350.3333333333333</ele><time>2026-05-03T06:57:46.938Z</time></trkpt><trkpt lat="45.7430142" lon="9.9110756"><ele>352.1666666666667</ele><time>2026-05-03T06:57:47.966Z</time></trkpt><trkpt lat="45.7431003" lon="9.9110152"><ele>354.0</ele><time>2026-05-03T06:57:48.951Z</time></trkpt><trkpt lat="45.7431817" lon="9.9109551"><ele>354.0</ele><time>2026-05-03T06:57:49.955Z</time></trkpt><trkpt lat="45.7432513" lon="9.9109083"><ele>354.0</ele><time>2026-05-03T06:57:50.951Z</time></trkpt><trkpt lat="45.7433229" lon="9.9108548"><ele>354.0</ele><time>2026-05-03T06:57:51.967Z</time></trkpt><trkpt lat="45.7433866" lon="9.9108149"><ele>354.0</ele><time>2026-05-03T06:57:52.958Z</time></trkpt><trkpt lat="45.7434469" lon="9.9107789"><ele>354.0</ele><time>2026-05-03T06:57:53.955Z</time></trkpt><trkpt lat="45.7435594" lon="9.9107147"><ele>354.0</ele><time>2026-05-03T06:57:55.96Z</time></trkpt><trkpt lat="45.7436768" lon="9.9106828"><ele>351.3333333333333</ele><time>2026-05-03T06:57:57.946Z</time></trkpt><trkpt lat="45.7437698" lon="9.9106754"><ele>348.6666666666667</ele><time>2026-05-03T06:57:59.954Z</time></trkpt><trkpt lat="45.7438568" lon="9.9106829"><ele>346.0</ele><time>2026-05-03T06:58:01.952Z</time></trkpt><trkpt lat="45.7439426" lon="9.9107067"><ele>343.33333333333337</ele><time>2026-05-03T06:58:04.03Z</time></trkpt><trkpt lat="45.7440154" lon="9.9107334"><ele>340.6666666666667</ele><time>2026-05-03T06:58:05.976Z</time></trkpt><trkpt lat="45.7441081" lon="9.9107452"><ele>338.0</ele><time>2026-05-03T06:58:07.98Z</time></trkpt><trkpt lat="45.7441934" lon="9.9107578"><ele>338.0</ele><time>2026-05-03T06:58:09.969Z</time></trkpt><trkpt lat="45.7442785" lon="9.9107761"><ele>338.0</ele><time>2026-05-03T06:58:11.959Z</time></trkpt><trkpt lat="45.7443749" lon="9.9107816"><ele>338.0</ele><time>2026-05-03T06:58:13.977Z</time></trkpt><trkpt lat="45.7444723" lon="9.9107575"><ele>338.0</ele><time>2026-05-03T06:58:15.967Z</time></trkpt><trkpt lat="45.7445617" lon="9.910711"><ele>338.0</ele><time>2026-05-03T06:58:17.969Z</time></trkpt><trkpt lat="45.7446538" lon="9.9106803"><ele>338.2</ele><time>2026-05-03T06:58:19.972Z</time></trkpt><trkpt lat="45.7447433" lon="9.9106522"><ele>338.4</ele><time>2026-05-03T06:58:21.978Z</time></trkpt><trkpt lat="45.7448363" lon="9.9106466"><ele>338.59999999999997</ele><time>2026-05-03T06:58:24.041Z</time></trkpt><trkpt lat="45.7449303" lon="9.9106533"><ele>338.79999999999995</ele><time>2026-05-03T06:58:25.971Z</time></trkpt><trkpt lat="45.7450188" lon="9.9106809"><ele>339.0</ele><time>2026-05-03T06:58:27.967Z</time></trkpt><trkpt lat="45.7451074" lon="9.9106856"><ele>339.0</ele><time>2026-05-03T06:58:29.972Z</time></trkpt><trkpt lat="45.7451915" lon="9.910686"><ele>339.0</ele><time>2026-05-03T06:58:31.977Z</time></trkpt><trkpt lat="45.7452668" lon="9.9106933"><ele>339.0</ele><time>2026-05-03T06:58:33.972Z</time></trkpt><trkpt lat="45.7453461" lon="9.9107015"><ele>339.0</ele><time>2026-05-03T06:58:35.973Z</time></trkpt><trkpt lat="45.7454104" lon="9.9107123"><ele>339.0</ele><time>2026-05-03T06:58:37.968Z</time></trkpt><trkpt lat="45.7454852" lon="9.9107345"><ele>339.0</ele><time>2026-05-03T06:58:39.97Z</time></trkpt><trkpt lat="45.7455712" lon="9.9107889"><ele>338.6666666666667</ele><time>2026-05-03T06:58:41.974Z</time></trkpt><trkpt lat="45.7456478" lon="9.9108294"><ele>338.3333333333333</ele><time>2026-05-03T06:58:43.974Z</time></trkpt><trkpt lat="45.7457228" lon="9.910854"><ele>338.0</ele><time>2026-05-03T06:58:45.97Z</time></trkpt><trkpt lat="45.7457888" lon="9.910867"><ele>337.66666666666663</ele><time>2026-05-03T06:58:47.979Z</time></trkpt><trkpt lat="45.7458661" lon="9.9108592"><ele>337.3333333333333</ele><time>2026-05-03T06:58:50.962Z</time></trkpt><trkpt lat="45.7459448" lon="9.9108309"><ele>337.0</ele><time>2026-05-03T06:58:53.975Z</time></trkpt><trkpt lat="45.7460123" lon="9.9107923"><ele>337.20000000000005</ele><time>2026-05-03T06:58:55.973Z</time></trkpt><trkpt lat="45.7460793" lon="9.9107264"><ele>337.4</ele><time>2026-05-03T06:58:57.974Z</time></trkpt><trkpt lat="45.7462052" lon="9.9106592"><ele>337.6</ele><time>2026-05-03T06:58:59.974Z</time></trkpt><trkpt lat="45.7462888" lon="9.9106253"><ele>337.79999999999995</ele><time>2026-05-03T06:59:00.968Z</time></trkpt><trkpt lat="45.7463739" lon="9.9105966"><ele>338.0</ele><time>2026-05-03T06:59:01.967Z</time></trkpt><trkpt lat="45.7464527" lon="9.9105949"><ele>338.0</ele><time>2026-05-03T06:59:02.97Z</time></trkpt><trkpt lat="45.746532" lon="9.9106093"><ele>338.0</ele><time>2026-05-03T06:59:03.967Z</time></trkpt><trkpt lat="45.7466199" lon="9.910606"><ele>338.0</ele><time>2026-05-03T06:59:04.969Z</time></trkpt><trkpt lat="45.7467047" lon="9.910586"><ele>338.0</ele><time>2026-05-03T06:59:05.959Z</time></trkpt><trkpt lat="45.7467977" lon="9.9105642"><ele>338.0</ele><time>2026-05-03T06:59:06.968Z</time></trkpt><trkpt lat="45.7468937" lon="9.9105498"><ele>338.0</ele><time>2026-05-03T06:59:07.974Z</time></trkpt><trkpt lat="45.7469768" lon="9.91053"><ele>337.83333333333337</ele><time>2026-05-03T06:59:08.971Z</time></trkpt><trkpt lat="45.747065" lon="9.9105238"><ele>337.6666666666667</ele><time>2026-05-03T06:59:09.977Z</time></trkpt><trkpt lat="45.7471505" lon="9.9105328"><ele>337.5</ele><time>2026-05-03T06:59:10.975Z</time></trkpt><trkpt lat="45.7472234" lon="9.9105326"><ele>337.3333333333333</ele><time>2026-05-03T06:59:11.97Z</time></trkpt><trkpt lat="45.7472884" lon="9.9105349"><ele>337.16666666666663</ele><time>2026-05-03T06:59:12.968Z</time></trkpt><trkpt lat="45.7473536" lon="9.9105407"><ele>337.0</ele><time>2026-05-03T06:59:13.968Z</time></trkpt><trkpt lat="45.7474545" lon="9.910573"><ele>337.0</ele><time>2026-05-03T06:59:15.968Z</time></trkpt><trkpt lat="45.7475463" lon="9.9105997"><ele>337.0</ele><time>2026-05-03T06:59:17.966Z</time></trkpt><trkpt lat="45.7476267" lon="9.9106334"><ele>337.0</ele><time>2026-05-03T06:59:19.974Z</time></trkpt><trkpt lat="45.7477088" lon="9.9106559"><ele>337.0</ele><time>2026-05-03T06:59:21.954Z</time></trkpt><trkpt lat="45.7477912" lon="9.9106787"><ele>337.0</ele><time>2026-05-03T06:59:23.968Z</time></trkpt><trkpt lat="45.7478592" lon="9.9106963"><ele>337.0</ele><time>2026-05-03T06:59:25.975Z</time></trkpt><trkpt lat="45.7479438" lon="9.9107231"><ele>337.28571428571433</ele><time>2026-05-03T06:59:28.973Z</time></trkpt><trkpt lat="45.7480087" lon="9.9107249"><ele>337.57142857142856</ele><time>2026-05-03T06:59:31.972Z</time></trkpt><trkpt lat="45.748079" lon="9.9107297"><ele>337.8571428571429</ele><time>2026-05-03T06:59:34.967Z</time></trkpt><trkpt lat="45.7481545" lon="9.9107362"><ele>338.14285714285717</ele><time>2026-05-03T06:59:37.971Z</time></trkpt><trkpt lat="45.7481849" lon="9.9106383"><ele>338.42857142857144</ele><time>2026-05-03T06:59:42.967Z</time></trkpt><trkpt lat="45.7482398" lon="9.9105766"><ele>338.7142857142857</ele><time>2026-05-03T06:59:44.966Z</time></trkpt><trkpt lat="45.7483095" lon="9.9105938"><ele>339.0</ele><time>2026-05-03T06:59:45.971Z</time></trkpt><trkpt lat="45.7483801" lon="9.9106407"><ele>339.0</ele><time>2026-05-03T06:59:47.956Z</time></trkpt><trkpt lat="45.7484485" lon="9.9106932"><ele>339.0</ele><time>2026-05-03T06:59:49.96Z</time></trkpt><trkpt lat="45.7485097" lon="9.910734"><ele>339.0</ele><time>2026-05-03T06:59:51.966Z</time></trkpt><trkpt lat="45.7485904" lon="9.9107705"><ele>339.0</ele><time>2026-05-03T06:59:54.956Z</time></trkpt><trkpt lat="45.7486704" lon="9.9106679"><ele>339.0</ele><time>2026-05-03T06:59:57.969Z</time></trkpt><trkpt lat="45.7487252" lon="9.9105897"><ele>339.0</ele><time>2026-05-03T06:59:59.97Z</time></trkpt><trkpt lat="45.748788" lon="9.9105148"><ele>339.0</ele><time>2026-05-03T07:00:02.966Z</time></trkpt><trkpt lat="45.7488229" lon="9.9104189"><ele>339.0</ele><time>2026-05-03T07:00:07.953Z</time></trkpt><trkpt lat="45.7488451" lon="9.910504"><ele>339.0</ele><time>2026-05-03T07:00:52.964Z</time></trkpt><trkpt lat="45.7489201" lon="9.910502"><ele>339.0</ele><time>2026-05-03T07:01:48.978Z</time></trkpt><trkpt lat="45.7488544" lon="9.9104938"><ele>339.0</ele><time>2026-05-03T07:06:49.033Z</time></trkpt><trkpt lat="45.7488872" lon="9.9104139"><ele>339.0</ele><time>2026-05-03T07:10:32.95Z</time></trkpt><trkpt lat="45.7488703" lon="9.9105228"><ele>339.0</ele><time>2026-05-03T07:10:39.943Z</time></trkpt><trkpt lat="45.7488712" lon="9.9106338"><ele>339.0</ele><time>2026-05-03T07:10:42.933Z</time></trkpt><trkpt lat="45.7488262" lon="9.9107099"><ele>339.0</ele><time>2026-05-03T07:10:45.943Z</time></trkpt><trkpt lat="45.7488855" lon="9.9106699"><ele>339.0</ele><time>2026-05-03T07:10:48.935Z</time></trkpt><trkpt lat="45.7489473" lon="9.9106094"><ele>339.0</ele><time>2026-05-03T07:10:50.938Z</time></trkpt><trkpt lat="45.7490265" lon="9.9105854"><ele>339.0</ele><time>2026-05-03T07:10:52.938Z</time></trkpt><trkpt lat="45.7490927" lon="9.9105817"><ele>339.0</ele><time>2026-05-03T07:10:54.932Z</time></trkpt><trkpt lat="45.7491595" lon="9.910616"><ele>339.0</ele><time>2026-05-03T07:10:56.933Z</time></trkpt><trkpt lat="45.7492182" lon="9.910649"><ele>339.0</ele><time>2026-05-03T07:10:58.94Z</time></trkpt><trkpt lat="45.7492853" lon="9.9105763"><ele>339.0</ele><time>2026-05-03T07:11:02.932Z</time></trkpt><trkpt lat="45.7493175" lon="9.9104715"><ele>339.0</ele><time>2026-05-03T07:11:05.935Z</time></trkpt><trkpt lat="45.7493612" lon="9.9103943"><ele>339.0</ele><time>2026-05-03T07:11:07.944Z</time></trkpt><trkpt lat="45.7494268" lon="9.9102931"><ele>339.0</ele><time>2026-05-03T07:11:09.942Z</time></trkpt><trkpt lat="45.749478" lon="9.9102061"><ele>339.0</ele><time>2026-05-03T07:11:11.943Z</time></trkpt><trkpt lat="45.7495262" lon="9.9101121"><ele>338.6666666666667</ele><time>2026-05-03T07:11:13.938Z</time></trkpt><trkpt lat="45.7495731" lon="9.9099993"><ele>338.3333333333333</ele><time>2026-05-03T07:11:15.942Z</time></trkpt><trkpt lat="45.7496218" lon="9.9099334"><ele>338.0</ele><time>2026-05-03T07:11:17.957Z</time></trkpt><trkpt lat="45.7497014" lon="9.9099198"><ele>337.66666666666663</ele><time>2026-05-03T07:11:21.944Z</time></trkpt><trkpt lat="45.7497772" lon="9.9098697"><ele>337.3333333333333</ele><time>2026-05-03T07:11:24.964Z</time></trkpt><trkpt lat="45.7498272" lon="9.9097656"><ele>337.0</ele><time>2026-05-03T07:11:27.942Z</time></trkpt><trkpt lat="45.7498559" lon="9.9096454"><ele>337.00000000000006</ele><time>2026-05-03T07:11:29.951Z</time></trkpt><trkpt lat="45.7499031" lon="9.9095747"><ele>337.0</ele><time>2026-05-03T07:11:31.953Z</time></trkpt><trkpt lat="45.7499566" lon="9.9095049"><ele>337.0</ele><time>2026-05-03T07:11:33.958Z</time></trkpt><trkpt lat="45.7499989" lon="9.9094259"><ele>337.0</ele><time>2026-05-03T07:11:35.953Z</time></trkpt><trkpt lat="45.7500266" lon="9.9093379"><ele>337.0</ele><time>2026-05-03T07:11:38.031Z</time></trkpt><trkpt lat="45.750044" lon="9.9092463"><ele>337.00000000000006</ele><time>2026-05-03T07:11:40.965Z</time></trkpt><trkpt lat="45.7500585" lon="9.9091019"><ele>337.0</ele><time>2026-05-03T07:11:43.969Z</time></trkpt><trkpt lat="45.7500827" lon="9.9089951"><ele>337.14285714285717</ele><time>2026-05-03T07:11:45.973Z</time></trkpt><trkpt lat="45.7501018" lon="9.9089078"><ele>337.2857142857143</ele><time>2026-05-03T07:11:48.025Z</time></trkpt><trkpt lat="45.750103" lon="9.9088103"><ele>337.42857142857144</ele><time>2026-05-03T07:11:50.974Z</time></trkpt><trkpt lat="45.7501417" lon="9.9087072"><ele>337.57142857142856</ele><time>2026-05-03T07:11:54.966Z</time></trkpt><trkpt lat="45.7501353" lon="9.9085996"><ele>337.7142857142857</ele><time>2026-05-03T07:12:03.943Z</time></trkpt><trkpt lat="45.7501616" lon="9.908484"><ele>337.8571428571429</ele><time>2026-05-03T07:12:07.972Z</time></trkpt><trkpt lat="45.7501939" lon="9.9083984"><ele>338.0</ele><time>2026-05-03T07:12:09.961Z</time></trkpt><trkpt lat="45.7502131" lon="9.9083056"><ele>338.14285714285717</ele><time>2026-05-03T07:12:13.029Z</time></trkpt><trkpt lat="45.7502447" lon="9.9082168"><ele>338.2857142857143</ele><time>2026-05-03T07:12:15.965Z</time></trkpt><trkpt lat="45.7502906" lon="9.9081467"><ele>338.42857142857144</ele><time>2026-05-03T07:12:17.958Z</time></trkpt><trkpt lat="45.7503418" lon="9.9080657"><ele>338.57142857142856</ele><time>2026-05-03T07:12:19.958Z</time></trkpt><trkpt lat="45.7503674" lon="9.9079581"><ele>338.7142857142857</ele><time>2026-05-03T07:12:21.96Z</time></trkpt><trkpt lat="45.7504051" lon="9.9078657"><ele>338.85714285714283</ele><time>2026-05-03T07:12:23.964Z</time></trkpt><trkpt lat="45.7504346" lon="9.9077841"><ele>339.0</ele><time>2026-05-03T07:12:25.938Z</time></trkpt><trkpt lat="45.7504627" lon="9.9076849"><ele>339.1666666666667</ele><time>2026-05-03T07:12:27.959Z</time></trkpt><trkpt lat="45.7504907" lon="9.9075759"><ele>339.3333333333333</ele><time>2026-05-03T07:12:29.957Z</time></trkpt><trkpt lat="45.750516" lon="9.9074585"><ele>339.5</ele><time>2026-05-03T07:12:31.956Z</time></trkpt><trkpt lat="45.7505459" lon="9.9073471"><ele>339.66666666666663</ele><time>2026-05-03T07:12:33.952Z</time></trkpt><trkpt lat="45.750571" lon="9.9072338"><ele>339.8333333333333</ele><time>2026-05-03T07:12:35.963Z</time></trkpt><trkpt lat="45.7505957" lon="9.9071322"><ele>340.0</ele><time>2026-05-03T07:12:37.954Z</time></trkpt><trkpt lat="45.7506058" lon="9.9070185"><ele>340.0</ele><time>2026-05-03T07:12:39.97Z</time></trkpt><trkpt lat="45.7506306" lon="9.906934"><ele>340.0</ele><time>2026-05-03T07:12:41.961Z</time></trkpt><trkpt lat="45.750654" lon="9.9068435"><ele>340.0</ele><time>2026-05-03T07:12:43.966Z</time></trkpt><trkpt lat="45.7506759" lon="9.9067376"><ele>340.0</ele><time>2026-05-03T07:12:45.961Z</time></trkpt><trkpt lat="45.7507009" lon="9.9066297"><ele>340.0</ele><time>2026-05-03T07:12:47.953Z</time></trkpt><trkpt lat="45.7507261" lon="9.9065228"><ele>340.0</ele><time>2026-05-03T07:12:49.942Z</time></trkpt><trkpt lat="45.7507324" lon="9.9063731"><ele>340.0</ele><time>2026-05-03T07:12:51.95Z</time></trkpt><trkpt lat="45.7507541" lon="9.9062782"><ele>340.0</ele><time>2026-05-03T07:12:53.959Z</time></trkpt><trkpt lat="45.7507731" lon="9.9061641"><ele>340.0</ele><time>2026-05-03T07:12:55.965Z</time></trkpt><trkpt lat="45.7508063" lon="9.9060588"><ele>340.0</ele><time>2026-05-03T07:12:57.95Z</time></trkpt><trkpt lat="45.7508431" lon="9.9059543"><ele>340.0</ele><time>2026-05-03T07:12:59.96Z</time></trkpt><trkpt lat="45.7508809" lon="9.9058642"><ele>340.0</ele><time>2026-05-03T07:13:01.967Z</time></trkpt><trkpt lat="45.7509126" lon="9.9057599"><ele>340.3333333333333</ele><time>2026-05-03T07:13:03.96Z</time></trkpt><trkpt lat="45.7509428" lon="9.9056528"><ele>340.66666666666663</ele><time>2026-05-03T07:13:05.969Z</time></trkpt><trkpt lat="45.7509764" lon="9.9055513"><ele>341.0</ele><time>2026-05-03T07:13:07.956Z</time></trkpt><trkpt lat="45.7510034" lon="9.9054552"><ele>341.3333333333333</ele><time>2026-05-03T07:13:09.96Z</time></trkpt><trkpt lat="45.7510238" lon="9.9053354"><ele>341.6666666666667</ele><time>2026-05-03T07:13:11.937Z</time></trkpt><trkpt lat="45.751053" lon="9.9052437"><ele>342.0</ele><time>2026-05-03T07:13:13.963Z</time></trkpt><trkpt lat="45.7510837" lon="9.9051369"><ele>342.57142857142856</ele><time>2026-05-03T07:13:15.947Z</time></trkpt><trkpt lat="45.7511085" lon="9.905034"><ele>343.1428571428571</ele><time>2026-05-03T07:13:17.961Z</time></trkpt><trkpt lat="45.7511379" lon="9.9049366"><ele>343.71428571428567</ele><time>2026-05-03T07:13:19.969Z</time></trkpt><trkpt lat="45.7511634" lon="9.9048429"><ele>344.2857142857143</ele><time>2026-05-03T07:13:21.967Z</time></trkpt><trkpt lat="45.751201" lon="9.9047456"><ele>344.8571428571429</ele><time>2026-05-03T07:13:23.992Z</time></trkpt><trkpt lat="45.7512235" lon="9.9046485"><ele>345.4285714285714</ele><time>2026-05-03T07:13:25.959Z</time></trkpt><trkpt lat="45.7512493" lon="9.9045595"><ele>346.0</ele><time>2026-05-03T07:13:27.947Z</time></trkpt><trkpt lat="45.7512758" lon="9.9044687"><ele>346.0</ele><time>2026-05-03T07:13:29.947Z</time></trkpt><trkpt lat="45.7512989" lon="9.9043671"><ele>346.0</ele><time>2026-05-03T07:13:31.958Z</time></trkpt><trkpt lat="45.7513243" lon="9.9042747"><ele>346.0</ele><time>2026-05-03T07:13:33.955Z</time></trkpt><trkpt lat="45.7513523" lon="9.9041788"><ele>346.0</ele><time>2026-05-03T07:13:35.961Z</time></trkpt><trkpt lat="45.7513797" lon="9.904079"><ele>346.0</ele><time>2026-05-03T07:13:37.956Z</time></trkpt><trkpt lat="45.7514039" lon="9.9039803"><ele>346.0</ele><time>2026-05-03T07:13:39.939Z</time></trkpt><trkpt lat="45.7514323" lon="9.9038669"><ele>346.0</ele><time>2026-05-03T07:13:41.961Z</time></trkpt><trkpt lat="45.7514595" lon="9.9037793"><ele>346.4285714285714</ele><time>2026-05-03T07:13:43.954Z</time></trkpt><trkpt lat="45.7514845" lon="9.9036843"><ele>346.8571428571429</ele><time>2026-05-03T07:13:45.961Z</time></trkpt><trkpt lat="45.751506" lon="9.9035975"><ele>347.2857142857143</ele><time>2026-05-03T07:13:47.944Z</time></trkpt><trkpt lat="45.7515341" lon="9.9035065"><ele>347.71428571428567</ele><time>2026-05-03T07:13:49.958Z</time></trkpt><trkpt lat="45.751564" lon="9.9034075"><ele>348.1428571428571</ele><time>2026-05-03T07:13:51.962Z</time></trkpt><trkpt lat="45.7516062" lon="9.9032903"><ele>348.57142857142856</ele><time>2026-05-03T07:13:53.954Z</time></trkpt><trkpt lat="45.7516375" lon="9.9032042"><ele>349.0</ele><time>2026-05-03T07:13:55.96Z</time></trkpt><trkpt lat="45.7516737" lon="9.9031144"><ele>349.4285714285714</ele><time>2026-05-03T07:13:57.967Z</time></trkpt><trkpt lat="45.7517045" lon="9.9030325"><ele>349.85714285714283</ele><time>2026-05-03T07:13:59.955Z</time></trkpt><trkpt lat="45.751761" lon="9.9029259"><ele>350.2857142857143</ele><time>2026-05-03T07:14:02.953Z</time></trkpt><trkpt lat="45.751819" lon="9.9028598"><ele>350.71428571428567</ele><time>2026-05-03T07:14:05.956Z</time></trkpt><trkpt lat="45.7518852" lon="9.9027868"><ele>351.1428571428571</ele><time>2026-05-03T07:14:09.967Z</time></trkpt><trkpt lat="45.751923" lon="9.9027142"><ele>351.57142857142856</ele><time>2026-05-03T07:14:11.953Z</time></trkpt><trkpt lat="45.751948" lon="9.902625"><ele>352.0</ele><time>2026-05-03T07:14:13.936Z</time></trkpt><trkpt lat="45.7519723" lon="9.9025199"><ele>352.5</ele><time>2026-05-03T07:14:16.042Z</time></trkpt><trkpt lat="45.7520042" lon="9.9024245"><ele>353.0</ele><time>2026-05-03T07:14:18.051Z</time></trkpt><trkpt lat="45.7520363" lon="9.9023361"><ele>353.5</ele><time>2026-05-03T07:14:19.955Z</time></trkpt><trkpt lat="45.7520489" lon="9.9022446"><ele>354.0</ele><time>2026-05-03T07:14:21.977Z</time></trkpt><trkpt lat="45.752074" lon="9.9021398"><ele>354.5</ele><time>2026-05-03T07:14:23.985Z</time></trkpt><trkpt lat="45.7520848" lon="9.9020264"><ele>355.0</ele><time>2026-05-03T07:14:25.954Z</time></trkpt><trkpt lat="45.7520866" lon="9.9018876"><ele>355.0</ele><time>2026-05-03T07:14:27.953Z</time></trkpt><trkpt lat="45.7520993" lon="9.9017899"><ele>355.0</ele><time>2026-05-03T07:14:29.975Z</time></trkpt><trkpt lat="45.7520945" lon="9.9016881"><ele>355.0</ele><time>2026-05-03T07:14:32.956Z</time></trkpt><trkpt lat="45.7520744" lon="9.9015791"><ele>355.0</ele><time>2026-05-03T07:14:35.974Z</time></trkpt><trkpt lat="45.7520748" lon="9.9014529"><ele>355.0</ele><time>2026-05-03T07:14:38.976Z</time></trkpt><trkpt lat="45.752056" lon="9.9013462"><ele>355.0</ele><time>2026-05-03T07:14:40.97Z</time></trkpt><trkpt lat="45.7520438" lon="9.9012469"><ele>355.4</ele><time>2026-05-03T07:14:42.975Z</time></trkpt><trkpt lat="45.7520267" lon="9.901117"><ele>355.8</ele><time>2026-05-03T07:14:45.976Z</time></trkpt><trkpt lat="45.7520551" lon="9.9010049"><ele>356.20000000000005</ele><time>2026-05-03T07:14:48.973Z</time></trkpt><trkpt lat="45.7521305" lon="9.9009521"><ele>356.6</ele><time>2026-05-03T07:14:51.975Z</time></trkpt><trkpt lat="45.7522432" lon="9.9008792"><ele>357.0</ele><time>2026-05-03T07:14:54.994Z</time></trkpt><trkpt lat="45.7523193" lon="9.9008481"><ele>357.7142857142857</ele><time>2026-05-03T07:14:56.978Z</time></trkpt><trkpt lat="45.7523836" lon="9.9008282"><ele>358.42857142857144</ele><time>2026-05-03T07:14:58.999Z</time></trkpt><trkpt lat="45.7524543" lon="9.9008043"><ele>359.1428571428571</ele><time>2026-05-03T07:15:00.968Z</time></trkpt><trkpt lat="45.7525224" lon="9.9007812"><ele>359.8571428571429</ele><time>2026-05-03T07:15:02.974Z</time></trkpt><trkpt lat="45.7525856" lon="9.9007814"><ele>360.57142857142856</ele><time>2026-05-03T07:15:04.971Z</time></trkpt><trkpt lat="45.7526512" lon="9.9007759"><ele>361.2857142857143</ele><time>2026-05-03T07:15:06.968Z</time></trkpt><trkpt lat="45.7527458" lon="9.9007593"><ele>362.0</ele><time>2026-05-03T07:15:09.974Z</time></trkpt><trkpt lat="45.7528195" lon="9.9007732"><ele>363.83333333333337</ele><time>2026-05-03T07:15:11.992Z</time></trkpt><trkpt lat="45.75289" lon="9.9007623"><ele>365.6666666666667</ele><time>2026-05-03T07:15:14.034Z</time></trkpt><trkpt lat="45.7529788" lon="9.9007314"><ele>367.5</ele><time>2026-05-03T07:15:15.965Z</time></trkpt><trkpt lat="45.7530623" lon="9.9006989"><ele>369.3333333333333</ele><time>2026-05-03T07:15:17.967Z</time></trkpt><trkpt lat="45.7531375" lon="9.9006744"><ele>371.16666666666663</ele><time>2026-05-03T07:15:19.967Z</time></trkpt><trkpt lat="45.7532039" lon="9.9006856"><ele>373.0</ele><time>2026-05-03T07:15:21.965Z</time></trkpt><trkpt lat="45.7532707" lon="9.9007281"><ele>373.0</ele><time>2026-05-03T07:15:24.974Z</time></trkpt><trkpt lat="45.7533427" lon="9.9007762"><ele>373.0</ele><time>2026-05-03T07:15:28.974Z</time></trkpt><trkpt lat="45.7534177" lon="9.9007577"><ele>373.0</ele><time>2026-05-03T07:15:31.97Z</time></trkpt><trkpt lat="45.7534449" lon="9.9006725"><ele>373.0</ele><time>2026-05-03T07:15:34.957Z</time></trkpt><trkpt lat="45.7534087" lon="9.9005959"><ele>373.0</ele><time>2026-05-03T07:15:38.954Z</time></trkpt><trkpt lat="45.7533932" lon="9.9004963"><ele>373.0</ele><time>2026-05-03T07:15:42.949Z</time></trkpt><trkpt lat="45.7533844" lon="9.9003858"><ele>373.0</ele><time>2026-05-03T07:15:46.947Z</time></trkpt><trkpt lat="45.7533587" lon="9.9002747"><ele>373.0</ele><time>2026-05-03T07:15:50.96Z</time></trkpt><trkpt lat="45.7533216" lon="9.9001737"><ele>373.0</ele><time>2026-05-03T07:15:53.955Z</time></trkpt><trkpt lat="45.7532897" lon="9.9000803"><ele>373.0</ele><time>2026-05-03T07:15:56.953Z</time></trkpt><trkpt lat="45.7533118" lon="9.8999549"><ele>373.0</ele><time>2026-05-03T07:16:00.956Z</time></trkpt><trkpt lat="45.7533597" lon="9.8998738"><ele>373.0</ele><time>2026-05-03T07:16:04.031Z</time></trkpt><trkpt lat="45.7534225" lon="9.8998199"><ele>373.0</ele><time>2026-05-03T07:16:06.954Z</time></trkpt><trkpt lat="45.7534582" lon="9.8997106"><ele>374.5</ele><time>2026-05-03T07:16:09.962Z</time></trkpt><trkpt lat="45.7534847" lon="9.8996228"><ele>376.0</ele><time>2026-05-03T07:16:12.968Z</time></trkpt><trkpt lat="45.7535542" lon="9.899562"><ele>377.5</ele><time>2026-05-03T07:16:16.04Z</time></trkpt><trkpt lat="45.7536179" lon="9.8994732"><ele>379.0</ele><time>2026-05-03T07:16:18.963Z</time></trkpt><trkpt lat="45.7536815" lon="9.8994214"><ele>380.5</ele><time>2026-05-03T07:16:21.966Z</time></trkpt><trkpt lat="45.753746" lon="9.8993568"><ele>382.0</ele><time>2026-05-03T07:16:24.963Z</time></trkpt><trkpt lat="45.7538036" lon="9.8992946"><ele>383.8333333333333</ele><time>2026-05-03T07:16:27.949Z</time></trkpt><trkpt lat="45.7538769" lon="9.8993202"><ele>385.66666666666663</ele><time>2026-05-03T07:16:31.964Z</time></trkpt><trkpt lat="45.7539445" lon="9.8994031"><ele>387.5</ele><time>2026-05-03T07:16:34.964Z</time></trkpt><trkpt lat="45.7539889" lon="9.8994788"><ele>389.3333333333333</ele><time>2026-05-03T07:16:37.963Z</time></trkpt><trkpt lat="45.7540385" lon="9.899567"><ele>391.1666666666667</ele><time>2026-05-03T07:16:41.966Z</time></trkpt><trkpt lat="45.7540984" lon="9.8996469"><ele>393.0</ele><time>2026-05-03T07:16:44.958Z</time></trkpt><trkpt lat="45.7541867" lon="9.8996731"><ele>393.0</ele><time>2026-05-03T07:16:47.999Z</time></trkpt><trkpt lat="45.7542723" lon="9.8996467"><ele>393.0</ele><time>2026-05-03T07:16:50.964Z</time></trkpt><trkpt lat="45.7543391" lon="9.899586"><ele>393.0</ele><time>2026-05-03T07:16:53.969Z</time></trkpt><trkpt lat="45.7544015" lon="9.8994872"><ele>393.0</ele><time>2026-05-03T07:16:57.965Z</time></trkpt><trkpt lat="45.7544559" lon="9.8994124"><ele>393.0</ele><time>2026-05-03T07:17:00.961Z</time></trkpt><trkpt lat="45.7545271" lon="9.89946"><ele>393.0</ele><time>2026-05-03T07:17:03.968Z</time></trkpt><trkpt lat="45.7545583" lon="9.8995547"><ele>395.5</ele><time>2026-05-03T07:17:06.957Z</time></trkpt><trkpt lat="45.7545928" lon="9.899663"><ele>398.0</ele><time>2026-05-03T07:17:09.973Z</time></trkpt><trkpt lat="45.7546338" lon="9.8997752"><ele>400.5</ele><time>2026-05-03T07:17:12.971Z</time></trkpt><trkpt lat="45.7546802" lon="9.89987"><ele>403.0</ele><time>2026-05-03T07:17:15.976Z</time></trkpt><trkpt lat="45.7547541" lon="9.8999255"><ele>405.5</ele><time>2026-05-03T07:17:18.958Z</time></trkpt><trkpt lat="45.754822" lon="9.8999298"><ele>408.0</ele><time>2026-05-03T07:17:20.965Z</time></trkpt><trkpt lat="45.7548885" lon="9.8999482"><ele>408.0</ele><time>2026-05-03T07:17:22.967Z</time></trkpt><trkpt lat="45.754955" lon="9.899978"><ele>408.0</ele><time>2026-05-03T07:17:24.96Z</time></trkpt><trkpt lat="45.7550341" lon="9.9000259"><ele>408.0</ele><time>2026-05-03T07:17:27.967Z</time></trkpt><trkpt lat="45.7551021" lon="9.9000843"><ele>408.0</ele><time>2026-05-03T07:17:30.955Z</time></trkpt><trkpt lat="45.7551865" lon="9.9001165"><ele>408.0</ele><time>2026-05-03T07:17:33.968Z</time></trkpt><trkpt lat="45.7552623" lon="9.9001714"><ele>408.0</ele><time>2026-05-03T07:17:36.97Z</time></trkpt><trkpt lat="45.7553393" lon="9.9002263"><ele>409.1666666666667</ele><time>2026-05-03T07:17:39.966Z</time></trkpt><trkpt lat="45.7553995" lon="9.9002811"><ele>410.33333333333337</ele><time>2026-05-03T07:17:42.942Z</time></trkpt><trkpt lat="45.7554667" lon="9.9003401"><ele>411.5</ele><time>2026-05-03T07:17:45.962Z</time></trkpt><trkpt lat="45.7555417" lon="9.9004082"><ele>412.6666666666667</ele><time>2026-05-03T07:17:48.962Z</time></trkpt><trkpt lat="45.7556211" lon="9.9004594"><ele>413.83333333333337</ele><time>2026-05-03T07:17:51.96Z</time></trkpt><trkpt lat="45.7556993" lon="9.9005132"><ele>415.0</ele><time>2026-05-03T07:17:54.969Z</time></trkpt><trkpt lat="45.7557582" lon="9.9005528"><ele>415.00000000000006</ele><time>2026-05-03T07:17:57.965Z</time></trkpt><trkpt lat="45.7558306" lon="9.9006055"><ele>415.0</ele><time>2026-05-03T07:18:00.97Z</time></trkpt><trkpt lat="45.7559141" lon="9.9006529"><ele>415.0</ele><time>2026-05-03T07:18:03.971Z</time></trkpt><trkpt lat="45.7559805" lon="9.900669"><ele>415.0</ele><time>2026-05-03T07:18:06.942Z</time></trkpt><trkpt lat="45.756056" lon="9.9006621"><ele>415.00000000000006</ele><time>2026-05-03T07:18:09.967Z</time></trkpt><trkpt lat="45.7561306" lon="9.9006219"><ele>415.0</ele><time>2026-05-03T07:18:12.963Z</time></trkpt><trkpt lat="45.756204" lon="9.9005721"><ele>417.42857142857144</ele><time>2026-05-03T07:18:15.971Z</time></trkpt><trkpt lat="45.7562689" lon="9.9005313"><ele>419.8571428571429</ele><time>2026-05-03T07:18:18.956Z</time></trkpt><trkpt lat="45.7563346" lon="9.9004935"><ele>422.2857142857143</ele><time>2026-05-03T07:18:21.968Z</time></trkpt><trkpt lat="45.7564054" lon="9.9004552"><ele>424.7142857142857</ele><time>2026-05-03T07:18:24.96Z</time></trkpt><trkpt lat="45.7564724" lon="9.900428"><ele>427.1428571428571</ele><time>2026-05-03T07:18:27.959Z</time></trkpt><trkpt lat="45.7565595" lon="9.9004348"><ele>429.57142857142856</ele><time>2026-05-03T07:18:31.97Z</time></trkpt><trkpt lat="45.7566232" lon="9.900461"><ele>432.0</ele><time>2026-05-03T07:18:34.975Z</time></trkpt><trkpt lat="45.7566946" lon="9.9004866"><ele>432.0</ele><time>2026-05-03T07:18:37.959Z</time></trkpt><trkpt lat="45.7567526" lon="9.900535"><ele>432.0</ele><time>2026-05-03T07:18:40.969Z</time></trkpt><trkpt lat="45.7568046" lon="9.9006036"><ele>432.0</ele><time>2026-05-03T07:18:43.976Z</time></trkpt><trkpt lat="45.75686" lon="9.900656"><ele>432.0</ele><time>2026-05-03T07:18:47.966Z</time></trkpt><trkpt lat="45.7569292" lon="9.9006313"><ele>432.0</ele><time>2026-05-03T07:18:51.944Z</time></trkpt><trkpt lat="45.7569654" lon="9.9005418"><ele>432.0</ele><time>2026-05-03T07:18:55.952Z</time></trkpt><trkpt lat="45.7570112" lon="9.9004547"><ele>432.0</ele><time>2026-05-03T07:18:59.955Z</time></trkpt><trkpt lat="45.7570624" lon="9.9003903"><ele>434.3333333333333</ele><time>2026-05-03T07:19:03.962Z</time></trkpt><trkpt lat="45.7571354" lon="9.9003616"><ele>436.66666666666663</ele><time>2026-05-03T07:19:07.972Z</time></trkpt><trkpt lat="45.7572213" lon="9.9003915"><ele>439.0</ele><time>2026-05-03T07:19:11.962Z</time></trkpt><trkpt lat="45.7572848" lon="9.9004174"><ele>441.3333333333333</ele><time>2026-05-03T07:19:14.961Z</time></trkpt><trkpt lat="45.7573699" lon="9.9004231"><ele>443.66666666666663</ele><time>2026-05-03T07:19:18.967Z</time></trkpt><trkpt lat="45.7574368" lon="9.9004507"><ele>446.0</ele><time>2026-05-03T07:19:21.963Z</time></trkpt><trkpt lat="45.7574991" lon="9.900491"><ele>446.0</ele><time>2026-05-03T07:19:24.952Z</time></trkpt><trkpt lat="45.7575589" lon="9.900535"><ele>446.0</ele><time>2026-05-03T07:19:27.974Z</time></trkpt><trkpt lat="45.7576246" lon="9.9005542"><ele>446.0</ele><time>2026-05-03T07:19:30.964Z</time></trkpt><trkpt lat="45.7576987" lon="9.9005449"><ele>446.0</ele><time>2026-05-03T07:19:33.97Z</time></trkpt><trkpt lat="45.7577648" lon="9.9005273"><ele>446.0</ele><time>2026-05-03T07:19:36.965Z</time></trkpt><trkpt lat="45.7578381" lon="9.9005148"><ele>446.0</ele><time>2026-05-03T07:19:39.97Z</time></trkpt><trkpt lat="45.7579078" lon="9.9004975"><ele>446.0</ele><time>2026-05-03T07:19:42.965Z</time></trkpt><trkpt lat="45.7579823" lon="9.9004807"><ele>448.42857142857144</ele><time>2026-05-03T07:19:45.969Z</time></trkpt><trkpt lat="45.7580558" lon="9.9004631"><ele>450.85714285714283</ele><time>2026-05-03T07:19:48.964Z</time></trkpt><trkpt lat="45.7581308" lon="9.9004486"><ele>453.2857142857143</ele><time>2026-05-03T07:19:51.963Z</time></trkpt><trkpt lat="45.7582038" lon="9.9004392"><ele>455.71428571428567</ele><time>2026-05-03T07:19:54.967Z</time></trkpt><trkpt lat="45.75827" lon="9.9004254"><ele>458.1428571428571</ele><time>2026-05-03T07:19:57.963Z</time></trkpt><trkpt lat="45.75834" lon="9.9004033"><ele>460.57142857142856</ele><time>2026-05-03T07:20:00.974Z</time></trkpt><trkpt lat="45.7584084" lon="9.9003935"><ele>463.0</ele><time>2026-05-03T07:20:03.98Z</time></trkpt><trkpt lat="45.758472" lon="9.9004055"><ele>465.85714285714283</ele><time>2026-05-03T07:20:06.945Z</time></trkpt><trkpt lat="45.7585406" lon="9.900449"><ele>468.71428571428567</ele><time>2026-05-03T07:20:09.971Z</time></trkpt><trkpt lat="45.7586042" lon="9.9005025"><ele>471.57142857142856</ele><time>2026-05-03T07:20:12.971Z</time></trkpt><trkpt lat="45.7586571" lon="9.9005667"><ele>474.42857142857144</ele><time>2026-05-03T07:20:15.94Z</time></trkpt><trkpt lat="45.7587378" lon="9.9005891"><ele>477.2857142857143</ele><time>2026-05-03T07:20:19.964Z</time></trkpt><trkpt lat="45.7588086" lon="9.9005479"><ele>480.1428571428571</ele><time>2026-05-03T07:20:22.963Z</time></trkpt><trkpt lat="45.758866" lon="9.9004863"><ele>483.0</ele><time>2026-05-03T07:20:25.98Z</time></trkpt><trkpt lat="45.7589207" lon="9.9004295"><ele>483.0</ele><time>2026-05-03T07:20:28.966Z</time></trkpt><trkpt lat="45.7589686" lon="9.9003605"><ele>483.0</ele><time>2026-05-03T07:20:31.949Z</time></trkpt><trkpt lat="45.7590257" lon="9.9003004"><ele>483.0</ele><time>2026-05-03T07:20:34.964Z</time></trkpt><trkpt lat="45.759087" lon="9.9002558"><ele>483.0</ele><time>2026-05-03T07:20:37.973Z</time></trkpt><trkpt lat="45.7591472" lon="9.9002159"><ele>483.0</ele><time>2026-05-03T07:20:40.959Z</time></trkpt><trkpt lat="45.7592083" lon="9.9001654"><ele>483.0</ele><time>2026-05-03T07:20:43.956Z</time></trkpt><trkpt lat="45.7592701" lon="9.9001165"><ele>483.0</ele><time>2026-05-03T07:20:46.955Z</time></trkpt><trkpt lat="45.7593316" lon="9.9000657"><ele>485.42857142857144</ele><time>2026-05-03T07:20:49.967Z</time></trkpt><trkpt lat="45.7593952" lon="9.9000219"><ele>487.8571428571429</ele><time>2026-05-03T07:20:52.957Z</time></trkpt><trkpt lat="45.7594531" lon="9.8999768"><ele>490.2857142857143</ele><time>2026-05-03T07:20:55.965Z</time></trkpt><trkpt lat="45.7595132" lon="9.8999192"><ele>492.7142857142857</ele><time>2026-05-03T07:20:58.963Z</time></trkpt><trkpt lat="45.7595638" lon="9.8998623"><ele>495.14285714285717</ele><time>2026-05-03T07:21:01.967Z</time></trkpt><trkpt lat="45.7596315" lon="9.8998083"><ele>497.57142857142856</ele><time>2026-05-03T07:21:05.961Z</time></trkpt><trkpt lat="45.7596937" lon="9.899754"><ele>500.0</ele><time>2026-05-03T07:21:09.961Z</time></trkpt><trkpt lat="45.7597422" lon="9.8996902"><ele>499.99999999999994</ele><time>2026-05-03T07:21:13.965Z</time></trkpt><trkpt lat="45.7598018" lon="9.8996368"><ele>500.0</ele><time>2026-05-03T07:21:18.955Z</time></trkpt><trkpt lat="45.7598701" lon="9.899597"><ele>500.0</ele><time>2026-05-03T07:21:22.948Z</time></trkpt><trkpt lat="45.7599487" lon="9.8995741"><ele>500.0</ele><time>2026-05-03T07:21:25.957Z</time></trkpt><trkpt lat="45.7600214" lon="9.8995777"><ele>499.99999999999994</ele><time>2026-05-03T07:21:26.974Z</time></trkpt><trkpt lat="45.7601225" lon="9.899614"><ele>500.0</ele><time>2026-05-03T07:21:28.966Z</time></trkpt><trkpt lat="45.7601919" lon="9.8996191"><ele>501.4</ele><time>2026-05-03T07:21:29.973Z</time></trkpt><trkpt lat="45.7602727" lon="9.8996042"><ele>502.8</ele><time>2026-05-03T07:21:30.963Z</time></trkpt><trkpt lat="45.7603572" lon="9.8995867"><ele>504.20000000000005</ele><time>2026-05-03T07:21:31.974Z</time></trkpt><trkpt lat="45.7604499" lon="9.8995651"><ele>505.6</ele><time>2026-05-03T07:21:32.971Z</time></trkpt><trkpt lat="45.7605595" lon="9.8995209"><ele>507.0</ele><time>2026-05-03T07:21:33.972Z</time></trkpt><trkpt lat="45.760642" lon="9.8994285"><ele>507.0</ele><time>2026-05-03T07:21:34.953Z</time></trkpt><trkpt lat="45.7607005" lon="9.8993006"><ele>507.0</ele><time>2026-05-03T07:21:35.963Z</time></trkpt><trkpt lat="45.7607419" lon="9.8991743"><ele>507.0</ele><time>2026-05-03T07:21:36.967Z</time></trkpt><trkpt lat="45.7607316" lon="9.8990576"><ele>507.0</ele><time>2026-05-03T07:21:37.97Z</time></trkpt><trkpt lat="45.7606998" lon="9.8989332"><ele>507.0</ele><time>2026-05-03T07:21:38.967Z</time></trkpt><trkpt lat="45.7606803" lon="9.8988404"><ele>507.0</ele><time>2026-05-03T07:21:39.944Z</time></trkpt><trkpt lat="45.7606894" lon="9.8987479"><ele>503.8</ele><time>2026-05-03T07:21:40.955Z</time></trkpt><trkpt lat="45.7607243" lon="9.8986681"><ele>500.6</ele><time>2026-05-03T07:21:41.961Z</time></trkpt><trkpt lat="45.760815" lon="9.8985577"><ele>497.40000000000003</ele><time>2026-05-03T07:21:43.961Z</time></trkpt><trkpt lat="45.7608992" lon="9.8984894"><ele>494.20000000000005</ele><time>2026-05-03T07:21:45.963Z</time></trkpt><trkpt lat="45.7609759" lon="9.8984415"><ele>491.0</ele><time>2026-05-03T07:21:47.975Z</time></trkpt><trkpt lat="45.7610186" lon="9.8983133"><ele>490.99999999999994</ele><time>2026-05-03T07:21:49.953Z</time></trkpt><trkpt lat="45.7610241" lon="9.898197"><ele>491.0</ele><time>2026-05-03T07:21:51.967Z</time></trkpt><trkpt lat="45.7610396" lon="9.8980859"><ele>491.0</ele><time>2026-05-03T07:21:53.967Z</time></trkpt><trkpt lat="45.7610283" lon="9.8979931"><ele>491.0</ele><time>2026-05-03T07:21:55.976Z</time></trkpt><trkpt lat="45.7609702" lon="9.8979461"><ele>490.99999999999994</ele><time>2026-05-03T07:21:57.964Z</time></trkpt><trkpt lat="45.7609097" lon="9.8979071"><ele>491.0</ele><time>2026-05-03T07:21:59.957Z</time></trkpt><trkpt lat="45.7608196" lon="9.8978667"><ele>490.16666666666663</ele><time>2026-05-03T07:22:02.953Z</time></trkpt><trkpt lat="45.7607334" lon="9.8978352"><ele>489.3333333333333</ele><time>2026-05-03T07:22:05.966Z</time></trkpt><trkpt lat="45.7606531" lon="9.8978222"><ele>488.5</ele><time>2026-05-03T07:22:08.964Z</time></trkpt><trkpt lat="45.7605783" lon="9.8978393"><ele>487.66666666666663</ele><time>2026-05-03T07:22:11.967Z</time></trkpt><trkpt lat="45.7606143" lon="9.8977477"><ele>486.8333333333333</ele><time>2026-05-03T07:22:17.949Z</time></trkpt><trkpt lat="45.7606898" lon="9.8977029"><ele>486.0</ele><time>2026-05-03T07:22:20.968Z</time></trkpt><trkpt lat="45.7607694" lon="9.8976456"><ele>486.8333333333333</ele><time>2026-05-03T07:22:23.972Z</time></trkpt><trkpt lat="45.7608481" lon="9.8975814"><ele>487.66666666666663</ele><time>2026-05-03T07:22:26.955Z</time></trkpt><trkpt lat="45.7609269" lon="9.8975175"><ele>488.5</ele><time>2026-05-03T07:22:29.965Z</time></trkpt><trkpt lat="45.7609918" lon="9.8974394"><ele>489.3333333333333</ele><time>2026-05-03T07:22:32.964Z</time></trkpt><trkpt lat="45.7610569" lon="9.8973769"><ele>490.16666666666663</ele><time>2026-05-03T07:22:35.969Z</time></trkpt><trkpt lat="45.7611312" lon="9.8973187"><ele>491.0</ele><time>2026-05-03T07:22:38.972Z</time></trkpt><trkpt lat="45.7611983" lon="9.8972528"><ele>491.16666666666663</ele><time>2026-05-03T07:22:41.964Z</time></trkpt><trkpt lat="45.7612796" lon="9.8971832"><ele>491.3333333333333</ele><time>2026-05-03T07:22:44.956Z</time></trkpt><trkpt lat="45.761353" lon="9.8971275"><ele>491.5</ele><time>2026-05-03T07:22:47.975Z</time></trkpt><trkpt lat="45.761425" lon="9.8970622"><ele>491.66666666666663</ele><time>2026-05-03T07:22:51.976Z</time></trkpt><trkpt lat="45.7614803" lon="9.8969907"><ele>491.8333333333333</ele><time>2026-05-03T07:22:54.979Z</time></trkpt><trkpt lat="45.7615294" lon="9.8968995"><ele>492.0</ele><time>2026-05-03T07:22:58.033Z</time></trkpt><trkpt lat="45.7615663" lon="9.8968213"><ele>493.57142857142867</ele><time>2026-05-03T07:23:00.974Z</time></trkpt><trkpt lat="45.761552" lon="9.8967232"><ele>495.14285714285717</ele><time>2026-05-03T07:23:04.945Z</time></trkpt><trkpt lat="45.761541" lon="9.8966247"><ele>496.7142857142858</ele><time>2026-05-03T07:23:08.962Z</time></trkpt><trkpt lat="45.7615897" lon="9.8965365"><ele>498.28571428571433</ele><time>2026-05-03T07:23:11.969Z</time></trkpt><trkpt lat="45.7616392" lon="9.8964367"><ele>499.8571428571429</ele><time>2026-05-03T07:23:14.965Z</time></trkpt><trkpt lat="45.7616649" lon="9.8963436"><ele>501.42857142857144</ele><time>2026-05-03T07:23:17.953Z</time></trkpt><trkpt lat="45.7616842" lon="9.8962457"><ele>503.0</ele><time>2026-05-03T07:23:22.966Z</time></trkpt><trkpt lat="45.7617601" lon="9.8962298"><ele>502.99999999999994</ele><time>2026-05-03T07:23:25.97Z</time></trkpt><trkpt lat="45.7618287" lon="9.896209"><ele>503.0</ele><time>2026-05-03T07:23:27.973Z</time></trkpt><trkpt lat="45.7618905" lon="9.8962328"><ele>503.0</ele><time>2026-05-03T07:23:30.967Z</time></trkpt><trkpt lat="45.7619541" lon="9.8962814"><ele>503.0</ele><time>2026-05-03T07:23:34.952Z</time></trkpt><trkpt lat="45.7619996" lon="9.8963683"><ele>502.99999999999994</ele><time>2026-05-03T07:24:46.964Z</time></trkpt><trkpt lat="45.7620475" lon="9.8964348"><ele>503.0</ele><time>2026-05-03T07:24:48.965Z</time></trkpt><trkpt lat="45.7621468" lon="9.8965148"><ele>504.2</ele><time>2026-05-03T07:24:50.956Z</time></trkpt><trkpt lat="45.7622444" lon="9.8966121"><ele>505.4</ele><time>2026-05-03T07:24:53.037Z</time></trkpt><trkpt lat="45.7623652" lon="9.896611"><ele>506.59999999999997</ele><time>2026-05-03T07:24:54.948Z</time></trkpt><trkpt lat="45.7624299" lon="9.8965847"><ele>507.79999999999995</ele><time>2026-05-03T07:24:55.957Z</time></trkpt><trkpt lat="45.7625103" lon="9.8965854"><ele>509.0</ele><time>2026-05-03T07:24:57.952Z</time></trkpt><trkpt lat="45.7625436" lon="9.896663"><ele>508.99999999999994</ele><time>2026-05-03T07:24:59.952Z</time></trkpt><trkpt lat="45.7625902" lon="9.8967369"><ele>509.0</ele><time>2026-05-03T07:25:02.972Z</time></trkpt><trkpt lat="45.7626793" lon="9.8967043"><ele>509.0</ele><time>2026-05-03T07:25:05.967Z</time></trkpt><trkpt lat="45.7627544" lon="9.8967639"><ele>509.0</ele><time>2026-05-03T07:25:07.961Z</time></trkpt><trkpt lat="45.762778" lon="9.8968759"><ele>508.99999999999994</ele><time>2026-05-03T07:25:11.046Z</time></trkpt><trkpt lat="45.7627878" lon="9.8969742"><ele>509.0</ele><time>2026-05-03T07:25:13.966Z</time></trkpt><trkpt lat="45.7628315" lon="9.8970789"><ele>511.71428571428567</ele><time>2026-05-03T07:25:16.944Z</time></trkpt><trkpt lat="45.7628806" lon="9.8971564"><ele>514.4285714285714</ele><time>2026-05-03T07:25:19.965Z</time></trkpt><trkpt lat="45.7629288" lon="9.8972291"><ele>517.1428571428571</ele><time>2026-05-03T07:25:22.955Z</time></trkpt><trkpt lat="45.762978" lon="9.8972876"><ele>519.8571428571429</ele><time>2026-05-03T07:25:25.955Z</time></trkpt><trkpt lat="45.7630259" lon="9.8973814"><ele>522.5714285714286</ele><time>2026-05-03T07:25:28.969Z</time></trkpt><trkpt lat="45.7630714" lon="9.8974451"><ele>525.2857142857142</ele><time>2026-05-03T07:25:31.977Z</time></trkpt><trkpt lat="45.7631202" lon="9.8975145"><ele>528.0</ele><time>2026-05-03T07:25:34.959Z</time></trkpt><trkpt lat="45.7631654" lon="9.8975818"><ele>527.2857142857142</ele><time>2026-05-03T07:25:37.965Z</time></trkpt><trkpt lat="45.7632276" lon="9.8976435"><ele>526.5714285714286</ele><time>2026-05-03T07:25:41.964Z</time></trkpt><trkpt lat="45.7632832" lon="9.8977103"><ele>525.8571428571429</ele><time>2026-05-03T07:25:44.954Z</time></trkpt><trkpt lat="45.7633315" lon="9.8977777"><ele>525.1428571428571</ele><time>2026-05-03T07:25:47.957Z</time></trkpt><trkpt lat="45.7633676" lon="9.8978612"><ele>524.4285714285714</ele><time>2026-05-03T07:25:50.941Z</time></trkpt><trkpt lat="45.7634181" lon="9.8979526"><ele>523.7142857142857</ele><time>2026-05-03T07:25:53.957Z</time></trkpt><trkpt lat="45.763447" lon="9.8980372"><ele>523.0</ele><time>2026-05-03T07:25:56.952Z</time></trkpt><trkpt lat="45.7634496" lon="9.8981545"><ele>523.0</ele><time>2026-05-03T07:26:00.955Z</time></trkpt><trkpt lat="45.7634367" lon="9.8982509"><ele>523.0</ele><time>2026-05-03T07:26:03.966Z</time></trkpt><trkpt lat="45.7634359" lon="9.8983542"><ele>523.0</ele><time>2026-05-03T07:26:07.035Z</time></trkpt><trkpt lat="45.763436" lon="9.8984591"><ele>523.0</ele><time>2026-05-03T07:26:09.966Z</time></trkpt><trkpt lat="45.7634405" lon="9.898585"><ele>523.0</ele><time>2026-05-03T07:26:12.965Z</time></trkpt><trkpt lat="45.7634653" lon="9.8986855"><ele>523.0</ele><time>2026-05-03T07:26:15.958Z</time></trkpt><trkpt lat="45.7635111" lon="9.8987898"><ele>526.5</ele><time>2026-05-03T07:26:18.965Z</time></trkpt><trkpt lat="45.763548" lon="9.8989015"><ele>530.0</ele><time>2026-05-03T07:26:21.965Z</time></trkpt><trkpt lat="45.7635748" lon="9.8990204"><ele>533.5</ele><time>2026-05-03T07:26:24.965Z</time></trkpt><trkpt lat="45.7635872" lon="9.8991126"><ele>537.0</ele><time>2026-05-03T07:26:26.979Z</time></trkpt><trkpt lat="45.7636288" lon="9.8992271"><ele>540.5</ele><time>2026-05-03T07:26:29.959Z</time></trkpt><trkpt lat="45.7636682" lon="9.8993441"><ele>544.0</ele><time>2026-05-03T07:26:32.962Z</time></trkpt><trkpt lat="45.763699" lon="9.8994286"><ele>544.0</ele><time>2026-05-03T07:26:34.965Z</time></trkpt><trkpt lat="45.7637417" lon="9.8995436"><ele>544.0</ele><time>2026-05-03T07:26:37.965Z</time></trkpt><trkpt lat="45.7637913" lon="9.8996466"><ele>544.0</ele><time>2026-05-03T07:26:40.966Z</time></trkpt><trkpt lat="45.7638484" lon="9.899738"><ele>544.0</ele><time>2026-05-03T07:26:43.969Z</time></trkpt><trkpt lat="45.7639015" lon="9.8998143"><ele>544.0</ele><time>2026-05-03T07:26:47.039Z</time></trkpt><trkpt lat="45.7639627" lon="9.8999002"><ele>544.0</ele><time>2026-05-03T07:26:49.949Z</time></trkpt><trkpt lat="45.7640296" lon="9.8999752"><ele>543.9999999999999</ele><time>2026-05-03T07:26:52.956Z</time></trkpt><trkpt lat="45.7640801" lon="9.9000317"><ele>544.0</ele><time>2026-05-03T07:26:54.959Z</time></trkpt><trkpt lat="45.7641362" lon="9.900084"><ele>544.0</ele><time>2026-05-03T07:26:56.961Z</time></trkpt><trkpt lat="45.7642139" lon="9.9001278"><ele>544.0</ele><time>2026-05-03T07:26:59.975Z</time></trkpt><trkpt lat="45.7642848" lon="9.9001585"><ele>544.0</ele><time>2026-05-03T07:27:02.968Z</time></trkpt><trkpt lat="45.764355" lon="9.9001918"><ele>543.9999999999999</ele><time>2026-05-03T07:27:05.97Z</time></trkpt><trkpt lat="45.7644348" lon="9.9002244"><ele>544.0</ele><time>2026-05-03T07:27:09.999Z</time></trkpt><trkpt lat="45.7645007" lon="9.9002532"><ele>547.1666666666667</ele><time>2026-05-03T07:27:12.97Z</time></trkpt><trkpt lat="45.7645686" lon="9.900279"><ele>550.3333333333334</ele><time>2026-05-03T07:27:15.985Z</time></trkpt><trkpt lat="45.7646375" lon="9.9003265"><ele>553.5</ele><time>2026-05-03T07:27:18.957Z</time></trkpt><trkpt lat="45.764694" lon="9.9003964"><ele>556.6666666666666</ele><time>2026-05-03T07:27:20.949Z</time></trkpt><trkpt lat="45.764594" lon="9.9003821"><ele>559.8333333333333</ele><time>2026-05-03T07:27:25.962Z</time></trkpt><trkpt lat="45.7645366" lon="9.9003247"><ele>563.0</ele><time>2026-05-03T07:27:28.954Z</time></trkpt><trkpt lat="45.764555" lon="9.9001923"><ele>564.2857142857142</ele><time>2026-05-03T07:27:31.967Z</time></trkpt><trkpt lat="45.7645677" lon="9.9000792"><ele>565.5714285714286</ele><time>2026-05-03T07:27:34.971Z</time></trkpt><trkpt lat="45.7645742" lon="9.8999754"><ele>566.8571428571429</ele><time>2026-05-03T07:27:37.966Z</time></trkpt><trkpt lat="45.7645562" lon="9.899876"><ele>568.1428571428571</ele><time>2026-05-03T07:27:40.974Z</time></trkpt><trkpt lat="45.7645387" lon="9.8997872"><ele>569.4285714285714</ele><time>2026-05-03T07:27:43.969Z</time></trkpt><trkpt lat="45.7645162" lon="9.8997021"><ele>570.7142857142857</ele><time>2026-05-03T07:27:46.976Z</time></trkpt><trkpt lat="45.7645001" lon="9.8996071"><ele>572.0</ele><time>2026-05-03T07:27:49.969Z</time></trkpt><trkpt lat="45.7645004" lon="9.8995046"><ele>571.9999999999999</ele><time>2026-05-03T07:27:53.981Z</time></trkpt><trkpt lat="45.7645103" lon="9.8994068"><ele>572.0</ele><time>2026-05-03T07:27:56.975Z</time></trkpt><trkpt lat="45.7645245" lon="9.8992894"><ele>572.0</ele><time>2026-05-03T07:28:00.975Z</time></trkpt><trkpt lat="45.7645422" lon="9.8991924"><ele>572.0</ele><time>2026-05-03T07:28:03.956Z</time></trkpt><trkpt lat="45.7645553" lon="9.899097"><ele>572.0</ele><time>2026-05-03T07:28:05.966Z</time></trkpt><trkpt lat="45.7645497" lon="9.8989847"><ele>571.9999999999999</ele><time>2026-05-03T07:28:07.979Z</time></trkpt><trkpt lat="45.7645845" lon="9.8988995"><ele>572.0</ele><time>2026-05-03T07:28:10.976Z</time></trkpt><trkpt lat="45.7646262" lon="9.8988178"><ele>573.2857142857142</ele><time>2026-05-03T07:28:14.968Z</time></trkpt><trkpt lat="45.764684" lon="9.898773"><ele>574.5714285714286</ele><time>2026-05-03T07:28:18.984Z</time></trkpt><trkpt lat="45.7647446" lon="9.8988171"><ele>575.8571428571429</ele><time>2026-05-03T07:28:25.973Z</time></trkpt><trkpt lat="45.7647806" lon="9.8989043"><ele>577.1428571428571</ele><time>2026-05-03T07:28:28.974Z</time></trkpt><trkpt lat="45.7648235" lon="9.8989743"><ele>578.4285714285714</ele><time>2026-05-03T07:28:31.969Z</time></trkpt><trkpt lat="45.7648784" lon="9.8990679"><ele>579.7142857142857</ele><time>2026-05-03T07:28:35.972Z</time></trkpt><trkpt lat="45.7649373" lon="9.8991194"><ele>581.0</ele><time>2026-05-03T07:28:38.985Z</time></trkpt><trkpt lat="45.7650056" lon="9.8991497"><ele>581.0</ele><time>2026-05-03T07:28:42.98Z</time></trkpt><trkpt lat="45.7650673" lon="9.899181"><ele>581.0</ele><time>2026-05-03T07:28:46.97Z</time></trkpt><trkpt lat="45.7651353" lon="9.8992038"><ele>581.0</ele><time>2026-05-03T07:28:50.962Z</time></trkpt><trkpt lat="45.7652003" lon="9.8992442"><ele>581.0</ele><time>2026-05-03T07:28:56.972Z</time></trkpt><trkpt lat="45.7652528" lon="9.8991872"><ele>581.0</ele><time>2026-05-03T07:29:00.98Z</time></trkpt><trkpt lat="45.7652921" lon="9.8991036"><ele>581.0</ele><time>2026-05-03T07:29:03.971Z</time></trkpt><trkpt lat="45.765345" lon="9.899052"><ele>581.0</ele><time>2026-05-03T07:29:06.972Z</time></trkpt><trkpt lat="45.7654002" lon="9.8989956"><ele>585.8571428571429</ele><time>2026-05-03T07:29:10.97Z</time></trkpt><trkpt lat="45.765458" lon="9.8989496"><ele>590.7142857142858</ele><time>2026-05-03T07:29:15.974Z</time></trkpt><trkpt lat="45.7655206" lon="9.8989794"><ele>595.5714285714286</ele><time>2026-05-03T07:29:20.978Z</time></trkpt><trkpt lat="45.765575" lon="9.8990391"><ele>600.4285714285714</ele><time>2026-05-03T07:29:24Z</time></trkpt><trkpt lat="45.7656391" lon="9.8990722"><ele>605.2857142857143</ele><time>2026-05-03T07:29:28.966Z</time></trkpt><trkpt lat="45.7657079" lon="9.8990471"><ele>610.1428571428571</ele><time>2026-05-03T07:29:32.971Z</time></trkpt><trkpt lat="45.7657314" lon="9.8989446"><ele>615.0</ele><time>2026-05-03T07:29:36.974Z</time></trkpt><trkpt lat="45.7657805" lon="9.8988814"><ele>615.0</ele><time>2026-05-03T07:29:41.04Z</time></trkpt><trkpt lat="45.7658404" lon="9.898845"><ele>615.0</ele><time>2026-05-03T07:29:45.986Z</time></trkpt><trkpt lat="45.765897" lon="9.898901"><ele>615.0</ele><time>2026-05-03T07:29:49.98Z</time></trkpt><trkpt lat="45.7659431" lon="9.898979"><ele>615.0</ele><time>2026-05-03T07:31:26.033Z</time></trkpt><trkpt lat="45.7659923" lon="9.8990653"><ele>615.0</ele><time>2026-05-03T07:31:29.958Z</time></trkpt><trkpt lat="45.7660608" lon="9.8991384"><ele>615.0</ele><time>2026-05-03T07:31:33.958Z</time></trkpt><trkpt lat="45.7661307" lon="9.8991944"><ele>615.0</ele><time>2026-05-03T07:31:36.97Z</time></trkpt><trkpt lat="45.7661973" lon="9.8992388"><ele>618.8571428571428</ele><time>2026-05-03T07:31:39.95Z</time></trkpt><trkpt lat="45.7662678" lon="9.8992799"><ele>622.7142857142858</ele><time>2026-05-03T07:31:42.963Z</time></trkpt><trkpt lat="45.7663359" lon="9.8992994"><ele>626.5714285714286</ele><time>2026-05-03T07:31:45.956Z</time></trkpt><trkpt lat="45.7664077" lon="9.8993374"><ele>630.4285714285713</ele><time>2026-05-03T07:31:50.964Z</time></trkpt><trkpt lat="45.7664704" lon="9.8993905"><ele>634.2857142857142</ele><time>2026-05-03T07:31:55.97Z</time></trkpt><trkpt lat="45.7665267" lon="9.8994458"><ele>638.1428571428571</ele><time>2026-05-03T07:31:59.978Z</time></trkpt><trkpt lat="45.7665726" lon="9.8995275"><ele>642.0</ele><time>2026-05-03T07:32:03.968Z</time></trkpt><trkpt lat="45.7666281" lon="9.8996439"><ele>642.0</ele><time>2026-05-03T07:32:07.971Z</time></trkpt><trkpt lat="45.7667011" lon="9.8998159"><ele>642.0</ele><time>2026-05-03T07:32:15.961Z</time></trkpt><trkpt lat="45.7667328" lon="9.8999189"><ele>642.0</ele><time>2026-05-03T07:32:18.955Z</time></trkpt><trkpt lat="45.7667835" lon="9.8999951"><ele>642.0</ele><time>2026-05-03T07:32:21.938Z</time></trkpt><trkpt lat="45.7668137" lon="9.9001232"><ele>642.0</ele><time>2026-05-03T07:32:24.96Z</time></trkpt><trkpt lat="45.7668327" lon="9.9002299"><ele>641.2857142857142</ele><time>2026-05-03T07:32:26.955Z</time></trkpt><trkpt lat="45.7668584" lon="9.9003234"><ele>640.5714285714286</ele><time>2026-05-03T07:32:28.98Z</time></trkpt><trkpt lat="45.7668946" lon="9.9004078"><ele>639.8571428571429</ele><time>2026-05-03T07:32:30.946Z</time></trkpt><trkpt lat="45.766922" lon="9.900505"><ele>639.1428571428571</ele><time>2026-05-03T07:32:32.972Z</time></trkpt><trkpt lat="45.7669505" lon="9.9005994"><ele>638.4285714285714</ele><time>2026-05-03T07:32:34.957Z</time></trkpt><trkpt lat="45.7669689" lon="9.9006973"><ele>637.7142857142857</ele><time>2026-05-03T07:32:36.961Z</time></trkpt><trkpt lat="45.7669718" lon="9.9007915"><ele>637.0</ele><time>2026-05-03T07:32:38.965Z</time></trkpt><trkpt lat="45.7669696" lon="9.90089"><ele>642.8333333333334</ele><time>2026-05-03T07:32:40.958Z</time></trkpt><trkpt lat="45.7669712" lon="9.9009867"><ele>648.6666666666667</ele><time>2026-05-03T07:32:43.033Z</time></trkpt><trkpt lat="45.766975" lon="9.9011199"><ele>654.5</ele><time>2026-05-03T07:32:45.954Z</time></trkpt><trkpt lat="45.7669854" lon="9.9012114"><ele>660.3333333333334</ele><time>2026-05-03T07:32:47.966Z</time></trkpt><trkpt lat="45.7669899" lon="9.9013143"><ele>666.1666666666666</ele><time>2026-05-03T07:32:50.968Z</time></trkpt><trkpt lat="45.767004" lon="9.9014298"><ele>672.0</ele><time>2026-05-03T07:32:53.962Z</time></trkpt><trkpt lat="45.7670239" lon="9.9015336"><ele>672.0</ele><time>2026-05-03T07:32:56.958Z</time></trkpt><trkpt lat="45.7670455" lon="9.9016482"><ele>672.0</ele><time>2026-05-03T07:32:59.972Z</time></trkpt><trkpt lat="45.7670517" lon="9.9017454"><ele>672.0</ele><time>2026-05-03T07:33:02.014Z</time></trkpt><trkpt lat="45.7670543" lon="9.9018545"><ele>672.0</ele><time>2026-05-03T07:33:04.02Z</time></trkpt><trkpt lat="45.7670451" lon="9.9019996"><ele>672.0</ele><time>2026-05-03T07:33:05.961Z</time></trkpt><trkpt lat="45.7670414" lon="9.902183"><ele>670.5</ele><time>2026-05-03T07:33:07.97Z</time></trkpt><trkpt lat="45.7670366" lon="9.9022982"><ele>669.0</ele><time>2026-05-03T07:33:08.963Z</time></trkpt><trkpt lat="45.7670304" lon="9.9024168"><ele>667.5</ele><time>2026-05-03T07:33:10.013Z</time></trkpt><trkpt lat="45.7670196" lon="9.9025306"><ele>666.0</ele><time>2026-05-03T07:33:10.964Z</time></trkpt><trkpt lat="45.7670061" lon="9.9026427"><ele>664.5</ele><time>2026-05-03T07:33:11.955Z</time></trkpt><trkpt lat="45.766992" lon="9.9027545"><ele>663.0</ele><time>2026-05-03T07:33:12.968Z</time></trkpt><trkpt lat="45.7669776" lon="9.9028601"><ele>661.8</ele><time>2026-05-03T07:33:14.04Z</time></trkpt><trkpt lat="45.7669673" lon="9.9029579"><ele>660.5999999999999</ele><time>2026-05-03T07:33:15.035Z</time></trkpt><trkpt lat="45.7669623" lon="9.9030493"><ele>659.4000000000001</ele><time>2026-05-03T07:33:15.961Z</time></trkpt><trkpt lat="45.7669445" lon="9.9032163"><ele>658.2</ele><time>2026-05-03T07:33:17.963Z</time></trkpt><trkpt lat="45.7669352" lon="9.9033674"><ele>657.0</ele><time>2026-05-03T07:33:20.014Z</time></trkpt><trkpt lat="45.7669148" lon="9.9035038"><ele>655.8333333333334</ele><time>2026-05-03T07:33:21.95Z</time></trkpt><trkpt lat="45.7668898" lon="9.9036247"><ele>654.6666666666666</ele><time>2026-05-03T07:33:23.961Z</time></trkpt><trkpt lat="45.7668745" lon="9.9037479"><ele>653.5</ele><time>2026-05-03T07:33:25.961Z</time></trkpt><trkpt lat="45.7668776" lon="9.9038516"><ele>652.3333333333333</ele><time>2026-05-03T07:33:28.022Z</time></trkpt><trkpt lat="45.7668902" lon="9.9039593"><ele>651.1666666666666</ele><time>2026-05-03T07:33:29.964Z</time></trkpt><trkpt lat="45.7669211" lon="9.9040688"><ele>650.0</ele><time>2026-05-03T07:33:31.964Z</time></trkpt><trkpt lat="45.7669387" lon="9.9042076"><ele>648.1666666666666</ele><time>2026-05-03T07:33:33.958Z</time></trkpt><trkpt lat="45.7669413" lon="9.9044005"><ele>646.3333333333333</ele><time>2026-05-03T07:33:35.983Z</time></trkpt><trkpt lat="45.7669535" lon="9.9045017"><ele>644.5</ele><time>2026-05-03T07:33:36.958Z</time></trkpt><trkpt lat="45.7669688" lon="9.904605"><ele>642.6666666666666</ele><time>2026-05-03T07:33:37.97Z</time></trkpt><trkpt lat="45.7669763" lon="9.9047157"><ele>640.8333333333334</ele><time>2026-05-03T07:33:38.962Z</time></trkpt><trkpt lat="45.7669915" lon="9.9048167"><ele>639.0</ele><time>2026-05-03T07:33:39.961Z</time></trkpt><trkpt lat="45.7670101" lon="9.9049181"><ele>639.0</ele><time>2026-05-03T07:33:40.969Z</time></trkpt><trkpt lat="45.7670484" lon="9.9050159"><ele>639.0</ele><time>2026-05-03T07:33:41.964Z</time></trkpt><trkpt lat="45.7671101" lon="9.9051007"><ele>639.0</ele><time>2026-05-03T07:33:42.958Z</time></trkpt><trkpt lat="45.7671886" lon="9.9051646"><ele>639.0</ele><time>2026-05-03T07:33:44.015Z</time></trkpt><trkpt lat="45.7672822" lon="9.9052032"><ele>639.0</ele><time>2026-05-03T07:33:45.022Z</time></trkpt><trkpt lat="45.7673704" lon="9.905281"><ele>636.6</ele><time>2026-05-03T07:33:45.963Z</time></trkpt><trkpt lat="45.7674519" lon="9.9053736"><ele>634.2</ele><time>2026-05-03T07:33:46.975Z</time></trkpt><trkpt lat="45.7675197" lon="9.9054584"><ele>631.8000000000001</ele><time>2026-05-03T07:33:47.952Z</time></trkpt><trkpt lat="45.7675751" lon="9.9055658"><ele>629.4</ele><time>2026-05-03T07:33:48.959Z</time></trkpt><trkpt lat="45.7676224" lon="9.9056746"><ele>627.0</ele><time>2026-05-03T07:33:50.038Z</time></trkpt><trkpt lat="45.7676911" lon="9.9057498"><ele>627.8571428571429</ele><time>2026-05-03T07:33:50.968Z</time></trkpt><trkpt lat="45.7677442" lon="9.9058247"><ele>628.7142857142857</ele><time>2026-05-03T07:33:51.96Z</time></trkpt><trkpt lat="45.7677977" lon="9.9058819"><ele>629.5714285714286</ele><time>2026-05-03T07:33:52.967Z</time></trkpt><trkpt lat="45.7678582" lon="9.9059405"><ele>630.4285714285714</ele><time>2026-05-03T07:33:53.972Z</time></trkpt><trkpt lat="45.7679212" lon="9.9060014"><ele>631.2857142857143</ele><time>2026-05-03T07:33:54.954Z</time></trkpt><trkpt lat="45.7679863" lon="9.9060489"><ele>632.1428571428571</ele><time>2026-05-03T07:33:55.976Z</time></trkpt><trkpt lat="45.7680552" lon="9.9060764"><ele>633.0</ele><time>2026-05-03T07:33:56.957Z</time></trkpt><trkpt lat="45.7681228" lon="9.9061306"><ele>633.0</ele><time>2026-05-03T07:33:57.969Z</time></trkpt><trkpt lat="45.7681885" lon="9.9061903"><ele>633.0</ele><time>2026-05-03T07:33:58.965Z</time></trkpt><trkpt lat="45.7682618" lon="9.9062403"><ele>633.0</ele><time>2026-05-03T07:33:59.969Z</time></trkpt><trkpt lat="45.7683215" lon="9.9063033"><ele>633.0</ele><time>2026-05-03T07:34:00.954Z</time></trkpt><trkpt lat="45.7683791" lon="9.9063585"><ele>633.0</ele><time>2026-05-03T07:34:01.972Z</time></trkpt><trkpt lat="45.7684384" lon="9.9064096"><ele>633.0</ele><time>2026-05-03T07:34:02.979Z</time></trkpt><trkpt lat="45.7684903" lon="9.9064668"><ele>633.0</ele><time>2026-05-03T07:34:03.972Z</time></trkpt><trkpt lat="45.7685447" lon="9.9065279"><ele>633.3333333333334</ele><time>2026-05-03T07:34:04.974Z</time></trkpt><trkpt lat="45.7685999" lon="9.906588"><ele>633.6666666666666</ele><time>2026-05-03T07:34:05.955Z</time></trkpt><trkpt lat="45.7686522" lon="9.9066562"><ele>634.0</ele><time>2026-05-03T07:34:06.984Z</time></trkpt><trkpt lat="45.7687074" lon="9.9067357"><ele>634.3333333333333</ele><time>2026-05-03T07:34:08.034Z</time></trkpt><trkpt lat="45.7687639" lon="9.9068211"><ele>634.6666666666666</ele><time>2026-05-03T07:34:09.03Z</time></trkpt><trkpt lat="45.7688194" lon="9.9069119"><ele>635.0</ele><time>2026-05-03T07:34:10.033Z</time></trkpt><trkpt lat="45.768871" lon="9.9069863"><ele>635.0</ele><time>2026-05-03T07:34:10.962Z</time></trkpt><trkpt lat="45.7689248" lon="9.9070575"><ele>635.0</ele><time>2026-05-03T07:34:11.97Z</time></trkpt><trkpt lat="45.7689782" lon="9.9071362"><ele>635.0</ele><time>2026-05-03T07:34:12.942Z</time></trkpt><trkpt lat="45.7690313" lon="9.907221"><ele>635.0</ele><time>2026-05-03T07:34:13.96Z</time></trkpt><trkpt lat="45.7690928" lon="9.9072978"><ele>635.0</ele><time>2026-05-03T07:34:14.961Z</time></trkpt><trkpt lat="45.7691477" lon="9.9073791"><ele>635.0</ele><time>2026-05-03T07:34:15.952Z</time></trkpt><trkpt lat="45.7692066" lon="9.9074535"><ele>635.0</ele><time>2026-05-03T07:34:16.967Z</time></trkpt><trkpt lat="45.7692715" lon="9.9075166"><ele>635.0</ele><time>2026-05-03T07:34:17.959Z</time></trkpt><trkpt lat="45.7693408" lon="9.9075791"><ele>635.0</ele><time>2026-05-03T07:34:18.959Z</time></trkpt><trkpt lat="45.7694085" lon="9.9076507"><ele>635.0</ele><time>2026-05-03T07:34:19.967Z</time></trkpt><trkpt lat="45.7694811" lon="9.9077176"><ele>635.0</ele><time>2026-05-03T07:34:20.956Z</time></trkpt><trkpt lat="45.7695582" lon="9.9078034"><ele>635.0</ele><time>2026-05-03T07:34:21.965Z</time></trkpt><trkpt lat="45.7696309" lon="9.9079012"><ele>635.6</ele><time>2026-05-03T07:34:22.968Z</time></trkpt><trkpt lat="45.7697078" lon="9.9079995"><ele>636.2</ele><time>2026-05-03T07:34:23.966Z</time></trkpt><trkpt lat="45.7697803" lon="9.9081"><ele>636.8</ele><time>2026-05-03T07:34:24.936Z</time></trkpt><trkpt lat="45.7698555" lon="9.9081953"><ele>637.4</ele><time>2026-05-03T07:34:25.953Z</time></trkpt><trkpt lat="45.7699243" lon="9.9082859"><ele>638.0</ele><time>2026-05-03T07:34:26.968Z</time></trkpt><trkpt lat="45.7699809" lon="9.9083803"><ele>640.1666666666666</ele><time>2026-05-03T07:34:27.963Z</time></trkpt><trkpt lat="45.7700307" lon="9.9084652"><ele>642.3333333333333</ele><time>2026-05-03T07:34:28.969Z</time></trkpt><trkpt lat="45.7700695" lon="9.9085549"><ele>644.5</ele><time>2026-05-03T07:34:29.963Z</time></trkpt><trkpt lat="45.770112" lon="9.9086442"><ele>646.6666666666666</ele><time>2026-05-03T07:34:30.963Z</time></trkpt><trkpt lat="45.7701499" lon="9.9087262"><ele>648.8333333333334</ele><time>2026-05-03T07:34:31.944Z</time></trkpt><trkpt lat="45.7701909" lon="9.9088007"><ele>651.0</ele><time>2026-05-03T07:34:32.96Z</time></trkpt><trkpt lat="45.7702809" lon="9.9089207"><ele>651.0</ele><time>2026-05-03T07:34:34.966Z</time></trkpt><trkpt lat="45.7703453" lon="9.9090476"><ele>651.0</ele><time>2026-05-03T07:34:36.968Z</time></trkpt><trkpt lat="45.7704059" lon="9.9091569"><ele>651.0</ele><time>2026-05-03T07:34:38.949Z</time></trkpt><trkpt lat="45.7704741" lon="9.9092641"><ele>651.0</ele><time>2026-05-03T07:34:40.947Z</time></trkpt><trkpt lat="45.7705297" lon="9.9093856"><ele>651.0</ele><time>2026-05-03T07:34:42.957Z</time></trkpt><trkpt lat="45.7705825" lon="9.9094841"><ele>647.5999999999999</ele><time>2026-05-03T07:34:44.954Z</time></trkpt><trkpt lat="45.7706336" lon="9.9095805"><ele>644.1999999999999</ele><time>2026-05-03T07:34:46.945Z</time></trkpt><trkpt lat="45.7706794" lon="9.909685"><ele>640.8</ele><time>2026-05-03T07:34:48.958Z</time></trkpt><trkpt lat="45.7707274" lon="9.9097831"><ele>637.4</ele><time>2026-05-03T07:34:50.961Z</time></trkpt><trkpt lat="45.7707866" lon="9.9098948"><ele>634.0</ele><time>2026-05-03T07:34:52.955Z</time></trkpt><trkpt lat="45.7708561" lon="9.9099962"><ele>630.6</ele><time>2026-05-03T07:34:54.96Z</time></trkpt><trkpt lat="45.7709206" lon="9.9101047"><ele>627.2</ele><time>2026-05-03T07:34:56.961Z</time></trkpt><trkpt lat="45.7709833" lon="9.910235"><ele>623.8000000000001</ele><time>2026-05-03T07:34:58.965Z</time></trkpt><trkpt lat="45.7710384" lon="9.9103165"><ele>620.4</ele><time>2026-05-03T07:35:00.964Z</time></trkpt><trkpt lat="45.7710966" lon="9.9104223"><ele>617.0</ele><time>2026-05-03T07:35:02.959Z</time></trkpt><trkpt lat="45.7711534" lon="9.9105015"><ele>622.8</ele><time>2026-05-03T07:35:04.96Z</time></trkpt><trkpt lat="45.7712114" lon="9.9105937"><ele>628.6</ele><time>2026-05-03T07:35:06.96Z</time></trkpt><trkpt lat="45.7712622" lon="9.9107209"><ele>634.4</ele><time>2026-05-03T07:35:08.958Z</time></trkpt><trkpt lat="45.7713043" lon="9.9108517"><ele>640.1999999999999</ele><time>2026-05-03T07:35:10.955Z</time></trkpt><trkpt lat="45.7713404" lon="9.9109868"><ele>646.0</ele><time>2026-05-03T07:35:12.958Z</time></trkpt><trkpt lat="45.7713653" lon="9.9111364"><ele>646.0</ele><time>2026-05-03T07:35:14.959Z</time></trkpt><trkpt lat="45.7713878" lon="9.9112798"><ele>646.0</ele><time>2026-05-03T07:35:16.958Z</time></trkpt><trkpt lat="45.7713938" lon="9.9114394"><ele>646.0</ele><time>2026-05-03T07:35:18.966Z</time></trkpt><trkpt lat="45.7713958" lon="9.9116018"><ele>646.0</ele><time>2026-05-03T07:35:20.952Z</time></trkpt><trkpt lat="45.7713818" lon="9.9117479"><ele>646.0</ele><time>2026-05-03T07:35:22.949Z</time></trkpt><trkpt lat="45.7713327" lon="9.9118795"><ele>643.4</ele><time>2026-05-03T07:35:24.943Z</time></trkpt><trkpt lat="45.7712683" lon="9.9120272"><ele>640.8</ele><time>2026-05-03T07:35:26.955Z</time></trkpt><trkpt lat="45.7712221" lon="9.9121126"><ele>638.1999999999999</ele><time>2026-05-03T07:35:27.954Z</time></trkpt><trkpt lat="45.7711701" lon="9.9122094"><ele>635.5999999999999</ele><time>2026-05-03T07:35:28.963Z</time></trkpt><trkpt lat="45.7711138" lon="9.912313"><ele>633.0</ele><time>2026-05-03T07:35:30.027Z</time></trkpt><trkpt lat="45.7710514" lon="9.9124284"><ele>629.6</ele><time>2026-05-03T07:35:30.962Z</time></trkpt><trkpt lat="45.7709918" lon="9.9125241"><ele>626.1999999999999</ele><time>2026-05-03T07:35:31.955Z</time></trkpt><trkpt lat="45.7709294" lon="9.9126047"><ele>622.8</ele><time>2026-05-03T07:35:32.951Z</time></trkpt><trkpt lat="45.7708774" lon="9.9126723"><ele>619.4</ele><time>2026-05-03T07:35:33.957Z</time></trkpt><trkpt lat="45.7708392" lon="9.9128086"><ele>616.0</ele><time>2026-05-03T07:35:35.971Z</time></trkpt><trkpt lat="45.7708662" lon="9.912983"><ele>615.6666666666667</ele><time>2026-05-03T07:35:37.955Z</time></trkpt><trkpt lat="45.770884" lon="9.9130818"><ele>615.3333333333334</ele><time>2026-05-03T07:35:38.953Z</time></trkpt><trkpt lat="45.7708962" lon="9.9131899"><ele>615.0</ele><time>2026-05-03T07:35:39.954Z</time></trkpt><trkpt lat="45.7709144" lon="9.9132949"><ele>614.6666666666666</ele><time>2026-05-03T07:35:40.959Z</time></trkpt><trkpt lat="45.7709465" lon="9.9133943"><ele>614.3333333333333</ele><time>2026-05-03T07:35:41.966Z</time></trkpt><trkpt lat="45.7710051" lon="9.9135003"><ele>614.0</ele><time>2026-05-03T07:35:43.014Z</time></trkpt><trkpt lat="45.7710659" lon="9.9135956"><ele>614.0</ele><time>2026-05-03T07:35:44.017Z</time></trkpt><trkpt lat="45.7711172" lon="9.9136944"><ele>614.0</ele><time>2026-05-03T07:35:45.009Z</time></trkpt><trkpt lat="45.7711679" lon="9.9137985"><ele>614.0</ele><time>2026-05-03T07:35:45.961Z</time></trkpt><trkpt lat="45.7712153" lon="9.9138986"><ele>614.0</ele><time>2026-05-03T07:35:46.961Z</time></trkpt><trkpt lat="45.7712623" lon="9.913994"><ele>614.0</ele><time>2026-05-03T07:35:47.95Z</time></trkpt><trkpt lat="45.7712993" lon="9.9140864"><ele>614.0</ele><time>2026-05-03T07:35:49.013Z</time></trkpt><trkpt lat="45.7713276" lon="9.9141827"><ele>612.3333333333333</ele><time>2026-05-03T07:35:49.941Z</time></trkpt><trkpt lat="45.7713542" lon="9.914282"><ele>610.6666666666666</ele><time>2026-05-03T07:35:50.959Z</time></trkpt><trkpt lat="45.7713786" lon="9.9143793"><ele>609.0</ele><time>2026-05-03T07:35:51.961Z</time></trkpt><trkpt lat="45.7714082" lon="9.9144714"><ele>607.3333333333334</ele><time>2026-05-03T07:35:52.943Z</time></trkpt><trkpt lat="45.7714942" lon="9.9146044"><ele>605.6666666666667</ele><time>2026-05-03T07:35:54.973Z</time></trkpt><trkpt lat="45.7715891" lon="9.9145997"><ele>604.0</ele><time>2026-05-03T07:35:56.957Z</time></trkpt><trkpt lat="45.7716523" lon="9.914664"><ele>604.0</ele><time>2026-05-03T07:35:58.965Z</time></trkpt><trkpt lat="45.7717409" lon="9.9147725"><ele>604.0</ele><time>2026-05-03T07:36:00.976Z</time></trkpt><trkpt lat="45.7718403" lon="9.9148916"><ele>604.0</ele><time>2026-05-03T07:36:03.024Z</time></trkpt><trkpt lat="45.771898" lon="9.9149462"><ele>604.0</ele><time>2026-05-03T07:36:03.961Z</time></trkpt><trkpt lat="45.7719699" lon="9.9150017"><ele>604.0</ele><time>2026-05-03T07:36:04.966Z</time></trkpt><trkpt lat="45.7720418" lon="9.9150648"><ele>602.6</ele><time>2026-05-03T07:36:05.969Z</time></trkpt><trkpt lat="45.7721066" lon="9.9151336"><ele>601.2</ele><time>2026-05-03T07:36:06.95Z</time></trkpt><trkpt lat="45.7721785" lon="9.9152103"><ele>599.8000000000001</ele><time>2026-05-03T07:36:07.968Z</time></trkpt><trkpt lat="45.7722483" lon="9.9152962"><ele>598.4</ele><time>2026-05-03T07:36:09.013Z</time></trkpt><trkpt lat="45.7723116" lon="9.9153937"><ele>597.0</ele><time>2026-05-03T07:36:10.028Z</time></trkpt><trkpt lat="45.772374" lon="9.9155063"><ele>597.0</ele><time>2026-05-03T07:36:10.966Z</time></trkpt><trkpt lat="45.7724327" lon="9.9156226"><ele>597.0</ele><time>2026-05-03T07:36:11.97Z</time></trkpt><trkpt lat="45.772498" lon="9.9157367"><ele>597.0</ele><time>2026-05-03T07:36:12.988Z</time></trkpt><trkpt lat="45.7725646" lon="9.9158599"><ele>597.0</ele><time>2026-05-03T07:36:13.963Z</time></trkpt><trkpt lat="45.7726348" lon="9.9159832"><ele>597.0</ele><time>2026-05-03T07:36:14.949Z</time></trkpt><trkpt lat="45.7727057" lon="9.9161145"><ele>600.0</ele><time>2026-05-03T07:36:15.955Z</time></trkpt><trkpt lat="45.772776" lon="9.9162514"><ele>603.0</ele><time>2026-05-03T07:36:16.968Z</time></trkpt><trkpt lat="45.7728389" lon="9.9163923"><ele>606.0</ele><time>2026-05-03T07:36:17.972Z</time></trkpt><trkpt lat="45.7728912" lon="9.9165478"><ele>609.0</ele><time>2026-05-03T07:36:18.952Z</time></trkpt><trkpt lat="45.772924" lon="9.9167197"><ele>607.5</ele><time>2026-05-03T07:36:19.96Z</time></trkpt><trkpt lat="45.7729439" lon="9.9168931"><ele>606.0</ele><time>2026-05-03T07:36:20.961Z</time></trkpt><trkpt lat="45.7729579" lon="9.9170594"><ele>604.5</ele><time>2026-05-03T07:36:22.035Z</time></trkpt><trkpt lat="45.7729678" lon="9.9172198"><ele>603.0</ele><time>2026-05-03T07:36:23.051Z</time></trkpt><trkpt lat="45.7729795" lon="9.9173844"><ele>603.0</ele><time>2026-05-03T07:36:23.96Z</time></trkpt><trkpt lat="45.7729873" lon="9.9175441"><ele>603.0</ele><time>2026-05-03T07:36:25.016Z</time></trkpt><trkpt lat="45.7729837" lon="9.9176972"><ele>603.0</ele><time>2026-05-03T07:36:25.963Z</time></trkpt><trkpt lat="45.7729615" lon="9.917835"><ele>603.0</ele><time>2026-05-03T07:36:26.967Z</time></trkpt><trkpt lat="45.7729113" lon="9.9179582"><ele>603.0</ele><time>2026-05-03T07:36:27.963Z</time></trkpt><trkpt lat="45.7728569" lon="9.9180728"><ele>602.8333333333334</ele><time>2026-05-03T07:36:28.975Z</time></trkpt><trkpt lat="45.7728012" lon="9.9181879"><ele>602.6666666666666</ele><time>2026-05-03T07:36:29.958Z</time></trkpt><trkpt lat="45.7727494" lon="9.9182996"><ele>602.5</ele><time>2026-05-03T07:36:30.942Z</time></trkpt><trkpt lat="45.772702" lon="9.9183991"><ele>602.3333333333333</ele><time>2026-05-03T07:36:31.961Z</time></trkpt><trkpt lat="45.7726546" lon="9.9185022"><ele>602.1666666666666</ele><time>2026-05-03T07:36:32.975Z</time></trkpt><trkpt lat="45.7726119" lon="9.9185849"><ele>602.0</ele><time>2026-05-03T07:36:33.956Z</time></trkpt><trkpt lat="45.7725749" lon="9.9186742"><ele>599.6</ele><time>2026-05-03T07:36:34.959Z</time></trkpt><trkpt lat="45.7725513" lon="9.9187626"><ele>597.2</ele><time>2026-05-03T07:36:35.959Z</time></trkpt><trkpt lat="45.772539" lon="9.9188602"><ele>594.8</ele><time>2026-05-03T07:36:37.042Z</time></trkpt><trkpt lat="45.772549" lon="9.9190254"><ele>592.4</ele><time>2026-05-03T07:36:38.972Z</time></trkpt><trkpt lat="45.7725743" lon="9.9191881"><ele>590.0</ele><time>2026-05-03T07:36:40.966Z</time></trkpt><trkpt lat="45.7726003" lon="9.9193468"><ele>588.6</ele><time>2026-05-03T07:36:43.005Z</time></trkpt><trkpt lat="45.7726328" lon="9.9195083"><ele>587.2</ele><time>2026-05-03T07:36:44.964Z</time></trkpt><trkpt lat="45.7726563" lon="9.9196594"><ele>585.8</ele><time>2026-05-03T07:36:46.96Z</time></trkpt><trkpt lat="45.7726798" lon="9.9198055"><ele>584.4</ele><time>2026-05-03T07:36:48.966Z</time></trkpt><trkpt lat="45.7726941" lon="9.919935"><ele>583.0</ele><time>2026-05-03T07:36:50.976Z</time></trkpt><trkpt lat="45.7727227" lon="9.9200565"><ele>586.0</ele><time>2026-05-03T07:36:52.966Z</time></trkpt><trkpt lat="45.7727459" lon="9.9201708"><ele>589.0</ele><time>2026-05-03T07:36:54.973Z</time></trkpt><trkpt lat="45.7727774" lon="9.9203013"><ele>592.0</ele><time>2026-05-03T07:36:56.973Z</time></trkpt><trkpt lat="45.7728181" lon="9.9204453"><ele>595.0</ele><time>2026-05-03T07:36:58.975Z</time></trkpt><trkpt lat="45.772878" lon="9.9205878"><ele>598.0</ele><time>2026-05-03T07:37:00.965Z</time></trkpt><trkpt lat="45.7729116" lon="9.9206768"><ele>598.0</ele><time>2026-05-03T07:37:01.97Z</time></trkpt><trkpt lat="45.7729398" lon="9.9207701"><ele>598.0</ele><time>2026-05-03T07:37:03Z</time></trkpt><trkpt lat="45.7729722" lon="9.9208592"><ele>598.0</ele><time>2026-05-03T07:37:03.969Z</time></trkpt><trkpt lat="45.7730003" lon="9.9209462"><ele>598.0</ele><time>2026-05-03T07:37:04.958Z</time></trkpt><trkpt lat="45.7730331" lon="9.9210279"><ele>598.0</ele><time>2026-05-03T07:37:05.965Z</time></trkpt><trkpt lat="45.7730641" lon="9.9211101"><ele>598.0</ele><time>2026-05-03T07:37:06.963Z</time></trkpt><trkpt lat="45.7730953" lon="9.9211938"><ele>598.0</ele><time>2026-05-03T07:37:07.967Z</time></trkpt><trkpt lat="45.773162" lon="9.9213495"><ele>596.6</ele><time>2026-05-03T07:37:09.962Z</time></trkpt><trkpt lat="45.7732247" lon="9.9215059"><ele>595.1999999999999</ele><time>2026-05-03T07:37:11.957Z</time></trkpt><trkpt lat="45.7732588" lon="9.9215917"><ele>593.8</ele><time>2026-05-03T07:37:12.963Z</time></trkpt><trkpt lat="45.7733074" lon="9.9217579"><ele>592.4</ele><time>2026-05-03T07:37:15.037Z</time></trkpt><trkpt lat="45.7733297" lon="9.921851"><ele>591.0</ele><time>2026-05-03T07:37:15.964Z</time></trkpt><trkpt lat="45.7733658" lon="9.9219413"><ele>589.8333333333334</ele><time>2026-05-03T07:37:16.961Z</time></trkpt><trkpt lat="45.7734082" lon="9.9220285"><ele>588.6666666666666</ele><time>2026-05-03T07:37:17.979Z</time></trkpt><trkpt lat="45.7734521" lon="9.9221279"><ele>587.5</ele><time>2026-05-03T07:37:19.013Z</time></trkpt><trkpt lat="45.7734884" lon="9.9222324"><ele>586.3333333333333</ele><time>2026-05-03T07:37:19.966Z</time></trkpt><trkpt lat="45.7735074" lon="9.9223473"><ele>585.1666666666666</ele><time>2026-05-03T07:37:20.97Z</time></trkpt><trkpt lat="45.7735036" lon="9.9224613"><ele>584.0</ele><time>2026-05-03T07:37:21.97Z</time></trkpt><trkpt lat="45.7734912" lon="9.9225684"><ele>583.8571428571429</ele><time>2026-05-03T07:37:22.968Z</time></trkpt><trkpt lat="45.7734663" lon="9.9226577"><ele>583.7142857142858</ele><time>2026-05-03T07:37:23.963Z</time></trkpt><trkpt lat="45.7734247" lon="9.9227507"><ele>583.5714285714287</ele><time>2026-05-03T07:37:24.968Z</time></trkpt><trkpt lat="45.7733767" lon="9.9228179"><ele>583.4285714285714</ele><time>2026-05-03T07:37:25.967Z</time></trkpt><trkpt lat="45.7733263" lon="9.9228781"><ele>583.2857142857143</ele><time>2026-05-03T07:37:26.959Z</time></trkpt><trkpt lat="45.773271" lon="9.9229528"><ele>583.1428571428572</ele><time>2026-05-03T07:37:27.966Z</time></trkpt><trkpt lat="45.7732174" lon="9.9230362"><ele>583.0</ele><time>2026-05-03T07:37:28.952Z</time></trkpt><trkpt lat="45.7731706" lon="9.9231167"><ele>583.0</ele><time>2026-05-03T07:37:30.034Z</time></trkpt><trkpt lat="45.7731353" lon="9.9232817"><ele>583.0</ele><time>2026-05-03T07:37:31.973Z</time></trkpt><trkpt lat="45.7731554" lon="9.9233876"><ele>583.0</ele><time>2026-05-03T07:37:32.952Z</time></trkpt><trkpt lat="45.7731525" lon="9.9235026"><ele>583.0</ele><time>2026-05-03T07:37:33.964Z</time></trkpt><trkpt lat="45.7731244" lon="9.923598"><ele>583.0</ele><time>2026-05-03T07:37:34.966Z</time></trkpt><trkpt lat="45.7730611" lon="9.9236977"><ele>583.0</ele><time>2026-05-03T07:37:35.969Z</time></trkpt><trkpt lat="45.7730003" lon="9.9237907"><ele>581.3333333333334</ele><time>2026-05-03T07:37:36.96Z</time></trkpt><trkpt lat="45.772939" lon="9.9238701"><ele>579.6666666666667</ele><time>2026-05-03T07:37:37.983Z</time></trkpt><trkpt lat="45.7729055" lon="9.9239525"><ele>578.0</ele><time>2026-05-03T07:37:38.965Z</time></trkpt><trkpt lat="45.7728884" lon="9.9240685"><ele>576.3333333333334</ele><time>2026-05-03T07:37:39.964Z</time></trkpt><trkpt lat="45.7728938" lon="9.9241965"><ele>574.6666666666666</ele><time>2026-05-03T07:37:40.953Z</time></trkpt><trkpt lat="45.7729125" lon="9.9243267"><ele>573.0</ele><time>2026-05-03T07:37:41.94Z</time></trkpt><trkpt lat="45.772926" lon="9.9244464"><ele>570.0</ele><time>2026-05-03T07:37:42.967Z</time></trkpt><trkpt lat="45.7729333" lon="9.9245652"><ele>567.0</ele><time>2026-05-03T07:37:43.969Z</time></trkpt><trkpt lat="45.7729498" lon="9.9246735"><ele>564.0</ele><time>2026-05-03T07:37:45.017Z</time></trkpt><trkpt lat="45.7729846" lon="9.9247879"><ele>561.0</ele><time>2026-05-03T07:37:45.959Z</time></trkpt><trkpt lat="45.7730507" lon="9.9248734"><ele>558.0</ele><time>2026-05-03T07:37:46.96Z</time></trkpt><trkpt lat="45.7731323" lon="9.9249364"><ele>555.0</ele><time>2026-05-03T07:37:47.96Z</time></trkpt><trkpt lat="45.7732118" lon="9.9249911"><ele>555.0</ele><time>2026-05-03T07:37:48.972Z</time></trkpt><trkpt lat="45.773284" lon="9.9250351"><ele>555.0</ele><time>2026-05-03T07:37:50.018Z</time></trkpt><trkpt lat="45.7733508" lon="9.9250766"><ele>555.0</ele><time>2026-05-03T07:37:50.97Z</time></trkpt><trkpt lat="45.7734248" lon="9.9251022"><ele>555.0</ele><time>2026-05-03T07:37:51.963Z</time></trkpt><trkpt lat="45.7734983" lon="9.9251376"><ele>555.0</ele><time>2026-05-03T07:37:52.972Z</time></trkpt><trkpt lat="45.7735746" lon="9.9251745"><ele>555.0</ele><time>2026-05-03T07:37:54.018Z</time></trkpt><trkpt lat="45.7736481" lon="9.9252115"><ele>550.1666666666666</ele><time>2026-05-03T07:37:55.018Z</time></trkpt><trkpt lat="45.773723" lon="9.9252516"><ele>545.3333333333334</ele><time>2026-05-03T07:37:55.983Z</time></trkpt><trkpt lat="45.7737866" lon="9.9252881"><ele>540.5</ele><time>2026-05-03T07:37:56.97Z</time></trkpt><trkpt lat="45.7738463" lon="9.9253183"><ele>535.6666666666667</ele><time>2026-05-03T07:37:57.967Z</time></trkpt><trkpt lat="45.7739406" lon="9.9253153"><ele>530.8333333333334</ele><time>2026-05-03T07:37:59.969Z</time></trkpt><trkpt lat="45.7739814" lon="9.9251947"><ele>526.0</ele><time>2026-05-03T07:38:02.961Z</time></trkpt><trkpt lat="45.7740134" lon="9.9250979"><ele>530.5</ele><time>2026-05-03T07:38:05.948Z</time></trkpt><trkpt lat="45.7740778" lon="9.9250563"><ele>535.0</ele><time>2026-05-03T07:38:13.957Z</time></trkpt><trkpt lat="45.7741508" lon="9.9250286"><ele>539.5</ele><time>2026-05-03T07:38:20.951Z</time></trkpt><trkpt lat="45.7741969" lon="9.9249321"><ele>544.0</ele><time>2026-05-03T07:38:24.038Z</time></trkpt><trkpt lat="45.7742284" lon="9.9248318"><ele>548.5</ele><time>2026-05-03T07:38:26.982Z</time></trkpt><trkpt lat="45.7742364" lon="9.9247373"><ele>553.0</ele><time>2026-05-03T07:38:29.952Z</time></trkpt><trkpt lat="45.7742824" lon="9.9246363"><ele>553.0</ele><time>2026-05-03T07:38:32.968Z</time></trkpt><trkpt lat="45.7743398" lon="9.9245462"><ele>553.0</ele><time>2026-05-03T07:38:34.973Z</time></trkpt><trkpt lat="45.7743766" lon="9.9244459"><ele>553.0</ele><time>2026-05-03T07:38:36.97Z</time></trkpt><trkpt lat="45.7744044" lon="9.9243536"><ele>553.0</ele><time>2026-05-03T07:38:39.974Z</time></trkpt><trkpt lat="45.7744791" lon="9.9243418"><ele>553.0</ele><time>2026-05-03T07:38:42.975Z</time></trkpt><trkpt lat="45.7745367" lon="9.9244017"><ele>553.0</ele><time>2026-05-03T07:38:45.976Z</time></trkpt><trkpt lat="45.7745676" lon="9.9244941"><ele>553.6666666666667</ele><time>2026-05-03T07:38:47.966Z</time></trkpt><trkpt lat="45.7746048" lon="9.9245747"><ele>554.3333333333334</ele><time>2026-05-03T07:38:48.971Z</time></trkpt><trkpt lat="45.7746498" lon="9.9246766"><ele>555.0</ele><time>2026-05-03T07:38:50.971Z</time></trkpt><trkpt lat="45.774687" lon="9.9247703"><ele>555.6666666666666</ele><time>2026-05-03T07:38:54.012Z</time></trkpt><trkpt lat="45.774733" lon="9.9248722"><ele>556.3333333333333</ele><time>2026-05-03T07:38:55.978Z</time></trkpt><trkpt lat="45.7747819" lon="9.9249518"><ele>557.0</ele><time>2026-05-03T07:38:57.962Z</time></trkpt><trkpt lat="45.7748318" lon="9.9250741"><ele>554.0</ele><time>2026-05-03T07:38:59.966Z</time></trkpt><trkpt lat="45.7748793" lon="9.925149"><ele>551.0</ele><time>2026-05-03T07:39:00.959Z</time></trkpt><trkpt lat="45.7749449" lon="9.9252152"><ele>548.0</ele><time>2026-05-03T07:39:01.951Z</time></trkpt><trkpt lat="45.7749993" lon="9.9252814"><ele>545.0</ele><time>2026-05-03T07:39:02.958Z</time></trkpt><trkpt lat="45.7750787" lon="9.9254119"><ele>542.0</ele><time>2026-05-03T07:39:05.054Z</time></trkpt><trkpt lat="45.7751166" lon="9.9255276"><ele>539.0</ele><time>2026-05-03T07:39:06.971Z</time></trkpt><trkpt lat="45.7751389" lon="9.9256488"><ele>539.0</ele><time>2026-05-03T07:39:08.967Z</time></trkpt><trkpt lat="45.7751668" lon="9.9257512"><ele>539.0</ele><time>2026-05-03T07:39:10.953Z</time></trkpt><trkpt lat="45.7751963" lon="9.9258398"><ele>539.0</ele><time>2026-05-03T07:39:13.04Z</time></trkpt><trkpt lat="45.7752276" lon="9.9259227"><ele>539.0</ele><time>2026-05-03T07:39:14.975Z</time></trkpt><trkpt lat="45.7753024" lon="9.9260403"><ele>539.0</ele><time>2026-05-03T07:39:16.956Z</time></trkpt><trkpt lat="45.7753994" lon="9.9261413"><ele>539.0</ele><time>2026-05-03T07:39:18.97Z</time></trkpt><trkpt lat="45.7754647" lon="9.9262016"><ele>541.0</ele><time>2026-05-03T07:39:20.972Z</time></trkpt><trkpt lat="45.7755436" lon="9.9262672"><ele>543.0</ele><time>2026-05-03T07:39:22.981Z</time></trkpt><trkpt lat="45.7756018" lon="9.9263234"><ele>545.0</ele><time>2026-05-03T07:39:23.98Z</time></trkpt><trkpt lat="45.7756558" lon="9.9263748"><ele>547.0</ele><time>2026-05-03T07:39:25.037Z</time></trkpt><trkpt lat="45.7757065" lon="9.9264402"><ele>549.0</ele><time>2026-05-03T07:39:25.977Z</time></trkpt><trkpt lat="45.7757594" lon="9.9265098"><ele>551.0</ele><time>2026-05-03T07:39:26.973Z</time></trkpt><trkpt lat="45.7758069" lon="9.9265785"><ele>553.0</ele><time>2026-05-03T07:39:28.003Z</time></trkpt><trkpt lat="45.775859" lon="9.9266525"><ele>553.0</ele><time>2026-05-03T07:39:28.972Z</time></trkpt><trkpt lat="45.7759046" lon="9.9267259"><ele>553.0</ele><time>2026-05-03T07:39:29.977Z</time></trkpt><trkpt lat="45.7759518" lon="9.9268043"><ele>553.0</ele><time>2026-05-03T07:39:30.977Z</time></trkpt><trkpt lat="45.7760052" lon="9.9268849"><ele>553.0</ele><time>2026-05-03T07:39:31.974Z</time></trkpt><trkpt lat="45.7760469" lon="9.9269603"><ele>553.0</ele><time>2026-05-03T07:39:32.956Z</time></trkpt><trkpt lat="45.7761336" lon="9.9271102"><ele>553.0</ele><time>2026-05-03T07:39:35.042Z</time></trkpt><trkpt lat="45.7761752" lon="9.9271944"><ele>553.1666666666667</ele><time>2026-05-03T07:39:35.963Z</time></trkpt><trkpt lat="45.7762233" lon="9.9272832"><ele>553.3333333333334</ele><time>2026-05-03T07:39:36.961Z</time></trkpt><trkpt lat="45.7762755" lon="9.9273771"><ele>553.5</ele><time>2026-05-03T07:39:37.964Z</time></trkpt><trkpt lat="45.7763191" lon="9.9274512"><ele>553.6666666666666</ele><time>2026-05-03T07:39:38.945Z</time></trkpt><trkpt lat="45.776374" lon="9.9275359"><ele>553.8333333333333</ele><time>2026-05-03T07:39:39.964Z</time></trkpt><trkpt lat="45.7764258" lon="9.9276128"><ele>554.0</ele><time>2026-05-03T07:39:40.962Z</time></trkpt><trkpt lat="45.776483" lon="9.9276725"><ele>553.2857142857142</ele><time>2026-05-03T07:39:41.958Z</time></trkpt><trkpt lat="45.7765472" lon="9.9277488"><ele>552.5714285714286</ele><time>2026-05-03T07:39:42.954Z</time></trkpt><trkpt lat="45.7766059" lon="9.9278049"><ele>551.8571428571429</ele><time>2026-05-03T07:39:43.959Z</time></trkpt><trkpt lat="45.7766633" lon="9.9278607"><ele>551.1428571428571</ele><time>2026-05-03T07:39:44.958Z</time></trkpt><trkpt lat="45.7767135" lon="9.9279222"><ele>550.4285714285714</ele><time>2026-05-03T07:39:45.956Z</time></trkpt><trkpt lat="45.7767605" lon="9.9279882"><ele>549.7142857142857</ele><time>2026-05-03T07:39:46.962Z</time></trkpt><trkpt lat="45.7768173" lon="9.9280719"><ele>549.0</ele><time>2026-05-03T07:39:48.958Z</time></trkpt><trkpt lat="45.7768782" lon="9.9281046"><ele>549.0</ele><time>2026-05-03T07:39:50.962Z</time></trkpt><trkpt lat="45.7769393" lon="9.9281481"><ele>549.0</ele><time>2026-05-03T07:39:52.939Z</time></trkpt><trkpt lat="45.7770221" lon="9.9282298"><ele>549.0</ele><time>2026-05-03T07:39:54.963Z</time></trkpt><trkpt lat="45.7771058" lon="9.928305"><ele>549.0</ele><time>2026-05-03T07:39:56.955Z</time></trkpt><trkpt lat="45.777188" lon="9.9283875"><ele>549.0</ele><time>2026-05-03T07:39:58.961Z</time></trkpt><trkpt lat="45.7772356" lon="9.928447"><ele>549.0</ele><time>2026-05-03T07:39:59.946Z</time></trkpt><trkpt lat="45.777297" lon="9.9285085"><ele>546.0</ele><time>2026-05-03T07:40:00.961Z</time></trkpt><trkpt lat="45.7773655" lon="9.9285665"><ele>543.0</ele><time>2026-05-03T07:40:01.967Z</time></trkpt><trkpt lat="45.7774186" lon="9.9286275"><ele>540.0</ele><time>2026-05-03T07:40:02.969Z</time></trkpt><trkpt lat="45.7774697" lon="9.9286937"><ele>537.0</ele><time>2026-05-03T07:40:03.967Z</time></trkpt><trkpt lat="45.777577" lon="9.9287973"><ele>534.0</ele><time>2026-05-03T07:40:05.952Z</time></trkpt><trkpt lat="45.7776591" lon="9.9288689"><ele>531.0</ele><time>2026-05-03T07:40:07.965Z</time></trkpt><trkpt lat="45.777739" lon="9.9289046"><ele>531.0</ele><time>2026-05-03T07:40:09.955Z</time></trkpt><trkpt lat="45.7778187" lon="9.9289701"><ele>531.0</ele><time>2026-05-03T07:40:11.966Z</time></trkpt><trkpt lat="45.7778925" lon="9.9290213"><ele>531.0</ele><time>2026-05-03T07:40:13.963Z</time></trkpt><trkpt lat="45.7779751" lon="9.9291188"><ele>531.0</ele><time>2026-05-03T07:40:15.97Z</time></trkpt><trkpt lat="45.7780697" lon="9.929176"><ele>531.0</ele><time>2026-05-03T07:40:17.954Z</time></trkpt><trkpt lat="45.7781316" lon="9.9292097"><ele>527.1666666666666</ele><time>2026-05-03T07:40:18.963Z</time></trkpt><trkpt lat="45.7782019" lon="9.9292449"><ele>523.3333333333334</ele><time>2026-05-03T07:40:19.976Z</time></trkpt><trkpt lat="45.778264" lon="9.9292764"><ele>519.5</ele><time>2026-05-03T07:40:20.96Z</time></trkpt><trkpt lat="45.7783277" lon="9.9292911"><ele>515.6666666666667</ele><time>2026-05-03T07:40:21.948Z</time></trkpt><trkpt lat="45.7784343" lon="9.9293141"><ele>511.83333333333337</ele><time>2026-05-03T07:40:23.973Z</time></trkpt><trkpt lat="45.7785558" lon="9.9293407"><ele>508.0</ele><time>2026-05-03T07:40:25.97Z</time></trkpt><trkpt lat="45.7786727" lon="9.9294063"><ele>508.0</ele><time>2026-05-03T07:40:27.962Z</time></trkpt><trkpt lat="45.7787508" lon="9.9294491"><ele>507.99999999999994</ele><time>2026-05-03T07:40:28.954Z</time></trkpt><trkpt lat="45.7788314" lon="9.9294827"><ele>507.99999999999994</ele><time>2026-05-03T07:40:29.968Z</time></trkpt><trkpt lat="45.7788993" lon="9.9295096"><ele>508.0</ele><time>2026-05-03T07:40:30.968Z</time></trkpt><trkpt lat="45.7789646" lon="9.9295485"><ele>508.0</ele><time>2026-05-03T07:40:31.965Z</time></trkpt><trkpt lat="45.7790852" lon="9.9296662"><ele>508.00000000000006</ele><time>2026-05-03T07:40:33.966Z</time></trkpt><trkpt lat="45.7791642" lon="9.9297273"><ele>508.0</ele><time>2026-05-03T07:40:34.949Z</time></trkpt><trkpt lat="45.779237" lon="9.9297789"><ele>508.0</ele><time>2026-05-03T07:40:35.945Z</time></trkpt><trkpt lat="45.7793099" lon="9.929843"><ele>508.0</ele><time>2026-05-03T07:40:36.957Z</time></trkpt><trkpt lat="45.779381" lon="9.9298965"><ele>508.00000000000006</ele><time>2026-05-03T07:40:37.965Z</time></trkpt><trkpt lat="45.7794449" lon="9.9299516"><ele>508.0</ele><time>2026-05-03T07:40:38.961Z</time></trkpt><trkpt lat="45.7795439" lon="9.9300299"><ele>506.4</ele><time>2026-05-03T07:40:40.965Z</time></trkpt><trkpt lat="45.7796167" lon="9.9300792"><ele>504.79999999999995</ele><time>2026-05-03T07:40:42.963Z</time></trkpt><trkpt lat="45.7796872" lon="9.9301565"><ele>503.2</ele><time>2026-05-03T07:40:44.962Z</time></trkpt><trkpt lat="45.7797628" lon="9.9302656"><ele>501.6</ele><time>2026-05-03T07:40:46.964Z</time></trkpt><trkpt lat="45.7798543" lon="9.9303361"><ele>500.0</ele><time>2026-05-03T07:40:49.033Z</time></trkpt><trkpt lat="45.7799245" lon="9.9303865"><ele>500.0</ele><time>2026-05-03T07:40:50.953Z</time></trkpt><trkpt lat="45.7800033" lon="9.9304147"><ele>500.0</ele><time>2026-05-03T07:40:52.964Z</time></trkpt><trkpt lat="45.7800903" lon="9.9304408"><ele>500.0</ele><time>2026-05-03T07:40:54.964Z</time></trkpt><trkpt lat="45.7801825" lon="9.9304715"><ele>500.0</ele><time>2026-05-03T07:40:56.971Z</time></trkpt><trkpt lat="45.7802866" lon="9.9304936"><ele>500.0</ele><time>2026-05-03T07:40:59.031Z</time></trkpt><trkpt lat="45.7803916" lon="9.9305189"><ele>501.0</ele><time>2026-05-03T07:41:00.965Z</time></trkpt><trkpt lat="45.7804835" lon="9.9305428"><ele>502.0</ele><time>2026-05-03T07:41:02.965Z</time></trkpt><trkpt lat="45.7805788" lon="9.9305606"><ele>503.0</ele><time>2026-05-03T07:41:04.969Z</time></trkpt><trkpt lat="45.7806778" lon="9.9306045"><ele>504.0</ele><time>2026-05-03T07:41:06.943Z</time></trkpt><trkpt lat="45.7807685" lon="9.9306659"><ele>505.0</ele><time>2026-05-03T07:41:09.04Z</time></trkpt><trkpt lat="45.7808348" lon="9.9306993"><ele>505.0</ele><time>2026-05-03T07:41:10.043Z</time></trkpt><trkpt lat="45.7808987" lon="9.9307288"><ele>505.0</ele><time>2026-05-03T07:41:10.988Z</time></trkpt><trkpt lat="45.7809618" lon="9.9307514"><ele>505.0</ele><time>2026-05-03T07:41:11.944Z</time></trkpt><trkpt lat="45.7810652" lon="9.9307808"><ele>505.0</ele><time>2026-05-03T07:41:13.961Z</time></trkpt><trkpt lat="45.7812112" lon="9.930788"><ele>505.0</ele><time>2026-05-03T07:41:32.031Z</time></trkpt><trkpt lat="45.7812803" lon="9.9307997"><ele>505.33333333333337</ele><time>2026-05-03T07:41:34.968Z</time></trkpt><trkpt lat="45.7813588" lon="9.930792"><ele>505.6666666666667</ele><time>2026-05-03T07:41:53.968Z</time></trkpt><trkpt lat="45.781458" lon="9.9307889"><ele>506.0</ele><time>2026-05-03T07:42:01.969Z</time></trkpt><trkpt lat="45.7815222" lon="9.9307618"><ele>506.33333333333337</ele><time>2026-05-03T07:42:08.964Z</time></trkpt><trkpt lat="45.7815916" lon="9.9307476"><ele>506.6666666666667</ele><time>2026-05-03T07:42:11.958Z</time></trkpt><trkpt lat="45.7816549" lon="9.9307222"><ele>507.0</ele><time>2026-05-03T07:42:14.954Z</time></trkpt><trkpt lat="45.7817418" lon="9.9307183"><ele>507.0</ele><time>2026-05-03T07:42:17.939Z</time></trkpt><trkpt lat="45.7818257" lon="9.9307334"><ele>507.0</ele><time>2026-05-03T07:42:20.965Z</time></trkpt><trkpt lat="45.7819106" lon="9.9307313"><ele>507.0</ele><time>2026-05-03T07:42:23.954Z</time></trkpt><trkpt lat="45.7819736" lon="9.9307155"><ele>507.0</ele><time>2026-05-03T07:42:25.957Z</time></trkpt><trkpt lat="45.7820458" lon="9.9307163"><ele>507.0</ele><time>2026-05-03T07:42:28.945Z</time></trkpt><trkpt lat="45.7821113" lon="9.9306848"><ele>507.0</ele><time>2026-05-03T07:42:31.964Z</time></trkpt><trkpt lat="45.7821989" lon="9.9306278"><ele>508.1666666666667</ele><time>2026-05-03T07:42:39.96Z</time></trkpt><trkpt lat="45.7821487" lon="9.9305497"><ele>509.33333333333337</ele><time>2026-05-03T07:42:44.958Z</time></trkpt><trkpt lat="45.7821774" lon="9.9304604"><ele>510.5</ele><time>2026-05-03T07:42:55.963Z</time></trkpt><trkpt lat="45.7822899" lon="9.9304631"><ele>511.6666666666667</ele><time>2026-05-03T07:43:08.958Z</time></trkpt><trkpt lat="45.7823655" lon="9.9304449"><ele>512.8333333333334</ele><time>2026-05-03T07:43:20.961Z</time></trkpt><trkpt lat="45.7824363" lon="9.9304316"><ele>514.0</ele><time>2026-05-03T07:43:32.957Z</time></trkpt><trkpt lat="45.7824975" lon="9.9304037"><ele>514.0</ele><time>2026-05-03T07:43:36.948Z</time></trkpt><trkpt lat="45.7826732" lon="9.9304356"><ele>514.0</ele><time>2026-05-03T07:43:43.956Z</time></trkpt><trkpt lat="45.7827579" lon="9.9304465"><ele>514.0</ele><time>2026-05-03T07:43:44.958Z</time></trkpt><trkpt lat="45.782821" lon="9.9304499"><ele>514.0</ele><time>2026-05-03T07:43:45.966Z</time></trkpt><trkpt lat="45.7829208" lon="9.9304838"><ele>514.0</ele><time>2026-05-03T07:43:48.969Z</time></trkpt><trkpt lat="45.7829822" lon="9.9305039"><ele>514.8</ele><time>2026-05-03T07:43:49.965Z</time></trkpt><trkpt lat="45.783118" lon="9.9305131"><ele>515.5999999999999</ele><time>2026-05-03T07:43:52.962Z</time></trkpt><trkpt lat="45.7832273" lon="9.9305228"><ele>516.4</ele><time>2026-05-03T07:43:53.964Z</time></trkpt><trkpt lat="45.7833088" lon="9.9305355"><ele>517.1999999999999</ele><time>2026-05-03T07:43:54.962Z</time></trkpt><trkpt lat="45.7833796" lon="9.9305511"><ele>518.0</ele><time>2026-05-03T07:43:55.961Z</time></trkpt><trkpt lat="45.7834494" lon="9.9305641"><ele>518.1666666666666</ele><time>2026-05-03T07:43:56.957Z</time></trkpt><trkpt lat="45.783518" lon="9.930571"><ele>518.3333333333333</ele><time>2026-05-03T07:43:57.969Z</time></trkpt><trkpt lat="45.7835905" lon="9.9305841"><ele>518.5</ele><time>2026-05-03T07:43:58.958Z</time></trkpt><trkpt lat="45.7836738" lon="9.9306022"><ele>518.6666666666666</ele><time>2026-05-03T07:43:59.971Z</time></trkpt><trkpt lat="45.7837621" lon="9.9306112"><ele>518.8333333333334</ele><time>2026-05-03T07:44:00.968Z</time></trkpt><trkpt lat="45.7838435" lon="9.9306052"><ele>519.0</ele><time>2026-05-03T07:44:01.964Z</time></trkpt><trkpt lat="45.7839254" lon="9.9305982"><ele>519.0</ele><time>2026-05-03T07:44:02.974Z</time></trkpt><trkpt lat="45.7840062" lon="9.9305941"><ele>519.0</ele><time>2026-05-03T07:44:03.973Z</time></trkpt><trkpt lat="45.7840861" lon="9.9305961"><ele>519.0</ele><time>2026-05-03T07:44:04.964Z</time></trkpt><trkpt lat="45.7841655" lon="9.9305908"><ele>519.0</ele><time>2026-05-03T07:44:05.965Z</time></trkpt><trkpt lat="45.7842401" lon="9.9305803"><ele>519.0</ele><time>2026-05-03T07:44:06.966Z</time></trkpt><trkpt lat="45.7843156" lon="9.930574"><ele>519.0</ele><time>2026-05-03T07:44:07.966Z</time></trkpt><trkpt lat="45.7843955" lon="9.9305751"><ele>519.1666666666666</ele><time>2026-05-03T07:44:08.955Z</time></trkpt><trkpt lat="45.7844818" lon="9.9305813"><ele>519.3333333333334</ele><time>2026-05-03T07:44:10.022Z</time></trkpt><trkpt lat="45.784562" lon="9.9305987"><ele>519.5</ele><time>2026-05-03T07:44:10.965Z</time></trkpt><trkpt lat="45.7846437" lon="9.930615"><ele>519.6666666666667</ele><time>2026-05-03T07:44:11.972Z</time></trkpt><trkpt lat="45.7847221" lon="9.9306416"><ele>519.8333333333334</ele><time>2026-05-03T07:44:12.968Z</time></trkpt><trkpt lat="45.7847978" lon="9.9306659"><ele>520.0</ele><time>2026-05-03T07:44:13.961Z</time></trkpt><trkpt lat="45.7848756" lon="9.9306839"><ele>520.0</ele><time>2026-05-03T07:44:15.048Z</time></trkpt><trkpt lat="45.7849576" lon="9.9306896"><ele>520.0</ele><time>2026-05-03T07:44:15.975Z</time></trkpt><trkpt lat="45.7850446" lon="9.9306915"><ele>520.0</ele><time>2026-05-03T07:44:16.979Z</time></trkpt><trkpt lat="45.785126" lon="9.9306928"><ele>520.0</ele><time>2026-05-03T07:44:17.973Z</time></trkpt><trkpt lat="45.7852113" lon="9.9306919"><ele>520.0</ele><time>2026-05-03T07:44:19.039Z</time></trkpt><trkpt lat="45.7852926" lon="9.9306915"><ele>520.0</ele><time>2026-05-03T07:44:20.03Z</time></trkpt><trkpt lat="45.7853792" lon="9.9306992"><ele>521.3333333333334</ele><time>2026-05-03T07:44:20.968Z</time></trkpt><trkpt lat="45.7854658" lon="9.930713"><ele>522.6666666666667</ele><time>2026-05-03T07:44:21.965Z</time></trkpt><trkpt lat="45.785555" lon="9.9307355"><ele>524.0</ele><time>2026-05-03T07:44:22.978Z</time></trkpt><trkpt lat="45.7856387" lon="9.9307613"><ele>525.3333333333334</ele><time>2026-05-03T07:44:23.966Z</time></trkpt><trkpt lat="45.785721" lon="9.9307921"><ele>526.6666666666666</ele><time>2026-05-03T07:44:24.971Z</time></trkpt><trkpt lat="45.7858034" lon="9.9308262"><ele>528.0</ele><time>2026-05-03T07:44:25.941Z</time></trkpt><trkpt lat="45.785887" lon="9.9308708"><ele>526.1999999999999</ele><time>2026-05-03T07:44:26.948Z</time></trkpt><trkpt lat="45.7859654" lon="9.9309361"><ele>524.4</ele><time>2026-05-03T07:44:27.943Z</time></trkpt><trkpt lat="45.7860421" lon="9.9310185"><ele>522.5999999999999</ele><time>2026-05-03T07:44:28.942Z</time></trkpt><trkpt lat="45.7861322" lon="9.9311028"><ele>520.8</ele><time>2026-05-03T07:44:29.936Z</time></trkpt><trkpt lat="45.7862157" lon="9.9312024"><ele>519.0</ele><time>2026-05-03T07:44:30.95Z</time></trkpt><trkpt lat="45.7862874" lon="9.9312899"><ele>519.0</ele><time>2026-05-03T07:44:32.027Z</time></trkpt><trkpt lat="45.7863529" lon="9.9313487"><ele>519.0</ele><time>2026-05-03T07:44:32.953Z</time></trkpt><trkpt lat="45.7864361" lon="9.9314022"><ele>519.0</ele><time>2026-05-03T07:44:33.958Z</time></trkpt><trkpt lat="45.7865272" lon="9.9314307"><ele>519.0</ele><time>2026-05-03T07:44:34.96Z</time></trkpt><trkpt lat="45.7866015" lon="9.9314459"><ele>519.0</ele><time>2026-05-03T07:44:35.965Z</time></trkpt><trkpt lat="45.7866897" lon="9.9314473"><ele>519.0</ele><time>2026-05-03T07:44:38.015Z</time></trkpt><trkpt lat="45.7867587" lon="9.9314726"><ele>519.0</ele><time>2026-05-03T07:44:41.95Z</time></trkpt><trkpt lat="45.7868304" lon="9.9315146"><ele>519.0</ele><time>2026-05-03T07:44:45.961Z</time></trkpt><trkpt lat="45.7869062" lon="9.9315416"><ele>519.0</ele><time>2026-05-03T07:44:48.965Z</time></trkpt><trkpt lat="45.7869684" lon="9.9315818"><ele>519.0</ele><time>2026-05-03T07:44:51.952Z</time></trkpt><trkpt lat="45.7870332" lon="9.9316214"><ele>519.0</ele><time>2026-05-03T07:44:54.965Z</time></trkpt><trkpt lat="45.7870943" lon="9.9316733"><ele>519.0</ele><time>2026-05-03T07:44:57.972Z</time></trkpt><trkpt lat="45.7871493" lon="9.9317314"><ele>519.0</ele><time>2026-05-03T07:45:00.962Z</time></trkpt><trkpt lat="45.7872081" lon="9.9318075"><ele>519.4285714285714</ele><time>2026-05-03T07:45:03.969Z</time></trkpt><trkpt lat="45.7872496" lon="9.9318779"><ele>519.8571428571428</ele><time>2026-05-03T07:45:06.958Z</time></trkpt><trkpt lat="45.7873107" lon="9.9319618"><ele>520.2857142857142</ele><time>2026-05-03T07:45:10.953Z</time></trkpt><trkpt lat="45.7873695" lon="9.9320334"><ele>520.7142857142857</ele><time>2026-05-03T07:45:13.961Z</time></trkpt><trkpt lat="45.7874285" lon="9.9320988"><ele>521.1428571428571</ele><time>2026-05-03T07:45:16.952Z</time></trkpt><trkpt lat="45.7874899" lon="9.93215"><ele>521.5714285714286</ele><time>2026-05-03T07:45:20.019Z</time></trkpt><trkpt lat="45.7875537" lon="9.9322117"><ele>522.0</ele><time>2026-05-03T07:45:22.966Z</time></trkpt><trkpt lat="45.7876186" lon="9.9322758"><ele>521.1666666666666</ele><time>2026-05-03T07:45:25.962Z</time></trkpt><trkpt lat="45.7876923" lon="9.9323368"><ele>520.3333333333334</ele><time>2026-05-03T07:45:28.962Z</time></trkpt><trkpt lat="45.7877592" lon="9.9324126"><ele>519.5</ele><time>2026-05-03T07:45:31.956Z</time></trkpt><trkpt lat="45.7878436" lon="9.9324582"><ele>518.6666666666667</ele><time>2026-05-03T07:45:34.96Z</time></trkpt><trkpt lat="45.7879266" lon="9.9325168"><ele>517.8333333333334</ele><time>2026-05-03T07:45:38.056Z</time></trkpt><trkpt lat="45.7880025" lon="9.9325855"><ele>517.0</ele><time>2026-05-03T07:45:40.963Z</time></trkpt><trkpt lat="45.7880657" lon="9.9326197"><ele>517.0</ele><time>2026-05-03T07:45:43.034Z</time></trkpt><trkpt lat="45.7881352" lon="9.9326773"><ele>517.0</ele><time>2026-05-03T07:45:44.962Z</time></trkpt><trkpt lat="45.7882232" lon="9.9327342"><ele>517.0</ele><time>2026-05-03T07:45:46.963Z</time></trkpt><trkpt lat="45.7883134" lon="9.9327954"><ele>517.0</ele><time>2026-05-03T07:45:48.967Z</time></trkpt><trkpt lat="45.7884076" lon="9.9328528"><ele>517.0</ele><time>2026-05-03T07:45:50.968Z</time></trkpt><trkpt lat="45.7885009" lon="9.9329108"><ele>521.0</ele><time>2026-05-03T07:45:53.025Z</time></trkpt><trkpt lat="45.7885938" lon="9.9329791"><ele>525.0</ele><time>2026-05-03T07:45:54.952Z</time></trkpt><trkpt lat="45.7886885" lon="9.9330634"><ele>529.0</ele><time>2026-05-03T07:45:56.96Z</time></trkpt><trkpt lat="45.788778" lon="9.9331765"><ele>533.0</ele><time>2026-05-03T07:45:59.032Z</time></trkpt><trkpt lat="45.7888271" lon="9.9332344"><ele>537.0</ele><time>2026-05-03T07:46:00.034Z</time></trkpt><trkpt lat="45.7888803" lon="9.9332847"><ele>537.0</ele><time>2026-05-03T07:46:00.956Z</time></trkpt><trkpt lat="45.7889741" lon="9.9333769"><ele>537.0</ele><time>2026-05-03T07:46:02.979Z</time></trkpt><trkpt lat="45.7890579" lon="9.9334535"><ele>537.0</ele><time>2026-05-03T07:46:05.031Z</time></trkpt><trkpt lat="45.7891292" lon="9.9335015"><ele>537.0</ele><time>2026-05-03T07:46:07.97Z</time></trkpt><trkpt lat="45.789124" lon="9.933407"><ele>537.0</ele><time>2026-05-03T07:46:15.958Z</time></trkpt><trkpt lat="45.7891122" lon="9.9332956"><ele>537.0</ele><time>2026-05-03T07:46:18.956Z</time></trkpt><trkpt lat="45.7891172" lon="9.9331932"><ele>537.0</ele><time>2026-05-03T07:46:21.953Z</time></trkpt><trkpt lat="45.7891145" lon="9.9330946"><ele>537.0</ele><time>2026-05-03T07:46:25.969Z</time></trkpt><trkpt lat="45.7890883" lon="9.9329891"><ele>537.0</ele><time>2026-05-03T07:46:30.958Z</time></trkpt><trkpt lat="45.7890369" lon="9.9329113"><ele>537.0</ele><time>2026-05-03T07:46:46.954Z</time></trkpt><trkpt lat="45.7890277" lon="9.9327613"><ele>537.0</ele><time>2026-05-03T07:47:18.965Z</time></trkpt><trkpt lat="45.7891284" lon="9.9327398"><ele>537.0</ele><time>2026-05-03T07:47:37.958Z</time></trkpt><trkpt lat="45.789168" lon="9.9328169"><ele>537.0</ele><time>2026-05-03T07:48:08.96Z</time></trkpt><trkpt lat="45.7892269" lon="9.9328734"><ele>537.0</ele><time>2026-05-03T07:48:12.013Z</time></trkpt><trkpt lat="45.7892953" lon="9.9329452"><ele>537.0</ele><time>2026-05-03T07:48:14.966Z</time></trkpt><trkpt lat="45.7893542" lon="9.9330105"><ele>537.0</ele><time>2026-05-03T07:48:18.963Z</time></trkpt><trkpt lat="45.7894195" lon="9.9331244"><ele>537.0</ele><time>2026-05-03T07:48:21.971Z</time></trkpt><trkpt lat="45.789457" lon="9.9332349"><ele>537.0</ele><time>2026-05-03T07:48:23.967Z</time></trkpt><trkpt lat="45.7895078" lon="9.9333049"><ele>537.3333333333334</ele><time>2026-05-03T07:48:26.03Z</time></trkpt><trkpt lat="45.7895638" lon="9.933374"><ele>537.6666666666666</ele><time>2026-05-03T07:48:27.96Z</time></trkpt><trkpt lat="45.7896195" lon="9.9334532"><ele>538.0</ele><time>2026-05-03T07:48:29.971Z</time></trkpt><trkpt lat="45.7896799" lon="9.9335032"><ele>538.3333333333333</ele><time>2026-05-03T07:48:31.96Z</time></trkpt><trkpt lat="45.7897404" lon="9.9335529"><ele>538.6666666666666</ele><time>2026-05-03T07:48:33.944Z</time></trkpt><trkpt lat="45.7898211" lon="9.933613"><ele>539.0</ele><time>2026-05-03T07:48:36.955Z</time></trkpt><trkpt lat="45.7899007" lon="9.9336696"><ele>539.0</ele><time>2026-05-03T07:48:38.963Z</time></trkpt><trkpt lat="45.7899928" lon="9.9337329"><ele>539.0</ele><time>2026-05-03T07:48:40.957Z</time></trkpt><trkpt lat="45.7900824" lon="9.9338272"><ele>539.0</ele><time>2026-05-03T07:48:42.962Z</time></trkpt><trkpt lat="45.7901742" lon="9.9338971"><ele>539.0</ele><time>2026-05-03T07:48:44.962Z</time></trkpt><trkpt lat="45.7902377" lon="9.9339766"><ele>539.0</ele><time>2026-05-03T07:48:47.037Z</time></trkpt><trkpt lat="45.7902972" lon="9.9340433"><ele>540.5</ele><time>2026-05-03T07:48:48.961Z</time></trkpt><trkpt lat="45.7903594" lon="9.9341084"><ele>542.0</ele><time>2026-05-03T07:48:50.949Z</time></trkpt><trkpt lat="45.7904243" lon="9.9341722"><ele>543.5</ele><time>2026-05-03T07:48:52.96Z</time></trkpt><trkpt lat="45.790477" lon="9.9342487"><ele>545.0</ele><time>2026-05-03T07:48:54.954Z</time></trkpt><trkpt lat="45.7905252" lon="9.9343545"><ele>546.5</ele><time>2026-05-03T07:48:56.95Z</time></trkpt><trkpt lat="45.7905878" lon="9.9344382"><ele>548.0</ele><time>2026-05-03T07:48:58.948Z</time></trkpt><trkpt lat="45.7906718" lon="9.9345483"><ele>548.0</ele><time>2026-05-03T07:49:00.953Z</time></trkpt><trkpt lat="45.7907247" lon="9.9346077"><ele>548.0</ele><time>2026-05-03T07:49:01.939Z</time></trkpt><trkpt lat="45.7908181" lon="9.9347061"><ele>548.0</ele><time>2026-05-03T07:49:03.957Z</time></trkpt><trkpt lat="45.7908886" lon="9.9347667"><ele>548.0</ele><time>2026-05-03T07:49:05.953Z</time></trkpt><trkpt lat="45.7909385" lon="9.9348226"><ele>548.0</ele><time>2026-05-03T07:49:08.036Z</time></trkpt><trkpt lat="45.790998" lon="9.9348992"><ele>548.0</ele><time>2026-05-03T07:49:09.962Z</time></trkpt><trkpt lat="45.7910641" lon="9.9350135"><ele>548.0</ele><time>2026-05-03T07:49:11.976Z</time></trkpt><trkpt lat="45.791115" lon="9.935107"><ele>548.0</ele><time>2026-05-03T07:49:13.957Z</time></trkpt><trkpt lat="45.7911823" lon="9.9352189"><ele>548.0</ele><time>2026-05-03T07:49:15.965Z</time></trkpt><trkpt lat="45.7912527" lon="9.9353071"><ele>548.0</ele><time>2026-05-03T07:49:18.037Z</time></trkpt><trkpt lat="45.7913247" lon="9.9353682"><ele>548.0</ele><time>2026-05-03T07:49:19.958Z</time></trkpt><trkpt lat="45.7913854" lon="9.935428"><ele>548.0</ele><time>2026-05-03T07:49:21.956Z</time></trkpt><trkpt lat="45.7914504" lon="9.9354967"><ele>548.0</ele><time>2026-05-03T07:49:23.965Z</time></trkpt><trkpt lat="45.7915038" lon="9.9355492"><ele>548.0</ele><time>2026-05-03T07:49:25.977Z</time></trkpt><trkpt lat="45.7915682" lon="9.9356188"><ele>548.0</ele><time>2026-05-03T07:49:28.025Z</time></trkpt><trkpt lat="45.7916449" lon="9.9357015"><ele>548.0</ele><time>2026-05-03T07:49:29.967Z</time></trkpt><trkpt lat="45.7917204" lon="9.9357679"><ele>548.0</ele><time>2026-05-03T07:49:31.969Z</time></trkpt><trkpt lat="45.7917791" lon="9.9358111"><ele>548.0</ele><time>2026-05-03T07:49:33.972Z</time></trkpt><trkpt lat="45.7917997" lon="9.9359289"><ele>549.0</ele><time>2026-05-03T07:49:36.971Z</time></trkpt><trkpt lat="45.7918124" lon="9.9360723"><ele>550.0</ele><time>2026-05-03T07:49:38.972Z</time></trkpt><trkpt lat="45.7918471" lon="9.9361849"><ele>551.0</ele><time>2026-05-03T07:49:41.97Z</time></trkpt><trkpt lat="45.7918842" lon="9.9362833"><ele>552.0</ele><time>2026-05-03T07:49:44.97Z</time></trkpt><trkpt lat="45.7919355" lon="9.9363979"><ele>553.0</ele><time>2026-05-03T07:49:55.97Z</time></trkpt><trkpt lat="45.7920149" lon="9.9365212"><ele>553.0</ele><time>2026-05-03T07:49:57.978Z</time></trkpt><trkpt lat="45.7920908" lon="9.9366518"><ele>553.0</ele><time>2026-05-03T07:49:59.976Z</time></trkpt><trkpt lat="45.7921468" lon="9.9367647"><ele>553.0</ele><time>2026-05-03T07:50:01.972Z</time></trkpt><trkpt lat="45.7921742" lon="9.9368567"><ele>553.0</ele><time>2026-05-03T07:50:04.975Z</time></trkpt><trkpt lat="45.7922473" lon="9.9368987"><ele>553.0</ele><time>2026-05-03T07:50:41.97Z</time></trkpt><trkpt lat="45.7921928" lon="9.9368522"><ele>553.0</ele><time>2026-05-03T07:50:44.971Z</time></trkpt><trkpt lat="45.7921063" lon="9.9367874"><ele>553.0</ele><time>2026-05-03T07:50:46.976Z</time></trkpt><trkpt lat="45.7919904" lon="9.9366994"><ele>553.0</ele><time>2026-05-03T07:50:48.974Z</time></trkpt><trkpt lat="45.7918747" lon="9.9366255"><ele>553.0</ele><time>2026-05-03T07:50:50.972Z</time></trkpt><trkpt lat="45.7917648" lon="9.9365786"><ele>553.0</ele><time>2026-05-03T07:50:52.968Z</time></trkpt><trkpt lat="45.7916871" lon="9.936547"><ele>550.4</ele><time>2026-05-03T07:50:54.975Z</time></trkpt><trkpt lat="45.7916367" lon="9.9366416"><ele>547.8</ele><time>2026-05-03T07:50:56.972Z</time></trkpt><trkpt lat="45.7916649" lon="9.9367306"><ele>545.2</ele><time>2026-05-03T07:50:57.969Z</time></trkpt><trkpt lat="45.7917633" lon="9.9368341"><ele>542.6</ele><time>2026-05-03T07:50:59.963Z</time></trkpt><trkpt lat="45.7918406" lon="9.9369577"><ele>540.0</ele><time>2026-05-03T07:51:01.95Z</time></trkpt><trkpt lat="45.791859" lon="9.9371108"><ele>534.4</ele><time>2026-05-03T07:51:03.977Z</time></trkpt><trkpt lat="45.7917524" lon="9.9372081"><ele>528.8</ele><time>2026-05-03T07:51:05.967Z</time></trkpt><trkpt lat="45.7916767" lon="9.9372238"><ele>523.2</ele><time>2026-05-03T07:51:06.973Z</time></trkpt><trkpt lat="45.7915648" lon="9.9372496"><ele>517.6</ele><time>2026-05-03T07:51:08.966Z</time></trkpt><trkpt lat="45.7914913" lon="9.937253"><ele>512.0</ele><time>2026-05-03T07:51:10.975Z</time></trkpt><trkpt lat="45.7914579" lon="9.937349"><ele>511.99999999999994</ele><time>2026-05-03T07:51:22.957Z</time></trkpt><trkpt lat="45.7914929" lon="9.9374306"><ele>512.0</ele><time>2026-05-03T07:51:24.968Z</time></trkpt><trkpt lat="45.791524" lon="9.9375117"><ele>512.0</ele><time>2026-05-03T07:51:26.959Z</time></trkpt><trkpt lat="45.7915818" lon="9.9376087"><ele>512.0</ele><time>2026-05-03T07:51:28.964Z</time></trkpt><trkpt lat="45.7916246" lon="9.9377162"><ele>511.99999999999994</ele><time>2026-05-03T07:51:30.962Z</time></trkpt><trkpt lat="45.7916468" lon="9.9378359"><ele>512.0</ele><time>2026-05-03T07:51:32.96Z</time></trkpt><trkpt lat="45.7916583" lon="9.9379276"><ele>511.2857142857143</ele><time>2026-05-03T07:51:34.969Z</time></trkpt><trkpt lat="45.7916677" lon="9.9380381"><ele>510.57142857142856</ele><time>2026-05-03T07:51:37.975Z</time></trkpt><trkpt lat="45.7916949" lon="9.9381318"><ele>509.85714285714283</ele><time>2026-05-03T07:51:41.043Z</time></trkpt><trkpt lat="45.7917291" lon="9.9382112"><ele>509.1428571428571</ele><time>2026-05-03T07:51:42.947Z</time></trkpt><trkpt lat="45.7917731" lon="9.9383002"><ele>508.42857142857144</ele><time>2026-05-03T07:51:44.975Z</time></trkpt><trkpt lat="45.7918113" lon="9.9383881"><ele>507.71428571428567</ele><time>2026-05-03T07:51:46.969Z</time></trkpt><trkpt lat="45.7918521" lon="9.9384833"><ele>507.0</ele><time>2026-05-03T07:51:48.972Z</time></trkpt><trkpt lat="45.7919" lon="9.9385798"><ele>510.1666666666667</ele><time>2026-05-03T07:51:50.962Z</time></trkpt><trkpt lat="45.7919399" lon="9.9386696"><ele>513.3333333333334</ele><time>2026-05-03T07:51:52.955Z</time></trkpt><trkpt lat="45.7919751" lon="9.9387574"><ele>516.5</ele><time>2026-05-03T07:51:54.964Z</time></trkpt><trkpt lat="45.7920013" lon="9.9388501"><ele>519.6666666666667</ele><time>2026-05-03T07:51:56.961Z</time></trkpt><trkpt lat="45.7920255" lon="9.938952"><ele>522.8333333333334</ele><time>2026-05-03T07:51:58.971Z</time></trkpt><trkpt lat="45.7920528" lon="9.9390613"><ele>526.0</ele><time>2026-05-03T07:52:00.964Z</time></trkpt><trkpt lat="45.7920914" lon="9.9391743"><ele>524.8</ele><time>2026-05-03T07:52:03.069Z</time></trkpt><trkpt lat="45.7921132" lon="9.9392936"><ele>523.6</ele><time>2026-05-03T07:52:04.973Z</time></trkpt><trkpt lat="45.7921453" lon="9.939421"><ele>522.4</ele><time>2026-05-03T07:52:06.952Z</time></trkpt><trkpt lat="45.7921908" lon="9.939535"><ele>521.2</ele><time>2026-05-03T07:52:08.959Z</time></trkpt><trkpt lat="45.7922374" lon="9.9396383"><ele>520.0</ele><time>2026-05-03T07:52:11.035Z</time></trkpt><trkpt lat="45.7922985" lon="9.9397472"><ele>520.0</ele><time>2026-05-03T07:52:13.034Z</time></trkpt><trkpt lat="45.7923558" lon="9.9398638"><ele>520.0</ele><time>2026-05-03T07:52:14.961Z</time></trkpt><trkpt lat="45.7924017" lon="9.9399921"><ele>520.0</ele><time>2026-05-03T07:52:16.965Z</time></trkpt><trkpt lat="45.7924166" lon="9.9401116"><ele>520.0</ele><time>2026-05-03T07:52:18.968Z</time></trkpt><trkpt lat="45.7924186" lon="9.9402258"><ele>520.0</ele><time>2026-05-03T07:52:20.964Z</time></trkpt><trkpt lat="45.7924045" lon="9.9403297"><ele>520.0</ele><time>2026-05-03T07:52:23.036Z</time></trkpt><trkpt lat="45.7923786" lon="9.9404266"><ele>520.1666666666667</ele><time>2026-05-03T07:52:24.957Z</time></trkpt><trkpt lat="45.7923418" lon="9.9405337"><ele>520.3333333333334</ele><time>2026-05-03T07:52:26.951Z</time></trkpt><trkpt lat="45.7922787" lon="9.9406227"><ele>520.5</ele><time>2026-05-03T07:52:28.959Z</time></trkpt><trkpt lat="45.7922197" lon="9.9407119"><ele>520.6666666666666</ele><time>2026-05-03T07:52:30.984Z</time></trkpt><trkpt lat="45.792173" lon="9.9408124"><ele>520.8333333333333</ele><time>2026-05-03T07:52:33.028Z</time></trkpt><trkpt lat="45.7921836" lon="9.9409517"><ele>521.0</ele><time>2026-05-03T07:52:35.963Z</time></trkpt><trkpt lat="45.7922172" lon="9.9410592"><ele>521.0</ele><time>2026-05-03T07:52:37.956Z</time></trkpt><trkpt lat="45.7922483" lon="9.9411872"><ele>521.0</ele><time>2026-05-03T07:52:39.964Z</time></trkpt><trkpt lat="45.7922867" lon="9.9412906"><ele>521.0</ele><time>2026-05-03T07:52:41.963Z</time></trkpt><trkpt lat="45.7923379" lon="9.9413894"><ele>521.0</ele><time>2026-05-03T07:52:43.949Z</time></trkpt><trkpt lat="45.7923812" lon="9.9414953"><ele>521.0</ele><time>2026-05-03T07:52:45.971Z</time></trkpt><trkpt lat="45.7923913" lon="9.9415931"><ele>521.0</ele><time>2026-05-03T07:52:47.963Z</time></trkpt><trkpt lat="45.7923978" lon="9.9416981"><ele>519.6666666666666</ele><time>2026-05-03T07:52:49.961Z</time></trkpt><trkpt lat="45.7924066" lon="9.9417962"><ele>518.3333333333333</ele><time>2026-05-03T07:52:52.039Z</time></trkpt><trkpt lat="45.7924129" lon="9.9419344"><ele>517.0</ele><time>2026-05-03T07:52:53.962Z</time></trkpt><trkpt lat="45.7924415" lon="9.9420556"><ele>515.6666666666666</ele><time>2026-05-03T07:52:55.974Z</time></trkpt><trkpt lat="45.792456" lon="9.9421675"><ele>514.3333333333334</ele><time>2026-05-03T07:52:57.962Z</time></trkpt><trkpt lat="45.7924772" lon="9.942279"><ele>513.0</ele><time>2026-05-03T07:52:59.958Z</time></trkpt><trkpt lat="45.7925045" lon="9.9423858"><ele>513.0</ele><time>2026-05-03T07:53:01.985Z</time></trkpt><trkpt lat="45.7925299" lon="9.9425138"><ele>513.0</ele><time>2026-05-03T07:53:04.952Z</time></trkpt><trkpt lat="45.7925637" lon="9.9426308"><ele>513.0</ele><time>2026-05-03T07:53:06.952Z</time></trkpt><trkpt lat="45.7926158" lon="9.9427607"><ele>513.0</ele><time>2026-05-03T07:53:08.958Z</time></trkpt><trkpt lat="45.7926763" lon="9.9429013"><ele>513.0</ele><time>2026-05-03T07:53:11.037Z</time></trkpt><trkpt lat="45.7927418" lon="9.9430463"><ele>513.0</ele><time>2026-05-03T07:53:13.033Z</time></trkpt><trkpt lat="45.7927991" lon="9.9431988"><ele>513.0</ele><time>2026-05-03T07:53:14.969Z</time></trkpt><trkpt lat="45.7928503" lon="9.9433555"><ele>513.0</ele><time>2026-05-03T07:53:16.974Z</time></trkpt><trkpt lat="45.7929004" lon="9.9435225"><ele>513.0</ele><time>2026-05-03T07:53:18.993Z</time></trkpt><trkpt lat="45.7929595" lon="9.9436822"><ele>513.0</ele><time>2026-05-03T07:53:20.971Z</time></trkpt><trkpt lat="45.7929856" lon="9.9437652"><ele>513.0</ele><time>2026-05-03T07:53:22.032Z</time></trkpt><trkpt lat="45.7930172" lon="9.9438433"><ele>513.0</ele><time>2026-05-03T07:53:23.037Z</time></trkpt><trkpt lat="45.7930536" lon="9.9439185"><ele>513.0</ele><time>2026-05-03T07:53:23.941Z</time></trkpt><trkpt lat="45.7931257" lon="9.9440546"><ele>513.0</ele><time>2026-05-03T07:53:25.982Z</time></trkpt><trkpt lat="45.7931952" lon="9.9441735"><ele>513.0</ele><time>2026-05-03T07:53:27.956Z</time></trkpt><trkpt lat="45.7932549" lon="9.944292"><ele>511.5</ele><time>2026-05-03T07:53:29.957Z</time></trkpt><trkpt lat="45.7933189" lon="9.9443918"><ele>510.0</ele><time>2026-05-03T07:53:32.035Z</time></trkpt><trkpt lat="45.7933699" lon="9.9444712"><ele>508.5</ele><time>2026-05-03T07:53:33.958Z</time></trkpt><trkpt lat="45.7934199" lon="9.9445282"><ele>507.0</ele><time>2026-05-03T07:53:35.982Z</time></trkpt><trkpt lat="45.7934795" lon="9.9445928"><ele>505.5</ele><time>2026-05-03T07:53:38.974Z</time></trkpt><trkpt lat="45.7935399" lon="9.9446332"><ele>504.0</ele><time>2026-05-03T07:53:52.953Z</time></trkpt><trkpt lat="45.7936089" lon="9.9447015"><ele>507.0</ele><time>2026-05-03T07:54:06.008Z</time></trkpt><trkpt lat="45.7936853" lon="9.944739"><ele>510.0</ele><time>2026-05-03T07:54:09.966Z</time></trkpt><trkpt lat="45.7937599" lon="9.9447628"><ele>513.0</ele><time>2026-05-03T07:54:14.032Z</time></trkpt><trkpt lat="45.7938599" lon="9.9447798"><ele>516.0</ele><time>2026-05-03T07:54:21.976Z</time></trkpt><trkpt lat="45.7939479" lon="9.9447955"><ele>519.0</ele><time>2026-05-03T07:54:26.967Z</time></trkpt><trkpt lat="45.7940136" lon="9.9448095"><ele>522.0</ele><time>2026-05-03T07:54:32.034Z</time></trkpt><trkpt lat="45.794116" lon="9.9448715"><ele>522.0</ele><time>2026-05-03T07:54:37.968Z</time></trkpt><trkpt lat="45.7942051" lon="9.9449539"><ele>522.0</ele><time>2026-05-03T07:54:43.967Z</time></trkpt><trkpt lat="45.7943049" lon="9.945006"><ele>522.0</ele><time>2026-05-03T07:54:49.977Z</time></trkpt><trkpt lat="45.7943909" lon="9.9450256"><ele>522.0</ele><time>2026-05-03T07:54:54.959Z</time></trkpt><trkpt lat="45.7944535" lon="9.9450844"><ele>522.0</ele><time>2026-05-03T07:54:57.973Z</time></trkpt><trkpt lat="45.7945088" lon="9.9451449"><ele>522.0</ele><time>2026-05-03T07:55:00.964Z</time></trkpt><trkpt lat="45.7945781" lon="9.9451749"><ele>526.0</ele><time>2026-05-03T07:55:03.966Z</time></trkpt><trkpt lat="45.7946359" lon="9.9452211"><ele>530.0</ele><time>2026-05-03T07:55:06.976Z</time></trkpt><trkpt lat="45.7947258" lon="9.9453098"><ele>534.0</ele><time>2026-05-03T07:55:12.97Z</time></trkpt><trkpt lat="45.794791" lon="9.9453757"><ele>538.0</ele><time>2026-05-03T07:55:15.963Z</time></trkpt><trkpt lat="45.7948519" lon="9.9454325"><ele>542.0</ele><time>2026-05-03T07:55:18.966Z</time></trkpt><trkpt lat="45.7949428" lon="9.9455299"><ele>546.0</ele><time>2026-05-03T07:55:24.966Z</time></trkpt><trkpt lat="45.7949977" lon="9.9455781"><ele>546.0</ele><time>2026-05-03T07:55:27.962Z</time></trkpt><trkpt lat="45.7950735" lon="9.9456324"><ele>546.0</ele><time>2026-05-03T07:55:31.971Z</time></trkpt><trkpt lat="45.7951187" lon="9.9457094"><ele>546.0</ele><time>2026-05-03T07:55:34.964Z</time></trkpt><trkpt lat="45.7951833" lon="9.9458323"><ele>546.0</ele><time>2026-05-03T07:55:55.962Z</time></trkpt><trkpt lat="45.7952051" lon="9.945922"><ele>546.0</ele><time>2026-05-03T07:56:00.967Z</time></trkpt><trkpt lat="45.7952399" lon="9.946002"><ele>546.0</ele><time>2026-05-03T07:56:05.962Z</time></trkpt><trkpt lat="45.7952827" lon="9.946096"><ele>551.3333333333334</ele><time>2026-05-03T07:56:10.964Z</time></trkpt><trkpt lat="45.7953266" lon="9.9461731"><ele>556.6666666666666</ele><time>2026-05-03T07:56:14.963Z</time></trkpt><trkpt lat="45.7953582" lon="9.9462693"><ele>562.0</ele><time>2026-05-03T07:56:19.957Z</time></trkpt><trkpt lat="45.7954056" lon="9.9463649"><ele>567.3333333333333</ele><time>2026-05-03T07:56:23.944Z</time></trkpt><trkpt lat="45.7954588" lon="9.9464479"><ele>572.6666666666666</ele><time>2026-05-03T07:56:26.947Z</time></trkpt><trkpt lat="45.7955093" lon="9.946533"><ele>578.0</ele><time>2026-05-03T07:56:29.961Z</time></trkpt><trkpt lat="45.7955636" lon="9.9466122"><ele>578.0</ele><time>2026-05-03T07:56:32.967Z</time></trkpt><trkpt lat="45.7956095" lon="9.9466903"><ele>578.0</ele><time>2026-05-03T07:56:35.993Z</time></trkpt><trkpt lat="45.7956645" lon="9.946766"><ele>578.0</ele><time>2026-05-03T07:56:38.954Z</time></trkpt><trkpt lat="45.7957059" lon="9.946836"><ele>578.0</ele><time>2026-05-03T07:56:41.971Z</time></trkpt><trkpt lat="45.7957589" lon="9.9468993"><ele>578.0</ele><time>2026-05-03T07:56:44.961Z</time></trkpt><trkpt lat="45.7958129" lon="9.9469678"><ele>578.0</ele><time>2026-05-03T07:56:48.03Z</time></trkpt><trkpt lat="45.795866" lon="9.9470347"><ele>578.0</ele><time>2026-05-03T07:56:50.968Z</time></trkpt><trkpt lat="45.7959202" lon="9.9470829"><ele>576.0</ele><time>2026-05-03T07:56:53.965Z</time></trkpt><trkpt lat="45.7959722" lon="9.9471587"><ele>574.0</ele><time>2026-05-03T07:56:56.974Z</time></trkpt><trkpt lat="45.7960423" lon="9.9472269"><ele>572.0</ele><time>2026-05-03T07:56:59.977Z</time></trkpt><trkpt lat="45.7960919" lon="9.9472906"><ele>570.0</ele><time>2026-05-03T07:57:02.956Z</time></trkpt><trkpt lat="45.7961481" lon="9.9473904"><ele>568.0</ele><time>2026-05-03T07:57:05.978Z</time></trkpt><trkpt lat="45.7962067" lon="9.9474667"><ele>566.0</ele><time>2026-05-03T07:57:09.032Z</time></trkpt><trkpt lat="45.7962342" lon="9.9475708"><ele>571.5</ele><time>2026-05-03T07:57:12.962Z</time></trkpt><trkpt lat="45.7962511" lon="9.9476784"><ele>577.0</ele><time>2026-05-03T07:57:16.956Z</time></trkpt><trkpt lat="45.7962879" lon="9.9477721"><ele>582.5</ele><time>2026-05-03T07:57:19.962Z</time></trkpt><trkpt lat="45.7963279" lon="9.9478625"><ele>588.0</ele><time>2026-05-03T07:57:23.963Z</time></trkpt><trkpt lat="45.7963664" lon="9.9479687"><ele>593.5</ele><time>2026-05-03T07:57:27.96Z</time></trkpt><trkpt lat="45.7964244" lon="9.9480456"><ele>599.0</ele><time>2026-05-03T07:57:30.967Z</time></trkpt><trkpt lat="45.7964755" lon="9.948141"><ele>599.0</ele><time>2026-05-03T07:57:33.954Z</time></trkpt><trkpt lat="45.7965233" lon="9.9482412"><ele>599.0</ele><time>2026-05-03T07:57:36.968Z</time></trkpt><trkpt lat="45.7965662" lon="9.948351"><ele>599.0</ele><time>2026-05-03T07:57:39.95Z</time></trkpt><trkpt lat="45.7966017" lon="9.9484473"><ele>599.0</ele><time>2026-05-03T07:57:42.969Z</time></trkpt><trkpt lat="45.7966278" lon="9.9485458"><ele>599.0</ele><time>2026-05-03T07:57:46.037Z</time></trkpt><trkpt lat="45.7966654" lon="9.9486525"><ele>599.0</ele><time>2026-05-03T07:57:49.958Z</time></trkpt><trkpt lat="45.7967185" lon="9.9487254"><ele>598.3333333333333</ele><time>2026-05-03T07:57:53.957Z</time></trkpt><trkpt lat="45.7967641" lon="9.9488026"><ele>597.6666666666666</ele><time>2026-05-03T07:57:56.974Z</time></trkpt><trkpt lat="45.7968068" lon="9.9488953"><ele>597.0</ele><time>2026-05-03T07:57:59.973Z</time></trkpt><trkpt lat="45.7968554" lon="9.948972"><ele>596.3333333333334</ele><time>2026-05-03T07:58:03.031Z</time></trkpt><trkpt lat="45.7969073" lon="9.9490597"><ele>595.6666666666667</ele><time>2026-05-03T07:58:05.965Z</time></trkpt><trkpt lat="45.7969322" lon="9.9491552"><ele>595.0</ele><time>2026-05-03T07:58:07.958Z</time></trkpt><trkpt lat="45.7969664" lon="9.9492801"><ele>603.6666666666667</ele><time>2026-05-03T07:58:10.963Z</time></trkpt><trkpt lat="45.7970015" lon="9.9493884"><ele>612.3333333333334</ele><time>2026-05-03T07:58:14.032Z</time></trkpt><trkpt lat="45.7970363" lon="9.9494875"><ele>621.0</ele><time>2026-05-03T07:58:16.954Z</time></trkpt><trkpt lat="45.7971029" lon="9.9496014"><ele>629.6666666666666</ele><time>2026-05-03T07:58:19.962Z</time></trkpt><trkpt lat="45.7971223" lon="9.9497174"><ele>638.3333333333333</ele><time>2026-05-03T07:58:21.96Z</time></trkpt><trkpt lat="45.7971263" lon="9.9498379"><ele>647.0</ele><time>2026-05-03T07:58:23.965Z</time></trkpt><trkpt lat="45.7971345" lon="9.9499335"><ele>643.3333333333333</ele><time>2026-05-03T07:58:25.97Z</time></trkpt><trkpt lat="45.7971561" lon="9.9500743"><ele>639.6666666666666</ele><time>2026-05-03T07:58:28.968Z</time></trkpt><trkpt lat="45.7971886" lon="9.9501803"><ele>636.0</ele><time>2026-05-03T07:58:31.962Z</time></trkpt><trkpt lat="45.7972174" lon="9.9502878"><ele>632.3333333333334</ele><time>2026-05-03T07:58:34.962Z</time></trkpt><trkpt lat="45.7972239" lon="9.950407"><ele>628.6666666666667</ele><time>2026-05-03T07:58:37.939Z</time></trkpt><trkpt lat="45.7972535" lon="9.95051"><ele>625.0</ele><time>2026-05-03T07:58:40.943Z</time></trkpt><trkpt lat="45.7972743" lon="9.9506258"><ele>625.0</ele><time>2026-05-03T07:58:43.97Z</time></trkpt><trkpt lat="45.7972859" lon="9.9507359"><ele>625.0</ele><time>2026-05-03T07:58:50.966Z</time></trkpt><trkpt lat="45.7972708" lon="9.9508337"><ele>625.0</ele><time>2026-05-03T07:59:01.976Z</time></trkpt><trkpt lat="45.7972573" lon="9.9509592"><ele>625.0</ele><time>2026-05-03T08:01:23.94Z</time></trkpt><trkpt lat="45.7972988" lon="9.9510584"><ele>625.0</ele><time>2026-05-03T08:01:29.965Z</time></trkpt><trkpt lat="45.7973417" lon="9.9511245"><ele>625.0</ele><time>2026-05-03T08:01:32.958Z</time></trkpt><trkpt lat="45.7974083" lon="9.9511566"><ele>622.6666666666667</ele><time>2026-05-03T08:01:36.001Z</time></trkpt><trkpt lat="45.7974821" lon="9.9512038"><ele>620.3333333333334</ele><time>2026-05-03T08:01:39.963Z</time></trkpt><trkpt lat="45.7975503" lon="9.951274"><ele>618.0</ele><time>2026-05-03T08:01:43.96Z</time></trkpt><trkpt lat="45.7975839" lon="9.9513532"><ele>615.6666666666666</ele><time>2026-05-03T08:01:46.965Z</time></trkpt><trkpt lat="45.7975634" lon="9.9514998"><ele>613.3333333333333</ele><time>2026-05-03T08:01:49.965Z</time></trkpt><trkpt lat="45.797544" lon="9.9516244"><ele>611.0</ele><time>2026-05-03T08:01:51.97Z</time></trkpt><trkpt lat="45.7975099" lon="9.951746"><ele>610.5</ele><time>2026-05-03T08:01:53.962Z</time></trkpt><trkpt lat="45.7974809" lon="9.9518475"><ele>610.0</ele><time>2026-05-03T08:01:56.075Z</time></trkpt><trkpt lat="45.7974638" lon="9.9519571"><ele>609.5</ele><time>2026-05-03T08:01:58.035Z</time></trkpt><trkpt lat="45.7974511" lon="9.9520641"><ele>609.0</ele><time>2026-05-03T08:02:00.954Z</time></trkpt><trkpt lat="45.79743" lon="9.9521905"><ele>608.5</ele><time>2026-05-03T08:02:03.958Z</time></trkpt><trkpt lat="45.7974083" lon="9.9522817"><ele>608.0</ele><time>2026-05-03T08:02:05.967Z</time></trkpt><trkpt lat="45.7973772" lon="9.9523755"><ele>608.0</ele><time>2026-05-03T08:02:07.97Z</time></trkpt><trkpt lat="45.797378" lon="9.9524869"><ele>608.0</ele><time>2026-05-03T08:02:09.951Z</time></trkpt><trkpt lat="45.7973871" lon="9.9525857"><ele>608.0</ele><time>2026-05-03T08:02:12.039Z</time></trkpt><trkpt lat="45.7974014" lon="9.9526826"><ele>608.0</ele><time>2026-05-03T08:02:13.958Z</time></trkpt><trkpt lat="45.7974147" lon="9.9527757"><ele>608.0</ele><time>2026-05-03T08:02:15.971Z</time></trkpt><trkpt lat="45.7974168" lon="9.9528665"><ele>608.0</ele><time>2026-05-03T08:02:17.947Z</time></trkpt><trkpt lat="45.7974249" lon="9.9529626"><ele>608.0</ele><time>2026-05-03T08:02:19.964Z</time></trkpt><trkpt lat="45.7974371" lon="9.9530708"><ele>608.0</ele><time>2026-05-03T08:02:21.958Z</time></trkpt><trkpt lat="45.7974384" lon="9.9531701"><ele>608.0</ele><time>2026-05-03T08:02:23.981Z</time></trkpt><trkpt lat="45.7974366" lon="9.9532897"><ele>608.0</ele><time>2026-05-03T08:02:26.969Z</time></trkpt><trkpt lat="45.7974529" lon="9.9534108"><ele>608.0</ele><time>2026-05-03T08:02:29.971Z</time></trkpt><trkpt lat="45.7974444" lon="9.9535268"><ele>608.0</ele><time>2026-05-03T08:02:32.973Z</time></trkpt><trkpt lat="45.7974134" lon="9.9536244"><ele>608.0</ele><time>2026-05-03T08:02:34.964Z</time></trkpt><trkpt lat="45.7973758" lon="9.9537556"><ele>608.0</ele><time>2026-05-03T08:02:36.963Z</time></trkpt><trkpt lat="45.7973411" lon="9.9538438"><ele>608.0</ele><time>2026-05-03T08:02:38.031Z</time></trkpt><trkpt lat="45.7973342" lon="9.9539632"><ele>608.0</ele><time>2026-05-03T08:02:39.95Z</time></trkpt><trkpt lat="45.7973218" lon="9.9540883"><ele>608.0</ele><time>2026-05-03T08:02:41.966Z</time></trkpt><trkpt lat="45.7973144" lon="9.954225"><ele>608.0</ele><time>2026-05-03T08:02:43.963Z</time></trkpt><trkpt lat="45.7973189" lon="9.9543468"><ele>608.0</ele><time>2026-05-03T08:02:45.965Z</time></trkpt><trkpt lat="45.7973479" lon="9.9544783"><ele>607.5</ele><time>2026-05-03T08:02:47.985Z</time></trkpt><trkpt lat="45.7973862" lon="9.9545823"><ele>607.0</ele><time>2026-05-03T08:02:49.968Z</time></trkpt><trkpt lat="45.7973946" lon="9.9546854"><ele>606.5</ele><time>2026-05-03T08:02:51.964Z</time></trkpt><trkpt lat="45.7973713" lon="9.9547979"><ele>606.0</ele><time>2026-05-03T08:02:53.948Z</time></trkpt><trkpt lat="45.7973375" lon="9.95491"><ele>605.5</ele><time>2026-05-03T08:02:55.964Z</time></trkpt><trkpt lat="45.7973048" lon="9.9550453"><ele>605.0</ele><time>2026-05-03T08:02:58.029Z</time></trkpt><trkpt lat="45.7972788" lon="9.9551792"><ele>604.5</ele><time>2026-05-03T08:02:59.958Z</time></trkpt><trkpt lat="45.797264" lon="9.9553063"><ele>604.0</ele><time>2026-05-03T08:03:01.971Z</time></trkpt><trkpt lat="45.7972628" lon="9.9554256"><ele>603.5</ele><time>2026-05-03T08:03:03.976Z</time></trkpt><trkpt lat="45.7972778" lon="9.9555286"><ele>603.0</ele><time>2026-05-03T08:03:06.038Z</time></trkpt><trkpt lat="45.7972961" lon="9.9556391"><ele>602.5</ele><time>2026-05-03T08:03:08.021Z</time></trkpt><trkpt lat="45.797326" lon="9.9557731"><ele>602.0</ele><time>2026-05-03T08:03:10.962Z</time></trkpt><trkpt lat="45.7973671" lon="9.9558746"><ele>600.6</ele><time>2026-05-03T08:03:12.96Z</time></trkpt><trkpt lat="45.7973844" lon="9.955998"><ele>599.2</ele><time>2026-05-03T08:03:14.962Z</time></trkpt><trkpt lat="45.7973732" lon="9.9562072"><ele>597.8</ele><time>2026-05-03T08:03:17.033Z</time></trkpt><trkpt lat="45.7973656" lon="9.9563035"><ele>596.4</ele><time>2026-05-03T08:03:18.049Z</time></trkpt><trkpt lat="45.7973663" lon="9.9564501"><ele>595.0</ele><time>2026-05-03T08:03:19.952Z</time></trkpt><trkpt lat="45.7974015" lon="9.9565755"><ele>595.0</ele><time>2026-05-03T08:03:21.951Z</time></trkpt><trkpt lat="45.7974062" lon="9.9566937"><ele>595.0</ele><time>2026-05-03T08:03:24.954Z</time></trkpt><trkpt lat="45.7973689" lon="9.9568398"><ele>595.0</ele><time>2026-05-03T08:03:27.034Z</time></trkpt><trkpt lat="45.7973588" lon="9.956969"><ele>595.0</ele><time>2026-05-03T08:03:28.962Z</time></trkpt><trkpt lat="45.7973341" lon="9.9571821"><ele>595.0</ele><time>2026-05-03T08:03:30.96Z</time></trkpt><trkpt lat="45.7973216" lon="9.9572741"><ele>593.8333333333334</ele><time>2026-05-03T08:03:31.967Z</time></trkpt><trkpt lat="45.7973145" lon="9.9573851"><ele>592.6666666666667</ele><time>2026-05-03T08:03:33.962Z</time></trkpt><trkpt lat="45.7972828" lon="9.9574849"><ele>591.5</ele><time>2026-05-03T08:03:35.961Z</time></trkpt><trkpt lat="45.797227" lon="9.9576227"><ele>590.3333333333334</ele><time>2026-05-03T08:03:38.029Z</time></trkpt><trkpt lat="45.7971956" lon="9.9577164"><ele>589.1666666666666</ele><time>2026-05-03T08:03:39.011Z</time></trkpt><trkpt lat="45.7971568" lon="9.9578221"><ele>588.0</ele><time>2026-05-03T08:03:39.956Z</time></trkpt><trkpt lat="45.7971195" lon="9.9579207"><ele>587.3333333333334</ele><time>2026-05-03T08:03:40.971Z</time></trkpt><trkpt lat="45.7970838" lon="9.9580034"><ele>586.6666666666666</ele><time>2026-05-03T08:03:41.954Z</time></trkpt><trkpt lat="45.7970452" lon="9.9580927"><ele>586.0</ele><time>2026-05-03T08:03:42.963Z</time></trkpt><trkpt lat="45.7969841" lon="9.9582069"><ele>585.3333333333333</ele><time>2026-05-03T08:03:44.952Z</time></trkpt><trkpt lat="45.7969436" lon="9.958314"><ele>584.6666666666666</ele><time>2026-05-03T08:03:46.952Z</time></trkpt><trkpt lat="45.7969283" lon="9.9584129"><ele>584.0</ele><time>2026-05-03T08:03:48.953Z</time></trkpt><trkpt lat="45.7968805" lon="9.9585126"><ele>583.8</ele><time>2026-05-03T08:03:50.98Z</time></trkpt><trkpt lat="45.7968406" lon="9.9585867"><ele>583.5999999999999</ele><time>2026-05-03T08:03:51.98Z</time></trkpt><trkpt lat="45.7968039" lon="9.9586635"><ele>583.4</ele><time>2026-05-03T08:03:52.963Z</time></trkpt><trkpt lat="45.796738" lon="9.9587947"><ele>583.1999999999999</ele><time>2026-05-03T08:03:54.953Z</time></trkpt><trkpt lat="45.7966557" lon="9.9589419"><ele>583.0</ele><time>2026-05-03T08:03:55.956Z</time></trkpt><trkpt lat="45.7965575" lon="9.9591136"><ele>573.75</ele><time>2026-05-03T08:03:56.955Z</time></trkpt><trkpt lat="45.796479" lon="9.9592679"><ele>564.5</ele><time>2026-05-03T08:03:57.98Z</time></trkpt><trkpt lat="45.7964145" lon="9.9594032"><ele>555.25</ele><time>2026-05-03T08:03:58.973Z</time></trkpt><trkpt lat="45.7963747" lon="9.9595414"><ele>546.0</ele><time>2026-05-03T08:03:59.981Z</time></trkpt><trkpt lat="45.7963413" lon="9.959676"><ele>546.0</ele><time>2026-05-03T08:04:00.971Z</time></trkpt><trkpt lat="45.7963014" lon="9.9598404"><ele>546.0</ele><time>2026-05-03T08:04:01.973Z</time></trkpt><trkpt lat="45.7962689" lon="9.9599734"><ele>546.0</ele><time>2026-05-03T08:04:02.977Z</time></trkpt><trkpt lat="45.7962347" lon="9.960127"><ele>546.0</ele><time>2026-05-03T08:04:03.98Z</time></trkpt><trkpt lat="45.7962099" lon="9.9602417"><ele>546.0</ele><time>2026-05-03T08:04:04.979Z</time></trkpt><trkpt lat="45.7961869" lon="9.9603427"><ele>546.0</ele><time>2026-05-03T08:04:05.974Z</time></trkpt><trkpt lat="45.7961672" lon="9.9604371"><ele>546.0</ele><time>2026-05-03T08:04:06.951Z</time></trkpt><trkpt lat="45.796149" lon="9.9605386"><ele>546.0</ele><time>2026-05-03T08:04:07.973Z</time></trkpt><trkpt lat="45.7961384" lon="9.9606693"><ele>546.0</ele><time>2026-05-03T08:04:09.972Z</time></trkpt><trkpt lat="45.7961371" lon="9.9607676"><ele>546.0</ele><time>2026-05-03T08:05:33.958Z</time></trkpt><trkpt lat="45.7961444" lon="9.9608581"><ele>546.0</ele><time>2026-05-03T08:05:37.961Z</time></trkpt><trkpt lat="45.7961667" lon="9.960948"><ele>546.0</ele><time>2026-05-03T08:05:40.955Z</time></trkpt><trkpt lat="45.7961786" lon="9.9610583"><ele>545.4285714285714</ele><time>2026-05-03T08:05:44.968Z</time></trkpt><trkpt lat="45.7961938" lon="9.9611505"><ele>544.8571428571429</ele><time>2026-05-03T08:05:47.945Z</time></trkpt><trkpt lat="45.7962104" lon="9.9612597"><ele>544.2857142857142</ele><time>2026-05-03T08:05:50.978Z</time></trkpt><trkpt lat="45.7962648" lon="9.9613333"><ele>543.7142857142858</ele><time>2026-05-03T08:05:53.967Z</time></trkpt><trkpt lat="45.796313" lon="9.9614494"><ele>543.1428571428571</ele><time>2026-05-03T08:05:58.947Z</time></trkpt><trkpt lat="45.7963487" lon="9.9615276"><ele>542.5714285714286</ele><time>2026-05-03T08:06:00.963Z</time></trkpt><trkpt lat="45.7963903" lon="9.9616041"><ele>542.0</ele><time>2026-05-03T08:06:02.951Z</time></trkpt><trkpt lat="45.7964499" lon="9.9616824"><ele>541.1428571428571</ele><time>2026-05-03T08:06:05.963Z</time></trkpt><trkpt lat="45.7964904" lon="9.9617626"><ele>540.2857142857143</ele><time>2026-05-03T08:06:08.961Z</time></trkpt><trkpt lat="45.7965425" lon="9.9618295"><ele>539.4285714285714</ele><time>2026-05-03T08:06:12.038Z</time></trkpt><trkpt lat="45.796567" lon="9.9619415"><ele>538.5714285714286</ele><time>2026-05-03T08:06:15.975Z</time></trkpt><trkpt lat="45.7965661" lon="9.962052"><ele>537.7142857142857</ele><time>2026-05-03T08:06:18.951Z</time></trkpt><trkpt lat="45.7965799" lon="9.9621448"><ele>536.8571428571429</ele><time>2026-05-03T08:06:21.044Z</time></trkpt><trkpt lat="45.7966037" lon="9.9622554"><ele>536.0</ele><time>2026-05-03T08:06:23.974Z</time></trkpt><trkpt lat="45.7966234" lon="9.9623543"><ele>536.0</ele><time>2026-05-03T08:06:26.985Z</time></trkpt><trkpt lat="45.7966393" lon="9.9624567"><ele>536.0</ele><time>2026-05-03T08:06:29.956Z</time></trkpt><trkpt lat="45.7966425" lon="9.9625911"><ele>536.0</ele><time>2026-05-03T08:06:32.954Z</time></trkpt><trkpt lat="45.796654" lon="9.9627026"><ele>536.0</ele><time>2026-05-03T08:06:35.961Z</time></trkpt><trkpt lat="45.7966626" lon="9.9628624"><ele>536.0</ele><time>2026-05-03T08:06:41.963Z</time></trkpt><trkpt lat="45.7966635" lon="9.9630381"><ele>535.6666666666666</ele><time>2026-05-03T08:06:47.968Z</time></trkpt><trkpt lat="45.796661" lon="9.9631516"><ele>535.3333333333333</ele><time>2026-05-03T08:06:49.955Z</time></trkpt><trkpt lat="45.7966497" lon="9.9632668"><ele>535.0</ele><time>2026-05-03T08:06:52.026Z</time></trkpt><trkpt lat="45.7966494" lon="9.9634048"><ele>534.6666666666666</ele><time>2026-05-03T08:06:54.958Z</time></trkpt><trkpt lat="45.7966295" lon="9.9635003"><ele>534.3333333333334</ele><time>2026-05-03T08:06:57.031Z</time></trkpt><trkpt lat="45.7965941" lon="9.9636174"><ele>534.0</ele><time>2026-05-03T08:06:59.965Z</time></trkpt><trkpt lat="45.7965511" lon="9.9637045"><ele>534.5714285714287</ele><time>2026-05-03T08:07:02.954Z</time></trkpt><trkpt lat="45.7965216" lon="9.9637856"><ele>535.1428571428571</ele><time>2026-05-03T08:07:04.976Z</time></trkpt><trkpt lat="45.7965098" lon="9.963875"><ele>535.7142857142858</ele><time>2026-05-03T08:07:07.034Z</time></trkpt><trkpt lat="45.7964913" lon="9.9639702"><ele>536.2857142857143</ele><time>2026-05-03T08:07:08.95Z</time></trkpt><trkpt lat="45.796447" lon="9.9640484"><ele>536.8571428571429</ele><time>2026-05-03T08:07:10.963Z</time></trkpt><trkpt lat="45.7964081" lon="9.9641404"><ele>537.4285714285714</ele><time>2026-05-03T08:07:12.984Z</time></trkpt><trkpt lat="45.7963958" lon="9.964271"><ele>538.0</ele><time>2026-05-03T08:07:14.963Z</time></trkpt><trkpt lat="45.7963816" lon="9.9643734"><ele>539.0</ele><time>2026-05-03T08:07:17.042Z</time></trkpt><trkpt lat="45.7963712" lon="9.9644815"><ele>540.0</ele><time>2026-05-03T08:07:18.963Z</time></trkpt><trkpt lat="45.7963577" lon="9.9645776"><ele>541.0</ele><time>2026-05-03T08:07:20.951Z</time></trkpt><trkpt lat="45.7962983" lon="9.9647689"><ele>542.0</ele><time>2026-05-03T08:07:30.958Z</time></trkpt><trkpt lat="45.7962759" lon="9.9648696"><ele>543.0</ele><time>2026-05-03T08:07:39.963Z</time></trkpt><trkpt lat="45.7962819" lon="9.9649655"><ele>544.0</ele><time>2026-05-03T08:07:47.962Z</time></trkpt><trkpt lat="45.7962769" lon="9.9650806"><ele>544.6666666666667</ele><time>2026-05-03T08:07:51.968Z</time></trkpt><trkpt lat="45.7962169" lon="9.9651914"><ele>545.3333333333334</ele><time>2026-05-03T08:07:54.979Z</time></trkpt><trkpt lat="45.7961965" lon="9.9652975"><ele>546.0</ele><time>2026-05-03T08:07:57.97Z</time></trkpt><trkpt lat="45.7962026" lon="9.9654175"><ele>546.6666666666666</ele><time>2026-05-03T08:08:01.008Z</time></trkpt><trkpt lat="45.7961949" lon="9.9655127"><ele>547.3333333333333</ele><time>2026-05-03T08:08:02.988Z</time></trkpt><trkpt lat="45.7961962" lon="9.9656066"><ele>548.0</ele><time>2026-05-03T08:08:04.962Z</time></trkpt><trkpt lat="45.7962229" lon="9.96571"><ele>548.0</ele><time>2026-05-03T08:08:07.96Z</time></trkpt><trkpt lat="45.7962246" lon="9.9658146"><ele>548.0</ele><time>2026-05-03T08:08:11.962Z</time></trkpt><trkpt lat="45.7962005" lon="9.9659276"><ele>548.0</ele><time>2026-05-03T08:08:15.963Z</time></trkpt><trkpt lat="45.796159" lon="9.9660071"><ele>548.0</ele><time>2026-05-03T08:08:18.033Z</time></trkpt><trkpt lat="45.7961218" lon="9.9661255"><ele>548.0</ele><time>2026-05-03T08:08:20.968Z</time></trkpt><trkpt lat="45.7961259" lon="9.9662501"><ele>548.0</ele><time>2026-05-03T08:08:23.946Z</time></trkpt><trkpt lat="45.7961145" lon="9.9664012"><ele>547.3333333333333</ele><time>2026-05-03T08:08:25.972Z</time></trkpt><trkpt lat="45.7961172" lon="9.9665321"><ele>546.6666666666666</ele><time>2026-05-03T08:08:28.959Z</time></trkpt><trkpt lat="45.79612" lon="9.9666453"><ele>546.0</ele><time>2026-05-03T08:08:31.971Z</time></trkpt><trkpt lat="45.7961042" lon="9.9667511"><ele>545.3333333333334</ele><time>2026-05-03T08:12:25.961Z</time></trkpt><trkpt lat="45.7960922" lon="9.9668678"><ele>544.6666666666667</ele><time>2026-05-03T08:12:33.951Z</time></trkpt><trkpt lat="45.7960742" lon="9.9669765"><ele>544.0</ele><time>2026-05-03T08:12:37.963Z</time></trkpt><trkpt lat="45.7960487" lon="9.967071"><ele>543.2857142857142</ele><time>2026-05-03T08:12:40.958Z</time></trkpt><trkpt lat="45.7960258" lon="9.9671706"><ele>542.5714285714286</ele><time>2026-05-03T08:12:43.955Z</time></trkpt><trkpt lat="45.7960169" lon="9.9672759"><ele>541.8571428571429</ele><time>2026-05-03T08:12:46.974Z</time></trkpt><trkpt lat="45.7960149" lon="9.967372"><ele>541.1428571428571</ele><time>2026-05-03T08:12:48.969Z</time></trkpt><trkpt lat="45.7960042" lon="9.9675039"><ele>540.4285714285714</ele><time>2026-05-03T08:12:51.973Z</time></trkpt><trkpt lat="45.7959975" lon="9.9675991"><ele>539.7142857142857</ele><time>2026-05-03T08:12:53.956Z</time></trkpt><trkpt lat="45.7959927" lon="9.9676959"><ele>539.0</ele><time>2026-05-03T08:12:55.963Z</time></trkpt><trkpt lat="45.7960033" lon="9.9678207"><ele>538.8333333333333</ele><time>2026-05-03T08:12:58.963Z</time></trkpt><trkpt lat="45.7959921" lon="9.967935"><ele>538.6666666666666</ele><time>2026-05-03T08:13:01.965Z</time></trkpt><trkpt lat="45.7959844" lon="9.9680352"><ele>538.5</ele><time>2026-05-03T08:13:04.965Z</time></trkpt><trkpt lat="45.7959775" lon="9.9681317"><ele>538.3333333333334</ele><time>2026-05-03T08:13:06.961Z</time></trkpt><trkpt lat="45.7959911" lon="9.9682384"><ele>538.1666666666667</ele><time>2026-05-03T08:13:09.961Z</time></trkpt><trkpt lat="45.7960044" lon="9.9683745"><ele>538.0</ele><time>2026-05-03T08:13:12.961Z</time></trkpt><trkpt lat="45.79601" lon="9.9684717"><ele>538.0</ele><time>2026-05-03T08:13:14.963Z</time></trkpt><trkpt lat="45.7960207" lon="9.9685803"><ele>538.0</ele><time>2026-05-03T08:13:17.956Z</time></trkpt><trkpt lat="45.7960164" lon="9.9687035"><ele>538.0</ele><time>2026-05-03T08:13:20.955Z</time></trkpt><trkpt lat="45.7960138" lon="9.9688134"><ele>538.0</ele><time>2026-05-03T08:13:23.955Z</time></trkpt><trkpt lat="45.7960061" lon="9.9689402"><ele>538.0</ele><time>2026-05-03T08:13:26.947Z</time></trkpt><trkpt lat="45.796007" lon="9.9690357"><ele>538.0</ele><time>2026-05-03T08:13:28.953Z</time></trkpt><trkpt lat="45.7959749" lon="9.9691491"><ele>529.1666666666667</ele><time>2026-05-03T08:13:30.964Z</time></trkpt><trkpt lat="45.7959317" lon="9.9693028"><ele>520.3333333333334</ele><time>2026-05-03T08:13:32.959Z</time></trkpt><trkpt lat="45.7959307" lon="9.9694144"><ele>511.5</ele><time>2026-05-03T08:13:33.961Z</time></trkpt><trkpt lat="45.7959244" lon="9.9695069"><ele>502.66666666666663</ele><time>2026-05-03T08:13:34.966Z</time></trkpt><trkpt lat="45.7959288" lon="9.9696197"><ele>493.8333333333333</ele><time>2026-05-03T08:13:35.965Z</time></trkpt><trkpt lat="45.7959212" lon="9.9697198"><ele>485.0</ele><time>2026-05-03T08:13:36.945Z</time></trkpt><trkpt lat="45.7959169" lon="9.9698245"><ele>484.99999999999994</ele><time>2026-05-03T08:13:37.952Z</time></trkpt><trkpt lat="45.7959198" lon="9.9699372"><ele>485.0</ele><time>2026-05-03T08:13:38.957Z</time></trkpt><trkpt lat="45.7959205" lon="9.9700438"><ele>485.0</ele><time>2026-05-03T08:13:39.966Z</time></trkpt><trkpt lat="45.7959265" lon="9.970141"><ele>485.0</ele><time>2026-05-03T08:13:41.029Z</time></trkpt><trkpt lat="45.7959231" lon="9.9702594"><ele>484.99999999999994</ele><time>2026-05-03T08:13:42.032Z</time></trkpt><trkpt lat="45.795927" lon="9.9703965"><ele>485.0</ele><time>2026-05-03T08:13:43.032Z</time></trkpt><trkpt lat="45.7959238" lon="9.9705059"><ele>485.3333333333333</ele><time>2026-05-03T08:13:43.958Z</time></trkpt><trkpt lat="45.795935" lon="9.9706695"><ele>485.66666666666663</ele><time>2026-05-03T08:13:45.96Z</time></trkpt><trkpt lat="45.7959342" lon="9.9708006"><ele>486.0</ele><time>2026-05-03T08:13:47.967Z</time></trkpt><trkpt lat="45.795932" lon="9.970916"><ele>486.33333333333337</ele><time>2026-05-03T08:13:49.96Z</time></trkpt><trkpt lat="45.795905" lon="9.9710372"><ele>486.6666666666667</ele><time>2026-05-03T08:13:51.967Z</time></trkpt><trkpt lat="45.7958759" lon="9.9711207"><ele>487.0</ele><time>2026-05-03T08:13:54.033Z</time></trkpt><trkpt lat="45.7958423" lon="9.9712236"><ele>487.0</ele><time>2026-05-03T08:13:55.982Z</time></trkpt><trkpt lat="45.7958007" lon="9.9713387"><ele>487.00000000000006</ele><time>2026-05-03T08:13:57.961Z</time></trkpt><trkpt lat="45.7957614" lon="9.9714453"><ele>487.00000000000006</ele><time>2026-05-03T08:13:59.977Z</time></trkpt><trkpt lat="45.7957029" lon="9.971537"><ele>487.0</ele><time>2026-05-03T08:14:01.973Z</time></trkpt><trkpt lat="45.7956414" lon="9.9716274"><ele>487.0</ele><time>2026-05-03T08:14:03.971Z</time></trkpt><trkpt lat="45.7955725" lon="9.9717386"><ele>489.40000000000003</ele><time>2026-05-03T08:14:05.951Z</time></trkpt><trkpt lat="45.7955223" lon="9.9718329"><ele>491.80000000000007</ele><time>2026-05-03T08:14:07.962Z</time></trkpt><trkpt lat="45.7954626" lon="9.9719554"><ele>494.2</ele><time>2026-05-03T08:14:09.972Z</time></trkpt><trkpt lat="45.7953948" lon="9.972097"><ele>496.6</ele><time>2026-05-03T08:14:11.976Z</time></trkpt><trkpt lat="45.7953541" lon="9.9721837"><ele>499.0</ele><time>2026-05-03T08:14:12.975Z</time></trkpt><trkpt lat="45.7953139" lon="9.9722703"><ele>499.0</ele><time>2026-05-03T08:14:13.968Z</time></trkpt><trkpt lat="45.7952586" lon="9.9724"><ele>499.0</ele><time>2026-05-03T08:14:15.962Z</time></trkpt><trkpt lat="45.7952129" lon="9.9725001"><ele>499.0</ele><time>2026-05-03T08:14:17.963Z</time></trkpt><trkpt lat="45.7951676" lon="9.9726146"><ele>499.0</ele><time>2026-05-03T08:14:19.957Z</time></trkpt><trkpt lat="45.7951233" lon="9.9727299"><ele>499.0</ele><time>2026-05-03T08:14:21.969Z</time></trkpt><trkpt lat="45.795074" lon="9.9728632"><ele>496.2</ele><time>2026-05-03T08:14:23.969Z</time></trkpt><trkpt lat="45.7950339" lon="9.9730042"><ele>493.4</ele><time>2026-05-03T08:14:25.969Z</time></trkpt><trkpt lat="45.7949985" lon="9.973145"><ele>490.6</ele><time>2026-05-03T08:14:27.966Z</time></trkpt><trkpt lat="45.7949772" lon="9.9732886"><ele>487.8</ele><time>2026-05-03T08:14:29.963Z</time></trkpt><trkpt lat="45.7949648" lon="9.9734033"><ele>485.0</ele><time>2026-05-03T08:14:30.958Z</time></trkpt><trkpt lat="45.7949519" lon="9.9735807"><ele>484.99999999999994</ele><time>2026-05-03T08:14:32.963Z</time></trkpt><trkpt lat="45.7949428" lon="9.9736746"><ele>485.0</ele><time>2026-05-03T08:14:33.955Z</time></trkpt><trkpt lat="45.7949342" lon="9.9737677"><ele>485.0</ele><time>2026-05-03T08:14:34.967Z</time></trkpt><trkpt lat="45.7948999" lon="9.9738832"><ele>485.0</ele><time>2026-05-03T08:14:36.969Z</time></trkpt><trkpt lat="45.7948569" lon="9.9740515"><ele>484.99999999999994</ele><time>2026-05-03T08:14:38.96Z</time></trkpt><trkpt lat="45.794836" lon="9.9741445"><ele>485.0</ele><time>2026-05-03T08:14:39.953Z</time></trkpt><trkpt lat="45.7948115" lon="9.9742326"><ele>485.8</ele><time>2026-05-03T08:14:41.066Z</time></trkpt><trkpt lat="45.7947996" lon="9.9743676"><ele>486.6</ele><time>2026-05-03T08:14:43.04Z</time></trkpt><trkpt lat="45.7947905" lon="9.9744732"><ele>487.4</ele><time>2026-05-03T08:14:44.954Z</time></trkpt><trkpt lat="45.79477" lon="9.9746649"><ele>488.2</ele><time>2026-05-03T08:14:46.96Z</time></trkpt><trkpt lat="45.7947485" lon="9.9747944"><ele>489.0</ele><time>2026-05-03T08:14:48.955Z</time></trkpt><trkpt lat="45.794736" lon="9.9749261"><ele>488.8333333333333</ele><time>2026-05-03T08:14:50.94Z</time></trkpt><trkpt lat="45.7947276" lon="9.9750462"><ele>488.66666666666663</ele><time>2026-05-03T08:14:52.961Z</time></trkpt><trkpt lat="45.7947371" lon="9.9751684"><ele>488.5</ele><time>2026-05-03T08:14:54.959Z</time></trkpt><trkpt lat="45.7947596" lon="9.9752897"><ele>488.3333333333333</ele><time>2026-05-03T08:14:56.956Z</time></trkpt><trkpt lat="45.7947829" lon="9.9754092"><ele>488.16666666666663</ele><time>2026-05-03T08:14:58.958Z</time></trkpt><trkpt lat="45.7948024" lon="9.9755197"><ele>488.0</ele><time>2026-05-03T08:15:00.961Z</time></trkpt><trkpt lat="45.7948145" lon="9.9756471"><ele>488.0</ele><time>2026-05-03T08:15:02.965Z</time></trkpt><trkpt lat="45.7948346" lon="9.9757719"><ele>487.99999999999994</ele><time>2026-05-03T08:15:04.959Z</time></trkpt><trkpt lat="45.7948501" lon="9.9758891"><ele>487.99999999999994</ele><time>2026-05-03T08:15:06.957Z</time></trkpt><trkpt lat="45.7948652" lon="9.9760226"><ele>488.0</ele><time>2026-05-03T08:15:08.951Z</time></trkpt><trkpt lat="45.7948747" lon="9.9761725"><ele>488.0</ele><time>2026-05-03T08:15:10.957Z</time></trkpt><trkpt lat="45.7948851" lon="9.9763019"><ele>488.16666666666663</ele><time>2026-05-03T08:15:13.016Z</time></trkpt><trkpt lat="45.7948802" lon="9.9764171"><ele>488.3333333333333</ele><time>2026-05-03T08:15:14.969Z</time></trkpt><trkpt lat="45.7948796" lon="9.9765182"><ele>488.5</ele><time>2026-05-03T08:15:16.964Z</time></trkpt><trkpt lat="45.7948602" lon="9.976619"><ele>488.66666666666663</ele><time>2026-05-03T08:15:18.97Z</time></trkpt><trkpt lat="45.7948353" lon="9.9767276"><ele>488.8333333333333</ele><time>2026-05-03T08:15:21.038Z</time></trkpt><trkpt lat="45.7948086" lon="9.9768514"><ele>489.0</ele><time>2026-05-03T08:15:23.014Z</time></trkpt><trkpt lat="45.7947838" lon="9.9769374"><ele>489.8571428571429</ele><time>2026-05-03T08:15:23.959Z</time></trkpt><trkpt lat="45.7947729" lon="9.9770511"><ele>490.7142857142858</ele><time>2026-05-03T08:15:24.96Z</time></trkpt><trkpt lat="45.7947694" lon="9.9771581"><ele>491.57142857142856</ele><time>2026-05-03T08:15:25.948Z</time></trkpt><trkpt lat="45.794776" lon="9.9772575"><ele>492.42857142857144</ele><time>2026-05-03T08:15:26.957Z</time></trkpt><trkpt lat="45.7947661" lon="9.9773593"><ele>493.2857142857143</ele><time>2026-05-03T08:15:29.033Z</time></trkpt><trkpt lat="45.7947577" lon="9.9774521"><ele>494.1428571428571</ele><time>2026-05-03T08:15:30.969Z</time></trkpt><trkpt lat="45.7947522" lon="9.9775545"><ele>494.99999999999994</ele><time>2026-05-03T08:15:34.036Z</time></trkpt><trkpt lat="45.7947408" lon="9.9776627"><ele>496.0</ele><time>2026-05-03T08:15:36.961Z</time></trkpt><trkpt lat="45.79474" lon="9.9777667"><ele>497.0</ele><time>2026-05-03T08:15:40.031Z</time></trkpt><trkpt lat="45.7947313" lon="9.9778848"><ele>498.0</ele><time>2026-05-03T08:15:44.007Z</time></trkpt><trkpt lat="45.7946847" lon="9.9779605"><ele>499.0</ele><time>2026-05-03T08:15:46.946Z</time></trkpt><trkpt lat="45.7946095" lon="9.9780772"><ele>500.0</ele><time>2026-05-03T08:15:48.948Z</time></trkpt><trkpt lat="45.7945566" lon="9.9781489"><ele>501.0</ele><time>2026-05-03T08:15:49.945Z</time></trkpt><trkpt lat="45.7945387" lon="9.9782649"><ele>502.57142857142856</ele><time>2026-05-03T08:15:51.966Z</time></trkpt><trkpt lat="45.7945888" lon="9.9783759"><ele>504.1428571428571</ele><time>2026-05-03T08:15:54.985Z</time></trkpt><trkpt lat="45.7946219" lon="9.9784698"><ele>505.71428571428567</ele><time>2026-05-03T08:15:57.968Z</time></trkpt><trkpt lat="45.7946455" lon="9.9785644"><ele>507.2857142857143</ele><time>2026-05-03T08:16:01.972Z</time></trkpt><trkpt lat="45.7946759" lon="9.9786654"><ele>508.8571428571428</ele><time>2026-05-03T08:16:06.978Z</time></trkpt><trkpt lat="45.7946639" lon="9.9787591"><ele>510.4285714285714</ele><time>2026-05-03T08:16:09.962Z</time></trkpt><trkpt lat="45.794662" lon="9.9788552"><ele>512.0</ele><time>2026-05-03T08:16:12.978Z</time></trkpt><trkpt lat="45.7946634" lon="9.9789733"><ele>511.99999999999994</ele><time>2026-05-03T08:16:16.959Z</time></trkpt><trkpt lat="45.7946578" lon="9.9790664"><ele>512.0</ele><time>2026-05-03T08:16:19.949Z</time></trkpt><trkpt lat="45.7946985" lon="9.9791689"><ele>512.0</ele><time>2026-05-03T08:16:23.979Z</time></trkpt><trkpt lat="45.7947537" lon="9.979253"><ele>512.0</ele><time>2026-05-03T08:16:27.978Z</time></trkpt><trkpt lat="45.7948127" lon="9.9793101"><ele>511.99999999999994</ele><time>2026-05-03T08:16:31.981Z</time></trkpt><trkpt lat="45.7948879" lon="9.9793564"><ele>512.0</ele><time>2026-05-03T08:16:35.963Z</time></trkpt><trkpt lat="45.7949614" lon="9.9793938"><ele>513.5714285714286</ele><time>2026-05-03T08:16:39.973Z</time></trkpt><trkpt lat="45.7950239" lon="9.979429"><ele>515.1428571428571</ele><time>2026-05-03T08:16:42.964Z</time></trkpt><trkpt lat="45.7950776" lon="9.9794893"><ele>516.7142857142857</ele><time>2026-05-03T08:16:46.035Z</time></trkpt><trkpt lat="45.7951209" lon="9.9795594"><ele>518.2857142857142</ele><time>2026-05-03T08:16:48.953Z</time></trkpt><trkpt lat="45.795173" lon="9.979644"><ele>519.8571428571429</ele><time>2026-05-03T08:16:52.962Z</time></trkpt><trkpt lat="45.7952074" lon="9.9797454"><ele>521.4285714285713</ele><time>2026-05-03T08:16:56.964Z</time></trkpt><trkpt lat="45.7952216" lon="9.9798412"><ele>523.0</ele><time>2026-05-03T08:17:00.955Z</time></trkpt><trkpt lat="45.7952151" lon="9.9799356"><ele>527.4285714285713</ele><time>2026-05-03T08:17:03.952Z</time></trkpt><trkpt lat="45.7952204" lon="9.9800339"><ele>531.8571428571429</ele><time>2026-05-03T08:17:07.034Z</time></trkpt><trkpt lat="45.7952126" lon="9.9801451"><ele>536.2857142857142</ele><time>2026-05-03T08:17:09.956Z</time></trkpt><trkpt lat="45.7952143" lon="9.9802595"><ele>540.7142857142857</ele><time>2026-05-03T08:17:13.948Z</time></trkpt><trkpt lat="45.7952304" lon="9.9803654"><ele>545.1428571428571</ele><time>2026-05-03T08:17:17.965Z</time></trkpt><trkpt lat="45.7952463" lon="9.980472"><ele>549.5714285714286</ele><time>2026-05-03T08:17:21.961Z</time></trkpt><trkpt lat="45.7952582" lon="9.9805686"><ele>554.0</ele><time>2026-05-03T08:17:24.961Z</time></trkpt><trkpt lat="45.7952726" lon="9.9806837"><ele>554.0</ele><time>2026-05-03T08:17:28.033Z</time></trkpt><trkpt lat="45.7952881" lon="9.9807907"><ele>554.0</ele><time>2026-05-03T08:17:30.941Z</time></trkpt><trkpt lat="45.7953022" lon="9.9809043"><ele>554.0</ele><time>2026-05-03T08:17:33.953Z</time></trkpt><trkpt lat="45.7953121" lon="9.9810078"><ele>554.0</ele><time>2026-05-03T08:17:37.039Z</time></trkpt><trkpt lat="45.7953222" lon="9.9811465"><ele>554.0</ele><time>2026-05-03T08:17:39.964Z</time></trkpt><trkpt lat="45.7953217" lon="9.9812403"><ele>554.0</ele><time>2026-05-03T08:17:41.96Z</time></trkpt><trkpt lat="45.7953129" lon="9.9813506"><ele>555.0</ele><time>2026-05-03T08:17:43.968Z</time></trkpt><trkpt lat="45.7953271" lon="9.9814808"><ele>556.0</ele><time>2026-05-03T08:17:45.965Z</time></trkpt><trkpt lat="45.7953323" lon="9.9816081"><ele>557.0</ele><time>2026-05-03T08:17:48.031Z</time></trkpt><trkpt lat="45.7953311" lon="9.9817444"><ele>558.0</ele><time>2026-05-03T08:17:49.962Z</time></trkpt><trkpt lat="45.7953282" lon="9.9818626"><ele>559.0</ele><time>2026-05-03T08:17:51.964Z</time></trkpt><trkpt lat="45.7953209" lon="9.9819779"><ele>560.0</ele><time>2026-05-03T08:17:53.961Z</time></trkpt><trkpt lat="45.7953133" lon="9.9820918"><ele>561.0</ele><time>2026-05-03T08:17:55.969Z</time></trkpt><trkpt lat="45.7953035" lon="9.9822231"><ele>562.0</ele><time>2026-05-03T08:17:57.976Z</time></trkpt><trkpt lat="45.7953104" lon="9.9823328"><ele>563.0</ele><time>2026-05-03T08:17:59.948Z</time></trkpt><trkpt lat="45.7953155" lon="9.982444"><ele>564.0</ele><time>2026-05-03T08:18:01.971Z</time></trkpt><trkpt lat="45.7953271" lon="9.9825612"><ele>565.0</ele><time>2026-05-03T08:18:03.963Z</time></trkpt><trkpt lat="45.7953502" lon="9.982676"><ele>566.0</ele><time>2026-05-03T08:18:05.972Z</time></trkpt><trkpt lat="45.795359" lon="9.9827722"><ele>566.5714285714286</ele><time>2026-05-03T08:18:07.956Z</time></trkpt><trkpt lat="45.7953649" lon="9.9828738"><ele>567.1428571428572</ele><time>2026-05-03T08:18:09.943Z</time></trkpt><trkpt lat="45.7953608" lon="9.9829739"><ele>567.7142857142858</ele><time>2026-05-03T08:18:12.962Z</time></trkpt><trkpt lat="45.7953573" lon="9.9830651"><ele>568.2857142857143</ele><time>2026-05-03T08:18:23.967Z</time></trkpt><trkpt lat="45.7953966" lon="9.9831671"><ele>568.8571428571429</ele><time>2026-05-03T08:18:26.962Z</time></trkpt><trkpt lat="45.7954188" lon="9.9832622"><ele>569.4285714285714</ele><time>2026-05-03T08:18:28.945Z</time></trkpt><trkpt lat="45.7954441" lon="9.9833805"><ele>570.0</ele><time>2026-05-03T08:18:31.957Z</time></trkpt><trkpt lat="45.7954715" lon="9.9834995"><ele>571.0</ele><time>2026-05-03T08:18:34.959Z</time></trkpt><trkpt lat="45.7955212" lon="9.9835959"><ele>572.0</ele><time>2026-05-03T08:18:37.956Z</time></trkpt><trkpt lat="45.7955786" lon="9.9836831"><ele>573.0</ele><time>2026-05-03T08:18:40.955Z</time></trkpt><trkpt lat="45.7956112" lon="9.9837645"><ele>574.0</ele><time>2026-05-03T08:18:43.997Z</time></trkpt><trkpt lat="45.7956154" lon="9.9838559"><ele>575.0</ele><time>2026-05-03T08:18:47.969Z</time></trkpt><trkpt lat="45.795636" lon="9.9839469"><ele>576.0</ele><time>2026-05-03T08:18:51.951Z</time></trkpt><trkpt lat="45.7956532" lon="9.9840495"><ele>577.0</ele><time>2026-05-03T08:18:55.965Z</time></trkpt><trkpt lat="45.7956789" lon="9.984136"><ele>578.0</ele><time>2026-05-03T08:19:01.962Z</time></trkpt><trkpt lat="45.7956968" lon="9.9842384"><ele>579.0</ele><time>2026-05-03T08:19:05.967Z</time></trkpt><trkpt lat="45.7957183" lon="9.9843304"><ele>580.0</ele><time>2026-05-03T08:19:09.974Z</time></trkpt><trkpt lat="45.7957504" lon="9.9844324"><ele>581.0</ele><time>2026-05-03T08:19:13.969Z</time></trkpt><trkpt lat="45.7957514" lon="9.9845313"><ele>582.0</ele><time>2026-05-03T08:19:17.965Z</time></trkpt><trkpt lat="45.7957475" lon="9.9846324"><ele>583.0</ele><time>2026-05-03T08:19:21.961Z</time></trkpt><trkpt lat="45.7957559" lon="9.9848138"><ele>583.0</ele><time>2026-05-03T08:19:27.961Z</time></trkpt><trkpt lat="45.7957677" lon="9.9849371"><ele>583.0</ele><time>2026-05-03T08:19:31.959Z</time></trkpt><trkpt lat="45.7957903" lon="9.9850572"><ele>583.0</ele><time>2026-05-03T08:19:34.969Z</time></trkpt><trkpt lat="45.7958161" lon="9.9851692"><ele>583.0</ele><time>2026-05-03T08:19:37.966Z</time></trkpt><trkpt lat="45.7958366" lon="9.985277"><ele>583.0</ele><time>2026-05-03T08:19:40.96Z</time></trkpt><trkpt lat="45.7958606" lon="9.9853747"><ele>583.0</ele><time>2026-05-03T08:19:43.947Z</time></trkpt><trkpt lat="45.795886" lon="9.9854669"><ele>582.8571428571429</ele><time>2026-05-03T08:19:46.946Z</time></trkpt><trkpt lat="45.7959205" lon="9.9855736"><ele>582.7142857142858</ele><time>2026-05-03T08:19:49.96Z</time></trkpt><trkpt lat="45.7959503" lon="9.9856641"><ele>582.5714285714286</ele><time>2026-05-03T08:19:52.969Z</time></trkpt><trkpt lat="45.7959883" lon="9.9857518"><ele>582.4285714285714</ele><time>2026-05-03T08:19:55.962Z</time></trkpt><trkpt lat="45.7959937" lon="9.9858451"><ele>582.2857142857142</ele><time>2026-05-03T08:19:57.952Z</time></trkpt><trkpt lat="45.7960125" lon="9.9859617"><ele>582.1428571428571</ele><time>2026-05-03T08:20:00.961Z</time></trkpt><trkpt lat="45.7960348" lon="9.98605"><ele>582.0</ele><time>2026-05-03T08:20:03.947Z</time></trkpt><trkpt lat="45.7960562" lon="9.9861393"><ele>585.7142857142857</ele><time>2026-05-03T08:20:08.974Z</time></trkpt><trkpt lat="45.7960871" lon="9.9862271"><ele>589.4285714285713</ele><time>2026-05-03T08:20:12.969Z</time></trkpt><trkpt lat="45.7961091" lon="9.986333"><ele>593.1428571428571</ele><time>2026-05-03T08:20:17.961Z</time></trkpt><trkpt lat="45.7961278" lon="9.986423"><ele>596.8571428571429</ele><time>2026-05-03T08:20:21.977Z</time></trkpt><trkpt lat="45.7961713" lon="9.9865172"><ele>600.5714285714287</ele><time>2026-05-03T08:20:26.96Z</time></trkpt><trkpt lat="45.7962102" lon="9.9865932"><ele>604.2857142857142</ele><time>2026-05-03T08:20:30.966Z</time></trkpt><trkpt lat="45.7962558" lon="9.9867006"><ele>608.0</ele><time>2026-05-03T08:20:34.969Z</time></trkpt><trkpt lat="45.7962862" lon="9.9867941"><ele>608.0</ele><time>2026-05-03T08:20:37.966Z</time></trkpt><trkpt lat="45.7963207" lon="9.9868761"><ele>608.0</ele><time>2026-05-03T08:20:40.966Z</time></trkpt><trkpt lat="45.7963512" lon="9.9869712"><ele>608.0</ele><time>2026-05-03T08:20:43.972Z</time></trkpt><trkpt lat="45.796374" lon="9.9870847"><ele>608.0</ele><time>2026-05-03T08:20:46.976Z</time></trkpt><trkpt lat="45.7963989" lon="9.9871955"><ele>608.0</ele><time>2026-05-03T08:20:49.967Z</time></trkpt><trkpt lat="45.7964171" lon="9.9872832"><ele>608.0</ele><time>2026-05-03T08:20:51.956Z</time></trkpt><trkpt lat="45.7964485" lon="9.9873804"><ele>608.0</ele><time>2026-05-03T08:20:53.966Z</time></trkpt><trkpt lat="45.7964708" lon="9.9874869"><ele>607.2857142857142</ele><time>2026-05-03T08:20:55.97Z</time></trkpt><trkpt lat="45.7964892" lon="9.9875872"><ele>606.5714285714287</ele><time>2026-05-03T08:20:57.967Z</time></trkpt><trkpt lat="45.7965062" lon="9.987684"><ele>605.8571428571429</ele><time>2026-05-03T08:20:59.958Z</time></trkpt><trkpt lat="45.7965219" lon="9.9877746"><ele>605.1428571428571</ele><time>2026-05-03T08:21:01.963Z</time></trkpt><trkpt lat="45.7965433" lon="9.9878596"><ele>604.4285714285713</ele><time>2026-05-03T08:21:03.967Z</time></trkpt><trkpt lat="45.796561" lon="9.9879572"><ele>603.7142857142858</ele><time>2026-05-03T08:21:05.969Z</time></trkpt><trkpt lat="45.7965869" lon="9.9880675"><ele>603.0</ele><time>2026-05-03T08:21:07.965Z</time></trkpt><trkpt lat="45.796626" lon="9.9881756"><ele>603.0</ele><time>2026-05-03T08:21:09.963Z</time></trkpt><trkpt lat="45.7966703" lon="9.9882967"><ele>603.0</ele><time>2026-05-03T08:21:11.951Z</time></trkpt><trkpt lat="45.7967371" lon="9.9884372"><ele>603.0</ele><time>2026-05-03T08:21:13.963Z</time></trkpt><trkpt lat="45.7967817" lon="9.9885311"><ele>603.0</ele><time>2026-05-03T08:21:14.96Z</time></trkpt><trkpt lat="45.7968239" lon="9.9886111"><ele>603.0</ele><time>2026-05-03T08:21:15.975Z</time></trkpt><trkpt lat="45.7968863" lon="9.9887687"><ele>608.6</ele><time>2026-05-03T08:21:17.948Z</time></trkpt><trkpt lat="45.7969462" lon="9.9888756"><ele>614.1999999999999</ele><time>2026-05-03T08:21:18.965Z</time></trkpt><trkpt lat="45.7969853" lon="9.9889904"><ele>619.8</ele><time>2026-05-03T08:21:19.961Z</time></trkpt><trkpt lat="45.7970044" lon="9.9891297"><ele>625.4</ele><time>2026-05-03T08:21:20.959Z</time></trkpt><trkpt lat="45.7970095" lon="9.989257"><ele>631.0</ele><time>2026-05-03T08:21:21.967Z</time></trkpt><trkpt lat="45.7969946" lon="9.9894176"><ele>631.0</ele><time>2026-05-03T08:21:22.945Z</time></trkpt><trkpt lat="45.7969826" lon="9.9895401"><ele>631.0</ele><time>2026-05-03T08:21:23.952Z</time></trkpt><trkpt lat="45.7969587" lon="9.9896472"><ele>631.0</ele><time>2026-05-03T08:21:24.942Z</time></trkpt><trkpt lat="45.7969159" lon="9.9897604"><ele>631.0</ele><time>2026-05-03T08:21:25.966Z</time></trkpt><trkpt lat="45.7968807" lon="9.9898692"><ele>631.0</ele><time>2026-05-03T08:21:26.969Z</time></trkpt><trkpt lat="45.7968621" lon="9.9899738"><ele>631.0</ele><time>2026-05-03T08:21:27.973Z</time></trkpt><trkpt lat="45.7968491" lon="9.9900737"><ele>629.3333333333334</ele><time>2026-05-03T08:21:28.963Z</time></trkpt><trkpt lat="45.7968701" lon="9.9902131"><ele>627.6666666666667</ele><time>2026-05-03T08:21:30.972Z</time></trkpt><trkpt lat="45.7969116" lon="9.990282"><ele>626.0</ele><time>2026-05-03T08:21:32.964Z</time></trkpt><trkpt lat="45.7969746" lon="9.9903374"><ele>624.3333333333334</ele><time>2026-05-03T08:21:34.976Z</time></trkpt><trkpt lat="45.797038" lon="9.9903958"><ele>622.6666666666666</ele><time>2026-05-03T08:21:36.962Z</time></trkpt><trkpt lat="45.7971035" lon="9.9904784"><ele>621.0</ele><time>2026-05-03T08:21:38.96Z</time></trkpt><trkpt lat="45.7971589" lon="9.9906206"><ele>620.9999999999999</ele><time>2026-05-03T08:21:40.962Z</time></trkpt><trkpt lat="45.7971902" lon="9.9907035"><ele>621.0</ele><time>2026-05-03T08:21:42.962Z</time></trkpt><trkpt lat="45.7972185" lon="9.99079"><ele>621.0</ele><time>2026-05-03T08:21:44.97Z</time></trkpt><trkpt lat="45.7972354" lon="9.9908809"><ele>621.0</ele><time>2026-05-03T08:21:46.952Z</time></trkpt><trkpt lat="45.7972429" lon="9.9909787"><ele>621.0</ele><time>2026-05-03T08:21:48.969Z</time></trkpt><trkpt lat="45.7972651" lon="9.9910886"><ele>620.9999999999999</ele><time>2026-05-03T08:21:50.943Z</time></trkpt><trkpt lat="45.797294" lon="9.9912124"><ele>621.0</ele><time>2026-05-03T08:21:52.945Z</time></trkpt><trkpt lat="45.797325" lon="9.9913323"><ele>618.8333333333334</ele><time>2026-05-03T08:21:54.968Z</time></trkpt><trkpt lat="45.7973545" lon="9.9914334"><ele>616.6666666666666</ele><time>2026-05-03T08:21:57.96Z</time></trkpt><trkpt lat="45.7974153" lon="9.991516"><ele>614.5</ele><time>2026-05-03T08:22:01.963Z</time></trkpt><trkpt lat="45.7974607" lon="9.9916133"><ele>612.3333333333333</ele><time>2026-05-03T08:22:05.956Z</time></trkpt><trkpt lat="45.7975073" lon="9.9916987"><ele>610.1666666666666</ele><time>2026-05-03T08:22:08.962Z</time></trkpt><trkpt lat="45.797546" lon="9.9917878"><ele>608.0</ele><time>2026-05-03T08:22:10.97Z</time></trkpt><trkpt lat="45.7975931" lon="9.9918785"><ele>605.8571428571428</ele><time>2026-05-03T08:22:12.961Z</time></trkpt><trkpt lat="45.797635" lon="9.9919587"><ele>603.7142857142858</ele><time>2026-05-03T08:22:14.968Z</time></trkpt><trkpt lat="45.7976854" lon="9.9920416"><ele>601.5714285714286</ele><time>2026-05-03T08:22:17.959Z</time></trkpt><trkpt lat="45.7977407" lon="9.9921473"><ele>599.4285714285713</ele><time>2026-05-03T08:22:20.963Z</time></trkpt><trkpt lat="45.7977843" lon="9.9922285"><ele>597.2857142857142</ele><time>2026-05-03T08:22:22.972Z</time></trkpt><trkpt lat="45.7978353" lon="9.9922905"><ele>595.1428571428571</ele><time>2026-05-03T08:22:24.963Z</time></trkpt><trkpt lat="45.7978811" lon="9.992369"><ele>593.0</ele><time>2026-05-03T08:22:26.974Z</time></trkpt><trkpt lat="45.7979234" lon="9.9924445"><ele>594.8571428571428</ele><time>2026-05-03T08:22:28.967Z</time></trkpt><trkpt lat="45.7979803" lon="9.992498"><ele>596.7142857142857</ele><time>2026-05-03T08:22:31.972Z</time></trkpt><trkpt lat="45.7979942" lon="9.9925929"><ele>598.5714285714286</ele><time>2026-05-03T08:22:35.969Z</time></trkpt><trkpt lat="45.7980162" lon="9.9926807"><ele>600.4285714285713</ele><time>2026-05-03T08:22:38.965Z</time></trkpt><trkpt lat="45.7980696" lon="9.992774"><ele>602.2857142857142</ele><time>2026-05-03T08:22:41.974Z</time></trkpt><trkpt lat="45.7980998" lon="9.9928568"><ele>604.1428571428571</ele><time>2026-05-03T08:22:43.958Z</time></trkpt><trkpt lat="45.798124" lon="9.992944"><ele>606.0</ele><time>2026-05-03T08:22:46.939Z</time></trkpt><trkpt lat="45.7980832" lon="9.9930634"><ele>606.0</ele><time>2026-05-03T08:22:49.962Z</time></trkpt><trkpt lat="45.7980507" lon="9.9931589"><ele>606.0</ele><time>2026-05-03T08:22:51.957Z</time></trkpt><trkpt lat="45.7980328" lon="9.9932481"><ele>606.0</ele><time>2026-05-03T08:22:53.974Z</time></trkpt><trkpt lat="45.7979757" lon="9.9933224"><ele>606.0</ele><time>2026-05-03T08:22:56.967Z</time></trkpt><trkpt lat="45.7978891" lon="9.9933582"><ele>606.0</ele><time>2026-05-03T08:22:59.968Z</time></trkpt><trkpt lat="45.7977843" lon="9.9934242"><ele>606.0</ele><time>2026-05-03T08:23:01.973Z</time></trkpt><trkpt lat="45.7977231" lon="9.9934709"><ele>598.2</ele><time>2026-05-03T08:23:02.965Z</time></trkpt><trkpt lat="45.7976121" lon="9.9935298"><ele>590.4000000000001</ele><time>2026-05-03T08:23:04.974Z</time></trkpt><trkpt lat="45.797544" lon="9.9935469"><ele>582.6</ele><time>2026-05-03T08:23:05.977Z</time></trkpt><trkpt lat="45.7974499" lon="9.9935628"><ele>574.8000000000001</ele><time>2026-05-03T08:23:07.962Z</time></trkpt><trkpt lat="45.797362" lon="9.9935885"><ele>567.0</ele><time>2026-05-03T08:23:09.969Z</time></trkpt><trkpt lat="45.7972894" lon="9.9936327"><ele>567.0</ele><time>2026-05-03T08:23:10.973Z</time></trkpt><trkpt lat="45.7972118" lon="9.9936474"><ele>567.0</ele><time>2026-05-03T08:23:11.965Z</time></trkpt><trkpt lat="45.7971434" lon="9.9936487"><ele>567.0</ele><time>2026-05-03T08:23:12.955Z</time></trkpt><trkpt lat="45.7970779" lon="9.9936271"><ele>567.0</ele><time>2026-05-03T08:23:13.976Z</time></trkpt><trkpt lat="45.7970241" lon="9.9935795"><ele>567.0</ele><time>2026-05-03T08:23:14.977Z</time></trkpt><trkpt lat="45.7969626" lon="9.9934474"><ele>567.0</ele><time>2026-05-03T08:23:16.965Z</time></trkpt><trkpt lat="45.7969481" lon="9.9933454"><ele>565.7142857142857</ele><time>2026-05-03T08:23:17.968Z</time></trkpt><trkpt lat="45.7969255" lon="9.9932364"><ele>564.4285714285714</ele><time>2026-05-03T08:23:18.969Z</time></trkpt><trkpt lat="45.7968831" lon="9.9931421"><ele>563.1428571428571</ele><time>2026-05-03T08:23:19.968Z</time></trkpt><trkpt lat="45.7968286" lon="9.9930642"><ele>561.8571428571429</ele><time>2026-05-03T08:23:20.97Z</time></trkpt><trkpt lat="45.7967704" lon="9.993005"><ele>560.5714285714286</ele><time>2026-05-03T08:23:21.973Z</time></trkpt><trkpt lat="45.7967215" lon="9.9929446"><ele>559.2857142857142</ele><time>2026-05-03T08:23:22.972Z</time></trkpt><trkpt lat="45.7966766" lon="9.9928696"><ele>558.0</ele><time>2026-05-03T08:23:23.964Z</time></trkpt><trkpt lat="45.7966355" lon="9.9927836"><ele>558.0</ele><time>2026-05-03T08:23:24.957Z</time></trkpt><trkpt lat="45.7966051" lon="9.9926906"><ele>558.0</ele><time>2026-05-03T08:23:25.973Z</time></trkpt><trkpt lat="45.7965767" lon="9.9925977"><ele>558.0</ele><time>2026-05-03T08:23:26.982Z</time></trkpt><trkpt lat="45.7965137" lon="9.9924979"><ele>558.0</ele><time>2026-05-03T08:23:28.951Z</time></trkpt><trkpt lat="45.7964714" lon="9.9926383"><ele>558.0</ele><time>2026-05-03T08:23:31.956Z</time></trkpt><trkpt lat="45.796489" lon="9.992765"><ele>558.0</ele><time>2026-05-03T08:23:33.958Z</time></trkpt><trkpt lat="45.7964973" lon="9.9928823"><ele>558.0</ele><time>2026-05-03T08:23:35.965Z</time></trkpt><trkpt lat="45.7965119" lon="9.9930084"><ele>558.0</ele><time>2026-05-03T08:23:37.965Z</time></trkpt><trkpt lat="45.7965353" lon="9.9931426"><ele>558.0</ele><time>2026-05-03T08:23:39.961Z</time></trkpt><trkpt lat="45.7965719" lon="9.9932215"><ele>558.0</ele><time>2026-05-03T08:23:40.966Z</time></trkpt><trkpt lat="45.7966074" lon="9.9933141"><ele>558.0</ele><time>2026-05-03T08:23:41.958Z</time></trkpt><trkpt lat="45.7966233" lon="9.9934049"><ele>558.0</ele><time>2026-05-03T08:23:42.976Z</time></trkpt><trkpt lat="45.796631" lon="9.9935017"><ele>556.6</ele><time>2026-05-03T08:23:43.965Z</time></trkpt><trkpt lat="45.7966032" lon="9.9936259"><ele>555.1999999999999</ele><time>2026-05-03T08:23:44.978Z</time></trkpt><trkpt lat="45.7965804" lon="9.9937448"><ele>553.8</ele><time>2026-05-03T08:23:45.959Z</time></trkpt><trkpt lat="45.7965662" lon="9.9938862"><ele>552.4</ele><time>2026-05-03T08:23:46.945Z</time></trkpt><trkpt lat="45.7965788" lon="9.9940228"><ele>551.0</ele><time>2026-05-03T08:23:47.975Z</time></trkpt><trkpt lat="45.7966148" lon="9.9941633"><ele>547.5</ele><time>2026-05-03T08:23:48.959Z</time></trkpt><trkpt lat="45.7966581" lon="9.9943259"><ele>544.0</ele><time>2026-05-03T08:23:49.969Z</time></trkpt><trkpt lat="45.7966998" lon="9.9944757"><ele>540.5</ele><time>2026-05-03T08:23:50.97Z</time></trkpt><trkpt lat="45.7967319" lon="9.9946369"><ele>537.0</ele><time>2026-05-03T08:23:51.965Z</time></trkpt><trkpt lat="45.79676" lon="9.9947838"><ele>537.0</ele><time>2026-05-03T08:23:52.969Z</time></trkpt><trkpt lat="45.7967791" lon="9.9949356"><ele>537.0</ele><time>2026-05-03T08:23:53.96Z</time></trkpt><trkpt lat="45.7967977" lon="9.9950674"><ele>537.0</ele><time>2026-05-03T08:23:54.964Z</time></trkpt><trkpt lat="45.7968269" lon="9.995184"><ele>537.0</ele><time>2026-05-03T08:23:55.963Z</time></trkpt><trkpt lat="45.796854" lon="9.9952869"><ele>537.0</ele><time>2026-05-03T08:23:56.963Z</time></trkpt><trkpt lat="45.7969031" lon="9.9953676"><ele>537.0</ele><time>2026-05-03T08:23:57.977Z</time></trkpt><trkpt lat="45.7969517" lon="9.9954368"><ele>539.1666666666666</ele><time>2026-05-03T08:23:58.974Z</time></trkpt><trkpt lat="45.7970451" lon="9.9954617"><ele>541.3333333333334</ele><time>2026-05-03T08:24:00.976Z</time></trkpt><trkpt lat="45.7971191" lon="9.9954094"><ele>543.5</ele><time>2026-05-03T08:24:01.975Z</time></trkpt><trkpt lat="45.797191" lon="9.9953697"><ele>545.6666666666667</ele><time>2026-05-03T08:24:02.973Z</time></trkpt><trkpt lat="45.7972631" lon="9.9953311"><ele>547.8333333333334</ele><time>2026-05-03T08:24:03.97Z</time></trkpt><trkpt lat="45.797335" lon="9.9953499"><ele>550.0</ele><time>2026-05-03T08:24:04.973Z</time></trkpt><trkpt lat="45.7973966" lon="9.9953873"><ele>550.0</ele><time>2026-05-03T08:24:05.968Z</time></trkpt><trkpt lat="45.7974147" lon="9.9954974"><ele>550.0</ele><time>2026-05-03T08:24:08.958Z</time></trkpt><trkpt lat="45.797365" lon="9.9955843"><ele>550.0</ele><time>2026-05-03T08:24:10.977Z</time></trkpt><trkpt lat="45.7972859" lon="9.9956941"><ele>550.0</ele><time>2026-05-03T08:24:12.963Z</time></trkpt><trkpt lat="45.7972381" lon="9.9957675"><ele>550.0</ele><time>2026-05-03T08:24:14.965Z</time></trkpt><trkpt lat="45.7971877" lon="9.9958412"><ele>550.0</ele><time>2026-05-03T08:24:16.963Z</time></trkpt><trkpt lat="45.7971255" lon="9.9959087"><ele>550.4285714285714</ele><time>2026-05-03T08:24:18.959Z</time></trkpt><trkpt lat="45.7970548" lon="9.995959"><ele>550.8571428571429</ele><time>2026-05-03T08:24:20.972Z</time></trkpt><trkpt lat="45.796991" lon="9.9960191"><ele>551.2857142857142</ele><time>2026-05-03T08:24:22.961Z</time></trkpt><trkpt lat="45.7969306" lon="9.9960752"><ele>551.7142857142858</ele><time>2026-05-03T08:24:24.957Z</time></trkpt><trkpt lat="45.7968949" lon="9.9961514"><ele>552.1428571428571</ele><time>2026-05-03T08:24:26.955Z</time></trkpt><trkpt lat="45.79688" lon="9.9962395"><ele>552.5714285714286</ele><time>2026-05-03T08:24:28.959Z</time></trkpt><trkpt lat="45.7968936" lon="9.9963279"><ele>553.0</ele><time>2026-05-03T08:24:30.954Z</time></trkpt><trkpt lat="45.7969104" lon="9.9964622"><ele>553.0</ele><time>2026-05-03T08:24:33.971Z</time></trkpt><trkpt lat="45.7969442" lon="9.9965824"><ele>553.0</ele><time>2026-05-03T08:24:36.968Z</time></trkpt><trkpt lat="45.7969571" lon="9.9966779"><ele>553.0</ele><time>2026-05-03T08:24:38.944Z</time></trkpt><trkpt lat="45.7969583" lon="9.9967931"><ele>553.0</ele><time>2026-05-03T08:24:40.967Z</time></trkpt><trkpt lat="45.7969272" lon="9.996942"><ele>553.0</ele><time>2026-05-03T08:24:42.966Z</time></trkpt><trkpt lat="45.7969182" lon="9.9971268"><ele>551.5</ele><time>2026-05-03T08:24:44.967Z</time></trkpt><trkpt lat="45.7969156" lon="9.9972314"><ele>550.0</ele><time>2026-05-03T08:24:45.97Z</time></trkpt><trkpt lat="45.7969084" lon="9.9973468"><ele>548.5</ele><time>2026-05-03T08:24:46.961Z</time></trkpt><trkpt lat="45.7969011" lon="9.9974656"><ele>547.0</ele><time>2026-05-03T08:24:47.963Z</time></trkpt><trkpt lat="45.7968965" lon="9.9976018"><ele>545.5</ele><time>2026-05-03T08:24:48.977Z</time></trkpt><trkpt lat="45.7968987" lon="9.9977466"><ele>544.0</ele><time>2026-05-03T08:24:49.962Z</time></trkpt><trkpt lat="45.7969059" lon="9.997896"><ele>543.8</ele><time>2026-05-03T08:24:50.958Z</time></trkpt><trkpt lat="45.7969104" lon="9.9980514"><ele>543.5999999999999</ele><time>2026-05-03T08:24:51.973Z</time></trkpt><trkpt lat="45.7969087" lon="9.9982122"><ele>543.4</ele><time>2026-05-03T08:24:52.97Z</time></trkpt><trkpt lat="45.7968938" lon="9.99836"><ele>543.1999999999999</ele><time>2026-05-03T08:24:53.968Z</time></trkpt><trkpt lat="45.7968754" lon="9.9985068"><ele>543.0</ele><time>2026-05-03T08:24:54.972Z</time></trkpt><trkpt lat="45.7968539" lon="9.9986525"><ele>536.5</ele><time>2026-05-03T08:24:55.972Z</time></trkpt><trkpt lat="45.7968297" lon="9.9987982"><ele>530.0</ele><time>2026-05-03T08:24:56.97Z</time></trkpt><trkpt lat="45.7968023" lon="9.9989545"><ele>523.5</ele><time>2026-05-03T08:24:57.967Z</time></trkpt><trkpt lat="45.7967724" lon="9.9991177"><ele>517.0</ele><time>2026-05-03T08:24:58.974Z</time></trkpt><trkpt lat="45.7967372" lon="9.9992848"><ele>515.25</ele><time>2026-05-03T08:24:59.963Z</time></trkpt><trkpt lat="45.796701" lon="9.9994565"><ele>513.5</ele><time>2026-05-03T08:25:00.97Z</time></trkpt><trkpt lat="45.7966734" lon="9.999642"><ele>511.75</ele><time>2026-05-03T08:25:01.952Z</time></trkpt><trkpt lat="45.796655" lon="9.9998214"><ele>510.0</ele><time>2026-05-03T08:25:02.966Z</time></trkpt><trkpt lat="45.7966469" lon="9.9999942"><ele>510.0</ele><time>2026-05-03T08:25:03.978Z</time></trkpt><trkpt lat="45.7966402" lon="10.0001523"><ele>510.0</ele><time>2026-05-03T08:25:04.966Z</time></trkpt><trkpt lat="45.7966181" lon="10.0002822"><ele>510.0</ele><time>2026-05-03T08:25:05.967Z</time></trkpt><trkpt lat="45.7965857" lon="10.0003851"><ele>510.0</ele><time>2026-05-03T08:25:06.988Z</time></trkpt><trkpt lat="45.7965385" lon="10.0004668"><ele>510.0</ele><time>2026-05-03T08:25:07.96Z</time></trkpt><trkpt lat="45.7964768" lon="10.0005104"><ele>510.0</ele><time>2026-05-03T08:25:08.971Z</time></trkpt><trkpt lat="45.7964095" lon="10.0005245"><ele>510.0</ele><time>2026-05-03T08:25:09.962Z</time></trkpt><trkpt lat="45.7963467" lon="10.0004932"><ele>510.0</ele><time>2026-05-03T08:25:10.965Z</time></trkpt><trkpt lat="45.7962524" lon="10.000514"><ele>510.0</ele><time>2026-05-03T08:25:12.967Z</time></trkpt><trkpt lat="45.7962317" lon="10.0006017"><ele>510.0</ele><time>2026-05-03T08:25:13.968Z</time></trkpt><trkpt lat="45.7962356" lon="10.0007307"><ele>510.0</ele><time>2026-05-03T08:25:14.973Z</time></trkpt><trkpt lat="45.7962513" lon="10.0008618"><ele>510.0</ele><time>2026-05-03T08:25:15.969Z</time></trkpt><trkpt lat="45.7962797" lon="10.0010012"><ele>509.4</ele><time>2026-05-03T08:25:16.963Z</time></trkpt><trkpt lat="45.796319" lon="10.001131"><ele>508.8</ele><time>2026-05-03T08:25:17.965Z</time></trkpt><trkpt lat="45.7963609" lon="10.0012614"><ele>508.20000000000005</ele><time>2026-05-03T08:25:18.973Z</time></trkpt><trkpt lat="45.7963945" lon="10.0013825"><ele>507.6</ele><time>2026-05-03T08:25:19.977Z</time></trkpt><trkpt lat="45.7964269" lon="10.0015013"><ele>507.0</ele><time>2026-05-03T08:25:20.97Z</time></trkpt><trkpt lat="45.7964567" lon="10.0016025"><ele>505.2857142857143</ele><time>2026-05-03T08:25:21.97Z</time></trkpt><trkpt lat="45.796488" lon="10.0016816"><ele>503.57142857142856</ele><time>2026-05-03T08:25:22.969Z</time></trkpt><trkpt lat="45.7965297" lon="10.0018063"><ele>501.85714285714283</ele><time>2026-05-03T08:25:24.967Z</time></trkpt><trkpt lat="45.7965295" lon="10.0019009"><ele>500.1428571428571</ele><time>2026-05-03T08:25:27.968Z</time></trkpt><trkpt lat="45.796456" lon="10.0019032"><ele>498.42857142857144</ele><time>2026-05-03T08:25:51.977Z</time></trkpt><trkpt lat="45.7963932" lon="10.0018953"><ele>496.71428571428567</ele><time>2026-05-03T08:25:53.976Z</time></trkpt><trkpt lat="45.7963137" lon="10.0018893"><ele>494.99999999999994</ele><time>2026-05-03T08:25:55.984Z</time></trkpt><trkpt lat="45.7961888" lon="10.0018491"><ele>495.0</ele><time>2026-05-03T08:25:57.962Z</time></trkpt><trkpt lat="45.7961198" lon="10.0018336"><ele>495.0</ele><time>2026-05-03T08:25:58.984Z</time></trkpt><trkpt lat="45.7960418" lon="10.0018243"><ele>495.0</ele><time>2026-05-03T08:25:59.968Z</time></trkpt><trkpt lat="45.7959613" lon="10.0018198"><ele>495.0</ele><time>2026-05-03T08:26:00.966Z</time></trkpt><trkpt lat="45.7958899" lon="10.0018215"><ele>495.0</ele><time>2026-05-03T08:26:01.968Z</time></trkpt><trkpt lat="45.7958208" lon="10.0018347"><ele>495.0</ele><time>2026-05-03T08:26:02.969Z</time></trkpt><trkpt lat="45.7957276" lon="10.0019199"><ele>490.6666666666667</ele><time>2026-05-03T08:26:04.97Z</time></trkpt><trkpt lat="45.7957035" lon="10.0020078"><ele>486.33333333333337</ele><time>2026-05-03T08:26:05.964Z</time></trkpt><trkpt lat="45.7957322" lon="10.0021099"><ele>482.0</ele><time>2026-05-03T08:26:06.979Z</time></trkpt><trkpt lat="45.7957631" lon="10.0021981"><ele>477.6666666666667</ele><time>2026-05-03T08:26:07.961Z</time></trkpt><trkpt lat="45.7958002" lon="10.0023481"><ele>473.33333333333337</ele><time>2026-05-03T08:26:09.95Z</time></trkpt><trkpt lat="45.7957473" lon="10.0024452"><ele>469.0</ele><time>2026-05-03T08:26:11.965Z</time></trkpt><trkpt lat="45.7956478" lon="10.0023467"><ele>469.00000000000006</ele><time>2026-05-03T08:26:13.977Z</time></trkpt><trkpt lat="45.7956121" lon="10.0022693"><ele>469.0</ele><time>2026-05-03T08:26:14.974Z</time></trkpt><trkpt lat="45.7955755" lon="10.0021876"><ele>469.0</ele><time>2026-05-03T08:26:15.97Z</time></trkpt><trkpt lat="45.7955333" lon="10.0021116"><ele>469.0</ele><time>2026-05-03T08:26:16.978Z</time></trkpt><trkpt lat="45.7954863" lon="10.0020215"><ele>469.00000000000006</ele><time>2026-05-03T08:26:17.977Z</time></trkpt><trkpt lat="45.7954319" lon="10.0019279"><ele>469.0</ele><time>2026-05-03T08:26:18.969Z</time></trkpt><trkpt lat="45.795379" lon="10.0018163"><ele>469.0</ele><time>2026-05-03T08:26:19.972Z</time></trkpt><trkpt lat="45.7953498" lon="10.0016941"><ele>469.0</ele><time>2026-05-03T08:26:20.973Z</time></trkpt><trkpt lat="45.7953326" lon="10.0015578"><ele>469.0</ele><time>2026-05-03T08:26:21.973Z</time></trkpt><trkpt lat="45.7953206" lon="10.0014194"><ele>469.0</ele><time>2026-05-03T08:26:22.97Z</time></trkpt><trkpt lat="45.7952943" lon="10.0012732"><ele>469.0</ele><time>2026-05-03T08:26:23.968Z</time></trkpt><trkpt lat="45.7952589" lon="10.0011205"><ele>471.6</ele><time>2026-05-03T08:26:24.952Z</time></trkpt><trkpt lat="45.7952313" lon="10.000976"><ele>474.2</ele><time>2026-05-03T08:26:25.97Z</time></trkpt><trkpt lat="45.7952049" lon="10.0008317"><ele>476.80000000000007</ele><time>2026-05-03T08:26:26.968Z</time></trkpt><trkpt lat="45.795181" lon="10.0006842"><ele>479.40000000000003</ele><time>2026-05-03T08:26:27.961Z</time></trkpt><trkpt lat="45.7951652" lon="10.0005336"><ele>482.0</ele><time>2026-05-03T08:26:28.973Z</time></trkpt><trkpt lat="45.7951377" lon="10.0003757"><ele>472.75</ele><time>2026-05-03T08:26:29.966Z</time></trkpt><trkpt lat="45.7950926" lon="10.0002184"><ele>463.5</ele><time>2026-05-03T08:26:30.979Z</time></trkpt><trkpt lat="45.7950495" lon="10.0000582"><ele>454.25</ele><time>2026-05-03T08:26:31.968Z</time></trkpt><trkpt lat="45.7950094" lon="9.9999017"><ele>445.0</ele><time>2026-05-03T08:26:32.964Z</time></trkpt><trkpt lat="45.7949586" lon="9.9997448"><ele>445.0</ele><time>2026-05-03T08:26:33.955Z</time></trkpt><trkpt lat="45.7949135" lon="9.9995848"><ele>445.0</ele><time>2026-05-03T08:26:34.959Z</time></trkpt><trkpt lat="45.7948609" lon="9.9994373"><ele>445.0</ele><time>2026-05-03T08:26:35.975Z</time></trkpt><trkpt lat="45.7947773" lon="9.9993084"><ele>445.0</ele><time>2026-05-03T08:26:36.979Z</time></trkpt><trkpt lat="45.7946735" lon="9.9991953"><ele>445.25</ele><time>2026-05-03T08:26:37.964Z</time></trkpt><trkpt lat="45.794576" lon="9.9990833"><ele>445.5</ele><time>2026-05-03T08:26:38.965Z</time></trkpt><trkpt lat="45.7944743" lon="9.9990108"><ele>445.75</ele><time>2026-05-03T08:26:39.968Z</time></trkpt><trkpt lat="45.7943631" lon="9.9989771"><ele>446.0</ele><time>2026-05-03T08:26:40.959Z</time></trkpt><trkpt lat="45.7942401" lon="9.998944"><ele>440.75</ele><time>2026-05-03T08:26:41.948Z</time></trkpt><trkpt lat="45.7941242" lon="9.9988956"><ele>435.5</ele><time>2026-05-03T08:26:42.962Z</time></trkpt><trkpt lat="45.7940108" lon="9.9988316"><ele>430.25</ele><time>2026-05-03T08:26:43.964Z</time></trkpt><trkpt lat="45.7939024" lon="9.9987434"><ele>425.0</ele><time>2026-05-03T08:26:44.965Z</time></trkpt><trkpt lat="45.7938033" lon="9.9986325"><ele>425.0</ele><time>2026-05-03T08:26:45.969Z</time></trkpt><trkpt lat="45.7936897" lon="9.9985456"><ele>425.0</ele><time>2026-05-03T08:26:46.948Z</time></trkpt><trkpt lat="45.7935633" lon="9.9985088"><ele>425.0</ele><time>2026-05-03T08:26:47.969Z</time></trkpt><trkpt lat="45.7934338" lon="9.9984785"><ele>425.0</ele><time>2026-05-03T08:26:48.972Z</time></trkpt><trkpt lat="45.793314" lon="9.9984244"><ele>424.4</ele><time>2026-05-03T08:26:49.965Z</time></trkpt><trkpt lat="45.7932099" lon="9.9983529"><ele>423.8</ele><time>2026-05-03T08:26:50.966Z</time></trkpt><trkpt lat="45.7931219" lon="9.9982846"><ele>423.20000000000005</ele><time>2026-05-03T08:26:51.961Z</time></trkpt><trkpt lat="45.7930423" lon="9.9982026"><ele>422.6</ele><time>2026-05-03T08:26:52.97Z</time></trkpt><trkpt lat="45.7929809" lon="9.9981019"><ele>422.0</ele><time>2026-05-03T08:26:53.962Z</time></trkpt><trkpt lat="45.792936" lon="9.9979908"><ele>420.3333333333333</ele><time>2026-05-03T08:26:54.97Z</time></trkpt><trkpt lat="45.7928935" lon="9.9978952"><ele>418.66666666666663</ele><time>2026-05-03T08:26:55.945Z</time></trkpt><trkpt lat="45.7928601" lon="9.9977927"><ele>417.0</ele><time>2026-05-03T08:26:56.976Z</time></trkpt><trkpt lat="45.7928287" lon="9.9976909"><ele>415.33333333333337</ele><time>2026-05-03T08:26:57.97Z</time></trkpt><trkpt lat="45.7928021" lon="9.9975957"><ele>413.6666666666667</ele><time>2026-05-03T08:26:58.965Z</time></trkpt><trkpt lat="45.7927715" lon="9.9975133"><ele>412.0</ele><time>2026-05-03T08:26:59.966Z</time></trkpt><trkpt lat="45.7926894" lon="9.9974243"><ele>410.0</ele><time>2026-05-03T08:27:01.968Z</time></trkpt><trkpt lat="45.7926063" lon="9.9974873"><ele>408.0</ele><time>2026-05-03T08:27:03.973Z</time></trkpt><trkpt lat="45.7924998" lon="9.9975804"><ele>406.0</ele><time>2026-05-03T08:27:05.975Z</time></trkpt><trkpt lat="45.7924145" lon="9.9975626"><ele>404.0</ele><time>2026-05-03T08:27:06.974Z</time></trkpt><trkpt lat="45.7923418" lon="9.9975402"><ele>402.0</ele><time>2026-05-03T08:27:07.97Z</time></trkpt><trkpt lat="45.7922604" lon="9.9975031"><ele>402.0</ele><time>2026-05-03T08:27:08.964Z</time></trkpt><trkpt lat="45.7921844" lon="9.9974727"><ele>402.0</ele><time>2026-05-03T08:27:09.972Z</time></trkpt><trkpt lat="45.7920835" lon="9.9974241"><ele>402.0</ele><time>2026-05-03T08:27:11.965Z</time></trkpt><trkpt lat="45.7920148" lon="9.9973856"><ele>402.0</ele><time>2026-05-03T08:27:14.965Z</time></trkpt><trkpt lat="45.7919586" lon="9.997466"><ele>402.0</ele><time>2026-05-03T08:27:16.964Z</time></trkpt><trkpt lat="45.7918874" lon="9.9975717"><ele>402.0</ele><time>2026-05-03T08:27:18.976Z</time></trkpt><trkpt lat="45.7917913" lon="9.9977023"><ele>398.20000000000005</ele><time>2026-05-03T08:27:20.966Z</time></trkpt><trkpt lat="45.7917253" lon="9.9977613"><ele>394.4</ele><time>2026-05-03T08:27:21.966Z</time></trkpt><trkpt lat="45.7916377" lon="9.9977967"><ele>390.6</ele><time>2026-05-03T08:27:22.969Z</time></trkpt><trkpt lat="45.7915474" lon="9.9978422"><ele>386.79999999999995</ele><time>2026-05-03T08:27:23.967Z</time></trkpt><trkpt lat="45.7914542" lon="9.9978858"><ele>383.0</ele><time>2026-05-03T08:27:24.967Z</time></trkpt><trkpt lat="45.7913574" lon="9.9979449"><ele>383.0</ele><time>2026-05-03T08:27:25.959Z</time></trkpt><trkpt lat="45.791256" lon="9.9980141"><ele>383.0</ele><time>2026-05-03T08:27:26.974Z</time></trkpt><trkpt lat="45.7911473" lon="9.9980725"><ele>383.0</ele><time>2026-05-03T08:27:27.957Z</time></trkpt><trkpt lat="45.7910393" lon="9.9981364"><ele>383.0</ele><time>2026-05-03T08:27:28.973Z</time></trkpt><trkpt lat="45.7909339" lon="9.998197"><ele>381.2</ele><time>2026-05-03T08:27:29.97Z</time></trkpt><trkpt lat="45.7908412" lon="9.9982483"><ele>379.4</ele><time>2026-05-03T08:27:30.974Z</time></trkpt><trkpt lat="45.7907567" lon="9.9982989"><ele>377.59999999999997</ele><time>2026-05-03T08:27:31.965Z</time></trkpt><trkpt lat="45.7906746" lon="9.9983519"><ele>375.79999999999995</ele><time>2026-05-03T08:27:32.972Z</time></trkpt><trkpt lat="45.790592" lon="9.9984011"><ele>374.0</ele><time>2026-05-03T08:27:33.976Z</time></trkpt><trkpt lat="45.7905075" lon="9.9984508"><ele>373.4</ele><time>2026-05-03T08:27:34.975Z</time></trkpt><trkpt lat="45.7904228" lon="9.9984974"><ele>372.79999999999995</ele><time>2026-05-03T08:27:35.977Z</time></trkpt><trkpt lat="45.7903393" lon="9.9985383"><ele>372.20000000000005</ele><time>2026-05-03T08:27:36.97Z</time></trkpt><trkpt lat="45.7902514" lon="9.9985886"><ele>371.6</ele><time>2026-05-03T08:27:37.973Z</time></trkpt><trkpt lat="45.7901612" lon="9.9986445"><ele>371.0</ele><time>2026-05-03T08:27:38.972Z</time></trkpt><trkpt lat="45.7900692" lon="9.9986933"><ele>369.6</ele><time>2026-05-03T08:27:39.942Z</time></trkpt><trkpt lat="45.7899751" lon="9.9987438"><ele>368.20000000000005</ele><time>2026-05-03T08:27:40.963Z</time></trkpt><trkpt lat="45.7898876" lon="9.998793"><ele>366.79999999999995</ele><time>2026-05-03T08:27:41.969Z</time></trkpt><trkpt lat="45.789794" lon="9.9988401"><ele>365.4</ele><time>2026-05-03T08:27:42.97Z</time></trkpt><trkpt lat="45.7896971" lon="9.9989016"><ele>364.0</ele><time>2026-05-03T08:27:43.972Z</time></trkpt><trkpt lat="45.7896016" lon="9.9989535"><ele>364.0</ele><time>2026-05-03T08:27:44.97Z</time></trkpt><trkpt lat="45.7894962" lon="9.999004"><ele>364.0</ele><time>2026-05-03T08:27:45.965Z</time></trkpt><trkpt lat="45.7893982" lon="9.9990589"><ele>364.0</ele><time>2026-05-03T08:27:46.97Z</time></trkpt><trkpt lat="45.7892975" lon="9.9991199"><ele>364.0</ele><time>2026-05-03T08:27:47.965Z</time></trkpt><trkpt lat="45.7892053" lon="9.9991827"><ele>364.0</ele><time>2026-05-03T08:27:48.974Z</time></trkpt><trkpt lat="45.7891121" lon="9.9992294"><ele>362.2</ele><time>2026-05-03T08:27:49.968Z</time></trkpt><trkpt lat="45.7890279" lon="9.9992835"><ele>360.4</ele><time>2026-05-03T08:27:50.972Z</time></trkpt><trkpt lat="45.7889458" lon="9.9993289"><ele>358.6</ele><time>2026-05-03T08:27:51.976Z</time></trkpt><trkpt lat="45.7888725" lon="9.999365"><ele>356.8</ele><time>2026-05-03T08:27:52.968Z</time></trkpt><trkpt lat="45.7888049" lon="9.9994035"><ele>355.0</ele><time>2026-05-03T08:27:53.966Z</time></trkpt><trkpt lat="45.7886952" lon="9.9994709"><ele>355.0</ele><time>2026-05-03T08:27:55.98Z</time></trkpt><trkpt lat="45.788592" lon="9.999519"><ele>355.0</ele><time>2026-05-03T08:27:57.97Z</time></trkpt><trkpt lat="45.7885357" lon="9.9995629"><ele>355.0</ele><time>2026-05-03T08:27:59.971Z</time></trkpt><trkpt lat="45.7884717" lon="9.9996059"><ele>355.0</ele><time>2026-05-03T08:28:02.97Z</time></trkpt><trkpt lat="45.7884014" lon="9.999512"><ele>355.0</ele><time>2026-05-03T08:28:10.963Z</time></trkpt><trkpt lat="45.7883672" lon="9.999418"><ele>355.0</ele><time>2026-05-03T08:28:12.978Z</time></trkpt><trkpt lat="45.7883006" lon="9.9992725"><ele>354.5</ele><time>2026-05-03T08:28:14.949Z</time></trkpt><trkpt lat="45.7882277" lon="9.9991341"><ele>354.0</ele><time>2026-05-03T08:28:16.966Z</time></trkpt><trkpt lat="45.7881884" lon="9.9990626"><ele>353.5</ele><time>2026-05-03T08:28:17.957Z</time></trkpt><trkpt lat="45.78815" lon="9.9989888"><ele>353.0</ele><time>2026-05-03T08:28:18.971Z</time></trkpt><trkpt lat="45.7881167" lon="9.9989106"><ele>352.5</ele><time>2026-05-03T08:28:19.961Z</time></trkpt><trkpt lat="45.7880817" lon="9.998827"><ele>352.0</ele><time>2026-05-03T08:28:20.973Z</time></trkpt><trkpt lat="45.7880509" lon="9.9987361"><ele>352.0</ele><time>2026-05-03T08:28:21.975Z</time></trkpt><trkpt lat="45.7880252" lon="9.9986379"><ele>352.0</ele><time>2026-05-03T08:28:22.974Z</time></trkpt><trkpt lat="45.7880057" lon="9.998536"><ele>352.0</ele><time>2026-05-03T08:28:23.98Z</time></trkpt><trkpt lat="45.7879911" lon="9.998437"><ele>352.0</ele><time>2026-05-03T08:28:24.955Z</time></trkpt><trkpt lat="45.7879812" lon="9.9983358"><ele>352.0</ele><time>2026-05-03T08:28:25.964Z</time></trkpt><trkpt lat="45.787978" lon="9.9982412"><ele>352.0</ele><time>2026-05-03T08:28:26.978Z</time></trkpt><trkpt lat="45.7879836" lon="9.9981391"><ele>352.0</ele><time>2026-05-03T08:28:27.982Z</time></trkpt><trkpt lat="45.7879854" lon="9.9980344"><ele>351.8571428571429</ele><time>2026-05-03T08:28:28.977Z</time></trkpt><trkpt lat="45.7879818" lon="9.9979339"><ele>351.7142857142857</ele><time>2026-05-03T08:28:29.962Z</time></trkpt><trkpt lat="45.7879857" lon="9.9978368"><ele>351.57142857142856</ele><time>2026-05-03T08:28:30.982Z</time></trkpt><trkpt lat="45.787992" lon="9.9977409"><ele>351.42857142857144</ele><time>2026-05-03T08:28:31.969Z</time></trkpt><trkpt lat="45.7880021" lon="9.9976428"><ele>351.2857142857143</ele><time>2026-05-03T08:28:32.967Z</time></trkpt><trkpt lat="45.788004" lon="9.9975402"><ele>351.14285714285717</ele><time>2026-05-03T08:28:33.978Z</time></trkpt><trkpt lat="45.7880069" lon="9.9974366"><ele>351.0</ele><time>2026-05-03T08:28:34.983Z</time></trkpt><trkpt lat="45.7880112" lon="9.9973319"><ele>350.7142857142857</ele><time>2026-05-03T08:28:35.979Z</time></trkpt><trkpt lat="45.7880127" lon="9.9972237"><ele>350.42857142857144</ele><time>2026-05-03T08:28:36.97Z</time></trkpt><trkpt lat="45.7880195" lon="9.9971141"><ele>350.1428571428571</ele><time>2026-05-03T08:28:37.97Z</time></trkpt><trkpt lat="45.7880219" lon="9.9970129"><ele>349.8571428571429</ele><time>2026-05-03T08:28:38.98Z</time></trkpt><trkpt lat="45.7879996" lon="9.9969194"><ele>349.57142857142856</ele><time>2026-05-03T08:28:39.982Z</time></trkpt><trkpt lat="45.7879443" lon="9.9968398"><ele>349.2857142857143</ele><time>2026-05-03T08:28:40.967Z</time></trkpt><trkpt lat="45.7878749" lon="9.9968016"><ele>349.0</ele><time>2026-05-03T08:28:41.961Z</time></trkpt><trkpt lat="45.7878107" lon="9.9967587"><ele>348.99999999999994</ele><time>2026-05-03T08:28:42.966Z</time></trkpt><trkpt lat="45.787747" lon="9.9967017"><ele>349.0</ele><time>2026-05-03T08:28:43.968Z</time></trkpt><trkpt lat="45.7876857" lon="9.9966467"><ele>349.0</ele><time>2026-05-03T08:28:44.967Z</time></trkpt><trkpt lat="45.787631" lon="9.9965844"><ele>349.0</ele><time>2026-05-03T08:28:45.979Z</time></trkpt><trkpt lat="45.7875767" lon="9.9965319"><ele>349.0</ele><time>2026-05-03T08:28:46.956Z</time></trkpt><trkpt lat="45.787518" lon="9.9964768"><ele>348.99999999999994</ele><time>2026-05-03T08:28:47.98Z</time></trkpt><trkpt lat="45.7874645" lon="9.9964201"><ele>349.0</ele><time>2026-05-03T08:28:48.972Z</time></trkpt><trkpt lat="45.7873749" lon="9.9963065"><ele>348.5</ele><time>2026-05-03T08:28:50.969Z</time></trkpt><trkpt lat="45.7873247" lon="9.9962508"><ele>348.0</ele><time>2026-05-03T08:28:51.982Z</time></trkpt><trkpt lat="45.787273" lon="9.9961985"><ele>347.5</ele><time>2026-05-03T08:28:52.969Z</time></trkpt><trkpt lat="45.7871785" lon="9.9960837"><ele>347.0</ele><time>2026-05-03T08:28:54.988Z</time></trkpt><trkpt lat="45.7871253" lon="9.9960301"><ele>346.5</ele><time>2026-05-03T08:28:55.968Z</time></trkpt><trkpt lat="45.7870336" lon="9.9959279"><ele>346.0</ele><time>2026-05-03T08:28:57.979Z</time></trkpt><trkpt lat="45.7869843" lon="9.9958715"><ele>346.25</ele><time>2026-05-03T08:28:58.97Z</time></trkpt><trkpt lat="45.7868844" lon="9.9957629"><ele>346.5</ele><time>2026-05-03T08:29:00.982Z</time></trkpt><trkpt lat="45.7867901" lon="9.9956404"><ele>346.75</ele><time>2026-05-03T08:29:02.974Z</time></trkpt><trkpt lat="45.7867047" lon="9.9955079"><ele>347.0</ele><time>2026-05-03T08:29:04.971Z</time></trkpt><trkpt lat="45.7866251" lon="9.9953801"><ele>347.0</ele><time>2026-05-03T08:29:06.966Z</time></trkpt><trkpt lat="45.7865628" lon="9.995246"><ele>347.0</ele><time>2026-05-03T08:29:09.028Z</time></trkpt><trkpt lat="45.7865118" lon="9.9951019"><ele>347.0</ele><time>2026-05-03T08:29:11.001Z</time></trkpt><trkpt lat="45.7864842" lon="9.994943"><ele>347.0</ele><time>2026-05-03T08:29:12.962Z</time></trkpt><trkpt lat="45.7864543" lon="9.9947963"><ele>347.0</ele><time>2026-05-03T08:29:15.049Z</time></trkpt><trkpt lat="45.7864362" lon="9.9946524"><ele>346.83333333333337</ele><time>2026-05-03T08:29:16.967Z</time></trkpt><trkpt lat="45.7864238" lon="9.9945137"><ele>346.6666666666667</ele><time>2026-05-03T08:29:18.976Z</time></trkpt><trkpt lat="45.7864053" lon="9.9943849"><ele>346.5</ele><time>2026-05-03T08:29:21.039Z</time></trkpt><trkpt lat="45.786379" lon="9.9942746"><ele>346.3333333333333</ele><time>2026-05-03T08:29:22.955Z</time></trkpt><trkpt lat="45.7863583" lon="9.9941794"><ele>346.16666666666663</ele><time>2026-05-03T08:29:25.048Z</time></trkpt><trkpt lat="45.7863482" lon="9.9940825"><ele>346.0</ele><time>2026-05-03T08:29:28.948Z</time></trkpt><trkpt lat="45.7863841" lon="9.9940037"><ele>346.0</ele><time>2026-05-03T08:29:44.956Z</time></trkpt><trkpt lat="45.7863753" lon="9.9938856"><ele>346.0</ele><time>2026-05-03T08:29:47.973Z</time></trkpt><trkpt lat="45.7863559" lon="9.993792"><ele>346.0</ele><time>2026-05-03T08:29:50.032Z</time></trkpt><trkpt lat="45.7863358" lon="9.9937048"><ele>346.0</ele><time>2026-05-03T08:29:51.965Z</time></trkpt><trkpt lat="45.7863143" lon="9.9936099"><ele>346.0</ele><time>2026-05-03T08:29:53.96Z</time></trkpt><trkpt lat="45.7862953" lon="9.9935091"><ele>346.0</ele><time>2026-05-03T08:29:55.962Z</time></trkpt><trkpt lat="45.7862718" lon="9.9934029"><ele>346.0</ele><time>2026-05-03T08:29:57.967Z</time></trkpt><trkpt lat="45.7862533" lon="9.9932856"><ele>345.6</ele><time>2026-05-03T08:29:59.961Z</time></trkpt><trkpt lat="45.7862581" lon="9.9931645"><ele>345.20000000000005</ele><time>2026-05-03T08:30:01.96Z</time></trkpt><trkpt lat="45.7862876" lon="9.9930284"><ele>344.79999999999995</ele><time>2026-05-03T08:30:03.962Z</time></trkpt><trkpt lat="45.7863332" lon="9.9928896"><ele>344.4</ele><time>2026-05-03T08:30:06.038Z</time></trkpt><trkpt lat="45.7863604" lon="9.9927192"><ele>344.0</ele><time>2026-05-03T08:30:07.977Z</time></trkpt><trkpt lat="45.7863539" lon="9.9925684"><ele>343.5</ele><time>2026-05-03T08:30:10.032Z</time></trkpt><trkpt lat="45.7863156" lon="9.9924149"><ele>343.0</ele><time>2026-05-03T08:30:11.961Z</time></trkpt><trkpt lat="45.7862624" lon="9.9922564"><ele>342.5</ele><time>2026-05-03T08:30:13.965Z</time></trkpt><trkpt lat="45.7862231" lon="9.9921079"><ele>342.0</ele><time>2026-05-03T08:30:16.037Z</time></trkpt><trkpt lat="45.7862082" lon="9.9919569"><ele>342.0</ele><time>2026-05-03T08:30:17.968Z</time></trkpt><trkpt lat="45.7862027" lon="9.9917949"><ele>342.0</ele><time>2026-05-03T08:30:20.035Z</time></trkpt><trkpt lat="45.7862148" lon="9.9916211"><ele>342.0</ele><time>2026-05-03T08:30:21.951Z</time></trkpt><trkpt lat="45.7862273" lon="9.9915261"><ele>342.0</ele><time>2026-05-03T08:30:22.965Z</time></trkpt><trkpt lat="45.7862529" lon="9.991438"><ele>342.0</ele><time>2026-05-03T08:30:23.956Z</time></trkpt><trkpt lat="45.786316" lon="9.9912904"><ele>341.25</ele><time>2026-05-03T08:30:26.031Z</time></trkpt><trkpt lat="45.786386" lon="9.9911667"><ele>340.5</ele><time>2026-05-03T08:30:28.026Z</time></trkpt><trkpt lat="45.7864435" lon="9.99102"><ele>339.75</ele><time>2026-05-03T08:30:30.036Z</time></trkpt><trkpt lat="45.7864716" lon="9.9908511"><ele>339.0</ele><time>2026-05-03T08:30:31.955Z</time></trkpt><trkpt lat="45.7864934" lon="9.9906836"><ele>339.0</ele><time>2026-05-03T08:30:33.962Z</time></trkpt><trkpt lat="45.7865211" lon="9.9905209"><ele>339.0</ele><time>2026-05-03T08:30:35.964Z</time></trkpt><trkpt lat="45.7865291" lon="9.9903425"><ele>339.0</ele><time>2026-05-03T08:30:38.031Z</time></trkpt><trkpt lat="45.7865345" lon="9.9902403"><ele>339.0</ele><time>2026-05-03T08:30:39.045Z</time></trkpt><trkpt lat="45.7865386" lon="9.9901363"><ele>339.0</ele><time>2026-05-03T08:30:40.036Z</time></trkpt><trkpt lat="45.7865401" lon="9.9900448"><ele>339.0</ele><time>2026-05-03T08:30:40.974Z</time></trkpt><trkpt lat="45.786539" lon="9.9899493"><ele>339.2</ele><time>2026-05-03T08:30:41.952Z</time></trkpt><trkpt lat="45.7865331" lon="9.9898585"><ele>339.4</ele><time>2026-05-03T08:30:42.973Z</time></trkpt><trkpt lat="45.7864939" lon="9.9896943"><ele>339.6</ele><time>2026-05-03T08:30:44.973Z</time></trkpt><trkpt lat="45.7864461" lon="9.9895391"><ele>339.8</ele><time>2026-05-03T08:30:46.972Z</time></trkpt><trkpt lat="45.7863952" lon="9.9893871"><ele>340.0</ele><time>2026-05-03T08:30:49.022Z</time></trkpt><trkpt lat="45.7863456" lon="9.9892318"><ele>339.6</ele><time>2026-05-03T08:30:50.971Z</time></trkpt><trkpt lat="45.786292" lon="9.9890888"><ele>339.2</ele><time>2026-05-03T08:30:52.977Z</time></trkpt><trkpt lat="45.7862622" lon="9.9890092"><ele>338.79999999999995</ele><time>2026-05-03T08:30:53.977Z</time></trkpt><trkpt lat="45.7861971" lon="9.9888604"><ele>338.4</ele><time>2026-05-03T08:30:55.974Z</time></trkpt><trkpt lat="45.7861607" lon="9.9887846"><ele>338.0</ele><time>2026-05-03T08:30:56.979Z</time></trkpt><trkpt lat="45.7860906" lon="9.9886461"><ele>338.0</ele><time>2026-05-03T08:30:58.968Z</time></trkpt><trkpt lat="45.7860384" lon="9.9884921"><ele>338.0</ele><time>2026-05-03T08:31:00.978Z</time></trkpt><trkpt lat="45.7860123" lon="9.9883253"><ele>338.0</ele><time>2026-05-03T08:31:02.98Z</time></trkpt><trkpt lat="45.7860191" lon="9.9881462"><ele>338.0</ele><time>2026-05-03T08:31:05.031Z</time></trkpt><trkpt lat="45.7860362" lon="9.9879725"><ele>338.0</ele><time>2026-05-03T08:31:06.974Z</time></trkpt><trkpt lat="45.7860598" lon="9.987815"><ele>338.0</ele><time>2026-05-03T08:31:09.085Z</time></trkpt><trkpt lat="45.7860853" lon="9.9876624"><ele>338.0</ele><time>2026-05-03T08:31:11.03Z</time></trkpt><trkpt lat="45.7861255" lon="9.9875123"><ele>338.0</ele><time>2026-05-03T08:31:12.971Z</time></trkpt><trkpt lat="45.7861641" lon="9.9873529"><ele>338.0</ele><time>2026-05-03T08:31:15.042Z</time></trkpt><trkpt lat="45.7862256" lon="9.9872022"><ele>338.0</ele><time>2026-05-03T08:31:16.953Z</time></trkpt><trkpt lat="45.7862636" lon="9.9871281"><ele>338.0</ele><time>2026-05-03T08:31:17.963Z</time></trkpt><trkpt lat="45.7863117" lon="9.9870658"><ele>338.0</ele><time>2026-05-03T08:31:18.961Z</time></trkpt><trkpt lat="45.7863613" lon="9.9870089"><ele>338.0</ele><time>2026-05-03T08:31:19.953Z</time></trkpt><trkpt lat="45.7864147" lon="9.9869507"><ele>338.0</ele><time>2026-05-03T08:31:20.961Z</time></trkpt><trkpt lat="45.7865163" lon="9.9868712"><ele>338.0</ele><time>2026-05-03T08:31:22.961Z</time></trkpt><trkpt lat="45.7866323" lon="9.9868282"><ele>338.0</ele><time>2026-05-03T08:31:24.964Z</time></trkpt><trkpt lat="45.7867536" lon="9.9867787"><ele>338.0</ele><time>2026-05-03T08:31:26.949Z</time></trkpt><trkpt lat="45.786814" lon="9.9867531"><ele>338.0</ele><time>2026-05-03T08:31:27.939Z</time></trkpt><trkpt lat="45.7868819" lon="9.9867274"><ele>338.0</ele><time>2026-05-03T08:31:28.938Z</time></trkpt><trkpt lat="45.7869599" lon="9.9867059"><ele>338.0</ele><time>2026-05-03T08:31:29.946Z</time></trkpt><trkpt lat="45.787036" lon="9.9866873"><ele>338.0</ele><time>2026-05-03T08:31:30.937Z</time></trkpt><trkpt lat="45.7870993" lon="9.9866804"><ele>338.0</ele><time>2026-05-03T08:31:31.936Z</time></trkpt><trkpt lat="45.787206" lon="9.9866575"><ele>338.0</ele><time>2026-05-03T08:31:33.942Z</time></trkpt><trkpt lat="45.7872632" lon="9.9866104"><ele>338.0</ele><time>2026-05-03T08:31:34.939Z</time></trkpt><trkpt lat="45.7873121" lon="9.9865452"><ele>338.0</ele><time>2026-05-03T08:31:35.955Z</time></trkpt><trkpt lat="45.7873838" lon="9.9864237"><ele>338.0</ele><time>2026-05-03T08:31:37.951Z</time></trkpt><trkpt lat="45.7874309" lon="9.9863601"><ele>338.0</ele><time>2026-05-03T08:31:38.944Z</time></trkpt><trkpt lat="45.7874783" lon="9.9862921"><ele>338.0</ele><time>2026-05-03T08:31:39.942Z</time></trkpt><trkpt lat="45.7875252" lon="9.9862318"><ele>338.0</ele><time>2026-05-03T08:31:40.949Z</time></trkpt><trkpt lat="45.7875719" lon="9.9861707"><ele>338.0</ele><time>2026-05-03T08:31:41.954Z</time></trkpt><trkpt lat="45.7876164" lon="9.9861029"><ele>338.0</ele><time>2026-05-03T08:31:42.956Z</time></trkpt><trkpt lat="45.7876628" lon="9.9860409"><ele>338.0</ele><time>2026-05-03T08:31:43.951Z</time></trkpt><trkpt lat="45.7877104" lon="9.9859739"><ele>338.25</ele><time>2026-05-03T08:31:44.954Z</time></trkpt><trkpt lat="45.7877942" lon="9.9858621"><ele>338.5</ele><time>2026-05-03T08:31:46.965Z</time></trkpt><trkpt lat="45.7878675" lon="9.9857387"><ele>338.75</ele><time>2026-05-03T08:31:48.95Z</time></trkpt><trkpt lat="45.7879455" lon="9.9856128"><ele>339.0</ele><time>2026-05-03T08:31:50.943Z</time></trkpt><trkpt lat="45.7880131" lon="9.9854887"><ele>339.0</ele><time>2026-05-03T08:31:52.963Z</time></trkpt><trkpt lat="45.7880856" lon="9.9853806"><ele>339.0</ele><time>2026-05-03T08:31:54.964Z</time></trkpt><trkpt lat="45.7881517" lon="9.9852948"><ele>339.0</ele><time>2026-05-03T08:31:56.974Z</time></trkpt><trkpt lat="45.7882237" lon="9.9851909"><ele>339.0</ele><time>2026-05-03T08:31:59.039Z</time></trkpt><trkpt lat="45.7882726" lon="9.985133"><ele>339.0</ele><time>2026-05-03T08:32:00.97Z</time></trkpt><trkpt lat="45.7883188" lon="9.9850375"><ele>339.0</ele><time>2026-05-03T08:32:02.986Z</time></trkpt><trkpt lat="45.7883375" lon="9.9849458"><ele>339.6</ele><time>2026-05-03T08:32:03.964Z</time></trkpt><trkpt lat="45.7883735" lon="9.9847975"><ele>340.2</ele><time>2026-05-03T08:32:05.982Z</time></trkpt><trkpt lat="45.7883969" lon="9.9846814"><ele>340.8</ele><time>2026-05-03T08:32:07.977Z</time></trkpt><trkpt lat="45.7884469" lon="9.984554"><ele>341.40000000000003</ele><time>2026-05-03T08:32:09.971Z</time></trkpt><trkpt lat="45.7885046" lon="9.9844214"><ele>342.0</ele><time>2026-05-03T08:32:11.967Z</time></trkpt><trkpt lat="45.7885476" lon="9.9842979"><ele>340.8</ele><time>2026-05-03T08:32:13.948Z</time></trkpt><trkpt lat="45.7885831" lon="9.9841521"><ele>339.6</ele><time>2026-05-03T08:32:16.035Z</time></trkpt><trkpt lat="45.7886224" lon="9.9840098"><ele>338.40000000000003</ele><time>2026-05-03T08:32:17.985Z</time></trkpt><trkpt lat="45.7886683" lon="9.9838675"><ele>337.20000000000005</ele><time>2026-05-03T08:32:19.967Z</time></trkpt><trkpt lat="45.7886893" lon="9.9837813"><ele>336.0</ele><time>2026-05-03T08:32:20.97Z</time></trkpt><trkpt lat="45.7887277" lon="9.9836492"><ele>336.0</ele><time>2026-05-03T08:32:23.04Z</time></trkpt><trkpt lat="45.7887751" lon="9.9835026"><ele>336.0</ele><time>2026-05-03T08:32:25.036Z</time></trkpt><trkpt lat="45.7888269" lon="9.983355"><ele>336.0</ele><time>2026-05-03T08:32:26.959Z</time></trkpt><trkpt lat="45.7888662" lon="9.9832099"><ele>336.0</ele><time>2026-05-03T08:32:29.023Z</time></trkpt><trkpt lat="45.7889128" lon="9.9830619"><ele>336.0</ele><time>2026-05-03T08:32:31.036Z</time></trkpt><trkpt lat="45.7889572" lon="9.9829173"><ele>336.0</ele><time>2026-05-03T08:32:32.959Z</time></trkpt><trkpt lat="45.7889968" lon="9.9827666"><ele>336.0</ele><time>2026-05-03T08:32:35.034Z</time></trkpt><trkpt lat="45.7890376" lon="9.9826163"><ele>336.0</ele><time>2026-05-03T08:32:36.965Z</time></trkpt><trkpt lat="45.7890667" lon="9.9824621"><ele>336.0</ele><time>2026-05-03T08:32:38.963Z</time></trkpt><trkpt lat="45.7890982" lon="9.9822969"><ele>336.4</ele><time>2026-05-03T08:32:40.996Z</time></trkpt><trkpt lat="45.7891365" lon="9.9821395"><ele>336.8</ele><time>2026-05-03T08:32:42.963Z</time></trkpt><trkpt lat="45.7891756" lon="9.9819857"><ele>337.2</ele><time>2026-05-03T08:32:44.969Z</time></trkpt><trkpt lat="45.7891967" lon="9.981832"><ele>337.59999999999997</ele><time>2026-05-03T08:32:46.967Z</time></trkpt><trkpt lat="45.7892294" lon="9.981701"><ele>338.0</ele><time>2026-05-03T08:32:49.032Z</time></trkpt><trkpt lat="45.7892519" lon="9.9815565"><ele>338.2</ele><time>2026-05-03T08:32:50.97Z</time></trkpt><trkpt lat="45.7892662" lon="9.9814096"><ele>338.4</ele><time>2026-05-03T08:32:52.962Z</time></trkpt><trkpt lat="45.7892682" lon="9.9812406"><ele>338.59999999999997</ele><time>2026-05-03T08:32:54.964Z</time></trkpt><trkpt lat="45.7892703" lon="9.9811029"><ele>338.79999999999995</ele><time>2026-05-03T08:32:56.965Z</time></trkpt><trkpt lat="45.7892775" lon="9.9809763"><ele>339.0</ele><time>2026-05-03T08:32:58.968Z</time></trkpt><trkpt lat="45.7892583" lon="9.9808798"><ele>339.0</ele><time>2026-05-03T08:33:01.087Z</time></trkpt><trkpt lat="45.7891716" lon="9.9808474"><ele>339.0</ele><time>2026-05-03T08:33:03.976Z</time></trkpt><trkpt lat="45.7890962" lon="9.9808658"><ele>339.0</ele><time>2026-05-03T08:33:05.963Z</time></trkpt><trkpt lat="45.789009" lon="9.9809131"><ele>339.0</ele><time>2026-05-03T08:33:07.968Z</time></trkpt><trkpt lat="45.788925" lon="9.9809742"><ele>339.0</ele><time>2026-05-03T08:33:09.972Z</time></trkpt><trkpt lat="45.7888388" lon="9.981033"><ele>339.0</ele><time>2026-05-03T08:33:11.971Z</time></trkpt><trkpt lat="45.788758" lon="9.9811138"><ele>339.0</ele><time>2026-05-03T08:33:13.953Z</time></trkpt><trkpt lat="45.7886687" lon="9.9811821"><ele>339.0</ele><time>2026-05-03T08:33:15.966Z</time></trkpt><trkpt lat="45.7885697" lon="9.9812552"><ele>339.0</ele><time>2026-05-03T08:33:18.037Z</time></trkpt><trkpt lat="45.7884763" lon="9.9813227"><ele>339.0</ele><time>2026-05-03T08:33:20.05Z</time></trkpt><trkpt lat="45.7883713" lon="9.9813632"><ele>339.0</ele><time>2026-05-03T08:33:21.978Z</time></trkpt><trkpt lat="45.7882636" lon="9.9813732"><ele>339.2</ele><time>2026-05-03T08:33:23.973Z</time></trkpt><trkpt lat="45.7881538" lon="9.9813447"><ele>339.4</ele><time>2026-05-03T08:33:25.962Z</time></trkpt><trkpt lat="45.7880621" lon="9.9812696"><ele>339.6</ele><time>2026-05-03T08:33:27.97Z</time></trkpt><trkpt lat="45.7879722" lon="9.9811759"><ele>339.8</ele><time>2026-05-03T08:33:29.953Z</time></trkpt><trkpt lat="45.7878865" lon="9.981053"><ele>340.0</ele><time>2026-05-03T08:33:31.969Z</time></trkpt><trkpt lat="45.7878121" lon="9.980911"><ele>339.75</ele><time>2026-05-03T08:33:33.977Z</time></trkpt><trkpt lat="45.7877505" lon="9.9807562"><ele>339.5</ele><time>2026-05-03T08:33:35.969Z</time></trkpt><trkpt lat="45.7877053" lon="9.9805939"><ele>339.25</ele><time>2026-05-03T08:33:37.985Z</time></trkpt><trkpt lat="45.7876711" lon="9.9804372"><ele>339.0</ele><time>2026-05-03T08:33:40.034Z</time></trkpt><trkpt lat="45.7876332" lon="9.9802723"><ele>339.0</ele><time>2026-05-03T08:33:41.968Z</time></trkpt><trkpt lat="45.787612" lon="9.9801136"><ele>339.0</ele><time>2026-05-03T08:33:43.995Z</time></trkpt><trkpt lat="45.7875816" lon="9.9799478"><ele>339.0</ele><time>2026-05-03T08:33:46.033Z</time></trkpt><trkpt lat="45.7875676" lon="9.9798579"><ele>339.0</ele><time>2026-05-03T08:33:46.964Z</time></trkpt><trkpt lat="45.7875354" lon="9.9796923"><ele>339.0</ele><time>2026-05-03T08:33:48.951Z</time></trkpt><trkpt lat="45.7875" lon="9.9795331"><ele>338.79999999999995</ele><time>2026-05-03T08:33:51Z</time></trkpt><trkpt lat="45.7874683" lon="9.9793812"><ele>338.59999999999997</ele><time>2026-05-03T08:33:52.973Z</time></trkpt><trkpt lat="45.7874392" lon="9.9792294"><ele>338.4</ele><time>2026-05-03T08:33:54.966Z</time></trkpt><trkpt lat="45.7873982" lon="9.9790783"><ele>338.2</ele><time>2026-05-03T08:33:56.965Z</time></trkpt><trkpt lat="45.787368" lon="9.9789241"><ele>338.0</ele><time>2026-05-03T08:33:59.047Z</time></trkpt><trkpt lat="45.7873371" lon="9.9787596"><ele>338.0</ele><time>2026-05-03T08:34:01.032Z</time></trkpt><trkpt lat="45.7873099" lon="9.9785962"><ele>338.0</ele><time>2026-05-03T08:34:02.964Z</time></trkpt><trkpt lat="45.7872744" lon="9.9784442"><ele>338.0</ele><time>2026-05-03T08:34:04.961Z</time></trkpt><trkpt lat="45.7872441" lon="9.9782884"><ele>338.0</ele><time>2026-05-03T08:34:06.955Z</time></trkpt><trkpt lat="45.7872149" lon="9.9781298"><ele>338.0</ele><time>2026-05-03T08:34:09.034Z</time></trkpt><trkpt lat="45.7871855" lon="9.9779694"><ele>338.0</ele><time>2026-05-03T08:34:11.035Z</time></trkpt><trkpt lat="45.7871599" lon="9.977811"><ele>338.0</ele><time>2026-05-03T08:34:12.977Z</time></trkpt><trkpt lat="45.7871336" lon="9.9776603"><ele>338.0</ele><time>2026-05-03T08:34:14.963Z</time></trkpt><trkpt lat="45.7871059" lon="9.9774939"><ele>337.75</ele><time>2026-05-03T08:34:16.974Z</time></trkpt><trkpt lat="45.7870649" lon="9.9773403"><ele>337.5</ele><time>2026-05-03T08:34:19.034Z</time></trkpt><trkpt lat="45.7870108" lon="9.9771876"><ele>337.25</ele><time>2026-05-03T08:34:21.031Z</time></trkpt><trkpt lat="45.7869564" lon="9.977044"><ele>337.0</ele><time>2026-05-03T08:34:22.964Z</time></trkpt><trkpt lat="45.7869069" lon="9.9768936"><ele>337.0</ele><time>2026-05-03T08:34:25.032Z</time></trkpt><trkpt lat="45.7868823" lon="9.9768102"><ele>337.0</ele><time>2026-05-03T08:34:25.945Z</time></trkpt><trkpt lat="45.7868249" lon="9.976654"><ele>337.0</ele><time>2026-05-03T08:34:27.975Z</time></trkpt><trkpt lat="45.7867703" lon="9.9765097"><ele>337.0</ele><time>2026-05-03T08:34:29.985Z</time></trkpt><trkpt lat="45.7867211" lon="9.9763583"><ele>337.0</ele><time>2026-05-03T08:34:31.967Z</time></trkpt><trkpt lat="45.7866976" lon="9.9762726"><ele>337.0</ele><time>2026-05-03T08:34:32.963Z</time></trkpt><trkpt lat="45.7866536" lon="9.9761113"><ele>337.0</ele><time>2026-05-03T08:34:34.971Z</time></trkpt><trkpt lat="45.7866166" lon="9.9759573"><ele>337.0</ele><time>2026-05-03T08:34:36.969Z</time></trkpt><trkpt lat="45.7865786" lon="9.97579"><ele>337.0</ele><time>2026-05-03T08:34:38.973Z</time></trkpt><trkpt lat="45.7865346" lon="9.9756291"><ele>336.8</ele><time>2026-05-03T08:34:40.97Z</time></trkpt><trkpt lat="45.7864903" lon="9.9754762"><ele>336.6</ele><time>2026-05-03T08:34:42.97Z</time></trkpt><trkpt lat="45.78645" lon="9.9753081"><ele>336.40000000000003</ele><time>2026-05-03T08:34:44.959Z</time></trkpt><trkpt lat="45.7864265" lon="9.9752235"><ele>336.20000000000005</ele><time>2026-05-03T08:34:45.969Z</time></trkpt><trkpt lat="45.7863866" lon="9.9750673"><ele>336.0</ele><time>2026-05-03T08:34:47.966Z</time></trkpt><trkpt lat="45.7863657" lon="9.9749803"><ele>336.0</ele><time>2026-05-03T08:34:48.961Z</time></trkpt><trkpt lat="45.7863243" lon="9.9748178"><ele>336.0</ele><time>2026-05-03T08:34:50.97Z</time></trkpt><trkpt lat="45.7863009" lon="9.974732"><ele>336.0</ele><time>2026-05-03T08:34:51.965Z</time></trkpt><trkpt lat="45.7862565" lon="9.9745739"><ele>336.0</ele><time>2026-05-03T08:34:53.975Z</time></trkpt><trkpt lat="45.7862164" lon="9.9744172"><ele>336.0</ele><time>2026-05-03T08:34:56.033Z</time></trkpt><trkpt lat="45.7861736" lon="9.9742576"><ele>335.8</ele><time>2026-05-03T08:34:57.963Z</time></trkpt><trkpt lat="45.7861321" lon="9.9741063"><ele>335.6</ele><time>2026-05-03T08:35:00.038Z</time></trkpt><trkpt lat="45.7861104" lon="9.9740215"><ele>335.4</ele><time>2026-05-03T08:35:01.035Z</time></trkpt><trkpt lat="45.7860656" lon="9.9738571"><ele>335.2</ele><time>2026-05-03T08:35:03.051Z</time></trkpt><trkpt lat="45.7860082" lon="9.9737081"><ele>335.0</ele><time>2026-05-03T08:35:05.031Z</time></trkpt><trkpt lat="45.785958" lon="9.9735623"><ele>335.5</ele><time>2026-05-03T08:35:06.958Z</time></trkpt><trkpt lat="45.7859114" lon="9.9734175"><ele>336.0</ele><time>2026-05-03T08:35:09.057Z</time></trkpt><trkpt lat="45.7858657" lon="9.973268"><ele>336.5</ele><time>2026-05-03T08:35:11.039Z</time></trkpt><trkpt lat="45.785815" lon="9.9731268"><ele>337.0</ele><time>2026-05-03T08:35:12.972Z</time></trkpt><trkpt lat="45.7857713" lon="9.9729688"><ele>337.0</ele><time>2026-05-03T08:35:15.036Z</time></trkpt><trkpt lat="45.7857499" lon="9.9728007"><ele>337.0</ele><time>2026-05-03T08:35:16.962Z</time></trkpt><trkpt lat="45.7857413" lon="9.9726258"><ele>337.0</ele><time>2026-05-03T08:35:18.971Z</time></trkpt><trkpt lat="45.7857516" lon="9.9724453"><ele>337.0</ele><time>2026-05-03T08:35:20.958Z</time></trkpt><trkpt lat="45.7857656" lon="9.9723556"><ele>337.0</ele><time>2026-05-03T08:35:21.966Z</time></trkpt><trkpt lat="45.7857877" lon="9.9721875"><ele>337.25</ele><time>2026-05-03T08:35:23.96Z</time></trkpt><trkpt lat="45.7858054" lon="9.9720167"><ele>337.5</ele><time>2026-05-03T08:35:25.971Z</time></trkpt><trkpt lat="45.7858245" lon="9.9718475"><ele>337.75</ele><time>2026-05-03T08:35:27.973Z</time></trkpt><trkpt lat="45.7858415" lon="9.9716703"><ele>338.0</ele><time>2026-05-03T08:35:30.015Z</time></trkpt><trkpt lat="45.785856" lon="9.971503"><ele>338.75</ele><time>2026-05-03T08:35:31.949Z</time></trkpt><trkpt lat="45.7858597" lon="9.9713347"><ele>339.5</ele><time>2026-05-03T08:35:33.986Z</time></trkpt><trkpt lat="45.7858508" lon="9.9711631"><ele>340.25</ele><time>2026-05-03T08:35:36.031Z</time></trkpt><trkpt lat="45.7858429" lon="9.9709994"><ele>341.0</ele><time>2026-05-03T08:35:37.964Z</time></trkpt><trkpt lat="45.7858321" lon="9.9708226"><ele>341.5</ele><time>2026-05-03T08:35:39.964Z</time></trkpt><trkpt lat="45.7858305" lon="9.9706543"><ele>342.0</ele><time>2026-05-03T08:35:41.962Z</time></trkpt><trkpt lat="45.7858437" lon="9.9704807"><ele>342.5</ele><time>2026-05-03T08:35:44.011Z</time></trkpt><trkpt lat="45.7858621" lon="9.9703146"><ele>343.0</ele><time>2026-05-03T08:35:46.083Z</time></trkpt><trkpt lat="45.7858778" lon="9.9701509"><ele>343.4</ele><time>2026-05-03T08:35:47.977Z</time></trkpt><trkpt lat="45.7858935" lon="9.9699859"><ele>343.79999999999995</ele><time>2026-05-03T08:35:50.04Z</time></trkpt><trkpt lat="45.7859228" lon="9.9698252"><ele>344.2</ele><time>2026-05-03T08:35:51.958Z</time></trkpt><trkpt lat="45.7859473" lon="9.9696772"><ele>344.6</ele><time>2026-05-03T08:35:53.961Z</time></trkpt><trkpt lat="45.7859753" lon="9.9695471"><ele>345.0</ele><time>2026-05-03T08:35:55.964Z</time></trkpt><trkpt lat="45.7859944" lon="9.9694116"><ele>343.0</ele><time>2026-05-03T08:35:57.967Z</time></trkpt><trkpt lat="45.7860143" lon="9.9692548"><ele>341.0</ele><time>2026-05-03T08:36:00.035Z</time></trkpt><trkpt lat="45.7860398" lon="9.9690857"><ele>339.0</ele><time>2026-05-03T08:36:01.967Z</time></trkpt><trkpt lat="45.7860509" lon="9.9689927"><ele>337.0</ele><time>2026-05-03T08:36:02.958Z</time></trkpt><trkpt lat="45.7860603" lon="9.9689025"><ele>335.0</ele><time>2026-05-03T08:36:03.959Z</time></trkpt><trkpt lat="45.7860664" lon="9.9688056"><ele>333.0</ele><time>2026-05-03T08:36:04.955Z</time></trkpt><trkpt lat="45.7860878" lon="9.968631"><ele>333.0</ele><time>2026-05-03T08:36:06.941Z</time></trkpt><trkpt lat="45.786104" lon="9.9684662"><ele>333.0</ele><time>2026-05-03T08:36:09.027Z</time></trkpt><trkpt lat="45.7861201" lon="9.9682959"><ele>333.0</ele><time>2026-05-03T08:36:11.034Z</time></trkpt><trkpt lat="45.7861417" lon="9.9681375"><ele>333.0</ele><time>2026-05-03T08:36:12.96Z</time></trkpt><trkpt lat="45.7861651" lon="9.967978"><ele>333.25</ele><time>2026-05-03T08:36:15.032Z</time></trkpt><trkpt lat="45.7861937" lon="9.967813"><ele>333.5</ele><time>2026-05-03T08:36:16.959Z</time></trkpt><trkpt lat="45.7862323" lon="9.9676616"><ele>333.75</ele><time>2026-05-03T08:36:18.965Z</time></trkpt><trkpt lat="45.7862695" lon="9.9675107"><ele>334.0</ele><time>2026-05-03T08:36:21.036Z</time></trkpt><trkpt lat="45.7863127" lon="9.9673568"><ele>334.75</ele><time>2026-05-03T08:36:22.963Z</time></trkpt><trkpt lat="45.7863551" lon="9.9671949"><ele>335.5</ele><time>2026-05-03T08:36:25.033Z</time></trkpt><trkpt lat="45.7863987" lon="9.967031"><ele>336.25</ele><time>2026-05-03T08:36:26.953Z</time></trkpt><trkpt lat="45.78646" lon="9.9668756"><ele>337.0</ele><time>2026-05-03T08:36:28.98Z</time></trkpt><trkpt lat="45.7865185" lon="9.966717"><ele>337.0</ele><time>2026-05-03T08:36:31.037Z</time></trkpt><trkpt lat="45.7865874" lon="9.9665688"><ele>337.0</ele><time>2026-05-03T08:36:33.045Z</time></trkpt><trkpt lat="45.7866543" lon="9.966421"><ele>337.0</ele><time>2026-05-03T08:36:34.956Z</time></trkpt><trkpt lat="45.7867126" lon="9.9662711"><ele>337.0</ele><time>2026-05-03T08:36:36.96Z</time></trkpt><trkpt lat="45.7867613" lon="9.9661181"><ele>337.0</ele><time>2026-05-03T08:36:38.957Z</time></trkpt><trkpt lat="45.7868124" lon="9.9659637"><ele>337.0</ele><time>2026-05-03T08:36:41.032Z</time></trkpt><trkpt lat="45.7868644" lon="9.9658043"><ele>337.0</ele><time>2026-05-03T08:36:42.955Z</time></trkpt><trkpt lat="45.786911" lon="9.9656525"><ele>337.0</ele><time>2026-05-03T08:36:44.96Z</time></trkpt><trkpt lat="45.7869489" lon="9.9654945"><ele>336.25</ele><time>2026-05-03T08:36:46.964Z</time></trkpt><trkpt lat="45.7869723" lon="9.965336"><ele>335.5</ele><time>2026-05-03T08:36:49.032Z</time></trkpt><trkpt lat="45.7869803" lon="9.9651651"><ele>334.75</ele><time>2026-05-03T08:36:51.034Z</time></trkpt><trkpt lat="45.7869751" lon="9.9650045"><ele>334.0</ele><time>2026-05-03T08:36:52.962Z</time></trkpt><trkpt lat="45.7869593" lon="9.9647633"><ele>334.0</ele><time>2026-05-03T08:36:55.972Z</time></trkpt><trkpt lat="45.786938" lon="9.9645919"><ele>334.0</ele><time>2026-05-03T08:36:58.031Z</time></trkpt><trkpt lat="45.786918" lon="9.9644184"><ele>334.0</ele><time>2026-05-03T08:36:59.965Z</time></trkpt><trkpt lat="45.7869006" lon="9.9642484"><ele>334.0</ele><time>2026-05-03T08:37:01.978Z</time></trkpt><trkpt lat="45.7868842" lon="9.964161"><ele>334.0</ele><time>2026-05-03T08:37:02.977Z</time></trkpt><trkpt lat="45.7868734" lon="9.964071"><ele>333.75</ele><time>2026-05-03T08:37:03.973Z</time></trkpt><trkpt lat="45.7868546" lon="9.9638928"><ele>333.5</ele><time>2026-05-03T08:37:05.978Z</time></trkpt><trkpt lat="45.7868541" lon="9.9637205"><ele>333.25</ele><time>2026-05-03T08:37:07.975Z</time></trkpt><trkpt lat="45.7868561" lon="9.9635696"><ele>333.0</ele><time>2026-05-03T08:37:10.037Z</time></trkpt><trkpt lat="45.7868725" lon="9.9634266"><ele>333.2</ele><time>2026-05-03T08:37:11.965Z</time></trkpt><trkpt lat="45.7868899" lon="9.9632795"><ele>333.4</ele><time>2026-05-03T08:37:14.029Z</time></trkpt><trkpt lat="45.7869056" lon="9.9631288"><ele>333.59999999999997</ele><time>2026-05-03T08:37:15.968Z</time></trkpt><trkpt lat="45.7869245" lon="9.9629681"><ele>333.79999999999995</ele><time>2026-05-03T08:37:17.964Z</time></trkpt><trkpt lat="45.7869497" lon="9.9627991"><ele>334.0</ele><time>2026-05-03T08:37:19.964Z</time></trkpt><trkpt lat="45.7869688" lon="9.96263"><ele>334.25</ele><time>2026-05-03T08:37:21.963Z</time></trkpt><trkpt lat="45.786987" lon="9.9624666"><ele>334.5</ele><time>2026-05-03T08:37:23.971Z</time></trkpt><trkpt lat="45.7870061" lon="9.9622999"><ele>334.75</ele><time>2026-05-03T08:37:25.963Z</time></trkpt><trkpt lat="45.7870159" lon="9.9621411"><ele>335.0</ele><time>2026-05-03T08:37:27.965Z</time></trkpt><trkpt lat="45.7870283" lon="9.961976"><ele>335.0</ele><time>2026-05-03T08:37:30.04Z</time></trkpt><trkpt lat="45.7870427" lon="9.9618265"><ele>335.0</ele><time>2026-05-03T08:37:31.956Z</time></trkpt><trkpt lat="45.7870465" lon="9.961669"><ele>335.0</ele><time>2026-05-03T08:37:33.953Z</time></trkpt><trkpt lat="45.7870455" lon="9.9615114"><ele>335.0</ele><time>2026-05-03T08:37:36.03Z</time></trkpt><trkpt lat="45.7870498" lon="9.9613692"><ele>335.0</ele><time>2026-05-03T08:37:37.978Z</time></trkpt><trkpt lat="45.7870588" lon="9.9612095"><ele>335.75</ele><time>2026-05-03T08:37:39.958Z</time></trkpt><trkpt lat="45.7870698" lon="9.9610564"><ele>336.5</ele><time>2026-05-03T08:37:41.96Z</time></trkpt><trkpt lat="45.7870931" lon="9.9608967"><ele>337.25</ele><time>2026-05-03T08:37:43.977Z</time></trkpt><trkpt lat="45.7871097" lon="9.9607222"><ele>338.0</ele><time>2026-05-03T08:37:45.961Z</time></trkpt><trkpt lat="45.7871237" lon="9.9605575"><ele>338.5</ele><time>2026-05-03T08:37:47.967Z</time></trkpt><trkpt lat="45.7871394" lon="9.9604017"><ele>339.0</ele><time>2026-05-03T08:37:50.029Z</time></trkpt><trkpt lat="45.7871502" lon="9.9602381"><ele>339.5</ele><time>2026-05-03T08:37:51.956Z</time></trkpt><trkpt lat="45.7871629" lon="9.9600709"><ele>340.0</ele><time>2026-05-03T08:37:54.029Z</time></trkpt><trkpt lat="45.7871713" lon="9.9599085"><ele>340.5</ele><time>2026-05-03T08:37:55.979Z</time></trkpt><trkpt lat="45.7871778" lon="9.9597425"><ele>341.0</ele><time>2026-05-03T08:37:57.977Z</time></trkpt><trkpt lat="45.7871786" lon="9.9595697"><ele>341.5</ele><time>2026-05-03T08:37:59.982Z</time></trkpt><trkpt lat="45.7871573" lon="9.9594115"><ele>342.0</ele><time>2026-05-03T08:38:01.97Z</time></trkpt><trkpt lat="45.787089" lon="9.9592669"><ele>341.40000000000003</ele><time>2026-05-03T08:38:04.016Z</time></trkpt><trkpt lat="45.7870424" lon="9.9591946"><ele>340.8</ele><time>2026-05-03T08:38:04.959Z</time></trkpt><trkpt lat="45.7869507" lon="9.9590888"><ele>340.2</ele><time>2026-05-03T08:38:06.965Z</time></trkpt><trkpt lat="45.7868585" lon="9.9590032"><ele>339.6</ele><time>2026-05-03T08:38:08.976Z</time></trkpt><trkpt lat="45.7867778" lon="9.9588946"><ele>339.0</ele><time>2026-05-03T08:38:11.037Z</time></trkpt><trkpt lat="45.7867023" lon="9.9588014"><ele>339.1666666666667</ele><time>2026-05-03T08:38:12.967Z</time></trkpt><trkpt lat="45.7866212" lon="9.9586785"><ele>339.3333333333333</ele><time>2026-05-03T08:38:14.961Z</time></trkpt><trkpt lat="45.7865751" lon="9.9586112"><ele>339.5</ele><time>2026-05-03T08:38:15.96Z</time></trkpt><trkpt lat="45.786531" lon="9.9585356"><ele>339.66666666666663</ele><time>2026-05-03T08:38:16.961Z</time></trkpt><trkpt lat="45.7864892" lon="9.9584501"><ele>339.8333333333333</ele><time>2026-05-03T08:38:17.953Z</time></trkpt><trkpt lat="45.7864435" lon="9.9583649"><ele>340.0</ele><time>2026-05-03T08:38:19.001Z</time></trkpt><trkpt lat="45.786395" lon="9.9582739"><ele>340.0</ele><time>2026-05-03T08:38:19.965Z</time></trkpt><trkpt lat="45.7863432" lon="9.9581769"><ele>340.0</ele><time>2026-05-03T08:38:21.033Z</time></trkpt><trkpt lat="45.786286" lon="9.9580865"><ele>340.0</ele><time>2026-05-03T08:38:21.984Z</time></trkpt><trkpt lat="45.786233" lon="9.9579905"><ele>340.0</ele><time>2026-05-03T08:38:22.98Z</time></trkpt><trkpt lat="45.7861829" lon="9.9578942"><ele>340.0</ele><time>2026-05-03T08:38:24.011Z</time></trkpt><trkpt lat="45.786133" lon="9.9577947"><ele>340.0</ele><time>2026-05-03T08:38:25.036Z</time></trkpt><trkpt lat="45.7860837" lon="9.9576929"><ele>340.0</ele><time>2026-05-03T08:38:26.039Z</time></trkpt><trkpt lat="45.786044" lon="9.9575862"><ele>340.0</ele><time>2026-05-03T08:38:26.955Z</time></trkpt><trkpt lat="45.7860183" lon="9.9574729"><ele>340.0</ele><time>2026-05-03T08:38:27.943Z</time></trkpt><trkpt lat="45.78601" lon="9.9573597"><ele>340.0</ele><time>2026-05-03T08:38:28.98Z</time></trkpt><trkpt lat="45.78601" lon="9.9572508"><ele>340.0</ele><time>2026-05-03T08:38:29.958Z</time></trkpt><trkpt lat="45.7860047" lon="9.9571459"><ele>340.0</ele><time>2026-05-03T08:38:31.034Z</time></trkpt><trkpt lat="45.7860031" lon="9.9570512"><ele>341.4</ele><time>2026-05-03T08:38:31.967Z</time></trkpt><trkpt lat="45.786004" lon="9.9569551"><ele>342.8</ele><time>2026-05-03T08:38:32.96Z</time></trkpt><trkpt lat="45.7860009" lon="9.9568616"><ele>344.20000000000005</ele><time>2026-05-03T08:38:33.972Z</time></trkpt><trkpt lat="45.7859969" lon="9.9566831"><ele>345.6</ele><time>2026-05-03T08:38:36.031Z</time></trkpt><trkpt lat="45.7859795" lon="9.9565127"><ele>347.0</ele><time>2026-05-03T08:38:37.974Z</time></trkpt><trkpt lat="45.785964" lon="9.9563326"><ele>347.5</ele><time>2026-05-03T08:38:40.051Z</time></trkpt><trkpt lat="45.7859557" lon="9.9561542"><ele>348.0</ele><time>2026-05-03T08:38:41.969Z</time></trkpt><trkpt lat="45.7859463" lon="9.955977"><ele>348.5</ele><time>2026-05-03T08:38:43.972Z</time></trkpt><trkpt lat="45.7859454" lon="9.9558842"><ele>349.0</ele><time>2026-05-03T08:38:45.036Z</time></trkpt><trkpt lat="45.7859494" lon="9.9557901"><ele>349.5</ele><time>2026-05-03T08:38:45.956Z</time></trkpt><trkpt lat="45.785953" lon="9.9556963"><ele>350.0</ele><time>2026-05-03T08:38:46.973Z</time></trkpt><trkpt lat="45.7859633" lon="9.9556015"><ele>350.6666666666667</ele><time>2026-05-03T08:38:47.968Z</time></trkpt><trkpt lat="45.7859796" lon="9.955512"><ele>351.33333333333337</ele><time>2026-05-03T08:38:48.969Z</time></trkpt><trkpt lat="45.7859962" lon="9.9554239"><ele>352.0</ele><time>2026-05-03T08:38:49.974Z</time></trkpt><trkpt lat="45.7860254" lon="9.9552402"><ele>352.6666666666667</ele><time>2026-05-03T08:38:51.963Z</time></trkpt><trkpt lat="45.7860515" lon="9.9551477"><ele>353.3333333333333</ele><time>2026-05-03T08:38:52.964Z</time></trkpt><trkpt lat="45.7860742" lon="9.9550587"><ele>354.0</ele><time>2026-05-03T08:38:54.038Z</time></trkpt><trkpt lat="45.7861056" lon="9.9548812"><ele>349.79999999999995</ele><time>2026-05-03T08:38:55.976Z</time></trkpt><trkpt lat="45.7861236" lon="9.9547108"><ele>345.59999999999997</ele><time>2026-05-03T08:38:57.965Z</time></trkpt><trkpt lat="45.7861242" lon="9.9546177"><ele>341.4</ele><time>2026-05-03T08:38:58.976Z</time></trkpt><trkpt lat="45.7861195" lon="9.9545259"><ele>337.2</ele><time>2026-05-03T08:38:59.99Z</time></trkpt><trkpt lat="45.7861146" lon="9.9543412"><ele>333.0</ele><time>2026-05-03T08:39:01.962Z</time></trkpt><trkpt lat="45.7861113" lon="9.9541594"><ele>332.79999999999995</ele><time>2026-05-03T08:39:03.966Z</time></trkpt><trkpt lat="45.7861112" lon="9.953987"><ele>332.6</ele><time>2026-05-03T08:39:05.965Z</time></trkpt><trkpt lat="45.7861112" lon="9.9538098"><ele>332.4</ele><time>2026-05-03T08:39:07.97Z</time></trkpt><trkpt lat="45.786091" lon="9.9536315"><ele>332.20000000000005</ele><time>2026-05-03T08:39:09.957Z</time></trkpt><trkpt lat="45.7860577" lon="9.9535485"><ele>332.0</ele><time>2026-05-03T08:39:10.959Z</time></trkpt><trkpt lat="45.786017" lon="9.9534644"><ele>333.1428571428571</ele><time>2026-05-03T08:39:11.957Z</time></trkpt><trkpt lat="45.7859679" lon="9.953385"><ele>334.28571428571433</ele><time>2026-05-03T08:39:13.037Z</time></trkpt><trkpt lat="45.7859257" lon="9.953305"><ele>335.42857142857144</ele><time>2026-05-03T08:39:14.035Z</time></trkpt><trkpt lat="45.7858812" lon="9.9532328"><ele>336.57142857142856</ele><time>2026-05-03T08:39:15.034Z</time></trkpt><trkpt lat="45.7858382" lon="9.9531537"><ele>337.71428571428567</ele><time>2026-05-03T08:39:15.975Z</time></trkpt><trkpt lat="45.785795" lon="9.9530824"><ele>338.8571428571429</ele><time>2026-05-03T08:39:16.971Z</time></trkpt><trkpt lat="45.7857531" lon="9.9530001"><ele>340.0</ele><time>2026-05-03T08:39:17.975Z</time></trkpt><trkpt lat="45.7857156" lon="9.9529214"><ele>340.0</ele><time>2026-05-03T08:39:19.07Z</time></trkpt><trkpt lat="45.7856717" lon="9.9528538"><ele>340.0</ele><time>2026-05-03T08:39:20.036Z</time></trkpt><trkpt lat="45.785632" lon="9.9527825"><ele>340.0</ele><time>2026-05-03T08:39:20.959Z</time></trkpt><trkpt lat="45.7855925" lon="9.9527102"><ele>340.0</ele><time>2026-05-03T08:39:21.985Z</time></trkpt><trkpt lat="45.7855199" lon="9.9525656"><ele>340.0</ele><time>2026-05-03T08:39:24.037Z</time></trkpt><trkpt lat="45.7854791" lon="9.9524951"><ele>340.0</ele><time>2026-05-03T08:39:24.953Z</time></trkpt><trkpt lat="45.7853988" lon="9.9523482"><ele>339.16666666666663</ele><time>2026-05-03T08:39:26.974Z</time></trkpt><trkpt lat="45.7853638" lon="9.9522717"><ele>338.3333333333333</ele><time>2026-05-03T08:39:27.968Z</time></trkpt><trkpt lat="45.7853257" lon="9.9521956"><ele>337.5</ele><time>2026-05-03T08:39:28.963Z</time></trkpt><trkpt lat="45.785255" lon="9.9520531"><ele>336.6666666666667</ele><time>2026-05-03T08:39:30.973Z</time></trkpt><trkpt lat="45.7852185" lon="9.9519776"><ele>335.83333333333337</ele><time>2026-05-03T08:39:31.977Z</time></trkpt><trkpt lat="45.7851359" lon="9.9518476"><ele>335.0</ele><time>2026-05-03T08:39:34.032Z</time></trkpt><trkpt lat="45.7850507" lon="9.9517117"><ele>336.4285714285714</ele><time>2026-05-03T08:39:35.945Z</time></trkpt><trkpt lat="45.785009" lon="9.9516357"><ele>337.85714285714283</ele><time>2026-05-03T08:39:36.96Z</time></trkpt><trkpt lat="45.784969" lon="9.9515544"><ele>339.2857142857143</ele><time>2026-05-03T08:39:37.953Z</time></trkpt><trkpt lat="45.7849339" lon="9.9514685"><ele>340.71428571428567</ele><time>2026-05-03T08:39:38.964Z</time></trkpt><trkpt lat="45.7849038" lon="9.9513834"><ele>342.1428571428571</ele><time>2026-05-03T08:39:39.961Z</time></trkpt><trkpt lat="45.784878" lon="9.9512969"><ele>343.57142857142856</ele><time>2026-05-03T08:39:40.961Z</time></trkpt><trkpt lat="45.7848556" lon="9.9512072"><ele>345.0</ele><time>2026-05-03T08:39:41.96Z</time></trkpt><trkpt lat="45.784834" lon="9.9511146"><ele>345.0</ele><time>2026-05-03T08:39:43.04Z</time></trkpt><trkpt lat="45.7848165" lon="9.9510275"><ele>345.0</ele><time>2026-05-03T08:39:44.031Z</time></trkpt><trkpt lat="45.7847993" lon="9.9509382"><ele>345.0</ele><time>2026-05-03T08:39:44.962Z</time></trkpt><trkpt lat="45.7847927" lon="9.9508418"><ele>345.0</ele><time>2026-05-03T08:39:45.964Z</time></trkpt><trkpt lat="45.7847885" lon="9.9507502"><ele>345.0</ele><time>2026-05-03T08:39:46.962Z</time></trkpt><trkpt lat="45.7847793" lon="9.9505691"><ele>345.0</ele><time>2026-05-03T08:39:48.944Z</time></trkpt><trkpt lat="45.784787" lon="9.9503882"><ele>343.5</ele><time>2026-05-03T08:39:51.035Z</time></trkpt><trkpt lat="45.7847914" lon="9.9502263"><ele>342.0</ele><time>2026-05-03T08:39:52.967Z</time></trkpt><trkpt lat="45.7847809" lon="9.9500634"><ele>340.5</ele><time>2026-05-03T08:39:55.002Z</time></trkpt><trkpt lat="45.7847423" lon="9.9499061"><ele>339.0</ele><time>2026-05-03T08:39:56.972Z</time></trkpt><trkpt lat="45.784692" lon="9.9497502"><ele>338.5</ele><time>2026-05-03T08:39:58.975Z</time></trkpt><trkpt lat="45.7846391" lon="9.9495999"><ele>338.0</ele><time>2026-05-03T08:40:01.034Z</time></trkpt><trkpt lat="45.7845836" lon="9.9494634"><ele>337.5</ele><time>2026-05-03T08:40:02.977Z</time></trkpt><trkpt lat="45.7845141" lon="9.949344"><ele>337.0</ele><time>2026-05-03T08:40:04.985Z</time></trkpt><trkpt lat="45.784418" lon="9.9492408"><ele>336.3333333333333</ele><time>2026-05-03T08:40:06.968Z</time></trkpt><trkpt lat="45.7843584" lon="9.9492044"><ele>335.66666666666663</ele><time>2026-05-03T08:40:08.038Z</time></trkpt><trkpt lat="45.7842979" lon="9.9491663"><ele>335.0</ele><time>2026-05-03T08:40:09.034Z</time></trkpt><trkpt lat="45.7841791" lon="9.949099"><ele>334.3333333333333</ele><time>2026-05-03T08:40:11.03Z</time></trkpt><trkpt lat="45.7841189" lon="9.9490613"><ele>333.6666666666667</ele><time>2026-05-03T08:40:11.96Z</time></trkpt><trkpt lat="45.7840531" lon="9.9490153"><ele>333.0</ele><time>2026-05-03T08:40:13.045Z</time></trkpt><trkpt lat="45.783991" lon="9.9489763"><ele>334.0</ele><time>2026-05-03T08:40:13.976Z</time></trkpt><trkpt lat="45.7839392" lon="9.9489172"><ele>335.0</ele><time>2026-05-03T08:40:15.015Z</time></trkpt><trkpt lat="45.7838895" lon="9.9488472"><ele>336.0</ele><time>2026-05-03T08:40:15.985Z</time></trkpt><trkpt lat="45.7838424" lon="9.9487628"><ele>337.0</ele><time>2026-05-03T08:40:16.973Z</time></trkpt><trkpt lat="45.7837996" lon="9.9486617"><ele>338.0</ele><time>2026-05-03T08:40:17.973Z</time></trkpt><trkpt lat="45.7837714" lon="9.948561"><ele>339.0</ele><time>2026-05-03T08:40:18.976Z</time></trkpt><trkpt lat="45.7837529" lon="9.9484569"><ele>340.0</ele><time>2026-05-03T08:40:19.973Z</time></trkpt><trkpt lat="45.783737" lon="9.9483489"><ele>340.0</ele><time>2026-05-03T08:40:20.949Z</time></trkpt><trkpt lat="45.7837216" lon="9.9482432"><ele>340.0</ele><time>2026-05-03T08:40:21.961Z</time></trkpt><trkpt lat="45.7837033" lon="9.9481527"><ele>340.0</ele><time>2026-05-03T08:40:23.022Z</time></trkpt><trkpt lat="45.7836649" lon="9.9479832"><ele>340.0</ele><time>2026-05-03T08:40:25.036Z</time></trkpt><trkpt lat="45.7836316" lon="9.9478155"><ele>340.0</ele><time>2026-05-03T08:40:26.959Z</time></trkpt><trkpt lat="45.7836068" lon="9.9477308"><ele>340.0</ele><time>2026-05-03T08:40:27.955Z</time></trkpt><trkpt lat="45.7835881" lon="9.9476339"><ele>340.0</ele><time>2026-05-03T08:40:28.949Z</time></trkpt><trkpt lat="45.7835574" lon="9.947547"><ele>340.0</ele><time>2026-05-03T08:40:29.965Z</time></trkpt><trkpt lat="45.7835294" lon="9.9474639"><ele>340.0</ele><time>2026-05-03T08:40:30.957Z</time></trkpt><trkpt lat="45.7834774" lon="9.9473078"><ele>340.0</ele><time>2026-05-03T08:40:33.032Z</time></trkpt><trkpt lat="45.7834524" lon="9.9472243"><ele>340.0</ele><time>2026-05-03T08:40:33.951Z</time></trkpt><trkpt lat="45.7834295" lon="9.9471402"><ele>340.0</ele><time>2026-05-03T08:40:34.955Z</time></trkpt><trkpt lat="45.7834031" lon="9.9470528"><ele>340.2</ele><time>2026-05-03T08:40:35.948Z</time></trkpt><trkpt lat="45.7833632" lon="9.9468803"><ele>340.4</ele><time>2026-05-03T08:40:37.958Z</time></trkpt><trkpt lat="45.7833429" lon="9.9467945"><ele>340.6</ele><time>2026-05-03T08:40:38.957Z</time></trkpt><trkpt lat="45.7833041" lon="9.9466326"><ele>340.8</ele><time>2026-05-03T08:40:41.037Z</time></trkpt><trkpt lat="45.7832709" lon="9.9464762"><ele>341.0</ele><time>2026-05-03T08:40:42.98Z</time></trkpt><trkpt lat="45.7832371" lon="9.9463193"><ele>341.0</ele><time>2026-05-03T08:40:45.028Z</time></trkpt><trkpt lat="45.7831883" lon="9.9461586"><ele>341.0</ele><time>2026-05-03T08:40:46.954Z</time></trkpt><trkpt lat="45.7831594" lon="9.9460732"><ele>341.0</ele><time>2026-05-03T08:40:47.969Z</time></trkpt><trkpt lat="45.7831357" lon="9.9459894"><ele>341.0</ele><time>2026-05-03T08:40:48.981Z</time></trkpt><trkpt lat="45.7830799" lon="9.945852"><ele>341.0</ele><time>2026-05-03T08:40:51.038Z</time></trkpt><trkpt lat="45.7829978" lon="9.9457283"><ele>340.6666666666667</ele><time>2026-05-03T08:40:52.959Z</time></trkpt><trkpt lat="45.782904" lon="9.9456119"><ele>340.33333333333337</ele><time>2026-05-03T08:40:55.032Z</time></trkpt><trkpt lat="45.782844" lon="9.9455591"><ele>340.0</ele><time>2026-05-03T08:40:56.033Z</time></trkpt><trkpt lat="45.7827782" lon="9.9455231"><ele>339.6666666666667</ele><time>2026-05-03T08:40:56.968Z</time></trkpt><trkpt lat="45.7827118" lon="9.9454969"><ele>339.3333333333333</ele><time>2026-05-03T08:40:58.031Z</time></trkpt><trkpt lat="45.7826411" lon="9.9454658"><ele>339.0</ele><time>2026-05-03T08:40:59.031Z</time></trkpt><trkpt lat="45.7825712" lon="9.9454341"><ele>338.7142857142857</ele><time>2026-05-03T08:41:00.045Z</time></trkpt><trkpt lat="45.7825016" lon="9.9453976"><ele>338.42857142857144</ele><time>2026-05-03T08:41:01.03Z</time></trkpt><trkpt lat="45.7824338" lon="9.9453474"><ele>338.14285714285717</ele><time>2026-05-03T08:41:01.966Z</time></trkpt><trkpt lat="45.7823791" lon="9.9452805"><ele>337.8571428571429</ele><time>2026-05-03T08:41:02.969Z</time></trkpt><trkpt lat="45.7823254" lon="9.9452134"><ele>337.57142857142856</ele><time>2026-05-03T08:41:03.98Z</time></trkpt><trkpt lat="45.7822703" lon="9.9451415"><ele>337.28571428571433</ele><time>2026-05-03T08:41:05.04Z</time></trkpt><trkpt lat="45.7822205" lon="9.9450699"><ele>337.0</ele><time>2026-05-03T08:41:05.955Z</time></trkpt><trkpt lat="45.7821668" lon="9.9450031"><ele>337.0</ele><time>2026-05-03T08:41:06.935Z</time></trkpt><trkpt lat="45.782106" lon="9.9449394"><ele>337.0</ele><time>2026-05-03T08:41:07.957Z</time></trkpt><trkpt lat="45.7820368" lon="9.944884"><ele>337.0</ele><time>2026-05-03T08:41:08.957Z</time></trkpt><trkpt lat="45.7819683" lon="9.9448404"><ele>337.0</ele><time>2026-05-03T08:41:09.952Z</time></trkpt><trkpt lat="45.7818966" lon="9.9447967"><ele>337.0</ele><time>2026-05-03T08:41:10.963Z</time></trkpt><trkpt lat="45.7818219" lon="9.9447617"><ele>337.0</ele><time>2026-05-03T08:41:11.957Z</time></trkpt><trkpt lat="45.7817517" lon="9.9447306"><ele>337.5714285714286</ele><time>2026-05-03T08:41:13.033Z</time></trkpt><trkpt lat="45.7816787" lon="9.9446984"><ele>338.14285714285717</ele><time>2026-05-03T08:41:14.04Z</time></trkpt><trkpt lat="45.7816138" lon="9.9446642"><ele>338.7142857142857</ele><time>2026-05-03T08:41:15.032Z</time></trkpt><trkpt lat="45.7815489" lon="9.9446337"><ele>339.28571428571433</ele><time>2026-05-03T08:41:15.967Z</time></trkpt><trkpt lat="45.7814885" lon="9.9446047"><ele>339.8571428571429</ele><time>2026-05-03T08:41:16.972Z</time></trkpt><trkpt lat="45.7814282" lon="9.9445751"><ele>340.42857142857144</ele><time>2026-05-03T08:41:17.963Z</time></trkpt><trkpt lat="45.7813647" lon="9.9445431"><ele>341.0</ele><time>2026-05-03T08:41:18.965Z</time></trkpt><trkpt lat="45.7812413" lon="9.9444829"><ele>341.0</ele><time>2026-05-03T08:41:20.971Z</time></trkpt><trkpt lat="45.7811795" lon="9.9444526"><ele>341.0</ele><time>2026-05-03T08:41:21.973Z</time></trkpt><trkpt lat="45.781117" lon="9.9444245"><ele>341.0</ele><time>2026-05-03T08:41:22.97Z</time></trkpt><trkpt lat="45.7810543" lon="9.9443926"><ele>341.0</ele><time>2026-05-03T08:41:23.968Z</time></trkpt><trkpt lat="45.7809355" lon="9.9443455"><ele>341.0</ele><time>2026-05-03T08:41:25.97Z</time></trkpt><trkpt lat="45.7808202" lon="9.9442841"><ele>341.0</ele><time>2026-05-03T08:41:27.975Z</time></trkpt><trkpt lat="45.780758" lon="9.9442513"><ele>341.42857142857144</ele><time>2026-05-03T08:41:28.98Z</time></trkpt><trkpt lat="45.7806964" lon="9.9442225"><ele>341.8571428571429</ele><time>2026-05-03T08:41:30.03Z</time></trkpt><trkpt lat="45.7806341" lon="9.9441925"><ele>342.28571428571433</ele><time>2026-05-03T08:41:31.038Z</time></trkpt><trkpt lat="45.7805682" lon="9.9441677"><ele>342.7142857142857</ele><time>2026-05-03T08:41:31.95Z</time></trkpt><trkpt lat="45.7805095" lon="9.9441334"><ele>343.14285714285717</ele><time>2026-05-03T08:41:32.939Z</time></trkpt><trkpt lat="45.7804473" lon="9.9441053"><ele>343.5714285714286</ele><time>2026-05-03T08:41:33.958Z</time></trkpt><trkpt lat="45.7803861" lon="9.9440624"><ele>344.0</ele><time>2026-05-03T08:41:35.03Z</time></trkpt><trkpt lat="45.7803241" lon="9.9440294"><ele>343.0</ele><time>2026-05-03T08:41:36.046Z</time></trkpt><trkpt lat="45.780263" lon="9.9439974"><ele>342.0</ele><time>2026-05-03T08:41:36.958Z</time></trkpt><trkpt lat="45.7801474" lon="9.9439305"><ele>341.0</ele><time>2026-05-03T08:41:38.968Z</time></trkpt><trkpt lat="45.7800849" lon="9.9439043"><ele>340.0</ele><time>2026-05-03T08:41:40.054Z</time></trkpt><trkpt lat="45.7799655" lon="9.9438432"><ele>339.0</ele><time>2026-05-03T08:41:41.957Z</time></trkpt><trkpt lat="45.7798504" lon="9.9437744"><ele>339.0</ele><time>2026-05-03T08:41:43.97Z</time></trkpt><trkpt lat="45.7797909" lon="9.9437418"><ele>339.0</ele><time>2026-05-03T08:41:45.031Z</time></trkpt><trkpt lat="45.7796783" lon="9.9436886"><ele>339.0</ele><time>2026-05-03T08:41:46.964Z</time></trkpt><trkpt lat="45.779568" lon="9.9436262"><ele>339.0</ele><time>2026-05-03T08:41:48.973Z</time></trkpt><trkpt lat="45.7794532" lon="9.9435489"><ele>339.0</ele><time>2026-05-03T08:41:51.05Z</time></trkpt><trkpt lat="45.7793408" lon="9.9434899"><ele>339.0</ele><time>2026-05-03T08:41:52.962Z</time></trkpt><trkpt lat="45.7792333" lon="9.9434127"><ele>339.0</ele><time>2026-05-03T08:41:55.038Z</time></trkpt><trkpt lat="45.7791261" lon="9.9433483"><ele>339.0</ele><time>2026-05-03T08:41:56.973Z</time></trkpt><trkpt lat="45.779044" lon="9.943306"><ele>339.0</ele><time>2026-05-03T08:41:58.964Z</time></trkpt><trkpt lat="45.7789602" lon="9.9432776"><ele>339.0</ele><time>2026-05-03T08:42:01.968Z</time></trkpt><trkpt lat="45.7788968" lon="9.9432337"><ele>339.0</ele><time>2026-05-03T08:44:35.013Z</time></trkpt><trkpt lat="45.7788061" lon="9.9432129"><ele>339.0</ele><time>2026-05-03T08:44:37.965Z</time></trkpt><trkpt lat="45.7786897" lon="9.943162"><ele>339.0</ele><time>2026-05-03T08:44:40.033Z</time></trkpt><trkpt lat="45.7785902" lon="9.9431631"><ele>339.0</ele><time>2026-05-03T08:44:41.976Z</time></trkpt><trkpt lat="45.7785379" lon="9.9432773"><ele>339.0</ele><time>2026-05-03T08:44:43.974Z</time></trkpt><trkpt lat="45.7784968" lon="9.9433999"><ele>341.6</ele><time>2026-05-03T08:44:45.977Z</time></trkpt><trkpt lat="45.7784109" lon="9.9434668"><ele>344.2</ele><time>2026-05-03T08:44:47.96Z</time></trkpt><trkpt lat="45.7783163" lon="9.9434595"><ele>346.8</ele><time>2026-05-03T08:44:50.037Z</time></trkpt><trkpt lat="45.7782096" lon="9.9434288"><ele>349.40000000000003</ele><time>2026-05-03T08:44:51.974Z</time></trkpt><trkpt lat="45.7780906" lon="9.9434331"><ele>352.0</ele><time>2026-05-03T08:44:53.95Z</time></trkpt><trkpt lat="45.7779703" lon="9.9434178"><ele>352.0</ele><time>2026-05-03T08:44:55.958Z</time></trkpt><trkpt lat="45.7778482" lon="9.9434191"><ele>352.0</ele><time>2026-05-03T08:44:57.966Z</time></trkpt><trkpt lat="45.7777811" lon="9.943423"><ele>352.0</ele><time>2026-05-03T08:44:59.032Z</time></trkpt><trkpt lat="45.7776599" lon="9.943447"><ele>352.0</ele><time>2026-05-03T08:45:01.029Z</time></trkpt><trkpt lat="45.7775381" lon="9.9434867"><ele>352.0</ele><time>2026-05-03T08:45:02.972Z</time></trkpt><trkpt lat="45.7774752" lon="9.9435111"><ele>352.20000000000005</ele><time>2026-05-03T08:45:03.994Z</time></trkpt><trkpt lat="45.7774123" lon="9.9435371"><ele>352.4</ele><time>2026-05-03T08:45:05.031Z</time></trkpt><trkpt lat="45.7773012" lon="9.9435876"><ele>352.6</ele><time>2026-05-03T08:45:06.962Z</time></trkpt><trkpt lat="45.7771963" lon="9.9436614"><ele>352.79999999999995</ele><time>2026-05-03T08:45:09.033Z</time></trkpt><trkpt lat="45.7770797" lon="9.9436882"><ele>353.0</ele><time>2026-05-03T08:45:11.03Z</time></trkpt><trkpt lat="45.7770142" lon="9.9436934"><ele>353.0</ele><time>2026-05-03T08:45:11.955Z</time></trkpt><trkpt lat="45.7769459" lon="9.9436993"><ele>353.0</ele><time>2026-05-03T08:45:12.966Z</time></trkpt><trkpt lat="45.7768814" lon="9.9437127"><ele>353.0</ele><time>2026-05-03T08:45:13.978Z</time></trkpt><trkpt lat="45.7768162" lon="9.9437272"><ele>353.0</ele><time>2026-05-03T08:45:15.039Z</time></trkpt><trkpt lat="45.7766983" lon="9.9437713"><ele>353.0</ele><time>2026-05-03T08:45:16.962Z</time></trkpt><trkpt lat="45.7765832" lon="9.9437747"><ele>353.0</ele><time>2026-05-03T08:45:18.972Z</time></trkpt><trkpt lat="45.7765198" lon="9.9437621"><ele>352.33333333333337</ele><time>2026-05-03T08:45:20.037Z</time></trkpt><trkpt lat="45.776455" lon="9.9437465"><ele>351.6666666666667</ele><time>2026-05-03T08:45:20.961Z</time></trkpt><trkpt lat="45.776391" lon="9.9437236"><ele>351.0</ele><time>2026-05-03T08:45:21.941Z</time></trkpt><trkpt lat="45.7762694" lon="9.9436782"><ele>350.3333333333333</ele><time>2026-05-03T08:45:23.94Z</time></trkpt><trkpt lat="45.7761574" lon="9.9436028"><ele>349.66666666666663</ele><time>2026-05-03T08:45:25.962Z</time></trkpt><trkpt lat="45.7760967" lon="9.9435677"><ele>349.0</ele><time>2026-05-03T08:45:26.965Z</time></trkpt><trkpt lat="45.7760391" lon="9.9435211"><ele>350.25</ele><time>2026-05-03T08:45:27.958Z</time></trkpt><trkpt lat="45.7759323" lon="9.9434285"><ele>351.5</ele><time>2026-05-03T08:45:30.015Z</time></trkpt><trkpt lat="45.7758269" lon="9.9433278"><ele>352.75</ele><time>2026-05-03T08:45:31.972Z</time></trkpt><trkpt lat="45.7757299" lon="9.9432275"><ele>354.0</ele><time>2026-05-03T08:45:33.959Z</time></trkpt><trkpt lat="45.7756376" lon="9.9431393"><ele>350.25</ele><time>2026-05-03T08:45:35.959Z</time></trkpt><trkpt lat="45.7755489" lon="9.9430425"><ele>346.5</ele><time>2026-05-03T08:45:38.034Z</time></trkpt><trkpt lat="45.7754566" lon="9.9429355"><ele>342.75</ele><time>2026-05-03T08:45:40.062Z</time></trkpt><trkpt lat="45.7753637" lon="9.9428368"><ele>339.0</ele><time>2026-05-03T08:45:41.963Z</time></trkpt><trkpt lat="45.7752642" lon="9.9427472"><ele>339.0</ele><time>2026-05-03T08:45:44.026Z</time></trkpt><trkpt lat="45.775166" lon="9.9426723"><ele>339.0</ele><time>2026-05-03T08:45:46.013Z</time></trkpt><trkpt lat="45.7750657" lon="9.9425881"><ele>339.0</ele><time>2026-05-03T08:45:47.972Z</time></trkpt><trkpt lat="45.7750078" lon="9.9425504"><ele>339.0</ele><time>2026-05-03T08:45:48.988Z</time></trkpt><trkpt lat="45.7749458" lon="9.9425148"><ele>339.0</ele><time>2026-05-03T08:45:50.041Z</time></trkpt><trkpt lat="45.7748863" lon="9.9424736"><ele>339.0</ele><time>2026-05-03T08:45:51.029Z</time></trkpt><trkpt lat="45.7748258" lon="9.9424358"><ele>339.0</ele><time>2026-05-03T08:45:51.95Z</time></trkpt><trkpt lat="45.7747671" lon="9.9423923"><ele>339.0</ele><time>2026-05-03T08:45:52.961Z</time></trkpt><trkpt lat="45.7746617" lon="9.9423216"><ele>339.0</ele><time>2026-05-03T08:45:54.967Z</time></trkpt><trkpt lat="45.7745552" lon="9.9422494"><ele>339.0</ele><time>2026-05-03T08:45:56.967Z</time></trkpt><trkpt lat="45.7744528" lon="9.9421887"><ele>339.0</ele><time>2026-05-03T08:45:58.988Z</time></trkpt><trkpt lat="45.7743517" lon="9.9421257"><ele>339.6</ele><time>2026-05-03T08:46:01.04Z</time></trkpt><trkpt lat="45.7742501" lon="9.9420563"><ele>340.2</ele><time>2026-05-03T08:46:02.967Z</time></trkpt><trkpt lat="45.774147" lon="9.9419908"><ele>340.8</ele><time>2026-05-03T08:46:04.964Z</time></trkpt><trkpt lat="45.7740481" lon="9.9419167"><ele>341.40000000000003</ele><time>2026-05-03T08:46:06.944Z</time></trkpt><trkpt lat="45.7739519" lon="9.9418344"><ele>342.0</ele><time>2026-05-03T08:46:08.965Z</time></trkpt><trkpt lat="45.7738486" lon="9.9417572"><ele>342.1666666666667</ele><time>2026-05-03T08:46:10.976Z</time></trkpt><trkpt lat="45.7737408" lon="9.9416899"><ele>342.3333333333333</ele><time>2026-05-03T08:46:12.971Z</time></trkpt><trkpt lat="45.7736282" lon="9.9416129"><ele>342.5</ele><time>2026-05-03T08:46:14.944Z</time></trkpt><trkpt lat="45.7735688" lon="9.9415765"><ele>342.66666666666663</ele><time>2026-05-03T08:46:15.965Z</time></trkpt><trkpt lat="45.7735099" lon="9.9415408"><ele>342.8333333333333</ele><time>2026-05-03T08:46:16.958Z</time></trkpt><trkpt lat="45.7734492" lon="9.9415022"><ele>343.0</ele><time>2026-05-03T08:46:17.955Z</time></trkpt><trkpt lat="45.7733894" lon="9.9414609"><ele>343.0</ele><time>2026-05-03T08:46:18.961Z</time></trkpt><trkpt lat="45.7733277" lon="9.9414204"><ele>343.0</ele><time>2026-05-03T08:46:20.037Z</time></trkpt><trkpt lat="45.77327" lon="9.941376"><ele>343.0</ele><time>2026-05-03T08:46:21.033Z</time></trkpt><trkpt lat="45.7732155" lon="9.9413285"><ele>343.0</ele><time>2026-05-03T08:46:21.965Z</time></trkpt><trkpt lat="45.7731563" lon="9.9412834"><ele>343.0</ele><time>2026-05-03T08:46:22.962Z</time></trkpt><trkpt lat="45.7730958" lon="9.9412394"><ele>343.0</ele><time>2026-05-03T08:46:23.982Z</time></trkpt><trkpt lat="45.7730388" lon="9.9411932"><ele>343.0</ele><time>2026-05-03T08:46:24.942Z</time></trkpt><trkpt lat="45.7729834" lon="9.9411461"><ele>343.0</ele><time>2026-05-03T08:46:26.016Z</time></trkpt><trkpt lat="45.7729262" lon="9.9410996"><ele>343.0</ele><time>2026-05-03T08:46:26.955Z</time></trkpt><trkpt lat="45.7728703" lon="9.9410553"><ele>343.0</ele><time>2026-05-03T08:46:27.97Z</time></trkpt><trkpt lat="45.772761" lon="9.9409648"><ele>343.0</ele><time>2026-05-03T08:46:29.977Z</time></trkpt><trkpt lat="45.7727037" lon="9.9409263"><ele>343.0</ele><time>2026-05-03T08:46:31.062Z</time></trkpt><trkpt lat="45.7725805" lon="9.9408484"><ele>342.2</ele><time>2026-05-03T08:46:32.969Z</time></trkpt><trkpt lat="45.7725241" lon="9.9408046"><ele>341.4</ele><time>2026-05-03T08:46:33.965Z</time></trkpt><trkpt lat="45.7724109" lon="9.9407217"><ele>340.59999999999997</ele><time>2026-05-03T08:46:35.95Z</time></trkpt><trkpt lat="45.7723544" lon="9.940677"><ele>339.79999999999995</ele><time>2026-05-03T08:46:36.945Z</time></trkpt><trkpt lat="45.7722385" lon="9.9406026"><ele>339.0</ele><time>2026-05-03T08:46:39.033Z</time></trkpt><trkpt lat="45.7721225" lon="9.9405337"><ele>339.0</ele><time>2026-05-03T08:46:40.988Z</time></trkpt><trkpt lat="45.7720582" lon="9.9405119"><ele>339.0</ele><time>2026-05-03T08:46:41.97Z</time></trkpt><trkpt lat="45.771997" lon="9.9404876"><ele>339.0</ele><time>2026-05-03T08:46:42.969Z</time></trkpt><trkpt lat="45.77193" lon="9.9404636"><ele>339.0</ele><time>2026-05-03T08:46:44.058Z</time></trkpt><trkpt lat="45.7718665" lon="9.940442"><ele>339.0</ele><time>2026-05-03T08:46:45.039Z</time></trkpt><trkpt lat="45.7718025" lon="9.940413"><ele>339.0</ele><time>2026-05-03T08:46:45.966Z</time></trkpt><trkpt lat="45.7717405" lon="9.9403803"><ele>339.0</ele><time>2026-05-03T08:46:46.965Z</time></trkpt><trkpt lat="45.7716316" lon="9.9403075"><ele>339.4285714285714</ele><time>2026-05-03T08:46:48.965Z</time></trkpt><trkpt lat="45.771575" lon="9.9402556"><ele>339.8571428571429</ele><time>2026-05-03T08:46:49.975Z</time></trkpt><trkpt lat="45.7715158" lon="9.9402073"><ele>340.2857142857143</ele><time>2026-05-03T08:46:50.944Z</time></trkpt><trkpt lat="45.7714554" lon="9.9401443"><ele>340.71428571428567</ele><time>2026-05-03T08:46:51.95Z</time></trkpt><trkpt lat="45.7713913" lon="9.9400711"><ele>341.1428571428571</ele><time>2026-05-03T08:46:52.965Z</time></trkpt><trkpt lat="45.771332" lon="9.9400067"><ele>341.57142857142856</ele><time>2026-05-03T08:46:53.938Z</time></trkpt><trkpt lat="45.7712779" lon="9.9399547"><ele>342.0</ele><time>2026-05-03T08:46:54.94Z</time></trkpt><trkpt lat="45.7712217" lon="9.9399042"><ele>342.0</ele><time>2026-05-03T08:46:55.945Z</time></trkpt><trkpt lat="45.7711676" lon="9.939854"><ele>342.0</ele><time>2026-05-03T08:46:56.954Z</time></trkpt><trkpt lat="45.7711099" lon="9.93981"><ele>342.0</ele><time>2026-05-03T08:46:57.953Z</time></trkpt><trkpt lat="45.7710067" lon="9.9397347"><ele>342.0</ele><time>2026-05-03T08:47:00.036Z</time></trkpt><trkpt lat="45.7709048" lon="9.9396495"><ele>342.0</ele><time>2026-05-03T08:47:01.965Z</time></trkpt><trkpt lat="45.7708065" lon="9.9395573"><ele>342.0</ele><time>2026-05-03T08:47:03.979Z</time></trkpt><trkpt lat="45.7707525" lon="9.9395065"><ele>342.0</ele><time>2026-05-03T08:47:05.014Z</time></trkpt><trkpt lat="45.7706523" lon="9.9394012"><ele>342.0</ele><time>2026-05-03T08:47:06.939Z</time></trkpt><trkpt lat="45.7705479" lon="9.9392983"><ele>342.0</ele><time>2026-05-03T08:47:08.97Z</time></trkpt><trkpt lat="45.7704999" lon="9.9392389"><ele>342.0</ele><time>2026-05-03T08:47:10.016Z</time></trkpt><trkpt lat="45.7703962" lon="9.9391339"><ele>341.75</ele><time>2026-05-03T08:47:11.976Z</time></trkpt><trkpt lat="45.770285" lon="9.9390434"><ele>341.5</ele><time>2026-05-03T08:47:13.985Z</time></trkpt><trkpt lat="45.7701784" lon="9.9389561"><ele>341.25</ele><time>2026-05-03T08:47:16.039Z</time></trkpt><trkpt lat="45.7700691" lon="9.9388725"><ele>341.0</ele><time>2026-05-03T08:47:17.963Z</time></trkpt><trkpt lat="45.7699572" lon="9.9387915"><ele>341.0</ele><time>2026-05-03T08:47:20.009Z</time></trkpt><trkpt lat="45.7698995" lon="9.9387469"><ele>341.0</ele><time>2026-05-03T08:47:20.944Z</time></trkpt><trkpt lat="45.7697941" lon="9.9386664"><ele>341.0</ele><time>2026-05-03T08:47:22.961Z</time></trkpt><trkpt lat="45.7696854" lon="9.9385813"><ele>341.0</ele><time>2026-05-03T08:47:25.029Z</time></trkpt><trkpt lat="45.7696255" lon="9.9385524"><ele>341.0</ele><time>2026-05-03T08:47:26.036Z</time></trkpt><trkpt lat="45.7695634" lon="9.9385212"><ele>341.0</ele><time>2026-05-03T08:47:26.963Z</time></trkpt><trkpt lat="45.7695049" lon="9.9384851"><ele>341.0</ele><time>2026-05-03T08:47:27.963Z</time></trkpt><trkpt lat="45.7693868" lon="9.9384325"><ele>341.0</ele><time>2026-05-03T08:47:29.959Z</time></trkpt><trkpt lat="45.7692711" lon="9.9383831"><ele>341.0</ele><time>2026-05-03T08:47:31.962Z</time></trkpt><trkpt lat="45.7691521" lon="9.9383423"><ele>341.0</ele><time>2026-05-03T08:47:33.96Z</time></trkpt><trkpt lat="45.7690912" lon="9.9383177"><ele>341.0</ele><time>2026-05-03T08:47:35.017Z</time></trkpt><trkpt lat="45.768973" lon="9.9382704"><ele>340.6666666666667</ele><time>2026-05-03T08:47:36.971Z</time></trkpt><trkpt lat="45.7688512" lon="9.9382317"><ele>340.33333333333337</ele><time>2026-05-03T08:47:38.967Z</time></trkpt><trkpt lat="45.7687261" lon="9.9382109"><ele>340.0</ele><time>2026-05-03T08:47:41.035Z</time></trkpt><trkpt lat="45.7686609" lon="9.9382004"><ele>339.6666666666667</ele><time>2026-05-03T08:47:41.963Z</time></trkpt><trkpt lat="45.7685973" lon="9.938184"><ele>339.3333333333333</ele><time>2026-05-03T08:47:42.945Z</time></trkpt><trkpt lat="45.7685318" lon="9.9381679"><ele>339.0</ele><time>2026-05-03T08:47:43.956Z</time></trkpt><trkpt lat="45.7684095" lon="9.9381562"><ele>339.0</ele><time>2026-05-03T08:47:45.944Z</time></trkpt><trkpt lat="45.7682817" lon="9.9381712"><ele>339.0</ele><time>2026-05-03T08:47:47.959Z</time></trkpt><trkpt lat="45.7681635" lon="9.9381819"><ele>339.0</ele><time>2026-05-03T08:47:50.06Z</time></trkpt><trkpt lat="45.7680425" lon="9.9381918"><ele>339.0</ele><time>2026-05-03T08:47:51.973Z</time></trkpt><trkpt lat="45.7679268" lon="9.9381979"><ele>339.0</ele><time>2026-05-03T08:47:53.964Z</time></trkpt><trkpt lat="45.7678117" lon="9.9382187"><ele>339.0</ele><time>2026-05-03T08:47:55.968Z</time></trkpt><trkpt lat="45.767701" lon="9.9382381"><ele>339.0</ele><time>2026-05-03T08:47:57.966Z</time></trkpt><trkpt lat="45.7675846" lon="9.9382394"><ele>339.0</ele><time>2026-05-03T08:48:00.022Z</time></trkpt><trkpt lat="45.7674657" lon="9.9382387"><ele>339.6</ele><time>2026-05-03T08:48:01.945Z</time></trkpt><trkpt lat="45.7673448" lon="9.9382208"><ele>340.2</ele><time>2026-05-03T08:48:03.969Z</time></trkpt><trkpt lat="45.7672267" lon="9.938184"><ele>340.8</ele><time>2026-05-03T08:48:05.97Z</time></trkpt><trkpt lat="45.7671685" lon="9.9381408"><ele>341.40000000000003</ele><time>2026-05-03T08:48:06.975Z</time></trkpt><trkpt lat="45.7671069" lon="9.9380949"><ele>342.0</ele><time>2026-05-03T08:48:07.978Z</time></trkpt><trkpt lat="45.766998" lon="9.9380105"><ele>342.0</ele><time>2026-05-03T08:48:09.973Z</time></trkpt><trkpt lat="45.7668975" lon="9.9379232"><ele>342.0</ele><time>2026-05-03T08:48:11.964Z</time></trkpt><trkpt lat="45.7668061" lon="9.9378382"><ele>342.0</ele><time>2026-05-03T08:48:13.983Z</time></trkpt><trkpt lat="45.7667111" lon="9.9377575"><ele>342.0</ele><time>2026-05-03T08:48:15.967Z</time></trkpt><trkpt lat="45.7666131" lon="9.9376788"><ele>342.0</ele><time>2026-05-03T08:48:17.967Z</time></trkpt><trkpt lat="45.7665068" lon="9.937595"><ele>342.0</ele><time>2026-05-03T08:48:19.966Z</time></trkpt><trkpt lat="45.7664477" lon="9.9375576"><ele>342.0</ele><time>2026-05-03T08:48:20.945Z</time></trkpt><trkpt lat="45.7663982" lon="9.9375018"><ele>342.0</ele><time>2026-05-03T08:48:21.947Z</time></trkpt><trkpt lat="45.7663179" lon="9.9374129"><ele>342.0</ele><time>2026-05-03T08:48:23.967Z</time></trkpt><trkpt lat="45.7662184" lon="9.9373393"><ele>342.0</ele><time>2026-05-03T08:48:25.963Z</time></trkpt><trkpt lat="45.7661589" lon="9.9373072"><ele>342.0</ele><time>2026-05-03T08:48:26.945Z</time></trkpt><trkpt lat="45.7660531" lon="9.9372444"><ele>343.6</ele><time>2026-05-03T08:48:28.972Z</time></trkpt><trkpt lat="45.7659578" lon="9.9371724"><ele>345.20000000000005</ele><time>2026-05-03T08:48:31.036Z</time></trkpt><trkpt lat="45.7658656" lon="9.9370931"><ele>346.8</ele><time>2026-05-03T08:48:32.965Z</time></trkpt><trkpt lat="45.7657828" lon="9.9370271"><ele>348.4</ele><time>2026-05-03T08:48:34.959Z</time></trkpt><trkpt lat="45.7656843" lon="9.9369501"><ele>350.0</ele><time>2026-05-03T08:48:36.944Z</time></trkpt><trkpt lat="45.7655982" lon="9.9368679"><ele>350.0</ele><time>2026-05-03T08:48:38.972Z</time></trkpt><trkpt lat="45.7655116" lon="9.9367992"><ele>350.0</ele><time>2026-05-03T08:48:40.961Z</time></trkpt><trkpt lat="45.7654245" lon="9.936723"><ele>350.0</ele><time>2026-05-03T08:48:42.963Z</time></trkpt><trkpt lat="45.7653352" lon="9.936644"><ele>350.0</ele><time>2026-05-03T08:48:44.988Z</time></trkpt><trkpt lat="45.7652426" lon="9.9365626"><ele>350.0</ele><time>2026-05-03T08:48:46.972Z</time></trkpt><trkpt lat="45.7651548" lon="9.9364844"><ele>351.8</ele><time>2026-05-03T08:48:49.037Z</time></trkpt><trkpt lat="45.7650664" lon="9.9364083"><ele>353.6</ele><time>2026-05-03T08:48:51.035Z</time></trkpt><trkpt lat="45.7649725" lon="9.9363404"><ele>355.4</ele><time>2026-05-03T08:48:52.965Z</time></trkpt><trkpt lat="45.7648705" lon="9.936262"><ele>357.2</ele><time>2026-05-03T08:48:54.957Z</time></trkpt><trkpt lat="45.7647791" lon="9.9361843"><ele>359.0</ele><time>2026-05-03T08:48:56.963Z</time></trkpt><trkpt lat="45.7646832" lon="9.9360943"><ele>359.0</ele><time>2026-05-03T08:48:58.95Z</time></trkpt><trkpt lat="45.7645769" lon="9.9360124"><ele>359.0</ele><time>2026-05-03T08:49:00.967Z</time></trkpt><trkpt lat="45.7645244" lon="9.9359617"><ele>359.0</ele><time>2026-05-03T08:49:01.966Z</time></trkpt><trkpt lat="45.7644267" lon="9.9358715"><ele>359.0</ele><time>2026-05-03T08:49:04.042Z</time></trkpt><trkpt lat="45.7643276" lon="9.9357778"><ele>359.0</ele><time>2026-05-03T08:49:05.959Z</time></trkpt><trkpt lat="45.7642255" lon="9.9356872"><ele>359.6</ele><time>2026-05-03T08:49:07.966Z</time></trkpt><trkpt lat="45.7641691" lon="9.9356452"><ele>360.2</ele><time>2026-05-03T08:49:08.96Z</time></trkpt><trkpt lat="45.7640651" lon="9.9355545"><ele>360.8</ele><time>2026-05-03T08:49:10.966Z</time></trkpt><trkpt lat="45.7639738" lon="9.9354618"><ele>361.40000000000003</ele><time>2026-05-03T08:49:13.033Z</time></trkpt><trkpt lat="45.7638744" lon="9.9353859"><ele>362.0</ele><time>2026-05-03T08:49:14.966Z</time></trkpt><trkpt lat="45.7637787" lon="9.9353078"><ele>362.0</ele><time>2026-05-03T08:49:16.967Z</time></trkpt><trkpt lat="45.7636844" lon="9.9352282"><ele>362.0</ele><time>2026-05-03T08:49:18.984Z</time></trkpt><trkpt lat="45.7635884" lon="9.9351548"><ele>362.0</ele><time>2026-05-03T08:49:21.031Z</time></trkpt><trkpt lat="45.7634959" lon="9.9350708"><ele>362.0</ele><time>2026-05-03T08:49:23.04Z</time></trkpt><trkpt lat="45.7634066" lon="9.9349889"><ele>362.0</ele><time>2026-05-03T08:49:25.032Z</time></trkpt><trkpt lat="45.7633172" lon="9.9349034"><ele>364.0</ele><time>2026-05-03T08:49:26.966Z</time></trkpt><trkpt lat="45.7632228" lon="9.9348106"><ele>366.0</ele><time>2026-05-03T08:49:28.978Z</time></trkpt><trkpt lat="45.7631226" lon="9.9347253"><ele>368.0</ele><time>2026-05-03T08:49:30.966Z</time></trkpt><trkpt lat="45.7630252" lon="9.9346443"><ele>370.0</ele><time>2026-05-03T08:49:33.02Z</time></trkpt><trkpt lat="45.7629236" lon="9.9345522"><ele>370.0</ele><time>2026-05-03T08:49:35.028Z</time></trkpt><trkpt lat="45.7628205" lon="9.9344554"><ele>370.0</ele><time>2026-05-03T08:49:36.963Z</time></trkpt><trkpt lat="45.7627216" lon="9.934351"><ele>370.0</ele><time>2026-05-03T08:49:38.951Z</time></trkpt><trkpt lat="45.7626243" lon="9.9342451"><ele>370.0</ele><time>2026-05-03T08:49:40.962Z</time></trkpt><trkpt lat="45.7625745" lon="9.9341851"><ele>370.0</ele><time>2026-05-03T08:49:41.963Z</time></trkpt><trkpt lat="45.7624893" lon="9.9340618"><ele>370.71428571428567</ele><time>2026-05-03T08:49:44.05Z</time></trkpt><trkpt lat="45.7624437" lon="9.9339991"><ele>371.42857142857144</ele><time>2026-05-03T08:49:45.049Z</time></trkpt><trkpt lat="45.762397" lon="9.9339355"><ele>372.1428571428571</ele><time>2026-05-03T08:49:45.956Z</time></trkpt><trkpt lat="45.7623541" lon="9.9338666"><ele>372.85714285714283</ele><time>2026-05-03T08:49:46.958Z</time></trkpt><trkpt lat="45.7623104" lon="9.9337957"><ele>373.57142857142856</ele><time>2026-05-03T08:49:47.963Z</time></trkpt><trkpt lat="45.7622655" lon="9.933724"><ele>374.2857142857143</ele><time>2026-05-03T08:49:48.961Z</time></trkpt><trkpt lat="45.7622215" lon="9.933657"><ele>375.0</ele><time>2026-05-03T08:49:49.963Z</time></trkpt><trkpt lat="45.7621311" lon="9.9335356"><ele>375.0</ele><time>2026-05-03T08:49:51.968Z</time></trkpt><trkpt lat="45.7620472" lon="9.9334221"><ele>375.0</ele><time>2026-05-03T08:49:54.046Z</time></trkpt><trkpt lat="45.7619712" lon="9.933307"><ele>375.0</ele><time>2026-05-03T08:49:56.022Z</time></trkpt><trkpt lat="45.7618929" lon="9.9331886"><ele>375.0</ele><time>2026-05-03T08:49:58.02Z</time></trkpt><trkpt lat="45.7618172" lon="9.9330724"><ele>375.8</ele><time>2026-05-03T08:50:00.028Z</time></trkpt><trkpt lat="45.761743" lon="9.9329476"><ele>376.6</ele><time>2026-05-03T08:50:01.971Z</time></trkpt><trkpt lat="45.7616788" lon="9.9328232"><ele>377.4</ele><time>2026-05-03T08:50:04.038Z</time></trkpt><trkpt lat="45.7616108" lon="9.932698"><ele>378.2</ele><time>2026-05-03T08:50:06.031Z</time></trkpt><trkpt lat="45.7615395" lon="9.9325876"><ele>379.0</ele><time>2026-05-03T08:50:07.974Z</time></trkpt><trkpt lat="45.7614683" lon="9.9324823"><ele>377.0</ele><time>2026-05-03T08:50:10.047Z</time></trkpt><trkpt lat="45.7613974" lon="9.9323705"><ele>375.0</ele><time>2026-05-03T08:50:11.954Z</time></trkpt><trkpt lat="45.7613239" lon="9.9322619"><ele>373.0</ele><time>2026-05-03T08:50:14.031Z</time></trkpt><trkpt lat="45.7612497" lon="9.9321492"><ele>371.0</ele><time>2026-05-03T08:50:16.031Z</time></trkpt><trkpt lat="45.7611806" lon="9.9320458"><ele>369.0</ele><time>2026-05-03T08:50:17.965Z</time></trkpt><trkpt lat="45.7611101" lon="9.9319265"><ele>369.0</ele><time>2026-05-03T08:50:19.956Z</time></trkpt><trkpt lat="45.7610349" lon="9.9318"><ele>369.0</ele><time>2026-05-03T08:50:21.962Z</time></trkpt><trkpt lat="45.7609625" lon="9.9316833"><ele>369.0</ele><time>2026-05-03T08:50:23.974Z</time></trkpt><trkpt lat="45.7608918" lon="9.9315769"><ele>369.0</ele><time>2026-05-03T08:50:26.026Z</time></trkpt><trkpt lat="45.76081" lon="9.931474"><ele>369.0</ele><time>2026-05-03T08:50:28.032Z</time></trkpt><trkpt lat="45.7607372" lon="9.9313644"><ele>368.79999999999995</ele><time>2026-05-03T08:50:29.976Z</time></trkpt><trkpt lat="45.7606679" lon="9.9312513"><ele>368.59999999999997</ele><time>2026-05-03T08:50:31.964Z</time></trkpt><trkpt lat="45.7605977" lon="9.9311457"><ele>368.4</ele><time>2026-05-03T08:50:33.966Z</time></trkpt><trkpt lat="45.7605165" lon="9.9310382"><ele>368.2</ele><time>2026-05-03T08:50:36.036Z</time></trkpt><trkpt lat="45.7604438" lon="9.9309257"><ele>368.0</ele><time>2026-05-03T08:50:37.969Z</time></trkpt><trkpt lat="45.7603666" lon="9.9307954"><ele>368.0</ele><time>2026-05-03T08:50:40.033Z</time></trkpt><trkpt lat="45.7603239" lon="9.9307228"><ele>368.0</ele><time>2026-05-03T08:50:41.033Z</time></trkpt><trkpt lat="45.7602728" lon="9.9306587"><ele>368.0</ele><time>2026-05-03T08:50:41.94Z</time></trkpt><trkpt lat="45.7602192" lon="9.9305833"><ele>368.0</ele><time>2026-05-03T08:50:42.961Z</time></trkpt><trkpt lat="45.7601696" lon="9.9305038"><ele>368.0</ele><time>2026-05-03T08:50:43.957Z</time></trkpt><trkpt lat="45.7601192" lon="9.9304252"><ele>368.0</ele><time>2026-05-03T08:50:45.03Z</time></trkpt><trkpt lat="45.7600726" lon="9.9303496"><ele>368.0</ele><time>2026-05-03T08:50:46.036Z</time></trkpt><trkpt lat="45.7600268" lon="9.9302708"><ele>367.59999999999997</ele><time>2026-05-03T08:50:46.961Z</time></trkpt><trkpt lat="45.75998" lon="9.9301806"><ele>367.2</ele><time>2026-05-03T08:50:47.957Z</time></trkpt><trkpt lat="45.7599294" lon="9.9300812"><ele>366.8</ele><time>2026-05-03T08:50:48.951Z</time></trkpt><trkpt lat="45.7598769" lon="9.9299613"><ele>366.4</ele><time>2026-05-03T08:50:49.956Z</time></trkpt><trkpt lat="45.7598267" lon="9.929829"><ele>366.0</ele><time>2026-05-03T08:50:50.96Z</time></trkpt><trkpt lat="45.7597826" lon="9.9296876"><ele>366.0</ele><time>2026-05-03T08:50:51.959Z</time></trkpt><trkpt lat="45.7597357" lon="9.9295472"><ele>366.0</ele><time>2026-05-03T08:50:53.028Z</time></trkpt><trkpt lat="45.759691" lon="9.9293987"><ele>366.0</ele><time>2026-05-03T08:50:54.025Z</time></trkpt><trkpt lat="45.7596464" lon="9.9292437"><ele>366.0</ele><time>2026-05-03T08:50:55.037Z</time></trkpt><trkpt lat="45.7595938" lon="9.9290832"><ele>362.0</ele><time>2026-05-03T08:50:56.029Z</time></trkpt><trkpt lat="45.7595433" lon="9.9289248"><ele>358.0</ele><time>2026-05-03T08:50:56.955Z</time></trkpt><trkpt lat="45.7594899" lon="9.9287779"><ele>354.0</ele><time>2026-05-03T08:50:57.961Z</time></trkpt><trkpt lat="45.7594377" lon="9.9286236"><ele>350.0</ele><time>2026-05-03T08:50:58.974Z</time></trkpt><trkpt lat="45.7593877" lon="9.9284736"><ele>353.25</ele><time>2026-05-03T08:51:00.031Z</time></trkpt><trkpt lat="45.7593389" lon="9.9283184"><ele>356.5</ele><time>2026-05-03T08:51:00.978Z</time></trkpt><trkpt lat="45.7592872" lon="9.9281525"><ele>359.75</ele><time>2026-05-03T08:51:01.976Z</time></trkpt><trkpt lat="45.7592356" lon="9.9279905"><ele>363.0</ele><time>2026-05-03T08:51:02.951Z</time></trkpt><trkpt lat="45.7591826" lon="9.9278368"><ele>363.0</ele><time>2026-05-03T08:51:03.964Z</time></trkpt><trkpt lat="45.7591259" lon="9.927676"><ele>363.0</ele><time>2026-05-03T08:51:04.967Z</time></trkpt><trkpt lat="45.7590729" lon="9.9275171"><ele>363.0</ele><time>2026-05-03T08:51:05.97Z</time></trkpt><trkpt lat="45.7590141" lon="9.9273512"><ele>363.0</ele><time>2026-05-03T08:51:06.955Z</time></trkpt><trkpt lat="45.7589652" lon="9.9271886"><ele>359.5</ele><time>2026-05-03T08:51:07.963Z</time></trkpt><trkpt lat="45.7589175" lon="9.9270235"><ele>356.0</ele><time>2026-05-03T08:51:08.966Z</time></trkpt><trkpt lat="45.7588705" lon="9.9268545"><ele>352.5</ele><time>2026-05-03T08:51:09.964Z</time></trkpt><trkpt lat="45.7588235" lon="9.9266822"><ele>349.0</ele><time>2026-05-03T08:51:10.964Z</time></trkpt><trkpt lat="45.7587783" lon="9.9265136"><ele>347.2</ele><time>2026-05-03T08:51:11.971Z</time></trkpt><trkpt lat="45.758736" lon="9.9263482"><ele>345.4</ele><time>2026-05-03T08:51:12.968Z</time></trkpt><trkpt lat="45.7586982" lon="9.9261895"><ele>343.6</ele><time>2026-05-03T08:51:13.971Z</time></trkpt><trkpt lat="45.7586607" lon="9.9260468"><ele>341.8</ele><time>2026-05-03T08:51:14.979Z</time></trkpt><trkpt lat="45.758628" lon="9.9259208"><ele>340.0</ele><time>2026-05-03T08:51:15.973Z</time></trkpt><trkpt lat="45.7586031" lon="9.9258098"><ele>339.0</ele><time>2026-05-03T08:51:16.965Z</time></trkpt><trkpt lat="45.7585793" lon="9.9257164"><ele>338.0</ele><time>2026-05-03T08:51:17.965Z</time></trkpt><trkpt lat="45.7585436" lon="9.9255762"><ele>337.0</ele><time>2026-05-03T08:51:19.968Z</time></trkpt><trkpt lat="45.7585217" lon="9.9254553"><ele>336.0</ele><time>2026-05-03T08:51:22.971Z</time></trkpt><trkpt lat="45.7585016" lon="9.9253606"><ele>335.0</ele><time>2026-05-03T08:51:25.964Z</time></trkpt><trkpt lat="45.7584978" lon="9.9252466"><ele>334.0</ele><time>2026-05-03T08:51:28.961Z</time></trkpt><trkpt lat="45.7584858" lon="9.9251285"><ele>336.5</ele><time>2026-05-03T08:51:30.97Z</time></trkpt><trkpt lat="45.7584727" lon="9.9249782"><ele>339.0</ele><time>2026-05-03T08:51:33.03Z</time></trkpt><trkpt lat="45.758456" lon="9.9248022"><ele>341.5</ele><time>2026-05-03T08:51:35.036Z</time></trkpt><trkpt lat="45.7584445" lon="9.9246232"><ele>344.0</ele><time>2026-05-03T08:51:36.966Z</time></trkpt><trkpt lat="45.7584259" lon="9.9244426"><ele>344.0</ele><time>2026-05-03T08:51:38.973Z</time></trkpt><trkpt lat="45.7584122" lon="9.9243474"><ele>344.0</ele><time>2026-05-03T08:51:39.959Z</time></trkpt><trkpt lat="45.7583942" lon="9.9242565"><ele>344.0</ele><time>2026-05-03T08:51:40.962Z</time></trkpt><trkpt lat="45.7583712" lon="9.9241706"><ele>344.0</ele><time>2026-05-03T08:51:41.977Z</time></trkpt><trkpt lat="45.7583243" lon="9.9240071"><ele>344.0</ele><time>2026-05-03T08:51:44.019Z</time></trkpt><trkpt lat="45.7582793" lon="9.9238483"><ele>344.0</ele><time>2026-05-03T08:51:45.998Z</time></trkpt><trkpt lat="45.7582243" lon="9.9237022"><ele>343.75</ele><time>2026-05-03T08:51:47.981Z</time></trkpt><trkpt lat="45.7581755" lon="9.9235604"><ele>343.5</ele><time>2026-05-03T08:51:49.984Z</time></trkpt><trkpt lat="45.7581161" lon="9.9234244"><ele>343.25</ele><time>2026-05-03T08:51:51.968Z</time></trkpt><trkpt lat="45.7580293" lon="9.9233035"><ele>343.0</ele><time>2026-05-03T08:51:53.975Z</time></trkpt><trkpt lat="45.7579364" lon="9.9232027"><ele>342.5</ele><time>2026-05-03T08:51:55.97Z</time></trkpt><trkpt lat="45.7578424" lon="9.9231147"><ele>342.0</ele><time>2026-05-03T08:51:57.964Z</time></trkpt><trkpt lat="45.7577499" lon="9.9230146"><ele>341.5</ele><time>2026-05-03T08:51:59.953Z</time></trkpt><trkpt lat="45.7576541" lon="9.9229089"><ele>341.0</ele><time>2026-05-03T08:52:01.975Z</time></trkpt><trkpt lat="45.757569" lon="9.9227784"><ele>342.20000000000005</ele><time>2026-05-03T08:52:04.041Z</time></trkpt><trkpt lat="45.7575258" lon="9.9227102"><ele>343.40000000000003</ele><time>2026-05-03T08:52:04.979Z</time></trkpt><trkpt lat="45.7574837" lon="9.9226427"><ele>344.6</ele><time>2026-05-03T08:52:06.021Z</time></trkpt><trkpt lat="45.7574261" lon="9.9224843"><ele>345.8</ele><time>2026-05-03T08:52:07.975Z</time></trkpt><trkpt lat="45.7573783" lon="9.9223102"><ele>347.0</ele><time>2026-05-03T08:52:09.958Z</time></trkpt><trkpt lat="45.7573511" lon="9.9222162"><ele>347.0</ele><time>2026-05-03T08:52:10.961Z</time></trkpt><trkpt lat="45.7573218" lon="9.9221241"><ele>347.0</ele><time>2026-05-03T08:52:11.959Z</time></trkpt><trkpt lat="45.7572952" lon="9.9220332"><ele>347.0</ele><time>2026-05-03T08:52:13.006Z</time></trkpt><trkpt lat="45.7572697" lon="9.9219501"><ele>347.0</ele><time>2026-05-03T08:52:13.971Z</time></trkpt><trkpt lat="45.757242" lon="9.9218617"><ele>347.0</ele><time>2026-05-03T08:52:14.967Z</time></trkpt><trkpt lat="45.7572175" lon="9.9217735"><ele>347.0</ele><time>2026-05-03T08:52:15.964Z</time></trkpt><trkpt lat="45.7571919" lon="9.9216837"><ele>347.0</ele><time>2026-05-03T08:52:16.969Z</time></trkpt><trkpt lat="45.7571448" lon="9.9215284"><ele>347.0</ele><time>2026-05-03T08:52:18.971Z</time></trkpt><trkpt lat="45.7571245" lon="9.9214414"><ele>347.0</ele><time>2026-05-03T08:52:19.967Z</time></trkpt><trkpt lat="45.757097" lon="9.921357"><ele>347.0</ele><time>2026-05-03T08:52:20.972Z</time></trkpt><trkpt lat="45.7570672" lon="9.9212698"><ele>347.0</ele><time>2026-05-03T08:52:21.976Z</time></trkpt><trkpt lat="45.7570404" lon="9.9211733"><ele>347.0</ele><time>2026-05-03T08:52:22.968Z</time></trkpt><trkpt lat="45.7570162" lon="9.9210817"><ele>347.0</ele><time>2026-05-03T08:52:23.975Z</time></trkpt><trkpt lat="45.7569934" lon="9.9209881"><ele>347.0</ele><time>2026-05-03T08:52:24.964Z</time></trkpt><trkpt lat="45.7569704" lon="9.9208926"><ele>347.0</ele><time>2026-05-03T08:52:25.97Z</time></trkpt><trkpt lat="45.7569509" lon="9.920796"><ele>347.0</ele><time>2026-05-03T08:52:26.965Z</time></trkpt><trkpt lat="45.7569447" lon="9.9206982"><ele>347.0</ele><time>2026-05-03T08:52:27.981Z</time></trkpt><trkpt lat="45.7569368" lon="9.9205981"><ele>347.0</ele><time>2026-05-03T08:52:28.964Z</time></trkpt><trkpt lat="45.7569403" lon="9.920493"><ele>347.0</ele><time>2026-05-03T08:52:29.956Z</time></trkpt><trkpt lat="45.756948" lon="9.9203939"><ele>347.0</ele><time>2026-05-03T08:52:30.965Z</time></trkpt><trkpt lat="45.7569605" lon="9.9202914"><ele>347.0</ele><time>2026-05-03T08:52:31.97Z</time></trkpt><trkpt lat="45.756971" lon="9.9201858"><ele>347.0</ele><time>2026-05-03T08:52:32.97Z</time></trkpt><trkpt lat="45.7569804" lon="9.9200834"><ele>347.0</ele><time>2026-05-03T08:52:33.969Z</time></trkpt><trkpt lat="45.7569914" lon="9.9199907"><ele>347.0</ele><time>2026-05-03T08:52:34.959Z</time></trkpt><trkpt lat="45.757004" lon="9.9198993"><ele>347.0</ele><time>2026-05-03T08:52:35.963Z</time></trkpt><trkpt lat="45.7570148" lon="9.9197281"><ele>347.0</ele><time>2026-05-03T08:52:37.969Z</time></trkpt><trkpt lat="45.7570092" lon="9.9196382"><ele>347.0</ele><time>2026-05-03T08:52:38.974Z</time></trkpt><trkpt lat="45.7569932" lon="9.9195493"><ele>346.5</ele><time>2026-05-03T08:52:39.966Z</time></trkpt><trkpt lat="45.7569353" lon="9.9193913"><ele>346.0</ele><time>2026-05-03T08:52:41.971Z</time></trkpt><trkpt lat="45.7568917" lon="9.9193185"><ele>345.5</ele><time>2026-05-03T08:52:42.97Z</time></trkpt><trkpt lat="45.7568556" lon="9.9192406"><ele>345.0</ele><time>2026-05-03T08:52:43.989Z</time></trkpt><trkpt lat="45.7568259" lon="9.9191501"><ele>344.5</ele><time>2026-05-03T08:52:44.967Z</time></trkpt><trkpt lat="45.7567926" lon="9.9190536"><ele>344.0</ele><time>2026-05-03T08:52:45.973Z</time></trkpt><trkpt lat="45.7567566" lon="9.9189701"><ele>343.7142857142857</ele><time>2026-05-03T08:52:46.964Z</time></trkpt><trkpt lat="45.7567138" lon="9.9188854"><ele>343.42857142857144</ele><time>2026-05-03T08:52:47.96Z</time></trkpt><trkpt lat="45.7566683" lon="9.9187959"><ele>343.1428571428571</ele><time>2026-05-03T08:52:48.972Z</time></trkpt><trkpt lat="45.7566247" lon="9.9187131"><ele>342.8571428571429</ele><time>2026-05-03T08:52:49.963Z</time></trkpt><trkpt lat="45.7565808" lon="9.9186312"><ele>342.57142857142856</ele><time>2026-05-03T08:52:50.98Z</time></trkpt><trkpt lat="45.7565419" lon="9.9185449"><ele>342.2857142857143</ele><time>2026-05-03T08:52:51.966Z</time></trkpt><trkpt lat="45.7564995" lon="9.9184633"><ele>342.0</ele><time>2026-05-03T08:52:52.963Z</time></trkpt><trkpt lat="45.7564601" lon="9.9183795"><ele>341.6666666666667</ele><time>2026-05-03T08:52:53.97Z</time></trkpt><trkpt lat="45.7564281" lon="9.9182943"><ele>341.3333333333333</ele><time>2026-05-03T08:52:54.973Z</time></trkpt><trkpt lat="45.7563943" lon="9.9182115"><ele>341.0</ele><time>2026-05-03T08:52:55.965Z</time></trkpt><trkpt lat="45.7563605" lon="9.9181292"><ele>340.66666666666663</ele><time>2026-05-03T08:52:56.96Z</time></trkpt><trkpt lat="45.7563174" lon="9.918047"><ele>340.3333333333333</ele><time>2026-05-03T08:52:57.958Z</time></trkpt><trkpt lat="45.756278" lon="9.9179702"><ele>340.0</ele><time>2026-05-03T08:52:58.965Z</time></trkpt><trkpt lat="45.7562012" lon="9.9178496"><ele>340.0</ele><time>2026-05-03T08:53:00.97Z</time></trkpt><trkpt lat="45.7561105" lon="9.9177246"><ele>340.0</ele><time>2026-05-03T08:53:02.959Z</time></trkpt><trkpt lat="45.7560618" lon="9.9176594"><ele>340.0</ele><time>2026-05-03T08:53:03.965Z</time></trkpt><trkpt lat="45.7560148" lon="9.9175972"><ele>340.0</ele><time>2026-05-03T08:53:04.968Z</time></trkpt><trkpt lat="45.7559618" lon="9.9175415"><ele>340.0</ele><time>2026-05-03T08:53:05.975Z</time></trkpt><trkpt lat="45.7559084" lon="9.9174811"><ele>340.0</ele><time>2026-05-03T08:53:06.973Z</time></trkpt><trkpt lat="45.7558577" lon="9.9174258"><ele>339.6</ele><time>2026-05-03T08:53:07.969Z</time></trkpt><trkpt lat="45.7557519" lon="9.9173342"><ele>339.2</ele><time>2026-05-03T08:53:09.978Z</time></trkpt><trkpt lat="45.7556912" lon="9.9172942"><ele>338.79999999999995</ele><time>2026-05-03T08:53:10.963Z</time></trkpt><trkpt lat="45.7555862" lon="9.9172199"><ele>338.4</ele><time>2026-05-03T08:53:12.968Z</time></trkpt><trkpt lat="45.7554826" lon="9.9171467"><ele>338.0</ele><time>2026-05-03T08:53:14.97Z</time></trkpt><trkpt lat="45.755386" lon="9.91706"><ele>338.0</ele><time>2026-05-03T08:53:16.969Z</time></trkpt><trkpt lat="45.7552925" lon="9.9169717"><ele>338.0</ele><time>2026-05-03T08:53:18.945Z</time></trkpt><trkpt lat="45.7551959" lon="9.9168601"><ele>338.0</ele><time>2026-05-03T08:53:20.959Z</time></trkpt><trkpt lat="45.755149" lon="9.9167993"><ele>338.0</ele><time>2026-05-03T08:53:21.95Z</time></trkpt><trkpt lat="45.7550628" lon="9.9166742"><ele>338.0</ele><time>2026-05-03T08:53:23.969Z</time></trkpt><trkpt lat="45.7550207" lon="9.9166026"><ele>337.5</ele><time>2026-05-03T08:53:24.972Z</time></trkpt><trkpt lat="45.7549753" lon="9.9165333"><ele>337.0</ele><time>2026-05-03T08:53:25.974Z</time></trkpt><trkpt lat="45.7549304" lon="9.9164644"><ele>336.5</ele><time>2026-05-03T08:53:26.966Z</time></trkpt><trkpt lat="45.7548828" lon="9.9164003"><ele>336.0</ele><time>2026-05-03T08:53:27.979Z</time></trkpt><trkpt lat="45.7548369" lon="9.9163359"><ele>335.5</ele><time>2026-05-03T08:53:28.977Z</time></trkpt><trkpt lat="45.7547447" lon="9.9162037"><ele>335.0</ele><time>2026-05-03T08:53:30.968Z</time></trkpt><trkpt lat="45.7546564" lon="9.9160784"><ele>335.0</ele><time>2026-05-03T08:53:32.982Z</time></trkpt><trkpt lat="45.7545575" lon="9.9159635"><ele>335.0</ele><time>2026-05-03T08:53:34.97Z</time></trkpt><trkpt lat="45.7545081" lon="9.9159054"><ele>335.0</ele><time>2026-05-03T08:53:35.973Z</time></trkpt><trkpt lat="45.7544562" lon="9.9158445"><ele>335.0</ele><time>2026-05-03T08:53:36.974Z</time></trkpt><trkpt lat="45.7544052" lon="9.9157822"><ele>335.0</ele><time>2026-05-03T08:53:37.969Z</time></trkpt><trkpt lat="45.7543562" lon="9.9157206"><ele>335.0</ele><time>2026-05-03T08:53:38.98Z</time></trkpt><trkpt lat="45.7543079" lon="9.9156603"><ele>335.33333333333337</ele><time>2026-05-03T08:53:39.975Z</time></trkpt><trkpt lat="45.7542105" lon="9.9155375"><ele>335.6666666666667</ele><time>2026-05-03T08:53:41.947Z</time></trkpt><trkpt lat="45.7541611" lon="9.9154718"><ele>336.0</ele><time>2026-05-03T08:53:42.963Z</time></trkpt><trkpt lat="45.7541102" lon="9.9154159"><ele>336.3333333333333</ele><time>2026-05-03T08:53:43.972Z</time></trkpt><trkpt lat="45.7540587" lon="9.9153624"><ele>336.66666666666663</ele><time>2026-05-03T08:53:44.972Z</time></trkpt><trkpt lat="45.7539613" lon="9.9152532"><ele>337.0</ele><time>2026-05-03T08:53:46.971Z</time></trkpt><trkpt lat="45.7538674" lon="9.9151475"><ele>337.25</ele><time>2026-05-03T08:53:48.959Z</time></trkpt><trkpt lat="45.7537787" lon="9.9150465"><ele>337.5</ele><time>2026-05-03T08:53:50.978Z</time></trkpt><trkpt lat="45.7536868" lon="9.9149322"><ele>337.75</ele><time>2026-05-03T08:53:52.97Z</time></trkpt><trkpt lat="45.7536048" lon="9.9148077"><ele>338.0</ele><time>2026-05-03T08:53:54.964Z</time></trkpt><trkpt lat="45.753535" lon="9.9146715"><ele>338.0</ele><time>2026-05-03T08:53:56.967Z</time></trkpt><trkpt lat="45.7534972" lon="9.9145972"><ele>338.0</ele><time>2026-05-03T08:53:57.983Z</time></trkpt><trkpt lat="45.7534172" lon="9.9144578"><ele>338.0</ele><time>2026-05-03T08:53:59.98Z</time></trkpt><trkpt lat="45.7533788" lon="9.9143858"><ele>338.0</ele><time>2026-05-03T08:54:00.972Z</time></trkpt><trkpt lat="45.7533373" lon="9.9143149"><ele>338.0</ele><time>2026-05-03T08:54:01.974Z</time></trkpt><trkpt lat="45.7532588" lon="9.9141807"><ele>338.0</ele><time>2026-05-03T08:54:04.075Z</time></trkpt><trkpt lat="45.7531856" lon="9.91405"><ele>337.0</ele><time>2026-05-03T08:54:06.03Z</time></trkpt><trkpt lat="45.7531075" lon="9.9139189"><ele>336.0</ele><time>2026-05-03T08:54:07.96Z</time></trkpt><trkpt lat="45.7530264" lon="9.9137844"><ele>335.0</ele><time>2026-05-03T08:54:10.035Z</time></trkpt><trkpt lat="45.7529435" lon="9.913656"><ele>334.0</ele><time>2026-05-03T08:54:11.962Z</time></trkpt><trkpt lat="45.7528552" lon="9.9135459"><ele>334.0</ele><time>2026-05-03T08:54:14.01Z</time></trkpt><trkpt lat="45.7527757" lon="9.9134323"><ele>334.0</ele><time>2026-05-03T08:54:16.034Z</time></trkpt><trkpt lat="45.7526913" lon="9.9133088"><ele>334.0</ele><time>2026-05-03T08:54:17.97Z</time></trkpt><trkpt lat="45.7526069" lon="9.913184"><ele>334.0</ele><time>2026-05-03T08:54:19.967Z</time></trkpt><trkpt lat="45.7525133" lon="9.9130658"><ele>334.75</ele><time>2026-05-03T08:54:21.946Z</time></trkpt><trkpt lat="45.7524248" lon="9.9129552"><ele>335.5</ele><time>2026-05-03T08:54:23.975Z</time></trkpt><trkpt lat="45.7523321" lon="9.912864"><ele>336.25</ele><time>2026-05-03T08:54:26.041Z</time></trkpt><trkpt lat="45.7522338" lon="9.9127777"><ele>337.0</ele><time>2026-05-03T08:54:27.951Z</time></trkpt><trkpt lat="45.752135" lon="9.9126964"><ele>337.0</ele><time>2026-05-03T08:54:29.963Z</time></trkpt><trkpt lat="45.7520376" lon="9.9126088"><ele>337.0</ele><time>2026-05-03T08:54:31.968Z</time></trkpt><trkpt lat="45.7519399" lon="9.9125204"><ele>337.0</ele><time>2026-05-03T08:54:33.952Z</time></trkpt><trkpt lat="45.751883" lon="9.912476"><ele>337.0</ele><time>2026-05-03T08:54:35.035Z</time></trkpt><trkpt lat="45.751825" lon="9.9124286"><ele>337.0</ele><time>2026-05-03T08:54:36.033Z</time></trkpt><trkpt lat="45.75172" lon="9.9123361"><ele>337.25</ele><time>2026-05-03T08:54:37.979Z</time></trkpt><trkpt lat="45.7516195" lon="9.912256"><ele>337.5</ele><time>2026-05-03T08:54:40.034Z</time></trkpt><trkpt lat="45.7515088" lon="9.9121654"><ele>337.75</ele><time>2026-05-03T08:54:41.965Z</time></trkpt><trkpt lat="45.751403" lon="9.9121003"><ele>338.0</ele><time>2026-05-03T08:54:44.033Z</time></trkpt><trkpt lat="45.7512919" lon="9.9120541"><ele>338.0</ele><time>2026-05-03T08:54:46.026Z</time></trkpt><trkpt lat="45.7511847" lon="9.9120548"><ele>338.0</ele><time>2026-05-03T08:54:48.033Z</time></trkpt><trkpt lat="45.751087" lon="9.912072"><ele>338.0</ele><time>2026-05-03T08:54:50.05Z</time></trkpt><trkpt lat="45.750992" lon="9.9120747"><ele>338.0</ele><time>2026-05-03T08:54:51.968Z</time></trkpt><trkpt lat="45.7509004" lon="9.9120509"><ele>338.0</ele><time>2026-05-03T08:54:53.975Z</time></trkpt><trkpt lat="45.7508199" lon="9.9119711"><ele>338.33333333333337</ele><time>2026-05-03T08:54:56.023Z</time></trkpt><trkpt lat="45.750723" lon="9.9118702"><ele>338.6666666666667</ele><time>2026-05-03T08:54:57.978Z</time></trkpt><trkpt lat="45.7506662" lon="9.9118061"><ele>339.0</ele><time>2026-05-03T08:54:58.971Z</time></trkpt><trkpt lat="45.7506139" lon="9.911736"><ele>339.3333333333333</ele><time>2026-05-03T08:54:59.996Z</time></trkpt><trkpt lat="45.7505667" lon="9.9116656"><ele>339.66666666666663</ele><time>2026-05-03T08:55:00.978Z</time></trkpt><trkpt lat="45.7505232" lon="9.9115928"><ele>340.0</ele><time>2026-05-03T08:55:01.983Z</time></trkpt><trkpt lat="45.7504383" lon="9.9114654"><ele>340.0</ele><time>2026-05-03T08:55:03.971Z</time></trkpt><trkpt lat="45.7503561" lon="9.9113505"><ele>340.0</ele><time>2026-05-03T08:55:05.985Z</time></trkpt><trkpt lat="45.7502546" lon="9.9112536"><ele>340.0</ele><time>2026-05-03T08:55:07.979Z</time></trkpt><trkpt lat="45.750167" lon="9.9111542"><ele>340.0</ele><time>2026-05-03T08:55:09.978Z</time></trkpt><trkpt lat="45.7500768" lon="9.9110738"><ele>339.75</ele><time>2026-05-03T08:55:11.98Z</time></trkpt><trkpt lat="45.7499676" lon="9.911014"><ele>339.5</ele><time>2026-05-03T08:55:14.042Z</time></trkpt><trkpt lat="45.749856" lon="9.9109496"><ele>339.25</ele><time>2026-05-03T08:55:15.967Z</time></trkpt><trkpt lat="45.7497405" lon="9.9108982"><ele>339.0</ele><time>2026-05-03T08:55:17.965Z</time></trkpt><trkpt lat="45.7496302" lon="9.9108645"><ele>339.0</ele><time>2026-05-03T08:55:19.965Z</time></trkpt><trkpt lat="45.7495217" lon="9.910828"><ele>339.0</ele><time>2026-05-03T08:55:21.968Z</time></trkpt><trkpt lat="45.7494143" lon="9.9107948"><ele>339.0</ele><time>2026-05-03T08:55:23.977Z</time></trkpt><trkpt lat="45.7493188" lon="9.910762"><ele>339.0</ele><time>2026-05-03T08:55:25.946Z</time></trkpt><trkpt lat="45.7492238" lon="9.9107444"><ele>339.0</ele><time>2026-05-03T08:55:27.958Z</time></trkpt><trkpt lat="45.749125" lon="9.9107235"><ele>339.0</ele><time>2026-05-03T08:55:29.957Z</time></trkpt><trkpt lat="45.7490335" lon="9.9106919"><ele>339.0</ele><time>2026-05-03T08:55:31.962Z</time></trkpt><trkpt lat="45.7489463" lon="9.910646"><ele>339.0</ele><time>2026-05-03T08:55:33.988Z</time></trkpt><trkpt lat="45.7488522" lon="9.9106045"><ele>339.0</ele><time>2026-05-03T08:55:35.958Z</time></trkpt><trkpt lat="45.7487591" lon="9.9105735"><ele>339.0</ele><time>2026-05-03T08:55:37.957Z</time></trkpt><trkpt lat="45.7486611" lon="9.9105509"><ele>339.0</ele><time>2026-05-03T08:55:39.967Z</time></trkpt><trkpt lat="45.7485725" lon="9.9105111"><ele>339.0</ele><time>2026-05-03T08:55:41.977Z</time></trkpt><trkpt lat="45.7485036" lon="9.9104389"><ele>339.0</ele><time>2026-05-03T08:55:43.965Z</time></trkpt><trkpt lat="45.7484244" lon="9.9104383"><ele>339.0</ele><time>2026-05-03T08:55:46.98Z</time></trkpt><trkpt lat="45.7484289" lon="9.9105612"><ele>339.0</ele><time>2026-05-03T08:55:49.983Z</time></trkpt><trkpt lat="45.7484318" lon="9.9106564"><ele>339.0</ele><time>2026-05-03T08:55:54.984Z</time></trkpt><trkpt lat="45.7483662" lon="9.9106745"><ele>339.0</ele><time>2026-05-03T08:55:56.985Z</time></trkpt><trkpt lat="45.7482908" lon="9.9106748"><ele>339.0</ele><time>2026-05-03T08:56:00.018Z</time></trkpt><trkpt lat="45.7482154" lon="9.9106935"><ele>339.0</ele><time>2026-05-03T08:56:03.954Z</time></trkpt><trkpt lat="45.7481256" lon="9.9106564"><ele>339.0</ele><time>2026-05-03T08:56:06.96Z</time></trkpt><trkpt lat="45.7480203" lon="9.9106313"><ele>339.0</ele><time>2026-05-03T08:56:08.96Z</time></trkpt><trkpt lat="45.7479387" lon="9.9106178"><ele>339.0</ele><time>2026-05-03T08:56:09.969Z</time></trkpt><trkpt lat="45.7478734" lon="9.9106072"><ele>339.0</ele><time>2026-05-03T08:56:10.961Z</time></trkpt><trkpt lat="45.7478031" lon="9.9105919"><ele>339.0</ele><time>2026-05-03T08:56:11.963Z</time></trkpt><trkpt lat="45.7477228" lon="9.9105754"><ele>339.0</ele><time>2026-05-03T08:56:13.034Z</time></trkpt><trkpt lat="45.7476514" lon="9.9105476"><ele>339.0</ele><time>2026-05-03T08:56:14.029Z</time></trkpt><trkpt lat="45.7475745" lon="9.9105331"><ele>339.0</ele><time>2026-05-03T08:56:15.03Z</time></trkpt><trkpt lat="45.7475025" lon="9.9105134"><ele>339.0</ele><time>2026-05-03T08:56:16.036Z</time></trkpt><trkpt lat="45.7474181" lon="9.9104933"><ele>338.6666666666667</ele><time>2026-05-03T08:56:16.959Z</time></trkpt><trkpt lat="45.7473325" lon="9.9104791"><ele>338.3333333333333</ele><time>2026-05-03T08:56:17.972Z</time></trkpt><trkpt lat="45.7472478" lon="9.9104766"><ele>338.0</ele><time>2026-05-03T08:56:18.986Z</time></trkpt><trkpt lat="45.7471676" lon="9.9104829"><ele>337.66666666666663</ele><time>2026-05-03T08:56:20.038Z</time></trkpt><trkpt lat="45.7470914" lon="9.910492"><ele>337.3333333333333</ele><time>2026-05-03T08:56:21.036Z</time></trkpt><trkpt lat="45.7470138" lon="9.9105104"><ele>337.0</ele><time>2026-05-03T08:56:21.94Z</time></trkpt><trkpt lat="45.7469449" lon="9.9105222"><ele>337.0</ele><time>2026-05-03T08:56:22.956Z</time></trkpt><trkpt lat="45.7468797" lon="9.9105262"><ele>337.0</ele><time>2026-05-03T08:56:23.953Z</time></trkpt><trkpt lat="45.7467581" lon="9.9105316"><ele>337.0</ele><time>2026-05-03T08:56:26.036Z</time></trkpt><trkpt lat="45.7466547" lon="9.9105319"><ele>337.0</ele><time>2026-05-03T08:56:27.959Z</time></trkpt><trkpt lat="45.7465702" lon="9.9105239"><ele>337.0</ele><time>2026-05-03T08:56:30.048Z</time></trkpt><trkpt lat="45.746497" lon="9.9105243"><ele>337.0</ele><time>2026-05-03T08:56:31.966Z</time></trkpt><trkpt lat="45.7464053" lon="9.9105369"><ele>337.00000000000006</ele><time>2026-05-03T08:56:34.032Z</time></trkpt><trkpt lat="45.7463372" lon="9.9105687"><ele>337.0</ele><time>2026-05-03T08:56:36.038Z</time></trkpt><trkpt lat="45.7462639" lon="9.9106083"><ele>337.0</ele><time>2026-05-03T08:56:37.965Z</time></trkpt><trkpt lat="45.7461978" lon="9.9106595"><ele>337.0</ele><time>2026-05-03T08:56:39.966Z</time></trkpt><trkpt lat="45.7461428" lon="9.9107101"><ele>337.0</ele><time>2026-05-03T08:56:41.943Z</time></trkpt><trkpt lat="45.74608" lon="9.9107547"><ele>337.00000000000006</ele><time>2026-05-03T08:56:43.96Z</time></trkpt><trkpt lat="45.7460197" lon="9.9107924"><ele>337.0</ele><time>2026-05-03T08:56:45.954Z</time></trkpt><trkpt lat="45.7459574" lon="9.9108248"><ele>337.0</ele><time>2026-05-03T08:56:47.962Z</time></trkpt><trkpt lat="45.7458947" lon="9.9108543"><ele>337.0</ele><time>2026-05-03T08:56:49.971Z</time></trkpt><trkpt lat="45.7458228" lon="9.910853"><ele>337.0</ele><time>2026-05-03T08:56:51.955Z</time></trkpt><trkpt lat="45.7457334" lon="9.9108175"><ele>337.0</ele><time>2026-05-03T08:56:53.944Z</time></trkpt><trkpt lat="45.7456313" lon="9.9107673"><ele>337.0</ele><time>2026-05-03T08:56:55.967Z</time></trkpt><trkpt lat="45.7455093" lon="9.9107378"><ele>337.0</ele><time>2026-05-03T08:56:57.96Z</time></trkpt><trkpt lat="45.7453997" lon="9.9107129"><ele>337.0</ele><time>2026-05-03T08:56:59.963Z</time></trkpt><trkpt lat="45.7452876" lon="9.910703"><ele>337.0</ele><time>2026-05-03T08:57:01.961Z</time></trkpt><trkpt lat="45.7451781" lon="9.9106751"><ele>337.0</ele><time>2026-05-03T08:57:03.947Z</time></trkpt><trkpt lat="45.7450682" lon="9.9106563"><ele>337.0</ele><time>2026-05-03T08:57:05.956Z</time></trkpt><trkpt lat="45.7449623" lon="9.9106256"><ele>337.5</ele><time>2026-05-03T08:57:07.956Z</time></trkpt><trkpt lat="45.7448342" lon="9.9106158"><ele>338.0</ele><time>2026-05-03T08:57:09.966Z</time></trkpt><trkpt lat="45.744711" lon="9.910639"><ele>338.5</ele><time>2026-05-03T08:57:11.97Z</time></trkpt><trkpt lat="45.7445975" lon="9.9106833"><ele>339.0</ele><time>2026-05-03T08:57:13.965Z</time></trkpt><trkpt lat="45.7444897" lon="9.9107309"><ele>339.0</ele><time>2026-05-03T08:57:16.034Z</time></trkpt><trkpt lat="45.7443946" lon="9.9107687"><ele>339.0</ele><time>2026-05-03T08:57:17.938Z</time></trkpt><trkpt lat="45.7442884" lon="9.9107636"><ele>339.0</ele><time>2026-05-03T08:57:19.953Z</time></trkpt><trkpt lat="45.7441714" lon="9.9107353"><ele>339.0</ele><time>2026-05-03T08:57:21.97Z</time></trkpt><trkpt lat="45.7440542" lon="9.9107158"><ele>339.0</ele><time>2026-05-03T08:57:24.035Z</time></trkpt><trkpt lat="45.7439321" lon="9.9106922"><ele>338.79999999999995</ele><time>2026-05-03T08:57:26.037Z</time></trkpt><trkpt lat="45.7438124" lon="9.9106703"><ele>338.59999999999997</ele><time>2026-05-03T08:57:27.959Z</time></trkpt><trkpt lat="45.7436955" lon="9.9106567"><ele>338.4</ele><time>2026-05-03T08:57:30.031Z</time></trkpt><trkpt lat="45.7436302" lon="9.9106613"><ele>338.2</ele><time>2026-05-03T08:57:31.04Z</time></trkpt><trkpt lat="45.7435207" lon="9.9107085"><ele>338.0</ele><time>2026-05-03T08:57:33.042Z</time></trkpt><trkpt lat="45.7434254" lon="9.9107699"><ele>337.4</ele><time>2026-05-03T08:57:35.032Z</time></trkpt><trkpt lat="45.74332" lon="9.9108456"><ele>336.79999999999995</ele><time>2026-05-03T08:57:36.96Z</time></trkpt><trkpt lat="45.7432204" lon="9.9109211"><ele>336.2</ele><time>2026-05-03T08:57:38.952Z</time></trkpt><trkpt lat="45.7431222" lon="9.9109893"><ele>335.6</ele><time>2026-05-03T08:57:41.048Z</time></trkpt><trkpt lat="45.7430261" lon="9.9110445"><ele>335.0</ele><time>2026-05-03T08:57:42.96Z</time></trkpt><trkpt lat="45.74294" lon="9.9110988"><ele>336.6</ele><time>2026-05-03T08:57:44.957Z</time></trkpt><trkpt lat="45.7428536" lon="9.9111556"><ele>338.2</ele><time>2026-05-03T08:57:46.96Z</time></trkpt><trkpt lat="45.742756" lon="9.9112075"><ele>339.79999999999995</ele><time>2026-05-03T08:57:49.046Z</time></trkpt><trkpt lat="45.7426656" lon="9.9112635"><ele>341.4</ele><time>2026-05-03T08:57:50.962Z</time></trkpt><trkpt lat="45.7425761" lon="9.9113198"><ele>343.0</ele><time>2026-05-03T08:57:52.972Z</time></trkpt><trkpt lat="45.7424857" lon="9.9113738"><ele>343.0</ele><time>2026-05-03T08:57:54.961Z</time></trkpt><trkpt lat="45.7423924" lon="9.9114287"><ele>343.0</ele><time>2026-05-03T08:57:56.971Z</time></trkpt><trkpt lat="45.7423029" lon="9.9114837"><ele>343.0</ele><time>2026-05-03T08:57:58.99Z</time></trkpt><trkpt lat="45.7422167" lon="9.9115471"><ele>343.0</ele><time>2026-05-03T08:58:01.035Z</time></trkpt><trkpt lat="45.7421382" lon="9.9116149"><ele>343.0</ele><time>2026-05-03T08:58:02.966Z</time></trkpt><trkpt lat="45.7420671" lon="9.9116804"><ele>343.0</ele><time>2026-05-03T08:58:05.034Z</time></trkpt><trkpt lat="45.7419777" lon="9.911724"><ele>343.0</ele><time>2026-05-03T08:58:06.953Z</time></trkpt><trkpt lat="45.7418937" lon="9.9117566"><ele>343.0</ele><time>2026-05-03T08:58:09.036Z</time></trkpt><trkpt lat="45.7418035" lon="9.9117804"><ele>343.0</ele><time>2026-05-03T08:58:10.958Z</time></trkpt><trkpt lat="45.7417174" lon="9.9118095"><ele>343.0</ele><time>2026-05-03T08:58:12.959Z</time></trkpt><trkpt lat="45.7416373" lon="9.9118452"><ele>343.0</ele><time>2026-05-03T08:58:14.969Z</time></trkpt><trkpt lat="45.7415591" lon="9.9118417"><ele>343.0</ele><time>2026-05-03T08:58:16.955Z</time></trkpt><trkpt lat="45.7414785" lon="9.9118054"><ele>343.0</ele><time>2026-05-03T08:58:18.955Z</time></trkpt><trkpt lat="45.7413124" lon="9.91171"><ele>343.0</ele><time>2026-05-03T08:58:21.973Z</time></trkpt><trkpt lat="45.7411907" lon="9.9117572"><ele>343.0</ele><time>2026-05-03T08:58:23.963Z</time></trkpt><trkpt lat="45.7411272" lon="9.9118055"><ele>341.8333333333333</ele><time>2026-05-03T08:58:24.954Z</time></trkpt><trkpt lat="45.741047" lon="9.9118428"><ele>340.66666666666663</ele><time>2026-05-03T08:58:25.958Z</time></trkpt><trkpt lat="45.7409608" lon="9.9118701"><ele>339.5</ele><time>2026-05-03T08:58:26.966Z</time></trkpt><trkpt lat="45.740879" lon="9.9118738"><ele>338.3333333333333</ele><time>2026-05-03T08:58:27.968Z</time></trkpt><trkpt lat="45.7407958" lon="9.911873"><ele>337.1666666666667</ele><time>2026-05-03T08:58:28.953Z</time></trkpt><trkpt lat="45.740712" lon="9.9118605"><ele>336.0</ele><time>2026-05-03T08:58:29.954Z</time></trkpt><trkpt lat="45.7406285" lon="9.9118445"><ele>336.0</ele><time>2026-05-03T08:58:30.964Z</time></trkpt><trkpt lat="45.7405415" lon="9.9118273"><ele>336.0</ele><time>2026-05-03T08:58:31.967Z</time></trkpt><trkpt lat="45.7404545" lon="9.9118173"><ele>336.0</ele><time>2026-05-03T08:58:32.968Z</time></trkpt><trkpt lat="45.7403698" lon="9.9118112"><ele>336.0</ele><time>2026-05-03T08:58:33.963Z</time></trkpt><trkpt lat="45.7402785" lon="9.9118215"><ele>336.0</ele><time>2026-05-03T08:58:34.961Z</time></trkpt><trkpt lat="45.7401878" lon="9.9118558"><ele>336.0</ele><time>2026-05-03T08:58:36.043Z</time></trkpt><trkpt lat="45.7400995" lon="9.9119032"><ele>335.6</ele><time>2026-05-03T08:58:36.962Z</time></trkpt><trkpt lat="45.7400147" lon="9.911957"><ele>335.20000000000005</ele><time>2026-05-03T08:58:37.967Z</time></trkpt><trkpt lat="45.7399288" lon="9.9120127"><ele>334.79999999999995</ele><time>2026-05-03T08:58:38.968Z</time></trkpt><trkpt lat="45.7398425" lon="9.9120488"><ele>334.4</ele><time>2026-05-03T08:58:39.977Z</time></trkpt><trkpt lat="45.7397472" lon="9.9120453"><ele>334.0</ele><time>2026-05-03T08:58:41.022Z</time></trkpt><trkpt lat="45.7396674" lon="9.9120118"><ele>334.0</ele><time>2026-05-03T08:58:41.965Z</time></trkpt><trkpt lat="45.7395965" lon="9.911953"><ele>334.0</ele><time>2026-05-03T08:58:42.972Z</time></trkpt><trkpt lat="45.73953" lon="9.9119002"><ele>334.0</ele><time>2026-05-03T08:58:44.066Z</time></trkpt><trkpt lat="45.7394586" lon="9.9118664"><ele>334.0</ele><time>2026-05-03T08:58:45.039Z</time></trkpt><trkpt lat="45.7393935" lon="9.9118222"><ele>334.0</ele><time>2026-05-03T08:58:45.955Z</time></trkpt><trkpt lat="45.7393259" lon="9.9117935"><ele>334.0</ele><time>2026-05-03T08:58:46.959Z</time></trkpt><trkpt lat="45.7392601" lon="9.911769"><ele>334.0</ele><time>2026-05-03T08:58:47.96Z</time></trkpt><trkpt lat="45.739186" lon="9.9117531"><ele>332.0</ele><time>2026-05-03T08:58:48.973Z</time></trkpt><trkpt lat="45.7391214" lon="9.9117441"><ele>330.0</ele><time>2026-05-03T08:58:50.038Z</time></trkpt><trkpt lat="45.7390122" lon="9.9117174"><ele>328.0</ele><time>2026-05-03T08:58:51.969Z</time></trkpt><trkpt lat="45.7389027" lon="9.9117079"><ele>326.0</ele><time>2026-05-03T08:58:53.979Z</time></trkpt><trkpt lat="45.7387846" lon="9.911704"><ele>324.0</ele><time>2026-05-03T08:58:56.042Z</time></trkpt><trkpt lat="45.7386719" lon="9.9116876"><ele>324.0</ele><time>2026-05-03T08:58:57.98Z</time></trkpt><trkpt lat="45.7385643" lon="9.9116486"><ele>324.0</ele><time>2026-05-03T08:58:59.975Z</time></trkpt><trkpt lat="45.7384507" lon="9.9116072"><ele>324.0</ele><time>2026-05-03T08:59:01.974Z</time></trkpt><trkpt lat="45.738343" lon="9.9115651"><ele>324.0</ele><time>2026-05-03T08:59:04.063Z</time></trkpt><trkpt lat="45.7382445" lon="9.9114816"><ele>324.8333333333333</ele><time>2026-05-03T08:59:05.986Z</time></trkpt><trkpt lat="45.7381466" lon="9.9113939"><ele>325.6666666666667</ele><time>2026-05-03T08:59:07.98Z</time></trkpt><trkpt lat="45.7380377" lon="9.9113014"><ele>326.5</ele><time>2026-05-03T08:59:09.98Z</time></trkpt><trkpt lat="45.737977" lon="9.911259"><ele>327.33333333333337</ele><time>2026-05-03T08:59:11.032Z</time></trkpt><trkpt lat="45.7379195" lon="9.9112199"><ele>328.1666666666667</ele><time>2026-05-03T08:59:11.962Z</time></trkpt><trkpt lat="45.7378584" lon="9.9111822"><ele>329.0</ele><time>2026-05-03T08:59:12.974Z</time></trkpt><trkpt lat="45.7378013" lon="9.9111415"><ele>330.2</ele><time>2026-05-03T08:59:13.991Z</time></trkpt><trkpt lat="45.737688" lon="9.9110731"><ele>331.4</ele><time>2026-05-03T08:59:16.032Z</time></trkpt><trkpt lat="45.7376264" lon="9.9110419"><ele>332.6</ele><time>2026-05-03T08:59:16.968Z</time></trkpt><trkpt lat="45.7375088" lon="9.9109942"><ele>333.8</ele><time>2026-05-03T08:59:19.033Z</time></trkpt><trkpt lat="45.7373958" lon="9.910937"><ele>335.0</ele><time>2026-05-03T08:59:21.042Z</time></trkpt><trkpt lat="45.7372823" lon="9.9108766"><ele>333.6666666666667</ele><time>2026-05-03T08:59:22.958Z</time></trkpt><trkpt lat="45.737166" lon="9.9108226"><ele>332.33333333333337</ele><time>2026-05-03T08:59:25.049Z</time></trkpt><trkpt lat="45.7371035" lon="9.9107951"><ele>331.0</ele><time>2026-05-03T08:59:26.032Z</time></trkpt><trkpt lat="45.7369891" lon="9.9107294"><ele>329.6666666666667</ele><time>2026-05-03T08:59:27.958Z</time></trkpt><trkpt lat="45.736928" lon="9.9107028"><ele>328.3333333333333</ele><time>2026-05-03T08:59:28.972Z</time></trkpt><trkpt lat="45.7368635" lon="9.9106892"><ele>327.0</ele><time>2026-05-03T08:59:30.038Z</time></trkpt><trkpt lat="45.7367986" lon="9.9106835"><ele>327.0</ele><time>2026-05-03T08:59:30.961Z</time></trkpt><trkpt lat="45.7366769" lon="9.9106848"><ele>327.0</ele><time>2026-05-03T08:59:32.961Z</time></trkpt><trkpt lat="45.7365544" lon="9.9106968"><ele>327.0</ele><time>2026-05-03T08:59:34.952Z</time></trkpt><trkpt lat="45.7364881" lon="9.9106976"><ele>327.0</ele><time>2026-05-03T08:59:36.032Z</time></trkpt><trkpt lat="45.7363641" lon="9.9106988"><ele>327.0</ele><time>2026-05-03T08:59:37.958Z</time></trkpt><trkpt lat="45.7363003" lon="9.9106962"><ele>327.0</ele><time>2026-05-03T08:59:38.955Z</time></trkpt><trkpt lat="45.7361849" lon="9.9106892"><ele>327.0</ele><time>2026-05-03T08:59:40.954Z</time></trkpt><trkpt lat="45.7360787" lon="9.9106826"><ele>327.0</ele><time>2026-05-03T08:59:43.027Z</time></trkpt><trkpt lat="45.7359732" lon="9.9106836"><ele>327.0</ele><time>2026-05-03T08:59:45.029Z</time></trkpt><trkpt lat="45.7358715" lon="9.9106826"><ele>327.0</ele><time>2026-05-03T08:59:46.956Z</time></trkpt><trkpt lat="45.7357715" lon="9.910671"><ele>327.8333333333333</ele><time>2026-05-03T08:59:48.937Z</time></trkpt><trkpt lat="45.7356524" lon="9.9106796"><ele>328.6666666666667</ele><time>2026-05-03T08:59:50.96Z</time></trkpt><trkpt lat="45.735585" lon="9.9106792"><ele>329.5</ele><time>2026-05-03T08:59:51.964Z</time></trkpt><trkpt lat="45.7355097" lon="9.9106875"><ele>330.33333333333337</ele><time>2026-05-03T08:59:52.966Z</time></trkpt><trkpt lat="45.7354329" lon="9.910693"><ele>331.1666666666667</ele><time>2026-05-03T08:59:54.032Z</time></trkpt><trkpt lat="45.7353528" lon="9.9106988"><ele>332.0</ele><time>2026-05-03T08:59:54.949Z</time></trkpt><trkpt lat="45.735273" lon="9.9107043"><ele>330.33333333333337</ele><time>2026-05-03T08:59:55.967Z</time></trkpt><trkpt lat="45.7351902" lon="9.910711"><ele>328.6666666666667</ele><time>2026-05-03T08:59:56.96Z</time></trkpt><trkpt lat="45.7351069" lon="9.9107227"><ele>327.0</ele><time>2026-05-03T08:59:58.033Z</time></trkpt><trkpt lat="45.7350143" lon="9.9107455"><ele>325.3333333333333</ele><time>2026-05-03T08:59:59.033Z</time></trkpt><trkpt lat="45.7349253" lon="9.9107751"><ele>323.66666666666663</ele><time>2026-05-03T09:00:00.033Z</time></trkpt><trkpt lat="45.734836" lon="9.9107977"><ele>322.0</ele><time>2026-05-03T09:00:01.022Z</time></trkpt><trkpt lat="45.73475" lon="9.9108183"><ele>322.0</ele><time>2026-05-03T09:00:01.966Z</time></trkpt><trkpt lat="45.7346715" lon="9.9108543"><ele>322.0</ele><time>2026-05-03T09:00:02.966Z</time></trkpt><trkpt lat="45.7345848" lon="9.9108996"><ele>322.0</ele><time>2026-05-03T09:00:03.979Z</time></trkpt><trkpt lat="45.734499" lon="9.9109362"><ele>322.0</ele><time>2026-05-03T09:00:05.049Z</time></trkpt><trkpt lat="45.7344132" lon="9.9109714"><ele>322.0</ele><time>2026-05-03T09:00:06.026Z</time></trkpt><trkpt lat="45.734327" lon="9.9110026"><ele>322.0</ele><time>2026-05-03T09:00:06.965Z</time></trkpt><trkpt lat="45.7342424" lon="9.9110421"><ele>322.40000000000003</ele><time>2026-05-03T09:00:07.966Z</time></trkpt><trkpt lat="45.7341571" lon="9.9110986"><ele>322.8</ele><time>2026-05-03T09:00:09.089Z</time></trkpt><trkpt lat="45.7339901" lon="9.9111975"><ele>323.2</ele><time>2026-05-03T09:00:10.963Z</time></trkpt><trkpt lat="45.7339154" lon="9.9112366"><ele>323.6</ele><time>2026-05-03T09:00:11.948Z</time></trkpt><trkpt lat="45.7338398" lon="9.9112786"><ele>324.0</ele><time>2026-05-03T09:00:12.956Z</time></trkpt><trkpt lat="45.7337644" lon="9.9113178"><ele>324.0</ele><time>2026-05-03T09:00:14.063Z</time></trkpt><trkpt lat="45.733691" lon="9.9113466"><ele>324.0</ele><time>2026-05-03T09:00:15.026Z</time></trkpt><trkpt lat="45.7336201" lon="9.9113765"><ele>324.0</ele><time>2026-05-03T09:00:16.035Z</time></trkpt><trkpt lat="45.7335501" lon="9.9113956"><ele>324.0</ele><time>2026-05-03T09:00:16.971Z</time></trkpt><trkpt lat="45.7334838" lon="9.9114026"><ele>324.0</ele><time>2026-05-03T09:00:17.977Z</time></trkpt><trkpt lat="45.7333809" lon="9.911402"><ele>324.0</ele><time>2026-05-03T09:00:19.971Z</time></trkpt><trkpt lat="45.7333245" lon="9.9113338"><ele>323.0</ele><time>2026-05-03T09:00:22.98Z</time></trkpt><trkpt lat="45.7332811" lon="9.9112602"><ele>322.0</ele><time>2026-05-03T09:00:26.975Z</time></trkpt><trkpt lat="45.7332276" lon="9.9113082"><ele>321.0</ele><time>2026-05-03T09:00:28.949Z</time></trkpt><trkpt lat="45.7331811" lon="9.911427"><ele>320.0</ele><time>2026-05-03T09:00:30.94Z</time></trkpt><trkpt lat="45.7331033" lon="9.9114967"><ele>319.0</ele><time>2026-05-03T09:00:33.037Z</time></trkpt><trkpt lat="45.733001" lon="9.9115122"><ele>318.0</ele><time>2026-05-03T09:00:35.026Z</time></trkpt><trkpt lat="45.7329091" lon="9.9114922"><ele>318.0</ele><time>2026-05-03T09:00:36.959Z</time></trkpt><trkpt lat="45.7328121" lon="9.9114402"><ele>318.0</ele><time>2026-05-03T09:00:38.951Z</time></trkpt><trkpt lat="45.7327413" lon="9.9113632"><ele>318.0</ele><time>2026-05-03T09:00:40.967Z</time></trkpt><trkpt lat="45.732685" lon="9.9112722"><ele>318.0</ele><time>2026-05-03T09:00:42.955Z</time></trkpt><trkpt lat="45.7326279" lon="9.9111729"><ele>318.0</ele><time>2026-05-03T09:00:44.958Z</time></trkpt><trkpt lat="45.7325753" lon="9.9110496"><ele>318.2</ele><time>2026-05-03T09:00:46.96Z</time></trkpt><trkpt lat="45.7325212" lon="9.9109113"><ele>318.4</ele><time>2026-05-03T09:00:48.98Z</time></trkpt><trkpt lat="45.7324749" lon="9.9107752"><ele>318.59999999999997</ele><time>2026-05-03T09:00:50.957Z</time></trkpt><trkpt lat="45.7324298" lon="9.9106492"><ele>318.8</ele><time>2026-05-03T09:00:53.032Z</time></trkpt><trkpt lat="45.732382" lon="9.9105383"><ele>319.0</ele><time>2026-05-03T09:00:54.967Z</time></trkpt><trkpt lat="45.7323378" lon="9.910428"><ele>318.0</ele><time>2026-05-03T09:00:56.97Z</time></trkpt><trkpt lat="45.7322957" lon="9.9103322"><ele>317.0</ele><time>2026-05-03T09:00:58.966Z</time></trkpt><trkpt lat="45.7322441" lon="9.910213"><ele>316.0</ele><time>2026-05-03T09:01:00.98Z</time></trkpt><trkpt lat="45.7321566" lon="9.9100926"><ele>315.0</ele><time>2026-05-03T09:01:02.964Z</time></trkpt><trkpt lat="45.7320639" lon="9.9100028"><ele>314.0</ele><time>2026-05-03T09:01:04.97Z</time></trkpt><trkpt lat="45.7319788" lon="9.9099147"><ele>314.59999999999997</ele><time>2026-05-03T09:01:06.966Z</time></trkpt><trkpt lat="45.7318832" lon="9.9098274"><ele>315.2</ele><time>2026-05-03T09:01:09.034Z</time></trkpt><trkpt lat="45.731786" lon="9.9097508"><ele>315.79999999999995</ele><time>2026-05-03T09:01:10.974Z</time></trkpt><trkpt lat="45.7316901" lon="9.9096789"><ele>316.4</ele><time>2026-05-03T09:01:12.98Z</time></trkpt><trkpt lat="45.7315919" lon="9.9096166"><ele>317.0</ele><time>2026-05-03T09:01:15.022Z</time></trkpt><trkpt lat="45.7314912" lon="9.9095579"><ele>317.0</ele><time>2026-05-03T09:01:16.959Z</time></trkpt><trkpt lat="45.7313868" lon="9.9094937"><ele>317.0</ele><time>2026-05-03T09:01:18.956Z</time></trkpt><trkpt lat="45.7312842" lon="9.9094181"><ele>317.0</ele><time>2026-05-03T09:01:21.033Z</time></trkpt><trkpt lat="45.7311988" lon="9.9093221"><ele>317.0</ele><time>2026-05-03T09:01:22.963Z</time></trkpt><trkpt lat="45.7311201" lon="9.9092127"><ele>317.0</ele><time>2026-05-03T09:01:25.049Z</time></trkpt><trkpt lat="45.7310403" lon="9.9091125"><ele>316.6</ele><time>2026-05-03T09:01:26.969Z</time></trkpt><trkpt lat="45.730959" lon="9.9090256"><ele>316.2</ele><time>2026-05-03T09:01:28.991Z</time></trkpt><trkpt lat="45.7308855" lon="9.9089191"><ele>315.8</ele><time>2026-05-03T09:01:30.968Z</time></trkpt><trkpt lat="45.7308289" lon="9.9088112"><ele>315.4</ele><time>2026-05-03T09:01:33.031Z</time></trkpt><trkpt lat="45.7307606" lon="9.9087079"><ele>315.0</ele><time>2026-05-03T09:01:35.036Z</time></trkpt><trkpt lat="45.7307" lon="9.9085681"><ele>315.0</ele><time>2026-05-03T09:01:36.966Z</time></trkpt><trkpt lat="45.7306339" lon="9.9084332"><ele>315.0</ele><time>2026-05-03T09:01:38.963Z</time></trkpt><trkpt lat="45.7305567" lon="9.9083263"><ele>315.0</ele><time>2026-05-03T09:01:41.005Z</time></trkpt><trkpt lat="45.7304612" lon="9.9082606"><ele>315.0</ele><time>2026-05-03T09:01:42.968Z</time></trkpt><trkpt lat="45.7304006" lon="9.9082353"><ele>315.0</ele><time>2026-05-03T09:01:44.008Z</time></trkpt><trkpt lat="45.7303393" lon="9.90821"><ele>315.0</ele><time>2026-05-03T09:01:44.956Z</time></trkpt><trkpt lat="45.7302786" lon="9.9081829"><ele>315.0</ele><time>2026-05-03T09:01:45.941Z</time></trkpt><trkpt lat="45.7302163" lon="9.9081581"><ele>315.0</ele><time>2026-05-03T09:01:46.953Z</time></trkpt><trkpt lat="45.7301014" lon="9.9080842"><ele>315.0</ele><time>2026-05-03T09:01:48.957Z</time></trkpt><trkpt lat="45.7299954" lon="9.9080151"><ele>315.0</ele><time>2026-05-03T09:01:50.945Z</time></trkpt><trkpt lat="45.7299038" lon="9.9079184"><ele>315.0</ele><time>2026-05-03T09:01:52.969Z</time></trkpt><trkpt lat="45.7298388" lon="9.907771"><ele>315.0</ele><time>2026-05-03T09:01:55.037Z</time></trkpt><trkpt lat="45.7297807" lon="9.90762"><ele>315.0</ele><time>2026-05-03T09:01:56.978Z</time></trkpt><trkpt lat="45.7297258" lon="9.9074688"><ele>315.0</ele><time>2026-05-03T09:01:58.992Z</time></trkpt><trkpt lat="45.7296737" lon="9.907344"><ele>314.4</ele><time>2026-05-03T09:02:00.967Z</time></trkpt><trkpt lat="45.729649" lon="9.9072601"><ele>313.8</ele><time>2026-05-03T09:02:01.972Z</time></trkpt><trkpt lat="45.729578" lon="9.9071187"><ele>313.2</ele><time>2026-05-03T09:02:03.962Z</time></trkpt><trkpt lat="45.7294926" lon="9.9069838"><ele>312.6</ele><time>2026-05-03T09:02:05.964Z</time></trkpt><trkpt lat="45.7293914" lon="9.9068839"><ele>312.0</ele><time>2026-05-03T09:02:07.945Z</time></trkpt><trkpt lat="45.7293283" lon="9.9068276"><ele>311.6</ele><time>2026-05-03T09:02:08.945Z</time></trkpt><trkpt lat="45.7292424" lon="9.9067383"><ele>311.2</ele><time>2026-05-03T09:02:10.965Z</time></trkpt><trkpt lat="45.7292245" lon="9.9066194"><ele>310.8</ele><time>2026-05-03T09:02:14.957Z</time></trkpt><trkpt lat="45.7292583" lon="9.9065105"><ele>310.4</ele><time>2026-05-03T09:02:16.957Z</time></trkpt><trkpt lat="45.7292669" lon="9.906374"><ele>310.0</ele><time>2026-05-03T09:02:18.957Z</time></trkpt><trkpt lat="45.7292672" lon="9.9062427"><ele>310.0</ele><time>2026-05-03T09:02:20.976Z</time></trkpt><trkpt lat="45.7292518" lon="9.9061174"><ele>310.0</ele><time>2026-05-03T09:02:22.959Z</time></trkpt><trkpt lat="45.7291983" lon="9.9060192"><ele>310.0</ele><time>2026-05-03T09:02:25.033Z</time></trkpt><trkpt lat="45.7291632" lon="9.9059023"><ele>310.0</ele><time>2026-05-03T09:02:26.969Z</time></trkpt><trkpt lat="45.7291206" lon="9.9057475"><ele>310.0</ele><time>2026-05-03T09:02:28.944Z</time></trkpt><trkpt lat="45.7290912" lon="9.9056664"><ele>310.0</ele><time>2026-05-03T09:02:29.967Z</time></trkpt><trkpt lat="45.7290581" lon="9.9054896"><ele>310.0</ele><time>2026-05-03T09:02:31.967Z</time></trkpt><trkpt lat="45.7290337" lon="9.9054002"><ele>310.0</ele><time>2026-05-03T09:02:32.965Z</time></trkpt><trkpt lat="45.729019" lon="9.905312"><ele>310.0</ele><time>2026-05-03T09:02:33.969Z</time></trkpt><trkpt lat="45.7289767" lon="9.9051514"><ele>310.0</ele><time>2026-05-03T09:02:36.036Z</time></trkpt><trkpt lat="45.7289465" lon="9.9050049"><ele>310.0</ele><time>2026-05-03T09:02:37.985Z</time></trkpt><trkpt lat="45.7289111" lon="9.9048583"><ele>310.0</ele><time>2026-05-03T09:02:40.038Z</time></trkpt><trkpt lat="45.7288654" lon="9.9047326"><ele>310.0</ele><time>2026-05-03T09:02:41.973Z</time></trkpt><trkpt lat="45.7288189" lon="9.9046108"><ele>310.0</ele><time>2026-05-03T09:02:44.039Z</time></trkpt><trkpt lat="45.7287762" lon="9.9044854"><ele>310.0</ele><time>2026-05-03T09:02:45.959Z</time></trkpt><trkpt lat="45.7287447" lon="9.904368"><ele>310.0</ele><time>2026-05-03T09:02:47.966Z</time></trkpt><trkpt lat="45.7287243" lon="9.9042662"><ele>310.2</ele><time>2026-05-03T09:02:49.957Z</time></trkpt><trkpt lat="45.7286617" lon="9.9041393"><ele>310.4</ele><time>2026-05-03T09:02:51.958Z</time></trkpt><trkpt lat="45.7285976" lon="9.9039987"><ele>310.6</ele><time>2026-05-03T09:02:53.966Z</time></trkpt><trkpt lat="45.7285477" lon="9.903878"><ele>310.8</ele><time>2026-05-03T09:02:55.968Z</time></trkpt><trkpt lat="45.7285074" lon="9.9037464"><ele>311.0</ele><time>2026-05-03T09:02:57.972Z</time></trkpt><trkpt lat="45.7284666" lon="9.9036136"><ele>311.0</ele><time>2026-05-03T09:02:59.976Z</time></trkpt><trkpt lat="45.7284274" lon="9.9034737"><ele>311.0</ele><time>2026-05-03T09:03:01.967Z</time></trkpt><trkpt lat="45.7283622" lon="9.9033399"><ele>311.0</ele><time>2026-05-03T09:03:03.972Z</time></trkpt><trkpt lat="45.7282873" lon="9.9032499"><ele>311.0</ele><time>2026-05-03T09:03:06.026Z</time></trkpt><trkpt lat="45.7282129" lon="9.9031577"><ele>311.0</ele><time>2026-05-03T09:03:07.973Z</time></trkpt><trkpt lat="45.7281581" lon="9.9031099"><ele>313.0</ele><time>2026-05-03T09:03:08.962Z</time></trkpt><trkpt lat="45.7280708" lon="9.9030029"><ele>315.0</ele><time>2026-05-03T09:03:10.982Z</time></trkpt><trkpt lat="45.7279786" lon="9.9029189"><ele>317.0</ele><time>2026-05-03T09:03:12.965Z</time></trkpt><trkpt lat="45.7278825" lon="9.9028368"><ele>319.0</ele><time>2026-05-03T09:03:14.965Z</time></trkpt><trkpt lat="45.7277753" lon="9.9027595"><ele>318.0</ele><time>2026-05-03T09:03:16.977Z</time></trkpt><trkpt lat="45.7276665" lon="9.9026834"><ele>317.0</ele><time>2026-05-03T09:03:18.973Z</time></trkpt><trkpt lat="45.7275571" lon="9.9026166"><ele>316.0</ele><time>2026-05-03T09:03:20.97Z</time></trkpt><trkpt lat="45.7274556" lon="9.9025597"><ele>315.0</ele><time>2026-05-03T09:03:22.967Z</time></trkpt><trkpt lat="45.7273722" lon="9.9024896"><ele>314.0</ele><time>2026-05-03T09:03:24.974Z</time></trkpt><trkpt lat="45.7272984" lon="9.9024978"><ele>314.0</ele><time>2026-05-03T09:03:27.978Z</time></trkpt><trkpt lat="45.7272284" lon="9.902569"><ele>314.0</ele><time>2026-05-03T09:03:31.032Z</time></trkpt><trkpt lat="45.7271253" lon="9.9025384"><ele>314.0</ele><time>2026-05-03T09:03:32.966Z</time></trkpt><trkpt lat="45.7270234" lon="9.9024905"><ele>314.0</ele><time>2026-05-03T09:03:34.967Z</time></trkpt><trkpt lat="45.7269218" lon="9.9024917"><ele>314.0</ele><time>2026-05-03T09:03:36.965Z</time></trkpt><trkpt lat="45.7268438" lon="9.9025667"><ele>313.59999999999997</ele><time>2026-05-03T09:03:38.961Z</time></trkpt><trkpt lat="45.7267894" lon="9.9026771"><ele>313.2</ele><time>2026-05-03T09:03:40.967Z</time></trkpt><trkpt lat="45.7267331" lon="9.902804"><ele>312.79999999999995</ele><time>2026-05-03T09:03:42.967Z</time></trkpt><trkpt lat="45.7266719" lon="9.9029111"><ele>312.4</ele><time>2026-05-03T09:03:44.971Z</time></trkpt><trkpt lat="45.7266012" lon="9.9030147"><ele>312.0</ele><time>2026-05-03T09:03:46.968Z</time></trkpt><trkpt lat="45.7265339" lon="9.9031012"><ele>312.0</ele><time>2026-05-03T09:03:49.037Z</time></trkpt><trkpt lat="45.7264719" lon="9.903192"><ele>312.0</ele><time>2026-05-03T09:03:51.035Z</time></trkpt><trkpt lat="45.7264176" lon="9.9032785"><ele>312.0</ele><time>2026-05-03T09:03:52.973Z</time></trkpt><trkpt lat="45.7263633" lon="9.9033417"><ele>312.0</ele><time>2026-05-03T09:03:54.963Z</time></trkpt><trkpt lat="45.7262962" lon="9.9033081"><ele>312.0</ele><time>2026-05-03T09:03:59.047Z</time></trkpt><trkpt lat="45.7262513" lon="9.9031972"><ele>312.0</ele><time>2026-05-03T09:04:01.96Z</time></trkpt><trkpt lat="45.7261881" lon="9.9030952"><ele>312.0</ele><time>2026-05-03T09:04:03.964Z</time></trkpt><trkpt lat="45.7261512" lon="9.9030189"><ele>312.0</ele><time>2026-05-03T09:04:04.96Z</time></trkpt><trkpt lat="45.7260805" lon="9.9028821"><ele>312.0</ele><time>2026-05-03T09:04:06.959Z</time></trkpt><trkpt lat="45.7260026" lon="9.9027428"><ele>312.0</ele><time>2026-05-03T09:04:08.954Z</time></trkpt><trkpt lat="45.7259558" lon="9.9026702"><ele>312.0</ele><time>2026-05-03T09:04:09.949Z</time></trkpt><trkpt lat="45.7259105" lon="9.9026016"><ele>312.0</ele><time>2026-05-03T09:04:10.952Z</time></trkpt><trkpt lat="45.7258689" lon="9.9025274"><ele>311.5714285714286</ele><time>2026-05-03T09:04:11.956Z</time></trkpt><trkpt lat="45.7258318" lon="9.9024457"><ele>311.1428571428571</ele><time>2026-05-03T09:04:12.946Z</time></trkpt><trkpt lat="45.7257868" lon="9.9023771"><ele>310.7142857142857</ele><time>2026-05-03T09:04:13.957Z</time></trkpt><trkpt lat="45.7257299" lon="9.9023206"><ele>310.28571428571433</ele><time>2026-05-03T09:04:14.962Z</time></trkpt><trkpt lat="45.725675" lon="9.9022616"><ele>309.8571428571429</ele><time>2026-05-03T09:04:15.959Z</time></trkpt><trkpt lat="45.7256269" lon="9.9021896"><ele>309.42857142857144</ele><time>2026-05-03T09:04:16.954Z</time></trkpt><trkpt lat="45.7255785" lon="9.9021154"><ele>309.0</ele><time>2026-05-03T09:04:17.958Z</time></trkpt><trkpt lat="45.7255273" lon="9.9020391"><ele>309.0</ele><time>2026-05-03T09:04:18.958Z</time></trkpt><trkpt lat="45.7254849" lon="9.9019578"><ele>309.0</ele><time>2026-05-03T09:04:20.05Z</time></trkpt><trkpt lat="45.7254359" lon="9.901886"><ele>309.0</ele><time>2026-05-03T09:04:20.979Z</time></trkpt><trkpt lat="45.7253844" lon="9.9018122"><ele>309.0</ele><time>2026-05-03T09:04:21.956Z</time></trkpt><trkpt lat="45.7253347" lon="9.9017426"><ele>309.0</ele><time>2026-05-03T09:04:23.034Z</time></trkpt><trkpt lat="45.7252505" lon="9.9016182"><ele>309.0</ele><time>2026-05-03T09:04:25.034Z</time></trkpt><trkpt lat="45.7251649" lon="9.9015461"><ele>308.3333333333333</ele><time>2026-05-03T09:04:26.965Z</time></trkpt><trkpt lat="45.7250464" lon="9.9015487"><ele>307.6666666666667</ele><time>2026-05-03T09:04:28.983Z</time></trkpt><trkpt lat="45.7249775" lon="9.9015484"><ele>307.0</ele><time>2026-05-03T09:04:30.029Z</time></trkpt><trkpt lat="45.72491" lon="9.9015343"><ele>306.33333333333337</ele><time>2026-05-03T09:04:31.027Z</time></trkpt><trkpt lat="45.7248493" lon="9.901502"><ele>305.6666666666667</ele><time>2026-05-03T09:04:31.974Z</time></trkpt><trkpt lat="45.7247411" lon="9.9014229"><ele>305.0</ele><time>2026-05-03T09:04:33.971Z</time></trkpt><trkpt lat="45.7246586" lon="9.9013531"><ele>305.0</ele><time>2026-05-03T09:04:35.975Z</time></trkpt><trkpt lat="45.7245836" lon="9.9012851"><ele>305.0</ele><time>2026-05-03T09:04:37.964Z</time></trkpt><trkpt lat="45.7245142" lon="9.9012201"><ele>305.0</ele><time>2026-05-03T09:04:39.967Z</time></trkpt><trkpt lat="45.7244582" lon="9.9011608"><ele>305.0</ele><time>2026-05-03T09:04:41.98Z</time></trkpt><trkpt lat="45.7244133" lon="9.9010967"><ele>305.0</ele><time>2026-05-03T09:04:43.962Z</time></trkpt><trkpt lat="45.7243718" lon="9.9010179"><ele>305.0</ele><time>2026-05-03T09:04:45.971Z</time></trkpt><trkpt lat="45.724315" lon="9.9009121"><ele>304.5714285714286</ele><time>2026-05-03T09:04:48.979Z</time></trkpt><trkpt lat="45.7242696" lon="9.9008156"><ele>304.1428571428571</ele><time>2026-05-03T09:04:51.974Z</time></trkpt><trkpt lat="45.7242387" lon="9.9007291"><ele>303.7142857142857</ele><time>2026-05-03T09:04:53.969Z</time></trkpt><trkpt lat="45.7241999" lon="9.9006463"><ele>303.28571428571433</ele><time>2026-05-03T09:04:55.967Z</time></trkpt><trkpt lat="45.7241374" lon="9.9005744"><ele>302.8571428571429</ele><time>2026-05-03T09:04:57.981Z</time></trkpt><trkpt lat="45.7240818" lon="9.9005057"><ele>302.42857142857144</ele><time>2026-05-03T09:04:59.971Z</time></trkpt><trkpt lat="45.7240205" lon="9.9004595"><ele>302.0</ele><time>2026-05-03T09:05:01.967Z</time></trkpt><trkpt lat="45.7239536" lon="9.9004451"><ele>302.0</ele><time>2026-05-03T09:05:03.97Z</time></trkpt><trkpt lat="45.7238848" lon="9.9004164"><ele>302.0</ele><time>2026-05-03T09:05:06.959Z</time></trkpt><trkpt lat="45.7238133" lon="9.9003754"><ele>302.0</ele><time>2026-05-03T09:05:09.97Z</time></trkpt><trkpt lat="45.7238012" lon="9.9002646"><ele>302.0</ele><time>2026-05-03T09:05:14.981Z</time></trkpt><trkpt lat="45.7237469" lon="9.90016"><ele>302.0</ele><time>2026-05-03T09:05:19.969Z</time></trkpt><trkpt lat="45.7236498" lon="9.9001082"><ele>302.0</ele><time>2026-05-03T09:05:21.963Z</time></trkpt><trkpt lat="45.7235731" lon="9.9000344"><ele>302.0</ele><time>2026-05-03T09:05:23.979Z</time></trkpt><trkpt lat="45.7235106" lon="9.8999325"><ele>302.0</ele><time>2026-05-03T09:05:25.972Z</time></trkpt><trkpt lat="45.7234478" lon="9.899801"><ele>302.0</ele><time>2026-05-03T09:05:28.038Z</time></trkpt><trkpt lat="45.7233658" lon="9.8997133"><ele>302.0</ele><time>2026-05-03T09:05:29.949Z</time></trkpt><trkpt lat="45.7233097" lon="9.8996673"><ele>302.0</ele><time>2026-05-03T09:05:30.977Z</time></trkpt><trkpt lat="45.723257" lon="9.8996123"><ele>302.0</ele><time>2026-05-03T09:05:31.971Z</time></trkpt><trkpt lat="45.7232033" lon="9.8995593"><ele>302.0</ele><time>2026-05-03T09:05:32.973Z</time></trkpt><trkpt lat="45.7231104" lon="9.8994451"><ele>302.0</ele><time>2026-05-03T09:05:34.969Z</time></trkpt><trkpt lat="45.7230655" lon="9.8993813"><ele>302.0</ele><time>2026-05-03T09:05:35.978Z</time></trkpt><trkpt lat="45.7229821" lon="9.8992608"><ele>302.0</ele><time>2026-05-03T09:05:37.976Z</time></trkpt><trkpt lat="45.7229099" lon="9.8991101"><ele>302.0</ele><time>2026-05-03T09:05:39.963Z</time></trkpt><trkpt lat="45.722869" lon="9.8990289"><ele>302.0</ele><time>2026-05-03T09:05:41.036Z</time></trkpt><trkpt lat="45.7228243" lon="9.8989634"><ele>302.0</ele><time>2026-05-03T09:05:41.962Z</time></trkpt><trkpt lat="45.7227314" lon="9.8988722"><ele>302.0</ele><time>2026-05-03T09:05:44.068Z</time></trkpt><trkpt lat="45.7226202" lon="9.8987708"><ele>302.0</ele><time>2026-05-03T09:05:46.03Z</time></trkpt><trkpt lat="45.7225568" lon="9.8987028"><ele>302.0</ele><time>2026-05-03T09:05:46.975Z</time></trkpt><trkpt lat="45.7224891" lon="9.8986445"><ele>302.00000000000006</ele><time>2026-05-03T09:05:47.98Z</time></trkpt><trkpt lat="45.7224241" lon="9.8985855"><ele>302.0</ele><time>2026-05-03T09:05:48.993Z</time></trkpt><trkpt lat="45.7223667" lon="9.8985255"><ele>302.0</ele><time>2026-05-03T09:05:50.034Z</time></trkpt><trkpt lat="45.7223095" lon="9.8984684"><ele>302.0</ele><time>2026-05-03T09:05:51.034Z</time></trkpt><trkpt lat="45.7222501" lon="9.898407"><ele>302.0</ele><time>2026-05-03T09:05:51.971Z</time></trkpt><trkpt lat="45.7221984" lon="9.8983461"><ele>302.00000000000006</ele><time>2026-05-03T09:05:52.954Z</time></trkpt><trkpt lat="45.7221491" lon="9.8982775"><ele>302.0</ele><time>2026-05-03T09:05:53.966Z</time></trkpt><trkpt lat="45.722099" lon="9.8982115"><ele>302.0</ele><time>2026-05-03T09:05:54.98Z</time></trkpt><trkpt lat="45.7220501" lon="9.8981473"><ele>302.0</ele><time>2026-05-03T09:05:56.055Z</time></trkpt><trkpt lat="45.7219999" lon="9.898082"><ele>302.0</ele><time>2026-05-03T09:05:56.97Z</time></trkpt><trkpt lat="45.7219487" lon="9.8980183"><ele>302.0</ele><time>2026-05-03T09:05:57.986Z</time></trkpt><trkpt lat="45.7219007" lon="9.8979548"><ele>302.0</ele><time>2026-05-03T09:05:58.996Z</time></trkpt><trkpt lat="45.7218206" lon="9.8978252"><ele>302.0</ele><time>2026-05-03T09:06:01.001Z</time></trkpt><trkpt lat="45.7217527" lon="9.8976646"><ele>302.5</ele><time>2026-05-03T09:06:03.037Z</time></trkpt><trkpt lat="45.7217142" lon="9.8975922"><ele>303.0</ele><time>2026-05-03T09:06:03.983Z</time></trkpt><trkpt lat="45.7216393" lon="9.8974467"><ele>303.5</ele><time>2026-05-03T09:06:06.032Z</time></trkpt><trkpt lat="45.721602" lon="9.8973658"><ele>304.0</ele><time>2026-05-03T09:06:06.957Z</time></trkpt><trkpt lat="45.7215683" lon="9.8972883"><ele>304.5</ele><time>2026-05-03T09:06:07.954Z</time></trkpt><trkpt lat="45.7215079" lon="9.8971416"><ele>305.0</ele><time>2026-05-03T09:06:09.961Z</time></trkpt><trkpt lat="45.7214759" lon="9.8970566"><ele>305.0</ele><time>2026-05-03T09:06:10.966Z</time></trkpt><trkpt lat="45.7214266" lon="9.8968919"><ele>305.0</ele><time>2026-05-03T09:06:13.007Z</time></trkpt><trkpt lat="45.7214027" lon="9.8968071"><ele>305.0</ele><time>2026-05-03T09:06:14.033Z</time></trkpt><trkpt lat="45.7213594" lon="9.8966408"><ele>305.0</ele><time>2026-05-03T09:06:15.951Z</time></trkpt><trkpt lat="45.7213234" lon="9.8964943"><ele>305.0</ele><time>2026-05-03T09:06:17.967Z</time></trkpt><trkpt lat="45.7212933" lon="9.896339"><ele>304.5</ele><time>2026-05-03T09:06:19.968Z</time></trkpt><trkpt lat="45.7212431" lon="9.8961857"><ele>304.0</ele><time>2026-05-03T09:06:21.969Z</time></trkpt><trkpt lat="45.7211881" lon="9.8960911"><ele>303.5</ele><time>2026-05-03T09:06:24.047Z</time></trkpt><trkpt lat="45.7211439" lon="9.896001"><ele>303.0</ele><time>2026-05-03T09:06:25.969Z</time></trkpt><trkpt lat="45.7211143" lon="9.8958793"><ele>302.5</ele><time>2026-05-03T09:06:27.977Z</time></trkpt><trkpt lat="45.7210799" lon="9.8957853"><ele>302.0</ele><time>2026-05-03T09:06:29.97Z</time></trkpt><trkpt lat="45.7210639" lon="9.8956902"><ele>301.83333333333337</ele><time>2026-05-03T09:06:31.964Z</time></trkpt><trkpt lat="45.7210414" lon="9.8955731"><ele>301.6666666666667</ele><time>2026-05-03T09:06:34.017Z</time></trkpt><trkpt lat="45.7210302" lon="9.8954487"><ele>301.5</ele><time>2026-05-03T09:06:36.028Z</time></trkpt><trkpt lat="45.7210313" lon="9.8953233"><ele>301.3333333333333</ele><time>2026-05-03T09:06:37.953Z</time></trkpt><trkpt lat="45.7210269" lon="9.8952004"><ele>301.16666666666663</ele><time>2026-05-03T09:06:39.944Z</time></trkpt><trkpt lat="45.7210222" lon="9.8950722"><ele>301.0</ele><time>2026-05-03T09:06:43.032Z</time></trkpt><trkpt lat="45.7210201" lon="9.8949483"><ele>301.0</ele><time>2026-05-03T09:06:44.967Z</time></trkpt><trkpt lat="45.7210135" lon="9.8948391"><ele>301.0</ele><time>2026-05-03T09:06:45.967Z</time></trkpt><trkpt lat="45.720987" lon="9.8946651"><ele>301.0</ele><time>2026-05-03T09:06:47.951Z</time></trkpt><trkpt lat="45.7209664" lon="9.8945144"><ele>301.0</ele><time>2026-05-03T09:06:50.043Z</time></trkpt><trkpt lat="45.7209137" lon="9.8943714"><ele>301.0</ele><time>2026-05-03T09:06:51.976Z</time></trkpt><trkpt lat="45.7208503" lon="9.8942453"><ele>300.40000000000003</ele><time>2026-05-03T09:06:53.967Z</time></trkpt><trkpt lat="45.7207977" lon="9.8941268"><ele>299.8</ele><time>2026-05-03T09:06:55.974Z</time></trkpt><trkpt lat="45.7207561" lon="9.8940297"><ele>299.20000000000005</ele><time>2026-05-03T09:06:57.976Z</time></trkpt><trkpt lat="45.7206804" lon="9.8939486"><ele>298.6</ele><time>2026-05-03T09:06:59.971Z</time></trkpt><trkpt lat="45.7205742" lon="9.8938864"><ele>298.0</ele><time>2026-05-03T09:07:01.97Z</time></trkpt><trkpt lat="45.7204515" lon="9.8938255"><ele>298.0</ele><time>2026-05-03T09:07:03.986Z</time></trkpt><trkpt lat="45.7203913" lon="9.8937928"><ele>298.0</ele><time>2026-05-03T09:07:04.971Z</time></trkpt><trkpt lat="45.7203312" lon="9.8937584"><ele>298.0</ele><time>2026-05-03T09:07:05.98Z</time></trkpt><trkpt lat="45.7202298" lon="9.8936837"><ele>298.0</ele><time>2026-05-03T09:07:07.985Z</time></trkpt><trkpt lat="45.7201154" lon="9.8936045"><ele>298.0</ele><time>2026-05-03T09:07:10.037Z</time></trkpt><trkpt lat="45.7200571" lon="9.8935576"><ele>298.0</ele><time>2026-05-03T09:07:11.032Z</time></trkpt><trkpt lat="45.720002" lon="9.8935133"><ele>298.16666666666663</ele><time>2026-05-03T09:07:11.968Z</time></trkpt><trkpt lat="45.7199437" lon="9.8934648"><ele>298.3333333333333</ele><time>2026-05-03T09:07:12.975Z</time></trkpt><trkpt lat="45.719889" lon="9.8934053"><ele>298.5</ele><time>2026-05-03T09:07:13.974Z</time></trkpt><trkpt lat="45.7198369" lon="9.8933432"><ele>298.6666666666667</ele><time>2026-05-03T09:07:14.97Z</time></trkpt><trkpt lat="45.7197883" lon="9.8932798"><ele>298.83333333333337</ele><time>2026-05-03T09:07:15.978Z</time></trkpt><trkpt lat="45.7197449" lon="9.8932085"><ele>299.0</ele><time>2026-05-03T09:07:16.975Z</time></trkpt><trkpt lat="45.7196577" lon="9.8931018"><ele>297.8</ele><time>2026-05-03T09:07:19.013Z</time></trkpt><trkpt lat="45.7195739" lon="9.8929968"><ele>296.59999999999997</ele><time>2026-05-03T09:07:20.959Z</time></trkpt><trkpt lat="45.7194945" lon="9.8928987"><ele>295.4</ele><time>2026-05-03T09:07:22.969Z</time></trkpt><trkpt lat="45.7194126" lon="9.8928028"><ele>294.2</ele><time>2026-05-03T09:07:24.958Z</time></trkpt><trkpt lat="45.7193139" lon="9.8926982"><ele>293.0</ele><time>2026-05-03T09:07:26.959Z</time></trkpt><trkpt lat="45.7192141" lon="9.8925928"><ele>292.4</ele><time>2026-05-03T09:07:28.97Z</time></trkpt><trkpt lat="45.7191297" lon="9.8924796"><ele>291.8</ele><time>2026-05-03T09:07:30.97Z</time></trkpt><trkpt lat="45.7190567" lon="9.8923814"><ele>291.2</ele><time>2026-05-03T09:07:32.969Z</time></trkpt><trkpt lat="45.7189797" lon="9.892279"><ele>290.6</ele><time>2026-05-03T09:07:34.967Z</time></trkpt><trkpt lat="45.7189072" lon="9.8921671"><ele>290.0</ele><time>2026-05-03T09:07:36.972Z</time></trkpt><trkpt lat="45.7188323" lon="9.8920806"><ele>290.0</ele><time>2026-05-03T09:07:38.971Z</time></trkpt><trkpt lat="45.7187642" lon="9.8919826"><ele>290.0</ele><time>2026-05-03T09:07:40.963Z</time></trkpt><trkpt lat="45.7187028" lon="9.8918829"><ele>290.0</ele><time>2026-05-03T09:07:42.966Z</time></trkpt><trkpt lat="45.7186551" lon="9.8917844"><ele>290.0</ele><time>2026-05-03T09:07:45.041Z</time></trkpt><trkpt lat="45.7186052" lon="9.8916863"><ele>290.0</ele><time>2026-05-03T09:07:46.981Z</time></trkpt><trkpt lat="45.7185584" lon="9.8915964"><ele>290.0</ele><time>2026-05-03T09:07:48.976Z</time></trkpt><trkpt lat="45.7185138" lon="9.8915085"><ele>290.0</ele><time>2026-05-03T09:07:50.976Z</time></trkpt><trkpt lat="45.7184604" lon="9.8913854"><ele>290.0</ele><time>2026-05-03T09:07:52.981Z</time></trkpt><trkpt lat="45.7183993" lon="9.8912749"><ele>290.0</ele><time>2026-05-03T09:07:54.983Z</time></trkpt><trkpt lat="45.7183398" lon="9.8911554"><ele>290.0</ele><time>2026-05-03T09:07:56.982Z</time></trkpt><trkpt lat="45.7182898" lon="9.8910324"><ele>290.0</ele><time>2026-05-03T09:07:58.984Z</time></trkpt><trkpt lat="45.7182566" lon="9.8908958"><ele>290.0</ele><time>2026-05-03T09:08:00.984Z</time></trkpt><trkpt lat="45.7182402" lon="9.8907513"><ele>290.0</ele><time>2026-05-03T09:08:02.979Z</time></trkpt><trkpt lat="45.7182523" lon="9.8906101"><ele>290.0</ele><time>2026-05-03T09:08:04.979Z</time></trkpt><trkpt lat="45.7182726" lon="9.8904775"><ele>290.0</ele><time>2026-05-03T09:08:06.979Z</time></trkpt><trkpt lat="45.7183135" lon="9.8903579"><ele>290.0</ele><time>2026-05-03T09:08:09.037Z</time></trkpt><trkpt lat="45.7183612" lon="9.8902567"><ele>290.0</ele><time>2026-05-03T09:08:10.993Z</time></trkpt><trkpt lat="45.7184173" lon="9.8901455"><ele>290.0</ele><time>2026-05-03T09:08:12.96Z</time></trkpt><trkpt lat="45.718476" lon="9.8900686"><ele>290.0</ele><time>2026-05-03T09:08:14.987Z</time></trkpt><trkpt lat="45.718545" lon="9.88998"><ele>290.0</ele><time>2026-05-03T09:08:16.99Z</time></trkpt><trkpt lat="45.7186166" lon="9.8898873"><ele>290.0</ele><time>2026-05-03T09:08:18.977Z</time></trkpt><trkpt lat="45.7186866" lon="9.8897894"><ele>290.4</ele><time>2026-05-03T09:08:21.03Z</time></trkpt><trkpt lat="45.7187539" lon="9.8896937"><ele>290.8</ele><time>2026-05-03T09:08:22.975Z</time></trkpt><trkpt lat="45.7188564" lon="9.8896468"><ele>291.2</ele><time>2026-05-03T09:08:24.974Z</time></trkpt><trkpt lat="45.7189702" lon="9.8895886"><ele>291.6</ele><time>2026-05-03T09:08:26.963Z</time></trkpt><trkpt lat="45.7190613" lon="9.8894918"><ele>292.0</ele><time>2026-05-03T09:08:28.954Z</time></trkpt><trkpt lat="45.7191412" lon="9.8893509"><ele>292.0</ele><time>2026-05-03T09:08:31.036Z</time></trkpt><trkpt lat="45.719185" lon="9.8892826"><ele>292.0</ele><time>2026-05-03T09:08:31.978Z</time></trkpt><trkpt lat="45.7192317" lon="9.8891308"><ele>292.0</ele><time>2026-05-03T09:08:33.981Z</time></trkpt><trkpt lat="45.7192105" lon="9.8889751"><ele>292.0</ele><time>2026-05-03T09:08:35.956Z</time></trkpt><trkpt lat="45.7191628" lon="9.8889162"><ele>292.0</ele><time>2026-05-03T09:08:36.971Z</time></trkpt><trkpt lat="45.7190543" lon="9.8888446"><ele>292.6</ele><time>2026-05-03T09:08:38.974Z</time></trkpt><trkpt lat="45.7189605" lon="9.8887874"><ele>293.2</ele><time>2026-05-03T09:08:40.975Z</time></trkpt><trkpt lat="45.718863" lon="9.8887217"><ele>293.8</ele><time>2026-05-03T09:08:42.979Z</time></trkpt><trkpt lat="45.7187782" lon="9.8886416"><ele>294.4</ele><time>2026-05-03T09:08:44.972Z</time></trkpt><trkpt lat="45.7187105" lon="9.8885343"><ele>295.0</ele><time>2026-05-03T09:08:46.973Z</time></trkpt><trkpt lat="45.7186588" lon="9.8884173"><ele>294.5</ele><time>2026-05-03T09:08:48.97Z</time></trkpt><trkpt lat="45.718606" lon="9.8883131"><ele>294.0</ele><time>2026-05-03T09:08:51.04Z</time></trkpt><trkpt lat="45.7185692" lon="9.8882187"><ele>293.5</ele><time>2026-05-03T09:08:52.962Z</time></trkpt><trkpt lat="45.7185287" lon="9.8881276"><ele>293.0</ele><time>2026-05-03T09:08:54.963Z</time></trkpt><trkpt lat="45.7184864" lon="9.8880047"><ele>292.5</ele><time>2026-05-03T09:08:56.965Z</time></trkpt><trkpt lat="45.7184527" lon="9.8878889"><ele>292.0</ele><time>2026-05-03T09:08:58.945Z</time></trkpt><trkpt lat="45.7184424" lon="9.8877495"><ele>292.0</ele><time>2026-05-03T09:09:00.951Z</time></trkpt><trkpt lat="45.7184209" lon="9.8876174"><ele>292.0</ele><time>2026-05-03T09:09:02.951Z</time></trkpt><trkpt lat="45.7184229" lon="9.8874926"><ele>292.0</ele><time>2026-05-03T09:09:04.968Z</time></trkpt><trkpt lat="45.7184628" lon="9.8873809"><ele>292.0</ele><time>2026-05-03T09:09:06.967Z</time></trkpt><trkpt lat="45.7184937" lon="9.8872644"><ele>292.0</ele><time>2026-05-03T09:09:08.962Z</time></trkpt><trkpt lat="45.7185296" lon="9.8871663"><ele>292.0</ele><time>2026-05-03T09:09:10.968Z</time></trkpt><trkpt lat="45.718563" lon="9.8870824"><ele>294.16666666666663</ele><time>2026-05-03T09:09:12.963Z</time></trkpt><trkpt lat="45.7185698" lon="9.8869867"><ele>296.3333333333333</ele><time>2026-05-03T09:09:14.966Z</time></trkpt><trkpt lat="45.7185697" lon="9.8868716"><ele>298.5</ele><time>2026-05-03T09:09:16.97Z</time></trkpt><trkpt lat="45.7185622" lon="9.8867544"><ele>300.6666666666667</ele><time>2026-05-03T09:09:18.95Z</time></trkpt><trkpt lat="45.718554" lon="9.8866255"><ele>302.83333333333337</ele><time>2026-05-03T09:09:20.961Z</time></trkpt><trkpt lat="45.7185454" lon="9.886492"><ele>305.0</ele><time>2026-05-03T09:09:22.967Z</time></trkpt><trkpt lat="45.718529" lon="9.8863716"><ele>305.0</ele><time>2026-05-03T09:09:24.964Z</time></trkpt><trkpt lat="45.718508" lon="9.8862408"><ele>305.0</ele><time>2026-05-03T09:09:26.947Z</time></trkpt><trkpt lat="45.718475" lon="9.886105"><ele>305.0</ele><time>2026-05-03T09:09:28.961Z</time></trkpt><trkpt lat="45.7184339" lon="9.8859753"><ele>305.0</ele><time>2026-05-03T09:09:30.95Z</time></trkpt><trkpt lat="45.7183972" lon="9.8858641"><ele>305.0</ele><time>2026-05-03T09:09:32.957Z</time></trkpt><trkpt lat="45.718348" lon="9.8857589"><ele>305.6</ele><time>2026-05-03T09:09:34.968Z</time></trkpt><trkpt lat="45.7182901" lon="9.8856414"><ele>306.2</ele><time>2026-05-03T09:09:36.968Z</time></trkpt><trkpt lat="45.7182309" lon="9.8855205"><ele>306.8</ele><time>2026-05-03T09:09:38.941Z</time></trkpt><trkpt lat="45.7181733" lon="9.8854015"><ele>307.4</ele><time>2026-05-03T09:09:40.965Z</time></trkpt><trkpt lat="45.7181197" lon="9.8852946"><ele>308.0</ele><time>2026-05-03T09:09:42.972Z</time></trkpt><trkpt lat="45.7180618" lon="9.8851888"><ele>307.4</ele><time>2026-05-03T09:09:44.965Z</time></trkpt><trkpt lat="45.7179942" lon="9.8850864"><ele>306.8</ele><time>2026-05-03T09:09:46.952Z</time></trkpt><trkpt lat="45.7179279" lon="9.8849928"><ele>306.2</ele><time>2026-05-03T09:09:48.965Z</time></trkpt><trkpt lat="45.7178545" lon="9.8849134"><ele>305.6</ele><time>2026-05-03T09:09:50.982Z</time></trkpt><trkpt lat="45.7177767" lon="9.8848449"><ele>305.0</ele><time>2026-05-03T09:09:52.965Z</time></trkpt><trkpt lat="45.7176981" lon="9.8847798"><ele>305.0</ele><time>2026-05-03T09:09:54.962Z</time></trkpt><trkpt lat="45.7176329" lon="9.8846949"><ele>305.0</ele><time>2026-05-03T09:09:56.967Z</time></trkpt><trkpt lat="45.7175671" lon="9.8846021"><ele>305.0</ele><time>2026-05-03T09:09:58.977Z</time></trkpt><trkpt lat="45.7175156" lon="9.8844981"><ele>305.0</ele><time>2026-05-03T09:10:00.973Z</time></trkpt><trkpt lat="45.7174833" lon="9.8843923"><ele>305.0</ele><time>2026-05-03T09:10:02.948Z</time></trkpt><trkpt lat="45.7174652" lon="9.8842662"><ele>305.0</ele><time>2026-05-03T09:10:04.965Z</time></trkpt><trkpt lat="45.717456" lon="9.8841257"><ele>306.8</ele><time>2026-05-03T09:10:06.959Z</time></trkpt><trkpt lat="45.7174495" lon="9.8839929"><ele>308.6</ele><time>2026-05-03T09:10:09.02Z</time></trkpt><trkpt lat="45.7174458" lon="9.8838579"><ele>310.4</ele><time>2026-05-03T09:10:10.974Z</time></trkpt><trkpt lat="45.7174429" lon="9.8837235"><ele>312.2</ele><time>2026-05-03T09:10:12.97Z</time></trkpt><trkpt lat="45.7174331" lon="9.8835951"><ele>314.0</ele><time>2026-05-03T09:10:14.977Z</time></trkpt><trkpt lat="45.7173949" lon="9.8834708"><ele>316.0</ele><time>2026-05-03T09:10:16.974Z</time></trkpt><trkpt lat="45.7173487" lon="9.8833375"><ele>318.0</ele><time>2026-05-03T09:10:18.991Z</time></trkpt><trkpt lat="45.7172926" lon="9.8832185"><ele>320.0</ele><time>2026-05-03T09:10:20.98Z</time></trkpt><trkpt lat="45.7172283" lon="9.8831188"><ele>322.0</ele><time>2026-05-03T09:10:22.969Z</time></trkpt><trkpt lat="45.7171637" lon="9.8830024"><ele>324.0</ele><time>2026-05-03T09:10:24.956Z</time></trkpt><trkpt lat="45.7171083" lon="9.8828771"><ele>324.0</ele><time>2026-05-03T09:10:26.975Z</time></trkpt><trkpt lat="45.7170576" lon="9.8827495"><ele>324.0</ele><time>2026-05-03T09:10:28.975Z</time></trkpt><trkpt lat="45.717012" lon="9.882614"><ele>324.0</ele><time>2026-05-03T09:10:31.031Z</time></trkpt><trkpt lat="45.7169767" lon="9.8824828"><ele>324.0</ele><time>2026-05-03T09:10:32.972Z</time></trkpt><trkpt lat="45.7169499" lon="9.8823487"><ele>324.0</ele><time>2026-05-03T09:10:34.983Z</time></trkpt><trkpt lat="45.7169318" lon="9.8822009"><ele>325.0</ele><time>2026-05-03T09:10:36.976Z</time></trkpt><trkpt lat="45.7169183" lon="9.8820595"><ele>326.0</ele><time>2026-05-03T09:10:39.045Z</time></trkpt><trkpt lat="45.7169079" lon="9.8819208"><ele>327.0</ele><time>2026-05-03T09:10:41.031Z</time></trkpt><trkpt lat="45.7168874" lon="9.8817947"><ele>328.0</ele><time>2026-05-03T09:10:42.98Z</time></trkpt><trkpt lat="45.7168759" lon="9.8816818"><ele>329.0</ele><time>2026-05-03T09:10:44.978Z</time></trkpt><trkpt lat="45.716855" lon="9.8815422"><ele>327.1666666666667</ele><time>2026-05-03T09:10:46.974Z</time></trkpt><trkpt lat="45.7168431" lon="9.8814134"><ele>325.33333333333337</ele><time>2026-05-03T09:10:49.076Z</time></trkpt><trkpt lat="45.7168358" lon="9.8812943"><ele>323.5</ele><time>2026-05-03T09:10:50.986Z</time></trkpt><trkpt lat="45.7168167" lon="9.88118"><ele>321.6666666666667</ele><time>2026-05-03T09:10:52.973Z</time></trkpt><trkpt lat="45.7168044" lon="9.8810695"><ele>319.8333333333333</ele><time>2026-05-03T09:10:55.086Z</time></trkpt><trkpt lat="45.7167945" lon="9.8809423"><ele>318.0</ele><time>2026-05-03T09:10:56.97Z</time></trkpt><trkpt lat="45.7167783" lon="9.8808266"><ele>318.0</ele><time>2026-05-03T09:10:58.972Z</time></trkpt><trkpt lat="45.7167696" lon="9.8807227"><ele>318.0</ele><time>2026-05-03T09:11:00.975Z</time></trkpt><trkpt lat="45.716753" lon="9.8806145"><ele>318.0</ele><time>2026-05-03T09:11:02.969Z</time></trkpt><trkpt lat="45.71673" lon="9.8804915"><ele>318.0</ele><time>2026-05-03T09:11:04.956Z</time></trkpt><trkpt lat="45.7167126" lon="9.8803734"><ele>318.0</ele><time>2026-05-03T09:11:06.961Z</time></trkpt><trkpt lat="45.7166917" lon="9.880257"><ele>318.0</ele><time>2026-05-03T09:11:08.973Z</time></trkpt><trkpt lat="45.716716" lon="9.8801429"><ele>318.0</ele><time>2026-05-03T09:11:10.944Z</time></trkpt><trkpt lat="45.7167495" lon="9.8800318"><ele>318.0</ele><time>2026-05-03T09:11:12.957Z</time></trkpt><trkpt lat="45.716775" lon="9.8799182"><ele>318.0</ele><time>2026-05-03T09:11:14.998Z</time></trkpt><trkpt lat="45.7168085" lon="9.8797986"><ele>318.0</ele><time>2026-05-03T09:11:16.972Z</time></trkpt><trkpt lat="45.7168395" lon="9.8796971"><ele>318.0</ele><time>2026-05-03T09:11:18.97Z</time></trkpt><trkpt lat="45.7168804" lon="9.8796095"><ele>318.0</ele><time>2026-05-03T09:11:21.045Z</time></trkpt><trkpt lat="45.7169194" lon="9.8795225"><ele>320.6666666666667</ele><time>2026-05-03T09:11:22.984Z</time></trkpt><trkpt lat="45.7169594" lon="9.8794389"><ele>323.3333333333333</ele><time>2026-05-03T09:11:24.983Z</time></trkpt><trkpt lat="45.7170129" lon="9.8793456"><ele>326.0</ele><time>2026-05-03T09:11:27.986Z</time></trkpt><trkpt lat="45.7170573" lon="9.8792493"><ele>328.66666666666663</ele><time>2026-05-03T09:11:30.965Z</time></trkpt><trkpt lat="45.7170994" lon="9.8791368"><ele>331.3333333333333</ele><time>2026-05-03T09:11:33.993Z</time></trkpt><trkpt lat="45.717127" lon="9.8790532"><ele>334.0</ele><time>2026-05-03T09:11:35.974Z</time></trkpt><trkpt lat="45.7171598" lon="9.8789351"><ele>334.3333333333333</ele><time>2026-05-03T09:11:39.036Z</time></trkpt><trkpt lat="45.7171885" lon="9.8788113"><ele>334.66666666666663</ele><time>2026-05-03T09:11:41.965Z</time></trkpt><trkpt lat="45.7172311" lon="9.8787089"><ele>335.0</ele><time>2026-05-03T09:11:45.031Z</time></trkpt><trkpt lat="45.7172673" lon="9.8785988"><ele>335.3333333333333</ele><time>2026-05-03T09:11:47.971Z</time></trkpt><trkpt lat="45.7172985" lon="9.8784889"><ele>335.6666666666667</ele><time>2026-05-03T09:11:50.98Z</time></trkpt><trkpt lat="45.717356" lon="9.8783854"><ele>336.0</ele><time>2026-05-03T09:11:53.97Z</time></trkpt><trkpt lat="45.7174007" lon="9.8782757"><ele>335.1666666666667</ele><time>2026-05-03T09:11:56.969Z</time></trkpt><trkpt lat="45.7174559" lon="9.8781851"><ele>334.3333333333333</ele><time>2026-05-03T09:11:59.967Z</time></trkpt><trkpt lat="45.717513" lon="9.8780846"><ele>333.5</ele><time>2026-05-03T09:12:03.028Z</time></trkpt><trkpt lat="45.7175646" lon="9.8779925"><ele>332.66666666666663</ele><time>2026-05-03T09:12:05.975Z</time></trkpt><trkpt lat="45.7176178" lon="9.8778969"><ele>331.8333333333333</ele><time>2026-05-03T09:12:08.98Z</time></trkpt><trkpt lat="45.7176746" lon="9.8778156"><ele>331.0</ele><time>2026-05-03T09:12:11.984Z</time></trkpt><trkpt lat="45.717739" lon="9.877717"><ele>334.2857142857143</ele><time>2026-05-03T09:12:14.977Z</time></trkpt><trkpt lat="45.7178072" lon="9.8776613"><ele>337.57142857142856</ele><time>2026-05-03T09:12:17.979Z</time></trkpt><trkpt lat="45.7178624" lon="9.8776172"><ele>340.8571428571429</ele><time>2026-05-03T09:12:20.973Z</time></trkpt><trkpt lat="45.7179333" lon="9.8776108"><ele>344.1428571428571</ele><time>2026-05-03T09:12:24.027Z</time></trkpt><trkpt lat="45.71801" lon="9.8776231"><ele>347.4285714285714</ele><time>2026-05-03T09:12:27.969Z</time></trkpt><trkpt lat="45.7180816" lon="9.8776506"><ele>350.7142857142857</ele><time>2026-05-03T09:12:30.965Z</time></trkpt><trkpt lat="45.7181497" lon="9.8776833"><ele>354.0</ele><time>2026-05-03T09:12:33.973Z</time></trkpt><trkpt lat="45.7182185" lon="9.8776973"><ele>354.0</ele><time>2026-05-03T09:12:36.966Z</time></trkpt><trkpt lat="45.7182839" lon="9.8777077"><ele>354.0</ele><time>2026-05-03T09:12:39.948Z</time></trkpt><trkpt lat="45.7183472" lon="9.8777114"><ele>354.0</ele><time>2026-05-03T09:12:42.995Z</time></trkpt><trkpt lat="45.718421" lon="9.8776959"><ele>354.0</ele><time>2026-05-03T09:12:45.943Z</time></trkpt><trkpt lat="45.7184898" lon="9.8776538"><ele>354.0</ele><time>2026-05-03T09:12:49.971Z</time></trkpt><trkpt lat="45.7185604" lon="9.8776167"><ele>354.0</ele><time>2026-05-03T09:12:52.975Z</time></trkpt><trkpt lat="45.7186257" lon="9.8776483"><ele>354.0</ele><time>2026-05-03T09:12:55.973Z</time></trkpt><trkpt lat="45.7186231" lon="9.8777495"><ele>354.0</ele><time>2026-05-03T09:12:59.996Z</time></trkpt><trkpt lat="45.7186092" lon="9.8778508"><ele>354.0</ele><time>2026-05-03T09:13:03.981Z</time></trkpt><trkpt lat="45.7185974" lon="9.8779402"><ele>354.0</ele><time>2026-05-03T09:13:06.961Z</time></trkpt><trkpt lat="45.7185769" lon="9.8780305"><ele>354.0</ele><time>2026-05-03T09:13:09.983Z</time></trkpt><trkpt lat="45.7185559" lon="9.8781477"><ele>354.0</ele><time>2026-05-03T09:13:13.98Z</time></trkpt><trkpt lat="45.7185356" lon="9.8782409"><ele>354.0</ele><time>2026-05-03T09:13:16.964Z</time></trkpt><trkpt lat="45.7185128" lon="9.8783274"><ele>354.0</ele><time>2026-05-03T09:13:20.024Z</time></trkpt><trkpt lat="45.7184984" lon="9.8784362"><ele>354.6666666666667</ele><time>2026-05-03T09:13:23.976Z</time></trkpt><trkpt lat="45.7184909" lon="9.8785266"><ele>355.3333333333333</ele><time>2026-05-03T09:13:26.97Z</time></trkpt><trkpt lat="45.7184696" lon="9.8786297"><ele>356.0</ele><time>2026-05-03T09:13:30.952Z</time></trkpt><trkpt lat="45.7183844" lon="9.8786375"><ele>356.66666666666663</ele><time>2026-05-03T09:13:58.957Z</time></trkpt><trkpt lat="45.7183623" lon="9.8787443"><ele>357.3333333333333</ele><time>2026-05-03T09:14:01.959Z</time></trkpt><trkpt lat="45.7184012" lon="9.8788455"><ele>358.0</ele><time>2026-05-03T09:14:04.949Z</time></trkpt><trkpt lat="45.7183369" lon="9.8788066"><ele>358.0</ele><time>2026-05-03T09:14:07.945Z</time></trkpt><trkpt lat="45.7183347" lon="9.8786963"><ele>358.0</ele><time>2026-05-03T09:14:08.95Z</time></trkpt><trkpt lat="45.7183195" lon="9.8786035"><ele>358.0</ele><time>2026-05-03T09:14:14.985Z</time></trkpt><trkpt lat="45.7183807" lon="9.8786499"><ele>358.0</ele><time>2026-05-03T09:14:58.963Z</time></trkpt><trkpt lat="45.7183926" lon="9.8787893"><ele>358.0</ele><time>2026-05-03T09:15:17.973Z</time></trkpt><trkpt lat="45.718315" lon="9.8787205"><ele>358.0</ele><time>2026-05-03T09:15:20.968Z</time></trkpt><trkpt lat="45.7183063" lon="9.8785282"><ele>357.0</ele><time>2026-05-03T09:15:45.973Z</time></trkpt><trkpt lat="45.7183159" lon="9.8784286"><ele>356.0</ele><time>2026-05-03T09:15:46.954Z</time></trkpt><trkpt lat="45.718368" lon="9.8781775"><ele>355.0</ele><time>2026-05-03T09:15:48.951Z</time></trkpt><trkpt lat="45.7184018" lon="9.8780341"><ele>354.0</ele><time>2026-05-03T09:15:49.947Z</time></trkpt><trkpt lat="45.7184571" lon="9.8778495"><ele>354.0</ele><time>2026-05-03T09:15:50.959Z</time></trkpt><trkpt lat="45.7184581" lon="9.8777024"><ele>354.0</ele><time>2026-05-03T09:15:51.951Z</time></trkpt></trkseg></trk></gpx>